<?xml version="1.0" encoding="UTF-8" standalone="no" ?>
<gpx xmlns="http://www.topografix.com/GPX/1/1" xmlns:xsi="http://www.w3.org/2001/XMLSchema-instance" xsi:schemaLocation="http://www.topografix.com/GPX/1/1 http://www.topografix.com/GPX/1/1/gpx.xsd" version="1.1" creator="VisuGPX - https://www.visugpx.com">
  <metadata>
    <name>SACROUX et GLERE</name>
    <desc><![CDATA[Pic de Sacroux et pic de la Glère (PD) depuis l\'hospice de France]]></desc>
  </metadata>
  <trk>
    <name><![CDATA[2015-11-01 17:41:02]]></name>
    <trkseg>
      <trkpt lat="42.72128" lon="0.6536">
        <ele>1427.68</ele>
        <time>2015-11-01T06:38:38Z</time>
      </trkpt>
      <trkpt lat="42.72132" lon="0.65356">
        <ele>1427.24</ele>
        <time>2015-11-01T06:39:14Z</time>
      </trkpt>
      <trkpt lat="42.72163" lon="0.65361">
        <ele>1427.55</ele>
        <time>2015-11-01T06:39:46Z</time>
      </trkpt>
      <trkpt lat="42.72163" lon="0.65362">
        <ele>1427.53</ele>
        <time>2015-11-01T06:40:13Z</time>
      </trkpt>
      <trkpt lat="42.72163" lon="0.65364">
        <ele>1427.43</ele>
        <time>2015-11-01T06:40:37Z</time>
      </trkpt>
      <trkpt lat="42.72157" lon="0.65364">
        <ele>1427.77</ele>
        <time>2015-11-01T06:40:57Z</time>
      </trkpt>
      <trkpt lat="42.72155" lon="0.65364">
        <ele>1427.46</ele>
        <time>2015-11-01T06:41:23Z</time>
      </trkpt>
      <trkpt lat="42.72156" lon="0.65362">
        <ele>1427.04</ele>
        <time>2015-11-01T06:41:51Z</time>
      </trkpt>
      <trkpt lat="42.72153" lon="0.65365">
        <ele>1427.07</ele>
        <time>2015-11-01T06:42:20Z</time>
      </trkpt>
      <trkpt lat="42.72155" lon="0.65363">
        <ele>1427.11</ele>
        <time>2015-11-01T06:42:47Z</time>
      </trkpt>
      <trkpt lat="42.72161" lon="0.6536">
        <ele>1426.18</ele>
        <time>2015-11-01T06:43:04Z</time>
      </trkpt>
      <trkpt lat="42.72165" lon="0.65361">
        <ele>1426.34</ele>
        <time>2015-11-01T06:43:39Z</time>
      </trkpt>
      <trkpt lat="42.72159" lon="0.65359">
        <ele>1426.84</ele>
        <time>2015-11-01T06:44:00Z</time>
      </trkpt>
      <trkpt lat="42.72155" lon="0.65361">
        <ele>1426.82</ele>
        <time>2015-11-01T06:44:22Z</time>
      </trkpt>
      <trkpt lat="42.72153" lon="0.65364">
        <ele>1426.7</ele>
        <time>2015-11-01T06:44:43Z</time>
      </trkpt>
      <trkpt lat="42.7215" lon="0.65361">
        <ele>1426.63</ele>
        <time>2015-11-01T06:45:09Z</time>
      </trkpt>
      <trkpt lat="42.72146" lon="0.65365">
        <ele>1426.77</ele>
        <time>2015-11-01T06:45:37Z</time>
      </trkpt>
      <trkpt lat="42.72138" lon="0.65374">
        <ele>1427.13</ele>
        <time>2015-11-01T06:45:54Z</time>
      </trkpt>
      <trkpt lat="42.72132" lon="0.65393">
        <ele>1427.42</ele>
        <time>2015-11-01T06:46:11Z</time>
      </trkpt>
      <trkpt lat="42.72128" lon="0.65411">
        <ele>1428.76</ele>
        <time>2015-11-01T06:46:28Z</time>
      </trkpt>
      <trkpt lat="42.72112" lon="0.65426">
        <ele>1431.82</ele>
        <time>2015-11-01T06:46:47Z</time>
      </trkpt>
      <trkpt lat="42.721" lon="0.65444">
        <ele>1434.86</ele>
        <time>2015-11-01T06:47:05Z</time>
      </trkpt>
      <trkpt lat="42.721" lon="0.65445">
        <ele>1435.03</ele>
        <time>2015-11-01T06:47:06Z</time>
      </trkpt>
      <trkpt lat="42.72097" lon="0.65461">
        <ele>1436.46</ele>
        <time>2015-11-01T06:47:17Z</time>
      </trkpt>
      <trkpt lat="42.72093" lon="0.65471">
        <ele>1436.98</ele>
        <time>2015-11-01T06:47:24Z</time>
      </trkpt>
      <trkpt lat="42.7209" lon="0.65477">
        <ele>1437.37</ele>
        <time>2015-11-01T06:47:29Z</time>
      </trkpt>
      <trkpt lat="42.72089" lon="0.65482">
        <ele>1437.47</ele>
        <time>2015-11-01T06:47:33Z</time>
      </trkpt>
      <trkpt lat="42.72079" lon="0.65496">
        <ele>1437.2</ele>
        <time>2015-11-01T06:47:48Z</time>
      </trkpt>
      <trkpt lat="42.72066" lon="0.6549">
        <ele>1435.08</ele>
        <time>2015-11-01T06:48:00Z</time>
      </trkpt>
      <trkpt lat="42.72063" lon="0.65487">
        <ele>1434.21</ele>
        <time>2015-11-01T06:48:05Z</time>
      </trkpt>
      <trkpt lat="42.7205" lon="0.65466">
        <ele>1431.21</ele>
        <time>2015-11-01T06:48:23Z</time>
      </trkpt>
      <trkpt lat="42.72046" lon="0.6546">
        <ele>1430.66</ele>
        <time>2015-11-01T06:48:28Z</time>
      </trkpt>
      <trkpt lat="42.72033" lon="0.65448">
        <ele>1431.01</ele>
        <time>2015-11-01T06:48:42Z</time>
      </trkpt>
      <trkpt lat="42.72033" lon="0.65446">
        <ele>1431.24</ele>
        <time>2015-11-01T06:48:44Z</time>
      </trkpt>
      <trkpt lat="42.7202" lon="0.6544">
        <ele>1434.26</ele>
        <time>2015-11-01T06:49:00Z</time>
      </trkpt>
      <trkpt lat="42.72012" lon="0.65437">
        <ele>1436.41</ele>
        <time>2015-11-01T06:49:11Z</time>
      </trkpt>
      <trkpt lat="42.71998" lon="0.65421">
        <ele>1438.81</ele>
        <time>2015-11-01T06:49:27Z</time>
      </trkpt>
      <trkpt lat="42.71995" lon="0.65407">
        <ele>1441.88</ele>
        <time>2015-11-01T06:49:40Z</time>
      </trkpt>
      <trkpt lat="42.71979" lon="0.654">
        <ele>1444.68</ele>
        <time>2015-11-01T06:50:03Z</time>
      </trkpt>
      <trkpt lat="42.71963" lon="0.65397">
        <ele>1447.75</ele>
        <time>2015-11-01T06:50:24Z</time>
      </trkpt>
      <trkpt lat="42.71954" lon="0.65392">
        <ele>1450.77</ele>
        <time>2015-11-01T06:50:38Z</time>
      </trkpt>
      <trkpt lat="42.7194" lon="0.65383">
        <ele>1453.96</ele>
        <time>2015-11-01T06:50:55Z</time>
      </trkpt>
      <trkpt lat="42.71929" lon="0.65378">
        <ele>1457.09</ele>
        <time>2015-11-01T06:51:10Z</time>
      </trkpt>
      <trkpt lat="42.71919" lon="0.65374">
        <ele>1460.1</ele>
        <time>2015-11-01T06:51:24Z</time>
      </trkpt>
      <trkpt lat="42.71906" lon="0.65375">
        <ele>1463.25</ele>
        <time>2015-11-01T06:51:40Z</time>
      </trkpt>
      <trkpt lat="42.71893" lon="0.65382">
        <ele>1464.4</ele>
        <time>2015-11-01T06:51:51Z</time>
      </trkpt>
      <trkpt lat="42.7187" lon="0.65384">
        <ele>1466.92</ele>
        <time>2015-11-01T06:52:13Z</time>
      </trkpt>
      <trkpt lat="42.71852" lon="0.65369">
        <ele>1468.29</ele>
        <time>2015-11-01T06:52:32Z</time>
      </trkpt>
      <trkpt lat="42.7185" lon="0.65367">
        <ele>1468.33</ele>
        <time>2015-11-01T06:52:34Z</time>
      </trkpt>
      <trkpt lat="42.71837" lon="0.65352">
        <ele>1468.02</ele>
        <time>2015-11-01T06:52:49Z</time>
      </trkpt>
      <trkpt lat="42.71831" lon="0.65349">
        <ele>1468.01</ele>
        <time>2015-11-01T06:52:54Z</time>
      </trkpt>
      <trkpt lat="42.71829" lon="0.65347">
        <ele>1468.03</ele>
        <time>2015-11-01T06:52:56Z</time>
      </trkpt>
      <trkpt lat="42.71813" lon="0.65338">
        <ele>1468.89</ele>
        <time>2015-11-01T06:53:08Z</time>
      </trkpt>
      <trkpt lat="42.71807" lon="0.65334">
        <ele>1469.04</ele>
        <time>2015-11-01T06:53:13Z</time>
      </trkpt>
      <trkpt lat="42.71803" lon="0.65331">
        <ele>1469.22</ele>
        <time>2015-11-01T06:53:16Z</time>
      </trkpt>
      <trkpt lat="42.71791" lon="0.65318">
        <ele>1470</ele>
        <time>2015-11-01T06:53:29Z</time>
      </trkpt>
      <trkpt lat="42.71782" lon="0.65298">
        <ele>1471.56</ele>
        <time>2015-11-01T06:53:44Z</time>
      </trkpt>
      <trkpt lat="42.7178" lon="0.65299">
        <ele>1471.75</ele>
        <time>2015-11-01T06:53:56Z</time>
      </trkpt>
      <trkpt lat="42.71785" lon="0.65297">
        <ele>1472.07</ele>
        <time>2015-11-01T06:54:24Z</time>
      </trkpt>
      <trkpt lat="42.71783" lon="0.65292">
        <ele>1471.68</ele>
        <time>2015-11-01T06:54:46Z</time>
      </trkpt>
      <trkpt lat="42.71763" lon="0.65274">
        <ele>1474.13</ele>
        <time>2015-11-01T06:55:07Z</time>
      </trkpt>
      <trkpt lat="42.71748" lon="0.65266">
        <ele>1475.84</ele>
        <time>2015-11-01T06:55:20Z</time>
      </trkpt>
      <trkpt lat="42.71733" lon="0.65259">
        <ele>1477.64</ele>
        <time>2015-11-01T06:55:35Z</time>
      </trkpt>
      <trkpt lat="42.71718" lon="0.65253">
        <ele>1478.52</ele>
        <time>2015-11-01T06:55:48Z</time>
      </trkpt>
      <trkpt lat="42.71705" lon="0.65247">
        <ele>1479.57</ele>
        <time>2015-11-01T06:56:07Z</time>
      </trkpt>
      <trkpt lat="42.71705" lon="0.65245">
        <ele>1479.55</ele>
        <time>2015-11-01T06:56:08Z</time>
      </trkpt>
      <trkpt lat="42.71691" lon="0.65235">
        <ele>1480.09</ele>
        <time>2015-11-01T06:56:21Z</time>
      </trkpt>
      <trkpt lat="42.71671" lon="0.65229">
        <ele>1480.68</ele>
        <time>2015-11-01T06:56:38Z</time>
      </trkpt>
      <trkpt lat="42.71655" lon="0.65226">
        <ele>1481.61</ele>
        <time>2015-11-01T06:56:52Z</time>
      </trkpt>
      <trkpt lat="42.71652" lon="0.65227">
        <ele>1481.71</ele>
        <time>2015-11-01T06:56:54Z</time>
      </trkpt>
      <trkpt lat="42.7164" lon="0.65224">
        <ele>1482.49</ele>
        <time>2015-11-01T06:57:06Z</time>
      </trkpt>
      <trkpt lat="42.71631" lon="0.65218">
        <ele>1483.64</ele>
        <time>2015-11-01T06:57:16Z</time>
      </trkpt>
      <trkpt lat="42.71621" lon="0.65211">
        <ele>1484.99</ele>
        <time>2015-11-01T06:57:26Z</time>
      </trkpt>
      <trkpt lat="42.7161" lon="0.65199">
        <ele>1486.61</ele>
        <time>2015-11-01T06:57:39Z</time>
      </trkpt>
      <trkpt lat="42.71607" lon="0.65196">
        <ele>1486.94</ele>
        <time>2015-11-01T06:57:42Z</time>
      </trkpt>
      <trkpt lat="42.71605" lon="0.65193">
        <ele>1487.39</ele>
        <time>2015-11-01T06:57:45Z</time>
      </trkpt>
      <trkpt lat="42.71595" lon="0.65186">
        <ele>1488.85</ele>
        <time>2015-11-01T06:57:55Z</time>
      </trkpt>
      <trkpt lat="42.71589" lon="0.65175">
        <ele>1490.25</ele>
        <time>2015-11-01T06:58:05Z</time>
      </trkpt>
      <trkpt lat="42.71591" lon="0.65157">
        <ele>1490.81</ele>
        <time>2015-11-01T06:58:23Z</time>
      </trkpt>
      <trkpt lat="42.7161" lon="0.6515">
        <ele>1490.38</ele>
        <time>2015-11-01T06:58:43Z</time>
      </trkpt>
      <trkpt lat="42.71632" lon="0.65141">
        <ele>1489.1</ele>
        <time>2015-11-01T06:59:02Z</time>
      </trkpt>
      <trkpt lat="42.71649" lon="0.65132">
        <ele>1489.16</ele>
        <time>2015-11-01T06:59:19Z</time>
      </trkpt>
      <trkpt lat="42.71657" lon="0.65116">
        <ele>1489.4</ele>
        <time>2015-11-01T06:59:31Z</time>
      </trkpt>
      <trkpt lat="42.71667" lon="0.65106">
        <ele>1489.88</ele>
        <time>2015-11-01T06:59:43Z</time>
      </trkpt>
      <trkpt lat="42.71673" lon="0.65095">
        <ele>1490.35</ele>
        <time>2015-11-01T06:59:57Z</time>
      </trkpt>
      <trkpt lat="42.71674" lon="0.65093">
        <ele>1490.52</ele>
        <time>2015-11-01T06:59:59Z</time>
      </trkpt>
      <trkpt lat="42.71695" lon="0.65087">
        <ele>1491.67</ele>
        <time>2015-11-01T07:00:14Z</time>
      </trkpt>
      <trkpt lat="42.71696" lon="0.65085">
        <ele>1491.83</ele>
        <time>2015-11-01T07:00:16Z</time>
      </trkpt>
      <trkpt lat="42.717" lon="0.65081">
        <ele>1492.14</ele>
        <time>2015-11-01T07:00:19Z</time>
      </trkpt>
      <trkpt lat="42.71703" lon="0.65079">
        <ele>1492.36</ele>
        <time>2015-11-01T07:00:21Z</time>
      </trkpt>
      <trkpt lat="42.71708" lon="0.65076">
        <ele>1492.6</ele>
        <time>2015-11-01T07:00:24Z</time>
      </trkpt>
      <trkpt lat="42.71714" lon="0.65075">
        <ele>1492.91</ele>
        <time>2015-11-01T07:00:27Z</time>
      </trkpt>
      <trkpt lat="42.7172" lon="0.65073">
        <ele>1493.2</ele>
        <time>2015-11-01T07:00:31Z</time>
      </trkpt>
      <trkpt lat="42.71725" lon="0.65071">
        <ele>1493.45</ele>
        <time>2015-11-01T07:00:34Z</time>
      </trkpt>
      <trkpt lat="42.71735" lon="0.65065">
        <ele>1494.03</ele>
        <time>2015-11-01T07:00:42Z</time>
      </trkpt>
      <trkpt lat="42.71751" lon="0.65057">
        <ele>1494.86</ele>
        <time>2015-11-01T07:00:53Z</time>
      </trkpt>
      <trkpt lat="42.71758" lon="0.65052">
        <ele>1495.15</ele>
        <time>2015-11-01T07:00:59Z</time>
      </trkpt>
      <trkpt lat="42.71764" lon="0.65046">
        <ele>1495.15</ele>
        <time>2015-11-01T07:01:04Z</time>
      </trkpt>
      <trkpt lat="42.71769" lon="0.65043">
        <ele>1494.97</ele>
        <time>2015-11-01T07:01:11Z</time>
      </trkpt>
      <trkpt lat="42.71772" lon="0.6504">
        <ele>1495.17</ele>
        <time>2015-11-01T07:01:14Z</time>
      </trkpt>
      <trkpt lat="42.71776" lon="0.65038">
        <ele>1495.52</ele>
        <time>2015-11-01T07:01:18Z</time>
      </trkpt>
      <trkpt lat="42.71779" lon="0.65033">
        <ele>1495.66</ele>
        <time>2015-11-01T07:01:23Z</time>
      </trkpt>
      <trkpt lat="42.71779" lon="0.6503">
        <ele>1495.66</ele>
        <time>2015-11-01T07:01:25Z</time>
      </trkpt>
      <trkpt lat="42.71776" lon="0.6502">
        <ele>1495.98</ele>
        <time>2015-11-01T07:01:33Z</time>
      </trkpt>
      <trkpt lat="42.71788" lon="0.65001">
        <ele>1497.81</ele>
        <time>2015-11-01T07:01:51Z</time>
      </trkpt>
      <trkpt lat="42.71789" lon="0.64997">
        <ele>1498.34</ele>
        <time>2015-11-01T07:01:56Z</time>
      </trkpt>
      <trkpt lat="42.71797" lon="0.6499">
        <ele>1498.94</ele>
        <time>2015-11-01T07:02:03Z</time>
      </trkpt>
      <trkpt lat="42.71801" lon="0.64987">
        <ele>1499.05</ele>
        <time>2015-11-01T07:02:06Z</time>
      </trkpt>
      <trkpt lat="42.71803" lon="0.64982">
        <ele>1499.2</ele>
        <time>2015-11-01T07:02:11Z</time>
      </trkpt>
      <trkpt lat="42.71804" lon="0.64979">
        <ele>1499.31</ele>
        <time>2015-11-01T07:02:13Z</time>
      </trkpt>
      <trkpt lat="42.71805" lon="0.64961">
        <ele>1499.19</ele>
        <time>2015-11-01T07:02:25Z</time>
      </trkpt>
      <trkpt lat="42.71807" lon="0.64957">
        <ele>1498.98</ele>
        <time>2015-11-01T07:02:29Z</time>
      </trkpt>
      <trkpt lat="42.71808" lon="0.64948">
        <ele>1499.05</ele>
        <time>2015-11-01T07:02:36Z</time>
      </trkpt>
      <trkpt lat="42.71809" lon="0.64942">
        <ele>1499.11</ele>
        <time>2015-11-01T07:02:39Z</time>
      </trkpt>
      <trkpt lat="42.71812" lon="0.6493">
        <ele>1498.94</ele>
        <time>2015-11-01T07:02:46Z</time>
      </trkpt>
      <trkpt lat="42.71814" lon="0.64919">
        <ele>1498.87</ele>
        <time>2015-11-01T07:02:52Z</time>
      </trkpt>
      <trkpt lat="42.71811" lon="0.64909">
        <ele>1499.38</ele>
        <time>2015-11-01T07:02:59Z</time>
      </trkpt>
      <trkpt lat="42.71812" lon="0.64894">
        <ele>1501.32</ele>
        <time>2015-11-01T07:03:12Z</time>
      </trkpt>
      <trkpt lat="42.71813" lon="0.64885">
        <ele>1502.83</ele>
        <time>2015-11-01T07:03:19Z</time>
      </trkpt>
      <trkpt lat="42.71814" lon="0.64878">
        <ele>1504.21</ele>
        <time>2015-11-01T07:03:25Z</time>
      </trkpt>
      <trkpt lat="42.71818" lon="0.64862">
        <ele>1505.99</ele>
        <time>2015-11-01T07:03:37Z</time>
      </trkpt>
      <trkpt lat="42.71823" lon="0.64855">
        <ele>1506.15</ele>
        <time>2015-11-01T07:03:43Z</time>
      </trkpt>
      <trkpt lat="42.71821" lon="0.64852">
        <ele>1506.04</ele>
        <time>2015-11-01T07:03:46Z</time>
      </trkpt>
      <trkpt lat="42.71819" lon="0.64849">
        <ele>1505.92</ele>
        <time>2015-11-01T07:03:48Z</time>
      </trkpt>
      <trkpt lat="42.7182" lon="0.64841">
        <ele>1504.87</ele>
        <time>2015-11-01T07:03:55Z</time>
      </trkpt>
      <trkpt lat="42.71821" lon="0.6484">
        <ele>1504.66</ele>
        <time>2015-11-01T07:03:57Z</time>
      </trkpt>
      <trkpt lat="42.71829" lon="0.64831">
        <ele>1504.11</ele>
        <time>2015-11-01T07:04:05Z</time>
      </trkpt>
      <trkpt lat="42.71833" lon="0.6482">
        <ele>1504.16</ele>
        <time>2015-11-01T07:04:13Z</time>
      </trkpt>
      <trkpt lat="42.71837" lon="0.64814">
        <ele>1504.86</ele>
        <time>2015-11-01T07:04:18Z</time>
      </trkpt>
      <trkpt lat="42.71839" lon="0.64804">
        <ele>1505.25</ele>
        <time>2015-11-01T07:04:23Z</time>
      </trkpt>
      <trkpt lat="42.7184" lon="0.64797">
        <ele>1505.39</ele>
        <time>2015-11-01T07:04:28Z</time>
      </trkpt>
      <trkpt lat="42.7184" lon="0.64788">
        <ele>1505.72</ele>
        <time>2015-11-01T07:04:34Z</time>
      </trkpt>
      <trkpt lat="42.71841" lon="0.64779">
        <ele>1506.04</ele>
        <time>2015-11-01T07:04:39Z</time>
      </trkpt>
      <trkpt lat="42.71842" lon="0.6477">
        <ele>1506.24</ele>
        <time>2015-11-01T07:04:46Z</time>
      </trkpt>
      <trkpt lat="42.71846" lon="0.64764">
        <ele>1506.36</ele>
        <time>2015-11-01T07:04:50Z</time>
      </trkpt>
      <trkpt lat="42.71848" lon="0.64761">
        <ele>1506.31</ele>
        <time>2015-11-01T07:04:52Z</time>
      </trkpt>
      <trkpt lat="42.71858" lon="0.6475">
        <ele>1505.74</ele>
        <time>2015-11-01T07:05:02Z</time>
      </trkpt>
      <trkpt lat="42.71858" lon="0.64749">
        <ele>1505.74</ele>
        <time>2015-11-01T07:05:03Z</time>
      </trkpt>
      <trkpt lat="42.71862" lon="0.64739">
        <ele>1507.07</ele>
        <time>2015-11-01T07:05:10Z</time>
      </trkpt>
      <trkpt lat="42.71862" lon="0.64736">
        <ele>1507.24</ele>
        <time>2015-11-01T07:05:12Z</time>
      </trkpt>
      <trkpt lat="42.71862" lon="0.6473">
        <ele>1507.62</ele>
        <time>2015-11-01T07:05:16Z</time>
      </trkpt>
      <trkpt lat="42.71864" lon="0.64725">
        <ele>1508.07</ele>
        <time>2015-11-01T07:05:19Z</time>
      </trkpt>
      <trkpt lat="42.71871" lon="0.64718">
        <ele>1508.84</ele>
        <time>2015-11-01T07:05:27Z</time>
      </trkpt>
      <trkpt lat="42.71878" lon="0.647">
        <ele>1509.62</ele>
        <time>2015-11-01T07:05:38Z</time>
      </trkpt>
      <trkpt lat="42.71881" lon="0.64684">
        <ele>1510.01</ele>
        <time>2015-11-01T07:05:50Z</time>
      </trkpt>
      <trkpt lat="42.71882" lon="0.64674">
        <ele>1510.72</ele>
        <time>2015-11-01T07:05:59Z</time>
      </trkpt>
      <trkpt lat="42.71882" lon="0.64669">
        <ele>1511.09</ele>
        <time>2015-11-01T07:06:04Z</time>
      </trkpt>
      <trkpt lat="42.71885" lon="0.64653">
        <ele>1511.36</ele>
        <time>2015-11-01T07:06:13Z</time>
      </trkpt>
      <trkpt lat="42.71885" lon="0.64647">
        <ele>1511.63</ele>
        <time>2015-11-01T07:06:17Z</time>
      </trkpt>
      <trkpt lat="42.71887" lon="0.64643">
        <ele>1511.88</ele>
        <time>2015-11-01T07:06:19Z</time>
      </trkpt>
      <trkpt lat="42.71891" lon="0.64633">
        <ele>1512.71</ele>
        <time>2015-11-01T07:06:28Z</time>
      </trkpt>
      <trkpt lat="42.71892" lon="0.64627">
        <ele>1512.94</ele>
        <time>2015-11-01T07:06:31Z</time>
      </trkpt>
      <trkpt lat="42.71897" lon="0.64619">
        <ele>1513.31</ele>
        <time>2015-11-01T07:06:38Z</time>
      </trkpt>
      <trkpt lat="42.719" lon="0.64612">
        <ele>1513.45</ele>
        <time>2015-11-01T07:06:41Z</time>
      </trkpt>
      <trkpt lat="42.71903" lon="0.64601">
        <ele>1513.36</ele>
        <time>2015-11-01T07:06:47Z</time>
      </trkpt>
      <trkpt lat="42.71907" lon="0.64596">
        <ele>1513.24</ele>
        <time>2015-11-01T07:06:50Z</time>
      </trkpt>
      <trkpt lat="42.71909" lon="0.64592">
        <ele>1513.13</ele>
        <time>2015-11-01T07:06:54Z</time>
      </trkpt>
      <trkpt lat="42.71913" lon="0.64589">
        <ele>1513.1</ele>
        <time>2015-11-01T07:06:57Z</time>
      </trkpt>
      <trkpt lat="42.71917" lon="0.64575">
        <ele>1512.58</ele>
        <time>2015-11-01T07:07:11Z</time>
      </trkpt>
      <trkpt lat="42.71919" lon="0.6457">
        <ele>1512.6</ele>
        <time>2015-11-01T07:07:16Z</time>
      </trkpt>
      <trkpt lat="42.71919" lon="0.64565">
        <ele>1512.75</ele>
        <time>2015-11-01T07:07:20Z</time>
      </trkpt>
      <trkpt lat="42.71918" lon="0.64551">
        <ele>1512.96</ele>
        <time>2015-11-01T07:07:30Z</time>
      </trkpt>
      <trkpt lat="42.71918" lon="0.64548">
        <ele>1513.07</ele>
        <time>2015-11-01T07:07:32Z</time>
      </trkpt>
      <trkpt lat="42.71918" lon="0.64542">
        <ele>1513.14</ele>
        <time>2015-11-01T07:07:36Z</time>
      </trkpt>
      <trkpt lat="42.71921" lon="0.64533">
        <ele>1513.27</ele>
        <time>2015-11-01T07:07:41Z</time>
      </trkpt>
      <trkpt lat="42.71914" lon="0.64519">
        <ele>1513.51</ele>
        <time>2015-11-01T07:07:53Z</time>
      </trkpt>
      <trkpt lat="42.71914" lon="0.64517">
        <ele>1513.46</ele>
        <time>2015-11-01T07:07:55Z</time>
      </trkpt>
      <trkpt lat="42.7191" lon="0.64508">
        <ele>1514.14</ele>
        <time>2015-11-01T07:08:04Z</time>
      </trkpt>
      <trkpt lat="42.7191" lon="0.64499">
        <ele>1514.28</ele>
        <time>2015-11-01T07:08:09Z</time>
      </trkpt>
      <trkpt lat="42.7191" lon="0.64496">
        <ele>1514.27</ele>
        <time>2015-11-01T07:08:11Z</time>
      </trkpt>
      <trkpt lat="42.71908" lon="0.6449">
        <ele>1514.6</ele>
        <time>2015-11-01T07:08:16Z</time>
      </trkpt>
      <trkpt lat="42.7191" lon="0.64484">
        <ele>1514.98</ele>
        <time>2015-11-01T07:08:21Z</time>
      </trkpt>
      <trkpt lat="42.71905" lon="0.6447">
        <ele>1516.18</ele>
        <time>2015-11-01T07:08:36Z</time>
      </trkpt>
      <trkpt lat="42.71905" lon="0.6446">
        <ele>1516.64</ele>
        <time>2015-11-01T07:08:47Z</time>
      </trkpt>
      <trkpt lat="42.71904" lon="0.64453">
        <ele>1517.02</ele>
        <time>2015-11-01T07:08:51Z</time>
      </trkpt>
      <trkpt lat="42.719" lon="0.64449">
        <ele>1517.12</ele>
        <time>2015-11-01T07:08:55Z</time>
      </trkpt>
      <trkpt lat="42.71898" lon="0.64436">
        <ele>1517.89</ele>
        <time>2015-11-01T07:09:09Z</time>
      </trkpt>
      <trkpt lat="42.71899" lon="0.64427">
        <ele>1518.26</ele>
        <time>2015-11-01T07:09:19Z</time>
      </trkpt>
      <trkpt lat="42.71903" lon="0.64418">
        <ele>1517.93</ele>
        <time>2015-11-01T07:09:24Z</time>
      </trkpt>
      <trkpt lat="42.71907" lon="0.6441">
        <ele>1517.92</ele>
        <time>2015-11-01T07:09:28Z</time>
      </trkpt>
      <trkpt lat="42.71909" lon="0.64404">
        <ele>1518.07</ele>
        <time>2015-11-01T07:09:32Z</time>
      </trkpt>
      <trkpt lat="42.71908" lon="0.64382">
        <ele>1518.86</ele>
        <time>2015-11-01T07:09:45Z</time>
      </trkpt>
      <trkpt lat="42.71909" lon="0.64374">
        <ele>1518.85</ele>
        <time>2015-11-01T07:09:50Z</time>
      </trkpt>
      <trkpt lat="42.71915" lon="0.64368">
        <ele>1518.96</ele>
        <time>2015-11-01T07:09:53Z</time>
      </trkpt>
      <trkpt lat="42.71919" lon="0.64362">
        <ele>1519.27</ele>
        <time>2015-11-01T07:09:58Z</time>
      </trkpt>
      <trkpt lat="42.71922" lon="0.6436">
        <ele>1519.46</ele>
        <time>2015-11-01T07:10:00Z</time>
      </trkpt>
      <trkpt lat="42.71929" lon="0.64338">
        <ele>1521.08</ele>
        <time>2015-11-01T07:10:15Z</time>
      </trkpt>
      <trkpt lat="42.7194" lon="0.64321">
        <ele>1521.33</ele>
        <time>2015-11-01T07:10:24Z</time>
      </trkpt>
      <trkpt lat="42.71947" lon="0.64312">
        <ele>1521.73</ele>
        <time>2015-11-01T07:10:30Z</time>
      </trkpt>
      <trkpt lat="42.71948" lon="0.64307">
        <ele>1522.05</ele>
        <time>2015-11-01T07:10:33Z</time>
      </trkpt>
      <trkpt lat="42.71951" lon="0.64298">
        <ele>1522.43</ele>
        <time>2015-11-01T07:10:38Z</time>
      </trkpt>
      <trkpt lat="42.71952" lon="0.64294">
        <ele>1522.55</ele>
        <time>2015-11-01T07:10:41Z</time>
      </trkpt>
      <trkpt lat="42.71949" lon="0.6429">
        <ele>1522.61</ele>
        <time>2015-11-01T07:10:44Z</time>
      </trkpt>
      <trkpt lat="42.71947" lon="0.64285">
        <ele>1522.71</ele>
        <time>2015-11-01T07:10:48Z</time>
      </trkpt>
      <trkpt lat="42.71944" lon="0.64278">
        <ele>1522.95</ele>
        <time>2015-11-01T07:10:52Z</time>
      </trkpt>
      <trkpt lat="42.71945" lon="0.64272">
        <ele>1523.24</ele>
        <time>2015-11-01T07:10:56Z</time>
      </trkpt>
      <trkpt lat="42.71947" lon="0.64267">
        <ele>1523.38</ele>
        <time>2015-11-01T07:10:59Z</time>
      </trkpt>
      <trkpt lat="42.71947" lon="0.64251">
        <ele>1523.88</ele>
        <time>2015-11-01T07:11:10Z</time>
      </trkpt>
      <trkpt lat="42.71943" lon="0.64236">
        <ele>1524.03</ele>
        <time>2015-11-01T07:11:17Z</time>
      </trkpt>
      <trkpt lat="42.71944" lon="0.64232">
        <ele>1524.1</ele>
        <time>2015-11-01T07:11:19Z</time>
      </trkpt>
      <trkpt lat="42.71943" lon="0.6422">
        <ele>1524.43</ele>
        <time>2015-11-01T07:11:26Z</time>
      </trkpt>
      <trkpt lat="42.71943" lon="0.64216">
        <ele>1524.59</ele>
        <time>2015-11-01T07:11:28Z</time>
      </trkpt>
      <trkpt lat="42.71944" lon="0.64212">
        <ele>1524.98</ele>
        <time>2015-11-01T07:11:31Z</time>
      </trkpt>
      <trkpt lat="42.71947" lon="0.64194">
        <ele>1525.53</ele>
        <time>2015-11-01T07:11:42Z</time>
      </trkpt>
      <trkpt lat="42.71946" lon="0.6419">
        <ele>1525.79</ele>
        <time>2015-11-01T07:11:45Z</time>
      </trkpt>
      <trkpt lat="42.71947" lon="0.64167">
        <ele>1526.6</ele>
        <time>2015-11-01T07:11:59Z</time>
      </trkpt>
      <trkpt lat="42.71946" lon="0.64162">
        <ele>1526.66</ele>
        <time>2015-11-01T07:12:02Z</time>
      </trkpt>
      <trkpt lat="42.71945" lon="0.64159">
        <ele>1526.74</ele>
        <time>2015-11-01T07:12:04Z</time>
      </trkpt>
      <trkpt lat="42.71944" lon="0.64156">
        <ele>1526.98</ele>
        <time>2015-11-01T07:12:07Z</time>
      </trkpt>
      <trkpt lat="42.71942" lon="0.64153">
        <ele>1527.09</ele>
        <time>2015-11-01T07:12:09Z</time>
      </trkpt>
      <trkpt lat="42.7194" lon="0.64147">
        <ele>1527.79</ele>
        <time>2015-11-01T07:12:16Z</time>
      </trkpt>
      <trkpt lat="42.71915" lon="0.64138">
        <ele>1528.57</ele>
        <time>2015-11-01T07:12:33Z</time>
      </trkpt>
      <trkpt lat="42.71913" lon="0.64127">
        <ele>1528.9</ele>
        <time>2015-11-01T07:12:45Z</time>
      </trkpt>
      <trkpt lat="42.71914" lon="0.64123">
        <ele>1529.14</ele>
        <time>2015-11-01T07:12:49Z</time>
      </trkpt>
      <trkpt lat="42.71916" lon="0.64121">
        <ele>1529.17</ele>
        <time>2015-11-01T07:12:51Z</time>
      </trkpt>
      <trkpt lat="42.71918" lon="0.64117">
        <ele>1529.09</ele>
        <time>2015-11-01T07:12:54Z</time>
      </trkpt>
      <trkpt lat="42.71919" lon="0.64112">
        <ele>1529.09</ele>
        <time>2015-11-01T07:12:58Z</time>
      </trkpt>
      <trkpt lat="42.71921" lon="0.64107">
        <ele>1529.19</ele>
        <time>2015-11-01T07:13:02Z</time>
      </trkpt>
      <trkpt lat="42.71915" lon="0.64092">
        <ele>1529.68</ele>
        <time>2015-11-01T07:13:11Z</time>
      </trkpt>
      <trkpt lat="42.71913" lon="0.64089">
        <ele>1529.79</ele>
        <time>2015-11-01T07:13:13Z</time>
      </trkpt>
      <trkpt lat="42.71911" lon="0.64087">
        <ele>1529.91</ele>
        <time>2015-11-01T07:13:15Z</time>
      </trkpt>
      <trkpt lat="42.71907" lon="0.64067">
        <ele>1530.64</ele>
        <time>2015-11-01T07:13:29Z</time>
      </trkpt>
      <trkpt lat="42.7191" lon="0.64062">
        <ele>1530.7</ele>
        <time>2015-11-01T07:13:33Z</time>
      </trkpt>
      <trkpt lat="42.71909" lon="0.64058">
        <ele>1530.81</ele>
        <time>2015-11-01T07:13:39Z</time>
      </trkpt>
      <trkpt lat="42.7191" lon="0.64052">
        <ele>1531.47</ele>
        <time>2015-11-01T07:13:46Z</time>
      </trkpt>
      <trkpt lat="42.71911" lon="0.6405">
        <ele>1531.67</ele>
        <time>2015-11-01T07:13:48Z</time>
      </trkpt>
      <trkpt lat="42.71914" lon="0.64037">
        <ele>1531.91</ele>
        <time>2015-11-01T07:13:56Z</time>
      </trkpt>
      <trkpt lat="42.71913" lon="0.64016">
        <ele>1532.26</ele>
        <time>2015-11-01T07:14:08Z</time>
      </trkpt>
      <trkpt lat="42.71923" lon="0.64">
        <ele>1533.1</ele>
        <time>2015-11-01T07:14:29Z</time>
      </trkpt>
      <trkpt lat="42.71929" lon="0.63983">
        <ele>1533.52</ele>
        <time>2015-11-01T07:14:47Z</time>
      </trkpt>
      <trkpt lat="42.7193" lon="0.63967">
        <ele>1534.21</ele>
        <time>2015-11-01T07:14:59Z</time>
      </trkpt>
      <trkpt lat="42.71937" lon="0.63936">
        <ele>1535.82</ele>
        <time>2015-11-01T07:15:20Z</time>
      </trkpt>
      <trkpt lat="42.71941" lon="0.63929">
        <ele>1535.69</ele>
        <time>2015-11-01T07:15:26Z</time>
      </trkpt>
      <trkpt lat="42.71941" lon="0.6391">
        <ele>1536.14</ele>
        <time>2015-11-01T07:15:38Z</time>
      </trkpt>
      <trkpt lat="42.71941" lon="0.63899">
        <ele>1536.36</ele>
        <time>2015-11-01T07:15:45Z</time>
      </trkpt>
      <trkpt lat="42.71947" lon="0.6389">
        <ele>1536.87</ele>
        <time>2015-11-01T07:15:54Z</time>
      </trkpt>
      <trkpt lat="42.7195" lon="0.63887">
        <ele>1537</ele>
        <time>2015-11-01T07:16:00Z</time>
      </trkpt>
      <trkpt lat="42.7196" lon="0.63875">
        <ele>1538.01</ele>
        <time>2015-11-01T07:16:18Z</time>
      </trkpt>
      <trkpt lat="42.71965" lon="0.63858">
        <ele>1538.4</ele>
        <time>2015-11-01T07:16:30Z</time>
      </trkpt>
      <trkpt lat="42.71966" lon="0.63857">
        <ele>1538.49</ele>
        <time>2015-11-01T07:16:31Z</time>
      </trkpt>
      <trkpt lat="42.71978" lon="0.63854">
        <ele>1539.06</ele>
        <time>2015-11-01T07:16:43Z</time>
      </trkpt>
      <trkpt lat="42.71984" lon="0.63845">
        <ele>1539.32</ele>
        <time>2015-11-01T07:16:52Z</time>
      </trkpt>
      <trkpt lat="42.71991" lon="0.63844">
        <ele>1539.49</ele>
        <time>2015-11-01T07:16:57Z</time>
      </trkpt>
      <trkpt lat="42.71998" lon="0.63841">
        <ele>1539.76</ele>
        <time>2015-11-01T07:17:05Z</time>
      </trkpt>
      <trkpt lat="42.72011" lon="0.63828">
        <ele>1540.38</ele>
        <time>2015-11-01T07:17:19Z</time>
      </trkpt>
      <trkpt lat="42.72025" lon="0.6382">
        <ele>1541.15</ele>
        <time>2015-11-01T07:17:31Z</time>
      </trkpt>
      <trkpt lat="42.72026" lon="0.6382">
        <ele>1541.18</ele>
        <time>2015-11-01T07:17:32Z</time>
      </trkpt>
      <trkpt lat="42.72035" lon="0.63796">
        <ele>1541.03</ele>
        <time>2015-11-01T07:17:54Z</time>
      </trkpt>
      <trkpt lat="42.72036" lon="0.63791">
        <ele>1541.67</ele>
        <time>2015-11-01T07:18:03Z</time>
      </trkpt>
      <trkpt lat="42.72038" lon="0.6379">
        <ele>1541.78</ele>
        <time>2015-11-01T07:18:05Z</time>
      </trkpt>
      <trkpt lat="42.72045" lon="0.63778">
        <ele>1542.3</ele>
        <time>2015-11-01T07:18:19Z</time>
      </trkpt>
      <trkpt lat="42.72046" lon="0.63758">
        <ele>1542.89</ele>
        <time>2015-11-01T07:18:30Z</time>
      </trkpt>
      <trkpt lat="42.72047" lon="0.63744">
        <ele>1542.82</ele>
        <time>2015-11-01T07:18:40Z</time>
      </trkpt>
      <trkpt lat="42.72048" lon="0.6374">
        <ele>1542.85</ele>
        <time>2015-11-01T07:18:43Z</time>
      </trkpt>
      <trkpt lat="42.7205" lon="0.63726">
        <ele>1543.31</ele>
        <time>2015-11-01T07:18:56Z</time>
      </trkpt>
      <trkpt lat="42.72051" lon="0.63721">
        <ele>1543.42</ele>
        <time>2015-11-01T07:18:59Z</time>
      </trkpt>
      <trkpt lat="42.72052" lon="0.63719">
        <ele>1543.49</ele>
        <time>2015-11-01T07:19:01Z</time>
      </trkpt>
      <trkpt lat="42.72053" lon="0.63716">
        <ele>1543.5</ele>
        <time>2015-11-01T07:19:04Z</time>
      </trkpt>
      <trkpt lat="42.72055" lon="0.63714">
        <ele>1543.42</ele>
        <time>2015-11-01T07:19:07Z</time>
      </trkpt>
      <trkpt lat="42.72058" lon="0.63711">
        <ele>1543.38</ele>
        <time>2015-11-01T07:19:09Z</time>
      </trkpt>
      <trkpt lat="42.72069" lon="0.63697">
        <ele>1544.17</ele>
        <time>2015-11-01T07:19:21Z</time>
      </trkpt>
      <trkpt lat="42.72075" lon="0.63681">
        <ele>1545.05</ele>
        <time>2015-11-01T07:19:31Z</time>
      </trkpt>
      <trkpt lat="42.72079" lon="0.63669">
        <ele>1545.62</ele>
        <time>2015-11-01T07:19:39Z</time>
      </trkpt>
      <trkpt lat="42.72081" lon="0.63666">
        <ele>1545.84</ele>
        <time>2015-11-01T07:19:42Z</time>
      </trkpt>
      <trkpt lat="42.7208" lon="0.63661">
        <ele>1546.1</ele>
        <time>2015-11-01T07:19:47Z</time>
      </trkpt>
      <trkpt lat="42.72083" lon="0.63653">
        <ele>1546.42</ele>
        <time>2015-11-01T07:19:54Z</time>
      </trkpt>
      <trkpt lat="42.72084" lon="0.63649">
        <ele>1546.59</ele>
        <time>2015-11-01T07:19:58Z</time>
      </trkpt>
      <trkpt lat="42.72085" lon="0.63645">
        <ele>1546.71</ele>
        <time>2015-11-01T07:20:01Z</time>
      </trkpt>
      <trkpt lat="42.72087" lon="0.63643">
        <ele>1546.81</ele>
        <time>2015-11-01T07:20:03Z</time>
      </trkpt>
      <trkpt lat="42.7209" lon="0.63637">
        <ele>1547.08</ele>
        <time>2015-11-01T07:20:09Z</time>
      </trkpt>
      <trkpt lat="42.72096" lon="0.63628">
        <ele>1547.77</ele>
        <time>2015-11-01T07:20:18Z</time>
      </trkpt>
      <trkpt lat="42.72103" lon="0.63611">
        <ele>1547.95</ele>
        <time>2015-11-01T07:20:32Z</time>
      </trkpt>
      <trkpt lat="42.72102" lon="0.63605">
        <ele>1548.49</ele>
        <time>2015-11-01T07:20:40Z</time>
      </trkpt>
      <trkpt lat="42.72102" lon="0.63602">
        <ele>1548.7</ele>
        <time>2015-11-01T07:20:42Z</time>
      </trkpt>
      <trkpt lat="42.72101" lon="0.63597">
        <ele>1549.28</ele>
        <time>2015-11-01T07:20:46Z</time>
      </trkpt>
      <trkpt lat="42.72101" lon="0.63588">
        <ele>1550.42</ele>
        <time>2015-11-01T07:20:58Z</time>
      </trkpt>
      <trkpt lat="42.72107" lon="0.63579">
        <ele>1550.35</ele>
        <time>2015-11-01T07:21:06Z</time>
      </trkpt>
      <trkpt lat="42.7211" lon="0.63574">
        <ele>1550.52</ele>
        <time>2015-11-01T07:21:11Z</time>
      </trkpt>
      <trkpt lat="42.72111" lon="0.6356">
        <ele>1551.06</ele>
        <time>2015-11-01T07:21:21Z</time>
      </trkpt>
      <trkpt lat="42.72114" lon="0.63558">
        <ele>1551.48</ele>
        <time>2015-11-01T07:21:24Z</time>
      </trkpt>
      <trkpt lat="42.72117" lon="0.63554">
        <ele>1551.84</ele>
        <time>2015-11-01T07:21:28Z</time>
      </trkpt>
      <trkpt lat="42.72127" lon="0.63545">
        <ele>1551.75</ele>
        <time>2015-11-01T07:21:34Z</time>
      </trkpt>
      <trkpt lat="42.72134" lon="0.63528">
        <ele>1552.53</ele>
        <time>2015-11-01T07:21:46Z</time>
      </trkpt>
      <trkpt lat="42.72136" lon="0.63524">
        <ele>1552.79</ele>
        <time>2015-11-01T07:21:49Z</time>
      </trkpt>
      <trkpt lat="42.72138" lon="0.63519">
        <ele>1552.97</ele>
        <time>2015-11-01T07:21:53Z</time>
      </trkpt>
      <trkpt lat="42.72141" lon="0.63516">
        <ele>1553.08</ele>
        <time>2015-11-01T07:21:55Z</time>
      </trkpt>
      <trkpt lat="42.72144" lon="0.63509">
        <ele>1553.28</ele>
        <time>2015-11-01T07:21:59Z</time>
      </trkpt>
      <trkpt lat="42.72148" lon="0.63501">
        <ele>1553.41</ele>
        <time>2015-11-01T07:22:07Z</time>
      </trkpt>
      <trkpt lat="42.72154" lon="0.6349">
        <ele>1553.76</ele>
        <time>2015-11-01T07:22:15Z</time>
      </trkpt>
      <trkpt lat="42.72163" lon="0.63483">
        <ele>1554.27</ele>
        <time>2015-11-01T07:22:21Z</time>
      </trkpt>
      <trkpt lat="42.72165" lon="0.63478">
        <ele>1554.39</ele>
        <time>2015-11-01T07:22:25Z</time>
      </trkpt>
      <trkpt lat="42.72164" lon="0.63463">
        <ele>1555.13</ele>
        <time>2015-11-01T07:22:35Z</time>
      </trkpt>
      <trkpt lat="42.72165" lon="0.63455">
        <ele>1555.34</ele>
        <time>2015-11-01T07:22:41Z</time>
      </trkpt>
      <trkpt lat="42.72164" lon="0.63449">
        <ele>1555.51</ele>
        <time>2015-11-01T07:22:44Z</time>
      </trkpt>
      <trkpt lat="42.72166" lon="0.63441">
        <ele>1555.76</ele>
        <time>2015-11-01T07:22:49Z</time>
      </trkpt>
      <trkpt lat="42.72171" lon="0.63428">
        <ele>1555.8</ele>
        <time>2015-11-01T07:22:55Z</time>
      </trkpt>
      <trkpt lat="42.72172" lon="0.63421">
        <ele>1556.04</ele>
        <time>2015-11-01T07:22:59Z</time>
      </trkpt>
      <trkpt lat="42.72173" lon="0.63412">
        <ele>1556.41</ele>
        <time>2015-11-01T07:23:05Z</time>
      </trkpt>
      <trkpt lat="42.72173" lon="0.63408">
        <ele>1556.47</ele>
        <time>2015-11-01T07:23:08Z</time>
      </trkpt>
      <trkpt lat="42.72177" lon="0.63403">
        <ele>1556.53</ele>
        <time>2015-11-01T07:23:11Z</time>
      </trkpt>
      <trkpt lat="42.72178" lon="0.634">
        <ele>1556.69</ele>
        <time>2015-11-01T07:23:13Z</time>
      </trkpt>
      <trkpt lat="42.72177" lon="0.6339">
        <ele>1557.07</ele>
        <time>2015-11-01T07:23:19Z</time>
      </trkpt>
      <trkpt lat="42.72177" lon="0.63382">
        <ele>1557.42</ele>
        <time>2015-11-01T07:23:23Z</time>
      </trkpt>
      <trkpt lat="42.72178" lon="0.63378">
        <ele>1557.75</ele>
        <time>2015-11-01T07:23:26Z</time>
      </trkpt>
      <trkpt lat="42.72179" lon="0.63371">
        <ele>1558.02</ele>
        <time>2015-11-01T07:23:30Z</time>
      </trkpt>
      <trkpt lat="42.7218" lon="0.63358">
        <ele>1558.82</ele>
        <time>2015-11-01T07:23:40Z</time>
      </trkpt>
      <trkpt lat="42.72179" lon="0.63353">
        <ele>1559.09</ele>
        <time>2015-11-01T07:23:44Z</time>
      </trkpt>
      <trkpt lat="42.72178" lon="0.63349">
        <ele>1559.22</ele>
        <time>2015-11-01T07:23:46Z</time>
      </trkpt>
      <trkpt lat="42.72178" lon="0.63344">
        <ele>1559.38</ele>
        <time>2015-11-01T07:23:49Z</time>
      </trkpt>
      <trkpt lat="42.72177" lon="0.6334">
        <ele>1559.47</ele>
        <time>2015-11-01T07:23:52Z</time>
      </trkpt>
      <trkpt lat="42.72178" lon="0.63334">
        <ele>1559.61</ele>
        <time>2015-11-01T07:23:56Z</time>
      </trkpt>
      <trkpt lat="42.7218" lon="0.6333">
        <ele>1559.84</ele>
        <time>2015-11-01T07:24:00Z</time>
      </trkpt>
      <trkpt lat="42.72183" lon="0.6331">
        <ele>1560.5</ele>
        <time>2015-11-01T07:24:12Z</time>
      </trkpt>
      <trkpt lat="42.72184" lon="0.63302">
        <ele>1560.87</ele>
        <time>2015-11-01T07:24:17Z</time>
      </trkpt>
      <trkpt lat="42.72183" lon="0.63294">
        <ele>1561.03</ele>
        <time>2015-11-01T07:24:22Z</time>
      </trkpt>
      <trkpt lat="42.72181" lon="0.63287">
        <ele>1561.36</ele>
        <time>2015-11-01T07:24:28Z</time>
      </trkpt>
      <trkpt lat="42.72181" lon="0.63284">
        <ele>1561.56</ele>
        <time>2015-11-01T07:24:30Z</time>
      </trkpt>
      <trkpt lat="42.72179" lon="0.63279">
        <ele>1561.82</ele>
        <time>2015-11-01T07:24:33Z</time>
      </trkpt>
      <trkpt lat="42.72181" lon="0.63274">
        <ele>1562.24</ele>
        <time>2015-11-01T07:24:36Z</time>
      </trkpt>
      <trkpt lat="42.72181" lon="0.63269">
        <ele>1562.59</ele>
        <time>2015-11-01T07:24:40Z</time>
      </trkpt>
      <trkpt lat="42.72182" lon="0.63259">
        <ele>1563</ele>
        <time>2015-11-01T07:24:47Z</time>
      </trkpt>
      <trkpt lat="42.72184" lon="0.63256">
        <ele>1563.16</ele>
        <time>2015-11-01T07:24:51Z</time>
      </trkpt>
      <trkpt lat="42.72189" lon="0.63238">
        <ele>1563.79</ele>
        <time>2015-11-01T07:25:06Z</time>
      </trkpt>
      <trkpt lat="42.7219" lon="0.63238">
        <ele>1563.86</ele>
        <time>2015-11-01T07:25:07Z</time>
      </trkpt>
      <trkpt lat="42.72189" lon="0.63236">
        <ele>1563.93</ele>
        <time>2015-11-01T07:25:09Z</time>
      </trkpt>
      <trkpt lat="42.7219" lon="0.6322">
        <ele>1564.43</ele>
        <time>2015-11-01T07:25:20Z</time>
      </trkpt>
      <trkpt lat="42.7219" lon="0.63218">
        <ele>1564.48</ele>
        <time>2015-11-01T07:25:21Z</time>
      </trkpt>
      <trkpt lat="42.72192" lon="0.63213">
        <ele>1564.69</ele>
        <time>2015-11-01T07:25:25Z</time>
      </trkpt>
      <trkpt lat="42.72191" lon="0.63202">
        <ele>1564.92</ele>
        <time>2015-11-01T07:25:32Z</time>
      </trkpt>
      <trkpt lat="42.7219" lon="0.63198">
        <ele>1565.22</ele>
        <time>2015-11-01T07:25:35Z</time>
      </trkpt>
      <trkpt lat="42.72192" lon="0.63193">
        <ele>1565.65</ele>
        <time>2015-11-01T07:25:39Z</time>
      </trkpt>
      <trkpt lat="42.72191" lon="0.63188">
        <ele>1566.1</ele>
        <time>2015-11-01T07:25:44Z</time>
      </trkpt>
      <trkpt lat="42.72173" lon="0.6316">
        <ele>1567.61</ele>
        <time>2015-11-01T07:26:10Z</time>
      </trkpt>
      <trkpt lat="42.72163" lon="0.63146">
        <ele>1567.73</ele>
        <time>2015-11-01T07:26:15Z</time>
      </trkpt>
      <trkpt lat="42.72153" lon="0.63124">
        <ele>1568.17</ele>
        <time>2015-11-01T07:26:25Z</time>
      </trkpt>
      <trkpt lat="42.72155" lon="0.63099">
        <ele>1568.75</ele>
        <time>2015-11-01T07:26:42Z</time>
      </trkpt>
      <trkpt lat="42.72155" lon="0.63094">
        <ele>1568.45</ele>
        <time>2015-11-01T07:26:46Z</time>
      </trkpt>
      <trkpt lat="42.72154" lon="0.63079">
        <ele>1567.5</ele>
        <time>2015-11-01T07:26:54Z</time>
      </trkpt>
      <trkpt lat="42.72152" lon="0.63076">
        <ele>1567.53</ele>
        <time>2015-11-01T07:26:56Z</time>
      </trkpt>
      <trkpt lat="42.72152" lon="0.6306">
        <ele>1569.71</ele>
        <time>2015-11-01T07:27:07Z</time>
      </trkpt>
      <trkpt lat="42.72155" lon="0.63049">
        <ele>1570.85</ele>
        <time>2015-11-01T07:27:15Z</time>
      </trkpt>
      <trkpt lat="42.72158" lon="0.63038">
        <ele>1571.92</ele>
        <time>2015-11-01T07:27:34Z</time>
      </trkpt>
      <trkpt lat="42.72136" lon="0.63024">
        <ele>1571.92</ele>
        <time>2015-11-01T07:27:46Z</time>
      </trkpt>
      <trkpt lat="42.72128" lon="0.6301">
        <ele>1571.9</ele>
        <time>2015-11-01T07:27:52Z</time>
      </trkpt>
      <trkpt lat="42.72126" lon="0.62999">
        <ele>1572.33</ele>
        <time>2015-11-01T07:27:58Z</time>
      </trkpt>
      <trkpt lat="42.72125" lon="0.62995">
        <ele>1572.63</ele>
        <time>2015-11-01T07:28:01Z</time>
      </trkpt>
      <trkpt lat="42.72131" lon="0.62986">
        <ele>1572.66</ele>
        <time>2015-11-01T07:28:08Z</time>
      </trkpt>
      <trkpt lat="42.72134" lon="0.62974">
        <ele>1572.71</ele>
        <time>2015-11-01T07:28:15Z</time>
      </trkpt>
      <trkpt lat="42.72128" lon="0.62968">
        <ele>1572.64</ele>
        <time>2015-11-01T07:28:23Z</time>
      </trkpt>
      <trkpt lat="42.72123" lon="0.62962">
        <ele>1572.43</ele>
        <time>2015-11-01T07:28:29Z</time>
      </trkpt>
      <trkpt lat="42.72111" lon="0.62951">
        <ele>1572.95</ele>
        <time>2015-11-01T07:28:39Z</time>
      </trkpt>
      <trkpt lat="42.72108" lon="0.62947">
        <ele>1572.89</ele>
        <time>2015-11-01T07:28:44Z</time>
      </trkpt>
      <trkpt lat="42.72093" lon="0.62932">
        <ele>1573.17</ele>
        <time>2015-11-01T07:28:53Z</time>
      </trkpt>
      <trkpt lat="42.72086" lon="0.62927">
        <ele>1573.1</ele>
        <time>2015-11-01T07:29:00Z</time>
      </trkpt>
      <trkpt lat="42.72079" lon="0.62916">
        <ele>1573.2</ele>
        <time>2015-11-01T07:29:09Z</time>
      </trkpt>
      <trkpt lat="42.72072" lon="0.62905">
        <ele>1573.39</ele>
        <time>2015-11-01T07:29:16Z</time>
      </trkpt>
      <trkpt lat="42.72069" lon="0.62902">
        <ele>1573.36</ele>
        <time>2015-11-01T07:29:19Z</time>
      </trkpt>
      <trkpt lat="42.72067" lon="0.629">
        <ele>1573.49</ele>
        <time>2015-11-01T07:29:26Z</time>
      </trkpt>
      <trkpt lat="42.72064" lon="0.62898">
        <ele>1573.59</ele>
        <time>2015-11-01T07:29:30Z</time>
      </trkpt>
      <trkpt lat="42.7206" lon="0.62896">
        <ele>1573.75</ele>
        <time>2015-11-01T07:29:36Z</time>
      </trkpt>
      <trkpt lat="42.72056" lon="0.62894">
        <ele>1573.85</ele>
        <time>2015-11-01T07:29:39Z</time>
      </trkpt>
      <trkpt lat="42.72054" lon="0.62893">
        <ele>1573.86</ele>
        <time>2015-11-01T07:29:41Z</time>
      </trkpt>
      <trkpt lat="42.72043" lon="0.6288">
        <ele>1573.95</ele>
        <time>2015-11-01T07:29:50Z</time>
      </trkpt>
      <trkpt lat="42.72044" lon="0.62876">
        <ele>1574.19</ele>
        <time>2015-11-01T07:29:57Z</time>
      </trkpt>
      <trkpt lat="42.7203" lon="0.6286">
        <ele>1574.78</ele>
        <time>2015-11-01T07:30:09Z</time>
      </trkpt>
      <trkpt lat="42.72026" lon="0.62855">
        <ele>1575.04</ele>
        <time>2015-11-01T07:30:12Z</time>
      </trkpt>
      <trkpt lat="42.72019" lon="0.62846">
        <ele>1575.7</ele>
        <time>2015-11-01T07:30:24Z</time>
      </trkpt>
      <trkpt lat="42.72023" lon="0.62843">
        <ele>1575.84</ele>
        <time>2015-11-01T07:30:29Z</time>
      </trkpt>
      <trkpt lat="42.72027" lon="0.6284">
        <ele>1575.72</ele>
        <time>2015-11-01T07:30:36Z</time>
      </trkpt>
      <trkpt lat="42.72028" lon="0.62838">
        <ele>1575.79</ele>
        <time>2015-11-01T07:30:39Z</time>
      </trkpt>
      <trkpt lat="42.72025" lon="0.62836">
        <ele>1575.97</ele>
        <time>2015-11-01T07:30:47Z</time>
      </trkpt>
      <trkpt lat="42.72018" lon="0.62832">
        <ele>1576.08</ele>
        <time>2015-11-01T07:30:54Z</time>
      </trkpt>
      <trkpt lat="42.72011" lon="0.62829">
        <ele>1575.92</ele>
        <time>2015-11-01T07:31:00Z</time>
      </trkpt>
      <trkpt lat="42.72002" lon="0.62823">
        <ele>1576.11</ele>
        <time>2015-11-01T07:31:09Z</time>
      </trkpt>
      <trkpt lat="42.71988" lon="0.6281">
        <ele>1576.99</ele>
        <time>2015-11-01T07:31:22Z</time>
      </trkpt>
      <trkpt lat="42.71979" lon="0.62802">
        <ele>1577.44</ele>
        <time>2015-11-01T07:31:34Z</time>
      </trkpt>
      <trkpt lat="42.71978" lon="0.62798">
        <ele>1577.76</ele>
        <time>2015-11-01T07:31:39Z</time>
      </trkpt>
      <trkpt lat="42.7197" lon="0.6279">
        <ele>1578.52</ele>
        <time>2015-11-01T07:31:56Z</time>
      </trkpt>
      <trkpt lat="42.71968" lon="0.62793">
        <ele>1578.77</ele>
        <time>2015-11-01T07:31:59Z</time>
      </trkpt>
      <trkpt lat="42.71946" lon="0.62814">
        <ele>1579.95</ele>
        <time>2015-11-01T07:32:28Z</time>
      </trkpt>
      <trkpt lat="42.71945" lon="0.62817">
        <ele>1579.94</ele>
        <time>2015-11-01T07:32:31Z</time>
      </trkpt>
      <trkpt lat="42.71914" lon="0.62813">
        <ele>1581.12</ele>
        <time>2015-11-01T07:32:50Z</time>
      </trkpt>
      <trkpt lat="42.71908" lon="0.62816">
        <ele>1581.44</ele>
        <time>2015-11-01T07:32:56Z</time>
      </trkpt>
      <trkpt lat="42.71895" lon="0.62819">
        <ele>1582.16</ele>
        <time>2015-11-01T07:33:09Z</time>
      </trkpt>
      <trkpt lat="42.71894" lon="0.62822">
        <ele>1581.62</ele>
        <time>2015-11-01T07:33:19Z</time>
      </trkpt>
      <trkpt lat="42.7189" lon="0.62809">
        <ele>1582.45</ele>
        <time>2015-11-01T07:33:31Z</time>
      </trkpt>
      <trkpt lat="42.71886" lon="0.62794">
        <ele>1582.67</ele>
        <time>2015-11-01T07:33:42Z</time>
      </trkpt>
      <trkpt lat="42.71877" lon="0.62775">
        <ele>1583</ele>
        <time>2015-11-01T07:33:55Z</time>
      </trkpt>
      <trkpt lat="42.71875" lon="0.62771">
        <ele>1583.13</ele>
        <time>2015-11-01T07:34:00Z</time>
      </trkpt>
      <trkpt lat="42.7187" lon="0.62757">
        <ele>1583.61</ele>
        <time>2015-11-01T07:34:13Z</time>
      </trkpt>
      <trkpt lat="42.7187" lon="0.62753">
        <ele>1583.81</ele>
        <time>2015-11-01T07:34:18Z</time>
      </trkpt>
      <trkpt lat="42.71867" lon="0.62744">
        <ele>1584.77</ele>
        <time>2015-11-01T07:34:30Z</time>
      </trkpt>
      <trkpt lat="42.71861" lon="0.62734">
        <ele>1585.24</ele>
        <time>2015-11-01T07:34:36Z</time>
      </trkpt>
      <trkpt lat="42.7186" lon="0.62732">
        <ele>1585.29</ele>
        <time>2015-11-01T07:34:38Z</time>
      </trkpt>
      <trkpt lat="42.71851" lon="0.62723">
        <ele>1585.9</ele>
        <time>2015-11-01T07:34:51Z</time>
      </trkpt>
      <trkpt lat="42.71851" lon="0.62718">
        <ele>1585.74</ele>
        <time>2015-11-01T07:34:54Z</time>
      </trkpt>
      <trkpt lat="42.71842" lon="0.62706">
        <ele>1585.06</ele>
        <time>2015-11-01T07:35:03Z</time>
      </trkpt>
      <trkpt lat="42.71833" lon="0.62696">
        <ele>1586.18</ele>
        <time>2015-11-01T07:35:19Z</time>
      </trkpt>
      <trkpt lat="42.7183" lon="0.62689">
        <ele>1587.04</ele>
        <time>2015-11-01T07:35:34Z</time>
      </trkpt>
      <trkpt lat="42.71826" lon="0.6268">
        <ele>1587.71</ele>
        <time>2015-11-01T07:35:44Z</time>
      </trkpt>
      <trkpt lat="42.71822" lon="0.6267">
        <ele>1587.99</ele>
        <time>2015-11-01T07:35:51Z</time>
      </trkpt>
      <trkpt lat="42.71815" lon="0.62662">
        <ele>1588.27</ele>
        <time>2015-11-01T07:36:02Z</time>
      </trkpt>
      <trkpt lat="42.71803" lon="0.62654">
        <ele>1588.94</ele>
        <time>2015-11-01T07:36:11Z</time>
      </trkpt>
      <trkpt lat="42.71796" lon="0.62647">
        <ele>1588.81</ele>
        <time>2015-11-01T07:36:16Z</time>
      </trkpt>
      <trkpt lat="42.71794" lon="0.62638">
        <ele>1589.88</ele>
        <time>2015-11-01T07:36:36Z</time>
      </trkpt>
      <trkpt lat="42.71793" lon="0.62637">
        <ele>1589.89</ele>
        <time>2015-11-01T07:36:37Z</time>
      </trkpt>
      <trkpt lat="42.71792" lon="0.62634">
        <ele>1589.86</ele>
        <time>2015-11-01T07:36:40Z</time>
      </trkpt>
      <trkpt lat="42.71784" lon="0.62625">
        <ele>1589.64</ele>
        <time>2015-11-01T07:36:47Z</time>
      </trkpt>
      <trkpt lat="42.71773" lon="0.62616">
        <ele>1590.24</ele>
        <time>2015-11-01T07:36:56Z</time>
      </trkpt>
      <trkpt lat="42.71752" lon="0.62597">
        <ele>1591.87</ele>
        <time>2015-11-01T07:37:29Z</time>
      </trkpt>
      <trkpt lat="42.71743" lon="0.62594">
        <ele>1592.27</ele>
        <time>2015-11-01T07:37:45Z</time>
      </trkpt>
      <trkpt lat="42.71737" lon="0.6259">
        <ele>1592.55</ele>
        <time>2015-11-01T07:37:51Z</time>
      </trkpt>
      <trkpt lat="42.71721" lon="0.62584">
        <ele>1593.36</ele>
        <time>2015-11-01T07:38:03Z</time>
      </trkpt>
      <trkpt lat="42.71719" lon="0.62585">
        <ele>1593.68</ele>
        <time>2015-11-01T07:38:06Z</time>
      </trkpt>
      <trkpt lat="42.71705" lon="0.62582">
        <ele>1594.63</ele>
        <time>2015-11-01T07:38:15Z</time>
      </trkpt>
      <trkpt lat="42.71699" lon="0.62584">
        <ele>1594.92</ele>
        <time>2015-11-01T07:38:19Z</time>
      </trkpt>
      <trkpt lat="42.71693" lon="0.62594">
        <ele>1595.52</ele>
        <time>2015-11-01T07:38:27Z</time>
      </trkpt>
      <trkpt lat="42.71671" lon="0.62608">
        <ele>1596.68</ele>
        <time>2015-11-01T07:38:53Z</time>
      </trkpt>
      <trkpt lat="42.71661" lon="0.62605">
        <ele>1597.3</ele>
        <time>2015-11-01T07:39:00Z</time>
      </trkpt>
      <trkpt lat="42.71651" lon="0.62601">
        <ele>1597.57</ele>
        <time>2015-11-01T07:39:06Z</time>
      </trkpt>
      <trkpt lat="42.71641" lon="0.62603">
        <ele>1597.93</ele>
        <time>2015-11-01T07:39:15Z</time>
      </trkpt>
      <trkpt lat="42.71637" lon="0.62605">
        <ele>1598.15</ele>
        <time>2015-11-01T07:39:19Z</time>
      </trkpt>
      <trkpt lat="42.7163" lon="0.62613">
        <ele>1598.17</ele>
        <time>2015-11-01T07:39:28Z</time>
      </trkpt>
      <trkpt lat="42.71628" lon="0.62604">
        <ele>1598.83</ele>
        <time>2015-11-01T07:39:40Z</time>
      </trkpt>
      <trkpt lat="42.71581" lon="0.62568">
        <ele>1599.56</ele>
        <time>2015-11-01T07:39:50Z</time>
      </trkpt>
      <trkpt lat="42.71575" lon="0.62562">
        <ele>1600.16</ele>
        <time>2015-11-01T07:40:00Z</time>
      </trkpt>
      <trkpt lat="42.71582" lon="0.62583">
        <ele>1600.98</ele>
        <time>2015-11-01T07:40:10Z</time>
      </trkpt>
      <trkpt lat="42.71576" lon="0.62586">
        <ele>1601.37</ele>
        <time>2015-11-01T07:40:16Z</time>
      </trkpt>
      <trkpt lat="42.71575" lon="0.62592">
        <ele>1602.14</ele>
        <time>2015-11-01T07:40:22Z</time>
      </trkpt>
      <trkpt lat="42.71568" lon="0.62603">
        <ele>1603.42</ele>
        <time>2015-11-01T07:40:41Z</time>
      </trkpt>
      <trkpt lat="42.71564" lon="0.62603">
        <ele>1601.56</ele>
        <time>2015-11-01T07:41:00Z</time>
      </trkpt>
      <trkpt lat="42.71559" lon="0.62597">
        <ele>1601.4</ele>
        <time>2015-11-01T07:41:06Z</time>
      </trkpt>
      <trkpt lat="42.71562" lon="0.62587">
        <ele>1602.44</ele>
        <time>2015-11-01T07:41:15Z</time>
      </trkpt>
      <trkpt lat="42.71568" lon="0.62579">
        <ele>1602.07</ele>
        <time>2015-11-01T07:41:35Z</time>
      </trkpt>
      <trkpt lat="42.71568" lon="0.6257">
        <ele>1602.24</ele>
        <time>2015-11-01T07:41:46Z</time>
      </trkpt>
      <trkpt lat="42.71563" lon="0.62547">
        <ele>1603.45</ele>
        <time>2015-11-01T07:42:02Z</time>
      </trkpt>
      <trkpt lat="42.71563" lon="0.62546">
        <ele>1603.47</ele>
        <time>2015-11-01T07:42:03Z</time>
      </trkpt>
      <trkpt lat="42.71557" lon="0.62524">
        <ele>1604.67</ele>
        <time>2015-11-01T07:42:22Z</time>
      </trkpt>
      <trkpt lat="42.71557" lon="0.62517">
        <ele>1605.24</ele>
        <time>2015-11-01T07:42:41Z</time>
      </trkpt>
      <trkpt lat="42.71548" lon="0.62498">
        <ele>1606.09</ele>
        <time>2015-11-01T07:43:04Z</time>
      </trkpt>
      <trkpt lat="42.71547" lon="0.62496">
        <ele>1606.23</ele>
        <time>2015-11-01T07:43:06Z</time>
      </trkpt>
      <trkpt lat="42.71536" lon="0.62472">
        <ele>1607.53</ele>
        <time>2015-11-01T07:43:27Z</time>
      </trkpt>
      <trkpt lat="42.7153" lon="0.62456">
        <ele>1608.49</ele>
        <time>2015-11-01T07:43:46Z</time>
      </trkpt>
      <trkpt lat="42.71534" lon="0.62447">
        <ele>1608.21</ele>
        <time>2015-11-01T07:43:56Z</time>
      </trkpt>
      <trkpt lat="42.71535" lon="0.62444">
        <ele>1608.37</ele>
        <time>2015-11-01T07:43:59Z</time>
      </trkpt>
      <trkpt lat="42.71531" lon="0.62424">
        <ele>1609.7</ele>
        <time>2015-11-01T07:44:18Z</time>
      </trkpt>
      <trkpt lat="42.71531" lon="0.62419">
        <ele>1609.54</ele>
        <time>2015-11-01T07:44:21Z</time>
      </trkpt>
      <trkpt lat="42.71532" lon="0.62418">
        <ele>1609.51</ele>
        <time>2015-11-01T07:44:23Z</time>
      </trkpt>
      <trkpt lat="42.7153" lon="0.62416">
        <ele>1609.5</ele>
        <time>2015-11-01T07:44:25Z</time>
      </trkpt>
      <trkpt lat="42.71529" lon="0.62401">
        <ele>1609.93</ele>
        <time>2015-11-01T07:44:37Z</time>
      </trkpt>
      <trkpt lat="42.7153" lon="0.62398">
        <ele>1609.97</ele>
        <time>2015-11-01T07:44:39Z</time>
      </trkpt>
      <trkpt lat="42.71534" lon="0.62374">
        <ele>1610.57</ele>
        <time>2015-11-01T07:45:01Z</time>
      </trkpt>
      <trkpt lat="42.71537" lon="0.62369">
        <ele>1611.13</ele>
        <time>2015-11-01T07:45:06Z</time>
      </trkpt>
      <trkpt lat="42.71541" lon="0.62357">
        <ele>1612.25</ele>
        <time>2015-11-01T07:45:22Z</time>
      </trkpt>
      <trkpt lat="42.7153" lon="0.62333">
        <ele>1612.97</ele>
        <time>2015-11-01T07:45:36Z</time>
      </trkpt>
      <trkpt lat="42.71519" lon="0.62301">
        <ele>1614.29</ele>
        <time>2015-11-01T07:45:57Z</time>
      </trkpt>
      <trkpt lat="42.71516" lon="0.62297">
        <ele>1614.48</ele>
        <time>2015-11-01T07:46:01Z</time>
      </trkpt>
      <trkpt lat="42.71515" lon="0.62295">
        <ele>1614.41</ele>
        <time>2015-11-01T07:46:03Z</time>
      </trkpt>
      <trkpt lat="42.71513" lon="0.62273">
        <ele>1615.93</ele>
        <time>2015-11-01T07:46:24Z</time>
      </trkpt>
      <trkpt lat="42.71509" lon="0.62263">
        <ele>1615.96</ele>
        <time>2015-11-01T07:46:34Z</time>
      </trkpt>
      <trkpt lat="42.71513" lon="0.62236">
        <ele>1616.63</ele>
        <time>2015-11-01T07:46:56Z</time>
      </trkpt>
      <trkpt lat="42.71514" lon="0.62221">
        <ele>1617.52</ele>
        <time>2015-11-01T07:47:10Z</time>
      </trkpt>
      <trkpt lat="42.71512" lon="0.62209">
        <ele>1617.93</ele>
        <time>2015-11-01T07:47:18Z</time>
      </trkpt>
      <trkpt lat="42.71512" lon="0.62192">
        <ele>1618.34</ele>
        <time>2015-11-01T07:47:29Z</time>
      </trkpt>
      <trkpt lat="42.71512" lon="0.62169">
        <ele>1619.01</ele>
        <time>2015-11-01T07:47:42Z</time>
      </trkpt>
      <trkpt lat="42.71505" lon="0.62141">
        <ele>1620.06</ele>
        <time>2015-11-01T07:47:59Z</time>
      </trkpt>
      <trkpt lat="42.71505" lon="0.62114">
        <ele>1620.86</ele>
        <time>2015-11-01T07:48:15Z</time>
      </trkpt>
      <trkpt lat="42.71508" lon="0.62093">
        <ele>1620.31</ele>
        <time>2015-11-01T07:48:29Z</time>
      </trkpt>
      <trkpt lat="42.71508" lon="0.62061">
        <ele>1621.5</ele>
        <time>2015-11-01T07:48:50Z</time>
      </trkpt>
      <trkpt lat="42.71514" lon="0.62046">
        <ele>1622.59</ele>
        <time>2015-11-01T07:49:07Z</time>
      </trkpt>
      <trkpt lat="42.71526" lon="0.62023">
        <ele>1623.88</ele>
        <time>2015-11-01T07:49:26Z</time>
      </trkpt>
      <trkpt lat="42.71539" lon="0.62005">
        <ele>1624.96</ele>
        <time>2015-11-01T07:49:43Z</time>
      </trkpt>
      <trkpt lat="42.71557" lon="0.61987">
        <ele>1626.19</ele>
        <time>2015-11-01T07:49:59Z</time>
      </trkpt>
      <trkpt lat="42.71569" lon="0.61969">
        <ele>1627.89</ele>
        <time>2015-11-01T07:50:19Z</time>
      </trkpt>
      <trkpt lat="42.71575" lon="0.61958">
        <ele>1628.54</ele>
        <time>2015-11-01T07:50:32Z</time>
      </trkpt>
      <trkpt lat="42.71599" lon="0.61941">
        <ele>1629.91</ele>
        <time>2015-11-01T07:50:54Z</time>
      </trkpt>
      <trkpt lat="42.71599" lon="0.61928">
        <ele>1631.45</ele>
        <time>2015-11-01T07:51:14Z</time>
      </trkpt>
      <trkpt lat="42.71596" lon="0.6191">
        <ele>1632.22</ele>
        <time>2015-11-01T07:51:32Z</time>
      </trkpt>
      <trkpt lat="42.71591" lon="0.61892">
        <ele>1632.55</ele>
        <time>2015-11-01T07:51:43Z</time>
      </trkpt>
      <trkpt lat="42.71585" lon="0.61864">
        <ele>1633.65</ele>
        <time>2015-11-01T07:52:04Z</time>
      </trkpt>
      <trkpt lat="42.71584" lon="0.61834">
        <ele>1634.9</ele>
        <time>2015-11-01T07:52:24Z</time>
      </trkpt>
      <trkpt lat="42.7158" lon="0.61817">
        <ele>1635.19</ele>
        <time>2015-11-01T07:52:33Z</time>
      </trkpt>
      <trkpt lat="42.71572" lon="0.61789">
        <ele>1636.48</ele>
        <time>2015-11-01T07:52:46Z</time>
      </trkpt>
      <trkpt lat="42.71569" lon="0.61781">
        <ele>1636.74</ele>
        <time>2015-11-01T07:52:51Z</time>
      </trkpt>
      <trkpt lat="42.71564" lon="0.61769">
        <ele>1637.83</ele>
        <time>2015-11-01T07:53:07Z</time>
      </trkpt>
      <trkpt lat="42.71563" lon="0.61768">
        <ele>1637.85</ele>
        <time>2015-11-01T07:53:08Z</time>
      </trkpt>
      <trkpt lat="42.71552" lon="0.61759">
        <ele>1638.45</ele>
        <time>2015-11-01T07:53:22Z</time>
      </trkpt>
      <trkpt lat="42.7155" lon="0.61758">
        <ele>1638.59</ele>
        <time>2015-11-01T07:53:25Z</time>
      </trkpt>
      <trkpt lat="42.71535" lon="0.61754">
        <ele>1639.45</ele>
        <time>2015-11-01T07:53:42Z</time>
      </trkpt>
      <trkpt lat="42.7152" lon="0.61743">
        <ele>1639.87</ele>
        <time>2015-11-01T07:54:00Z</time>
      </trkpt>
      <trkpt lat="42.71517" lon="0.61737">
        <ele>1639.99</ele>
        <time>2015-11-01T07:54:04Z</time>
      </trkpt>
      <trkpt lat="42.71498" lon="0.61721">
        <ele>1641.18</ele>
        <time>2015-11-01T07:54:24Z</time>
      </trkpt>
      <trkpt lat="42.71497" lon="0.61722">
        <ele>1641.27</ele>
        <time>2015-11-01T07:54:26Z</time>
      </trkpt>
      <trkpt lat="42.71477" lon="0.61724">
        <ele>1643.1</ele>
        <time>2015-11-01T07:54:50Z</time>
      </trkpt>
      <trkpt lat="42.71461" lon="0.61722">
        <ele>1644.28</ele>
        <time>2015-11-01T07:55:04Z</time>
      </trkpt>
      <trkpt lat="42.7145" lon="0.61728">
        <ele>1645.02</ele>
        <time>2015-11-01T07:55:15Z</time>
      </trkpt>
      <trkpt lat="42.71447" lon="0.61731">
        <ele>1645.31</ele>
        <time>2015-11-01T07:55:19Z</time>
      </trkpt>
      <trkpt lat="42.71443" lon="0.61737">
        <ele>1645.79</ele>
        <time>2015-11-01T07:55:26Z</time>
      </trkpt>
      <trkpt lat="42.71431" lon="0.61745">
        <ele>1646.89</ele>
        <time>2015-11-01T07:55:39Z</time>
      </trkpt>
      <trkpt lat="42.71425" lon="0.6175">
        <ele>1647.8</ele>
        <time>2015-11-01T07:55:46Z</time>
      </trkpt>
      <trkpt lat="42.7142" lon="0.61755">
        <ele>1648.14</ele>
        <time>2015-11-01T07:55:53Z</time>
      </trkpt>
      <trkpt lat="42.71405" lon="0.61769">
        <ele>1648.78</ele>
        <time>2015-11-01T07:56:10Z</time>
      </trkpt>
      <trkpt lat="42.71396" lon="0.61775">
        <ele>1649.42</ele>
        <time>2015-11-01T07:56:21Z</time>
      </trkpt>
      <trkpt lat="42.71383" lon="0.61779">
        <ele>1650.1</ele>
        <time>2015-11-01T07:56:33Z</time>
      </trkpt>
      <trkpt lat="42.71369" lon="0.61777">
        <ele>1650.77</ele>
        <time>2015-11-01T07:56:46Z</time>
      </trkpt>
      <trkpt lat="42.71351" lon="0.61776">
        <ele>1651.84</ele>
        <time>2015-11-01T07:57:02Z</time>
      </trkpt>
      <trkpt lat="42.71327" lon="0.61752">
        <ele>1651.91</ele>
        <time>2015-11-01T07:57:17Z</time>
      </trkpt>
      <trkpt lat="42.71314" lon="0.6174">
        <ele>1652.32</ele>
        <time>2015-11-01T07:57:31Z</time>
      </trkpt>
      <trkpt lat="42.71307" lon="0.61723">
        <ele>1653.51</ele>
        <time>2015-11-01T07:57:47Z</time>
      </trkpt>
      <trkpt lat="42.71304" lon="0.61717">
        <ele>1653.97</ele>
        <time>2015-11-01T07:57:53Z</time>
      </trkpt>
      <trkpt lat="42.71303" lon="0.61715">
        <ele>1654.05</ele>
        <time>2015-11-01T07:57:55Z</time>
      </trkpt>
      <trkpt lat="42.71302" lon="0.61712">
        <ele>1654.08</ele>
        <time>2015-11-01T07:57:57Z</time>
      </trkpt>
      <trkpt lat="42.71301" lon="0.61707">
        <ele>1654.19</ele>
        <time>2015-11-01T07:58:01Z</time>
      </trkpt>
      <trkpt lat="42.71305" lon="0.61702">
        <ele>1654.27</ele>
        <time>2015-11-01T07:58:10Z</time>
      </trkpt>
      <trkpt lat="42.71306" lon="0.61695">
        <ele>1653.22</ele>
        <time>2015-11-01T07:58:17Z</time>
      </trkpt>
      <trkpt lat="42.71305" lon="0.61688">
        <ele>1652.2</ele>
        <time>2015-11-01T07:58:24Z</time>
      </trkpt>
      <trkpt lat="42.713" lon="0.61685">
        <ele>1649.75</ele>
        <time>2015-11-01T07:58:41Z</time>
      </trkpt>
      <trkpt lat="42.71275" lon="0.61668">
        <ele>1646.72</ele>
        <time>2015-11-01T07:58:59Z</time>
      </trkpt>
      <trkpt lat="42.71263" lon="0.61662">
        <ele>1645.16</ele>
        <time>2015-11-01T07:59:10Z</time>
      </trkpt>
      <trkpt lat="42.71245" lon="0.61657">
        <ele>1643.43</ele>
        <time>2015-11-01T07:59:26Z</time>
      </trkpt>
      <trkpt lat="42.71233" lon="0.61653">
        <ele>1641.3</ele>
        <time>2015-11-01T07:59:43Z</time>
      </trkpt>
      <trkpt lat="42.71231" lon="0.61653">
        <ele>1641.2</ele>
        <time>2015-11-01T07:59:45Z</time>
      </trkpt>
      <trkpt lat="42.71211" lon="0.61647">
        <ele>1639.66</ele>
        <time>2015-11-01T08:00:00Z</time>
      </trkpt>
      <trkpt lat="42.71192" lon="0.61658">
        <ele>1637.12</ele>
        <time>2015-11-01T08:00:18Z</time>
      </trkpt>
      <trkpt lat="42.71178" lon="0.6166">
        <ele>1635.61</ele>
        <time>2015-11-01T08:00:30Z</time>
      </trkpt>
      <trkpt lat="42.71163" lon="0.61666">
        <ele>1634.83</ele>
        <time>2015-11-01T08:00:43Z</time>
      </trkpt>
      <trkpt lat="42.71152" lon="0.61673">
        <ele>1633.93</ele>
        <time>2015-11-01T08:00:58Z</time>
      </trkpt>
      <trkpt lat="42.71148" lon="0.61675">
        <ele>1633.73</ele>
        <time>2015-11-01T08:01:01Z</time>
      </trkpt>
      <trkpt lat="42.71145" lon="0.61678">
        <ele>1633.59</ele>
        <time>2015-11-01T08:01:04Z</time>
      </trkpt>
      <trkpt lat="42.7114" lon="0.61681">
        <ele>1633.58</ele>
        <time>2015-11-01T08:01:07Z</time>
      </trkpt>
      <trkpt lat="42.71138" lon="0.61682">
        <ele>1633.76</ele>
        <time>2015-11-01T08:01:09Z</time>
      </trkpt>
      <trkpt lat="42.71126" lon="0.61683">
        <ele>1633.9</ele>
        <time>2015-11-01T08:01:16Z</time>
      </trkpt>
      <trkpt lat="42.71118" lon="0.61689">
        <ele>1634.1</ele>
        <time>2015-11-01T08:01:30Z</time>
      </trkpt>
      <trkpt lat="42.71116" lon="0.61692">
        <ele>1633.76</ele>
        <time>2015-11-01T08:01:33Z</time>
      </trkpt>
      <trkpt lat="42.71107" lon="0.61701">
        <ele>1632.66</ele>
        <time>2015-11-01T08:01:45Z</time>
      </trkpt>
      <trkpt lat="42.71093" lon="0.61715">
        <ele>1630.88</ele>
        <time>2015-11-01T08:02:05Z</time>
      </trkpt>
      <trkpt lat="42.71078" lon="0.61722">
        <ele>1627.94</ele>
        <time>2015-11-01T08:02:24Z</time>
      </trkpt>
      <trkpt lat="42.71077" lon="0.61724">
        <ele>1627.56</ele>
        <time>2015-11-01T08:02:27Z</time>
      </trkpt>
      <trkpt lat="42.71072" lon="0.61733">
        <ele>1627.53</ele>
        <time>2015-11-01T08:02:48Z</time>
      </trkpt>
      <trkpt lat="42.71067" lon="0.61742">
        <ele>1626.91</ele>
        <time>2015-11-01T08:03:08Z</time>
      </trkpt>
      <trkpt lat="42.71058" lon="0.61758">
        <ele>1628.29</ele>
        <time>2015-11-01T08:03:28Z</time>
      </trkpt>
      <trkpt lat="42.71051" lon="0.61767">
        <ele>1629.04</ele>
        <time>2015-11-01T08:03:51Z</time>
      </trkpt>
      <trkpt lat="42.71043" lon="0.61753">
        <ele>1629.25</ele>
        <time>2015-11-01T08:04:12Z</time>
      </trkpt>
      <trkpt lat="42.71024" lon="0.61743">
        <ele>1629.91</ele>
        <time>2015-11-01T08:04:32Z</time>
      </trkpt>
      <trkpt lat="42.71008" lon="0.61754">
        <ele>1631.01</ele>
        <time>2015-11-01T08:04:53Z</time>
      </trkpt>
      <trkpt lat="42.71004" lon="0.61758">
        <ele>1632.64</ele>
        <time>2015-11-01T08:05:12Z</time>
      </trkpt>
      <trkpt lat="42.71002" lon="0.61761">
        <ele>1632.93</ele>
        <time>2015-11-01T08:05:31Z</time>
      </trkpt>
      <trkpt lat="42.70991" lon="0.61758">
        <ele>1633.56</ele>
        <time>2015-11-01T08:05:48Z</time>
      </trkpt>
      <trkpt lat="42.7097" lon="0.61769">
        <ele>1635.48</ele>
        <time>2015-11-01T08:06:12Z</time>
      </trkpt>
      <trkpt lat="42.70957" lon="0.61778">
        <ele>1635.53</ele>
        <time>2015-11-01T08:06:30Z</time>
      </trkpt>
      <trkpt lat="42.70951" lon="0.61792">
        <ele>1636.98</ele>
        <time>2015-11-01T08:06:44Z</time>
      </trkpt>
      <trkpt lat="42.70945" lon="0.61793">
        <ele>1637.82</ele>
        <time>2015-11-01T08:06:58Z</time>
      </trkpt>
      <trkpt lat="42.70946" lon="0.61793">
        <ele>1637.93</ele>
        <time>2015-11-01T08:07:00Z</time>
      </trkpt>
      <trkpt lat="42.70943" lon="0.61795">
        <ele>1638.3</ele>
        <time>2015-11-01T08:07:23Z</time>
      </trkpt>
      <trkpt lat="42.70939" lon="0.61798">
        <ele>1638.9</ele>
        <time>2015-11-01T08:07:44Z</time>
      </trkpt>
      <trkpt lat="42.70941" lon="0.61799">
        <ele>1638.37</ele>
        <time>2015-11-01T08:07:56Z</time>
      </trkpt>
      <trkpt lat="42.70939" lon="0.61807">
        <ele>1639.11</ele>
        <time>2015-11-01T08:08:21Z</time>
      </trkpt>
      <trkpt lat="42.70941" lon="0.61804">
        <ele>1639.03</ele>
        <time>2015-11-01T08:08:52Z</time>
      </trkpt>
      <trkpt lat="42.70943" lon="0.61804">
        <ele>1638.83</ele>
        <time>2015-11-01T08:09:20Z</time>
      </trkpt>
      <trkpt lat="42.70936" lon="0.61802">
        <ele>1639.04</ele>
        <time>2015-11-01T08:09:49Z</time>
      </trkpt>
      <trkpt lat="42.70937" lon="0.61802">
        <ele>1639.05</ele>
        <time>2015-11-01T08:09:55Z</time>
      </trkpt>
      <trkpt lat="42.70938" lon="0.618">
        <ele>1639.18</ele>
        <time>2015-11-01T08:10:20Z</time>
      </trkpt>
      <trkpt lat="42.70938" lon="0.61801">
        <ele>1639.13</ele>
        <time>2015-11-01T08:10:23Z</time>
      </trkpt>
      <trkpt lat="42.70938" lon="0.61803">
        <ele>1639.31</ele>
        <time>2015-11-01T08:10:53Z</time>
      </trkpt>
      <trkpt lat="42.70941" lon="0.61802">
        <ele>1639.16</ele>
        <time>2015-11-01T08:11:22Z</time>
      </trkpt>
      <trkpt lat="42.70936" lon="0.61801">
        <ele>1639.43</ele>
        <time>2015-11-01T08:11:48Z</time>
      </trkpt>
      <trkpt lat="42.70936" lon="0.61803">
        <ele>1639.55</ele>
        <time>2015-11-01T08:12:20Z</time>
      </trkpt>
      <trkpt lat="42.70941" lon="0.61804">
        <ele>1639.23</ele>
        <time>2015-11-01T08:12:49Z</time>
      </trkpt>
      <trkpt lat="42.70941" lon="0.61803">
        <ele>1639.08</ele>
        <time>2015-11-01T08:12:52Z</time>
      </trkpt>
      <trkpt lat="42.70938" lon="0.618">
        <ele>1638.98</ele>
        <time>2015-11-01T08:12:54Z</time>
      </trkpt>
      <trkpt lat="42.70937" lon="0.618">
        <ele>1639.24</ele>
        <time>2015-11-01T08:13:18Z</time>
      </trkpt>
      <trkpt lat="42.70932" lon="0.61801">
        <ele>1639.8</ele>
        <time>2015-11-01T08:13:24Z</time>
      </trkpt>
      <trkpt lat="42.7092" lon="0.61799">
        <ele>1639.92</ele>
        <time>2015-11-01T08:13:35Z</time>
      </trkpt>
      <trkpt lat="42.70907" lon="0.618">
        <ele>1641.15</ele>
        <time>2015-11-01T08:13:51Z</time>
      </trkpt>
      <trkpt lat="42.70905" lon="0.6179">
        <ele>1641.81</ele>
        <time>2015-11-01T08:14:04Z</time>
      </trkpt>
      <trkpt lat="42.70905" lon="0.61788">
        <ele>1641.93</ele>
        <time>2015-11-01T08:14:06Z</time>
      </trkpt>
      <trkpt lat="42.70899" lon="0.61778">
        <ele>1642.24</ele>
        <time>2015-11-01T08:14:20Z</time>
      </trkpt>
      <trkpt lat="42.70898" lon="0.61776">
        <ele>1642.27</ele>
        <time>2015-11-01T08:14:22Z</time>
      </trkpt>
      <trkpt lat="42.7089" lon="0.61763">
        <ele>1643.56</ele>
        <time>2015-11-01T08:14:37Z</time>
      </trkpt>
      <trkpt lat="42.70881" lon="0.61752">
        <ele>1645.47</ele>
        <time>2015-11-01T08:14:52Z</time>
      </trkpt>
      <trkpt lat="42.70877" lon="0.61748">
        <ele>1646.14</ele>
        <time>2015-11-01T08:15:00Z</time>
      </trkpt>
      <trkpt lat="42.70871" lon="0.61741">
        <ele>1647.9</ele>
        <time>2015-11-01T08:15:14Z</time>
      </trkpt>
      <trkpt lat="42.70871" lon="0.61739">
        <ele>1648.18</ele>
        <time>2015-11-01T08:15:16Z</time>
      </trkpt>
      <trkpt lat="42.70871" lon="0.61722">
        <ele>1650</ele>
        <time>2015-11-01T08:15:31Z</time>
      </trkpt>
      <trkpt lat="42.70878" lon="0.61705">
        <ele>1650.67</ele>
        <time>2015-11-01T08:15:48Z</time>
      </trkpt>
      <trkpt lat="42.70874" lon="0.61693">
        <ele>1651.72</ele>
        <time>2015-11-01T08:16:04Z</time>
      </trkpt>
      <trkpt lat="42.70872" lon="0.61677">
        <ele>1654.08</ele>
        <time>2015-11-01T08:16:24Z</time>
      </trkpt>
      <trkpt lat="42.70863" lon="0.61655">
        <ele>1655.91</ele>
        <time>2015-11-01T08:16:46Z</time>
      </trkpt>
      <trkpt lat="42.70853" lon="0.61633">
        <ele>1658.73</ele>
        <time>2015-11-01T08:17:08Z</time>
      </trkpt>
      <trkpt lat="42.70844" lon="0.61617">
        <ele>1660.34</ele>
        <time>2015-11-01T08:17:26Z</time>
      </trkpt>
      <trkpt lat="42.70839" lon="0.616">
        <ele>1662.25</ele>
        <time>2015-11-01T08:17:45Z</time>
      </trkpt>
      <trkpt lat="42.70837" lon="0.61584">
        <ele>1663.58</ele>
        <time>2015-11-01T08:18:08Z</time>
      </trkpt>
      <trkpt lat="42.70831" lon="0.61556">
        <ele>1665.8</ele>
        <time>2015-11-01T08:18:30Z</time>
      </trkpt>
      <trkpt lat="42.70828" lon="0.61541">
        <ele>1666.98</ele>
        <time>2015-11-01T08:18:42Z</time>
      </trkpt>
      <trkpt lat="42.70829" lon="0.61529">
        <ele>1668.11</ele>
        <time>2015-11-01T08:18:58Z</time>
      </trkpt>
      <trkpt lat="42.70821" lon="0.61515">
        <ele>1669.32</ele>
        <time>2015-11-01T08:19:20Z</time>
      </trkpt>
      <trkpt lat="42.70811" lon="0.61502">
        <ele>1670.61</ele>
        <time>2015-11-01T08:19:34Z</time>
      </trkpt>
      <trkpt lat="42.70808" lon="0.61499">
        <ele>1670.97</ele>
        <time>2015-11-01T08:19:37Z</time>
      </trkpt>
      <trkpt lat="42.70788" lon="0.61478">
        <ele>1673.48</ele>
        <time>2015-11-01T08:19:57Z</time>
      </trkpt>
      <trkpt lat="42.70769" lon="0.61468">
        <ele>1675.71</ele>
        <time>2015-11-01T08:20:16Z</time>
      </trkpt>
      <trkpt lat="42.70766" lon="0.61471">
        <ele>1678.74</ele>
        <time>2015-11-01T08:20:26Z</time>
      </trkpt>
      <trkpt lat="42.70761" lon="0.61462">
        <ele>1679.05</ele>
        <time>2015-11-01T08:20:45Z</time>
      </trkpt>
      <trkpt lat="42.70758" lon="0.61459">
        <ele>1679.03</ele>
        <time>2015-11-01T08:20:50Z</time>
      </trkpt>
      <trkpt lat="42.7076" lon="0.61446">
        <ele>1678.08</ele>
        <time>2015-11-01T08:21:05Z</time>
      </trkpt>
      <trkpt lat="42.70775" lon="0.61422">
        <ele>1677.53</ele>
        <time>2015-11-01T08:21:28Z</time>
      </trkpt>
      <trkpt lat="42.70777" lon="0.61407">
        <ele>1678.83</ele>
        <time>2015-11-01T08:21:46Z</time>
      </trkpt>
      <trkpt lat="42.70772" lon="0.61393">
        <ele>1681.5</ele>
        <time>2015-11-01T08:22:06Z</time>
      </trkpt>
      <trkpt lat="42.70772" lon="0.61372">
        <ele>1683.44</ele>
        <time>2015-11-01T08:22:29Z</time>
      </trkpt>
      <trkpt lat="42.70761" lon="0.61358">
        <ele>1684.14</ele>
        <time>2015-11-01T08:22:48Z</time>
      </trkpt>
      <trkpt lat="42.70751" lon="0.61342">
        <ele>1685.78</ele>
        <time>2015-11-01T08:23:05Z</time>
      </trkpt>
      <trkpt lat="42.70747" lon="0.61335">
        <ele>1686.68</ele>
        <time>2015-11-01T08:23:24Z</time>
      </trkpt>
      <trkpt lat="42.70751" lon="0.61333">
        <ele>1687.94</ele>
        <time>2015-11-01T08:23:38Z</time>
      </trkpt>
      <trkpt lat="42.70767" lon="0.61322">
        <ele>1689.65</ele>
        <time>2015-11-01T08:23:59Z</time>
      </trkpt>
      <trkpt lat="42.70775" lon="0.61311">
        <ele>1692.07</ele>
        <time>2015-11-01T08:24:14Z</time>
      </trkpt>
      <trkpt lat="42.7078" lon="0.61296">
        <ele>1695.3</ele>
        <time>2015-11-01T08:24:32Z</time>
      </trkpt>
      <trkpt lat="42.7078" lon="0.61288">
        <ele>1698.38</ele>
        <time>2015-11-01T08:24:42Z</time>
      </trkpt>
      <trkpt lat="42.70786" lon="0.61276">
        <ele>1701.5</ele>
        <time>2015-11-01T08:25:01Z</time>
      </trkpt>
      <trkpt lat="42.7079" lon="0.61265">
        <ele>1704.71</ele>
        <time>2015-11-01T08:25:15Z</time>
      </trkpt>
      <trkpt lat="42.70798" lon="0.61257">
        <ele>1707.81</ele>
        <time>2015-11-01T08:25:28Z</time>
      </trkpt>
      <trkpt lat="42.70805" lon="0.61243">
        <ele>1710.88</ele>
        <time>2015-11-01T08:25:50Z</time>
      </trkpt>
      <trkpt lat="42.70811" lon="0.61229">
        <ele>1714.11</ele>
        <time>2015-11-01T08:26:09Z</time>
      </trkpt>
      <trkpt lat="42.70816" lon="0.61217">
        <ele>1715.87</ele>
        <time>2015-11-01T08:26:21Z</time>
      </trkpt>
      <trkpt lat="42.70818" lon="0.61208">
        <ele>1718.2</ele>
        <time>2015-11-01T08:26:33Z</time>
      </trkpt>
      <trkpt lat="42.7082" lon="0.61198">
        <ele>1721.21</ele>
        <time>2015-11-01T08:26:48Z</time>
      </trkpt>
      <trkpt lat="42.70822" lon="0.61187">
        <ele>1724.33</ele>
        <time>2015-11-01T08:27:06Z</time>
      </trkpt>
      <trkpt lat="42.7082" lon="0.61179">
        <ele>1727.35</ele>
        <time>2015-11-01T08:27:18Z</time>
      </trkpt>
      <trkpt lat="42.7082" lon="0.61173">
        <ele>1729.5</ele>
        <time>2015-11-01T08:27:33Z</time>
      </trkpt>
      <trkpt lat="42.70821" lon="0.61164">
        <ele>1732.71</ele>
        <time>2015-11-01T08:27:49Z</time>
      </trkpt>
      <trkpt lat="42.70819" lon="0.61152">
        <ele>1735.78</ele>
        <time>2015-11-01T08:28:06Z</time>
      </trkpt>
      <trkpt lat="42.70819" lon="0.61142">
        <ele>1738.79</ele>
        <time>2015-11-01T08:28:21Z</time>
      </trkpt>
      <trkpt lat="42.70828" lon="0.61135">
        <ele>1740.65</ele>
        <time>2015-11-01T08:28:41Z</time>
      </trkpt>
      <trkpt lat="42.70836" lon="0.6113">
        <ele>1741.73</ele>
        <time>2015-11-01T08:29:00Z</time>
      </trkpt>
      <trkpt lat="42.70844" lon="0.61124">
        <ele>1743.18</ele>
        <time>2015-11-01T08:29:10Z</time>
      </trkpt>
      <trkpt lat="42.70846" lon="0.61119">
        <ele>1743.94</ele>
        <time>2015-11-01T08:29:23Z</time>
      </trkpt>
      <trkpt lat="42.70852" lon="0.61111">
        <ele>1746.14</ele>
        <time>2015-11-01T08:29:42Z</time>
      </trkpt>
      <trkpt lat="42.7086" lon="0.61094">
        <ele>1749.19</ele>
        <time>2015-11-01T08:30:03Z</time>
      </trkpt>
      <trkpt lat="42.70857" lon="0.61084">
        <ele>1752.22</ele>
        <time>2015-11-01T08:30:20Z</time>
      </trkpt>
      <trkpt lat="42.70867" lon="0.61077">
        <ele>1754.59</ele>
        <time>2015-11-01T08:30:40Z</time>
      </trkpt>
      <trkpt lat="42.70878" lon="0.61069">
        <ele>1757.62</ele>
        <time>2015-11-01T08:31:03Z</time>
      </trkpt>
      <trkpt lat="42.70889" lon="0.61066">
        <ele>1759.94</ele>
        <time>2015-11-01T08:31:23Z</time>
      </trkpt>
      <trkpt lat="42.709" lon="0.61062">
        <ele>1762.81</ele>
        <time>2015-11-01T08:31:40Z</time>
      </trkpt>
      <trkpt lat="42.7091" lon="0.61051">
        <ele>1764.7</ele>
        <time>2015-11-01T08:32:00Z</time>
      </trkpt>
      <trkpt lat="42.70904" lon="0.61055">
        <ele>1767.96</ele>
        <time>2015-11-01T08:32:18Z</time>
      </trkpt>
      <trkpt lat="42.70893" lon="0.6105">
        <ele>1770.53</ele>
        <time>2015-11-01T08:32:37Z</time>
      </trkpt>
      <trkpt lat="42.70896" lon="0.61045">
        <ele>1772.8</ele>
        <time>2015-11-01T08:32:57Z</time>
      </trkpt>
      <trkpt lat="42.70904" lon="0.61034">
        <ele>1775.82</ele>
        <time>2015-11-01T08:33:17Z</time>
      </trkpt>
      <trkpt lat="42.70909" lon="0.61026">
        <ele>1778.89</ele>
        <time>2015-11-01T08:33:34Z</time>
      </trkpt>
      <trkpt lat="42.70913" lon="0.61021">
        <ele>1781.94</ele>
        <time>2015-11-01T08:33:50Z</time>
      </trkpt>
      <trkpt lat="42.70927" lon="0.6102">
        <ele>1784.8</ele>
        <time>2015-11-01T08:34:15Z</time>
      </trkpt>
      <trkpt lat="42.70935" lon="0.61011">
        <ele>1787.89</ele>
        <time>2015-11-01T08:34:36Z</time>
      </trkpt>
      <trkpt lat="42.70942" lon="0.61003">
        <ele>1791.11</ele>
        <time>2015-11-01T08:34:57Z</time>
      </trkpt>
      <trkpt lat="42.70935" lon="0.61001">
        <ele>1793.55</ele>
        <time>2015-11-01T08:35:16Z</time>
      </trkpt>
      <trkpt lat="42.70931" lon="0.60997">
        <ele>1795.78</ele>
        <time>2015-11-01T08:35:36Z</time>
      </trkpt>
      <trkpt lat="42.70935" lon="0.60989">
        <ele>1798.92</ele>
        <time>2015-11-01T08:35:57Z</time>
      </trkpt>
      <trkpt lat="42.70942" lon="0.60981">
        <ele>1802.25</ele>
        <time>2015-11-01T08:36:16Z</time>
      </trkpt>
      <trkpt lat="42.70952" lon="0.60971">
        <ele>1805.03</ele>
        <time>2015-11-01T08:36:39Z</time>
      </trkpt>
      <trkpt lat="42.70946" lon="0.6097">
        <ele>1808.08</ele>
        <time>2015-11-01T08:36:54Z</time>
      </trkpt>
      <trkpt lat="42.70934" lon="0.60971">
        <ele>1810.8</ele>
        <time>2015-11-01T08:37:16Z</time>
      </trkpt>
      <trkpt lat="42.70921" lon="0.60966">
        <ele>1813.4</ele>
        <time>2015-11-01T08:37:38Z</time>
      </trkpt>
      <trkpt lat="42.7092" lon="0.60958">
        <ele>1816.57</ele>
        <time>2015-11-01T08:37:58Z</time>
      </trkpt>
      <trkpt lat="42.70931" lon="0.60952">
        <ele>1819.58</ele>
        <time>2015-11-01T08:38:19Z</time>
      </trkpt>
      <trkpt lat="42.7094" lon="0.60939">
        <ele>1822.6</ele>
        <time>2015-11-01T08:38:40Z</time>
      </trkpt>
      <trkpt lat="42.70948" lon="0.60927">
        <ele>1825.75</ele>
        <time>2015-11-01T08:39:00Z</time>
      </trkpt>
      <trkpt lat="42.70958" lon="0.6092">
        <ele>1827.95</ele>
        <time>2015-11-01T08:39:21Z</time>
      </trkpt>
      <trkpt lat="42.7097" lon="0.60914">
        <ele>1830.74</ele>
        <time>2015-11-01T08:39:43Z</time>
      </trkpt>
      <trkpt lat="42.70977" lon="0.60907">
        <ele>1833.9</ele>
        <time>2015-11-01T08:40:01Z</time>
      </trkpt>
      <trkpt lat="42.70992" lon="0.60904">
        <ele>1836.98</ele>
        <time>2015-11-01T08:40:21Z</time>
      </trkpt>
      <trkpt lat="42.71001" lon="0.609">
        <ele>1839.75</ele>
        <time>2015-11-01T08:40:43Z</time>
      </trkpt>
      <trkpt lat="42.71004" lon="0.60899">
        <ele>1840.24</ele>
        <time>2015-11-01T08:41:13Z</time>
      </trkpt>
      <trkpt lat="42.71004" lon="0.60901">
        <ele>1840.6</ele>
        <time>2015-11-01T08:41:40Z</time>
      </trkpt>
      <trkpt lat="42.71003" lon="0.60901">
        <ele>1840.46</ele>
        <time>2015-11-01T08:42:07Z</time>
      </trkpt>
      <trkpt lat="42.71001" lon="0.60902">
        <ele>1840.31</ele>
        <time>2015-11-01T08:42:38Z</time>
      </trkpt>
      <trkpt lat="42.71002" lon="0.60902">
        <ele>1840.04</ele>
        <time>2015-11-01T08:43:05Z</time>
      </trkpt>
      <trkpt lat="42.71004" lon="0.60903">
        <ele>1839.9</ele>
        <time>2015-11-01T08:43:31Z</time>
      </trkpt>
      <trkpt lat="42.71004" lon="0.60899">
        <ele>1840.39</ele>
        <time>2015-11-01T08:43:58Z</time>
      </trkpt>
      <trkpt lat="42.71004" lon="0.609">
        <ele>1840.46</ele>
        <time>2015-11-01T08:44:26Z</time>
      </trkpt>
      <trkpt lat="42.71005" lon="0.60899">
        <ele>1840.34</ele>
        <time>2015-11-01T08:44:32Z</time>
      </trkpt>
      <trkpt lat="42.71006" lon="0.60896">
        <ele>1840.6</ele>
        <time>2015-11-01T08:44:58Z</time>
      </trkpt>
      <trkpt lat="42.71003" lon="0.60885">
        <ele>1843.64</ele>
        <time>2015-11-01T08:45:15Z</time>
      </trkpt>
      <trkpt lat="42.70994" lon="0.6088">
        <ele>1846.47</ele>
        <time>2015-11-01T08:45:35Z</time>
      </trkpt>
      <trkpt lat="42.70992" lon="0.60873">
        <ele>1849.54</ele>
        <time>2015-11-01T08:45:56Z</time>
      </trkpt>
      <trkpt lat="42.71001" lon="0.60862">
        <ele>1852.22</ele>
        <time>2015-11-01T08:46:17Z</time>
      </trkpt>
      <trkpt lat="42.71016" lon="0.60861">
        <ele>1854.34</ele>
        <time>2015-11-01T08:46:40Z</time>
      </trkpt>
      <trkpt lat="42.71012" lon="0.60854">
        <ele>1855.55</ele>
        <time>2015-11-01T08:46:50Z</time>
      </trkpt>
      <trkpt lat="42.70997" lon="0.60849">
        <ele>1857.29</ele>
        <time>2015-11-01T08:47:08Z</time>
      </trkpt>
      <trkpt lat="42.70977" lon="0.60855">
        <ele>1858.14</ele>
        <time>2015-11-01T08:47:31Z</time>
      </trkpt>
      <trkpt lat="42.70958" lon="0.6085">
        <ele>1860.34</ele>
        <time>2015-11-01T08:47:52Z</time>
      </trkpt>
      <trkpt lat="42.70945" lon="0.60853">
        <ele>1862.29</ele>
        <time>2015-11-01T08:48:13Z</time>
      </trkpt>
      <trkpt lat="42.70934" lon="0.60863">
        <ele>1864.24</ele>
        <time>2015-11-01T08:48:32Z</time>
      </trkpt>
      <trkpt lat="42.70925" lon="0.6087">
        <ele>1865.64</ele>
        <time>2015-11-01T08:48:50Z</time>
      </trkpt>
      <trkpt lat="42.70911" lon="0.60875">
        <ele>1866.16</ele>
        <time>2015-11-01T08:49:08Z</time>
      </trkpt>
      <trkpt lat="42.70899" lon="0.60879">
        <ele>1867.5</ele>
        <time>2015-11-01T08:49:23Z</time>
      </trkpt>
      <trkpt lat="42.70881" lon="0.60884">
        <ele>1869.22</ele>
        <time>2015-11-01T08:49:45Z</time>
      </trkpt>
      <trkpt lat="42.7087" lon="0.60887">
        <ele>1872.34</ele>
        <time>2015-11-01T08:50:01Z</time>
      </trkpt>
      <trkpt lat="42.70858" lon="0.6089">
        <ele>1874.79</ele>
        <time>2015-11-01T08:50:20Z</time>
      </trkpt>
      <trkpt lat="42.70846" lon="0.60893">
        <ele>1875.96</ele>
        <time>2015-11-01T08:50:39Z</time>
      </trkpt>
      <trkpt lat="42.70832" lon="0.60895">
        <ele>1875.83</ele>
        <time>2015-11-01T08:51:01Z</time>
      </trkpt>
      <trkpt lat="42.70823" lon="0.60904">
        <ele>1879.08</ele>
        <time>2015-11-01T08:51:18Z</time>
      </trkpt>
      <trkpt lat="42.70815" lon="0.60908">
        <ele>1880.12</ele>
        <time>2015-11-01T08:51:29Z</time>
      </trkpt>
      <trkpt lat="42.70799" lon="0.60918">
        <ele>1882.69</ele>
        <time>2015-11-01T08:51:49Z</time>
      </trkpt>
      <trkpt lat="42.70791" lon="0.60935">
        <ele>1884.44</ele>
        <time>2015-11-01T08:52:09Z</time>
      </trkpt>
      <trkpt lat="42.70777" lon="0.60949">
        <ele>1887.16</ele>
        <time>2015-11-01T08:52:30Z</time>
      </trkpt>
      <trkpt lat="42.70768" lon="0.60954">
        <ele>1888.66</ele>
        <time>2015-11-01T08:52:46Z</time>
      </trkpt>
      <trkpt lat="42.70755" lon="0.60962">
        <ele>1890.45</ele>
        <time>2015-11-01T08:53:06Z</time>
      </trkpt>
      <trkpt lat="42.70747" lon="0.60965">
        <ele>1891.72</ele>
        <time>2015-11-01T08:53:23Z</time>
      </trkpt>
      <trkpt lat="42.7073" lon="0.60972">
        <ele>1893.75</ele>
        <time>2015-11-01T08:53:47Z</time>
      </trkpt>
      <trkpt lat="42.70715" lon="0.60974">
        <ele>1893.54</ele>
        <time>2015-11-01T08:54:06Z</time>
      </trkpt>
      <trkpt lat="42.707" lon="0.6097">
        <ele>1894.55</ele>
        <time>2015-11-01T08:54:25Z</time>
      </trkpt>
      <trkpt lat="42.70685" lon="0.60975">
        <ele>1896.71</ele>
        <time>2015-11-01T08:54:48Z</time>
      </trkpt>
      <trkpt lat="42.70673" lon="0.60982">
        <ele>1898.83</ele>
        <time>2015-11-01T08:55:07Z</time>
      </trkpt>
      <trkpt lat="42.70662" lon="0.60993">
        <ele>1900.98</ele>
        <time>2015-11-01T08:55:25Z</time>
      </trkpt>
      <trkpt lat="42.70654" lon="0.61001">
        <ele>1902.26</ele>
        <time>2015-11-01T08:55:44Z</time>
      </trkpt>
      <trkpt lat="42.70643" lon="0.61009">
        <ele>1903.38</ele>
        <time>2015-11-01T08:55:58Z</time>
      </trkpt>
      <trkpt lat="42.7063" lon="0.61022">
        <ele>1903.47</ele>
        <time>2015-11-01T08:56:16Z</time>
      </trkpt>
      <trkpt lat="42.70626" lon="0.61031">
        <ele>1905.57</ele>
        <time>2015-11-01T08:56:25Z</time>
      </trkpt>
      <trkpt lat="42.70617" lon="0.61043">
        <ele>1908.7</ele>
        <time>2015-11-01T08:56:40Z</time>
      </trkpt>
      <trkpt lat="42.70607" lon="0.61049">
        <ele>1910.95</ele>
        <time>2015-11-01T08:56:53Z</time>
      </trkpt>
      <trkpt lat="42.70597" lon="0.61046">
        <ele>1914.03</ele>
        <time>2015-11-01T08:57:08Z</time>
      </trkpt>
      <trkpt lat="42.70592" lon="0.61042">
        <ele>1913.71</ele>
        <time>2015-11-01T08:57:14Z</time>
      </trkpt>
      <trkpt lat="42.70575" lon="0.61032">
        <ele>1913.29</ele>
        <time>2015-11-01T08:57:34Z</time>
      </trkpt>
      <trkpt lat="42.70561" lon="0.6103">
        <ele>1916.16</ele>
        <time>2015-11-01T08:57:56Z</time>
      </trkpt>
      <trkpt lat="42.70559" lon="0.61044">
        <ele>1915.87</ele>
        <time>2015-11-01T08:58:14Z</time>
      </trkpt>
      <trkpt lat="42.70548" lon="0.61061">
        <ele>1918.53</ele>
        <time>2015-11-01T08:58:34Z</time>
      </trkpt>
      <trkpt lat="42.70536" lon="0.61063">
        <ele>1921.18</ele>
        <time>2015-11-01T08:58:56Z</time>
      </trkpt>
      <trkpt lat="42.70534" lon="0.61083">
        <ele>1922.17</ele>
        <time>2015-11-01T08:59:09Z</time>
      </trkpt>
      <trkpt lat="42.70532" lon="0.61101">
        <ele>1923.63</ele>
        <time>2015-11-01T08:59:22Z</time>
      </trkpt>
      <trkpt lat="42.70532" lon="0.61123">
        <ele>1926.24</ele>
        <time>2015-11-01T08:59:40Z</time>
      </trkpt>
      <trkpt lat="42.70535" lon="0.61146">
        <ele>1928.44</ele>
        <time>2015-11-01T09:00:01Z</time>
      </trkpt>
      <trkpt lat="42.70536" lon="0.61166">
        <ele>1930.19</ele>
        <time>2015-11-01T09:00:19Z</time>
      </trkpt>
      <trkpt lat="42.70535" lon="0.61185">
        <ele>1933.01</ele>
        <time>2015-11-01T09:00:39Z</time>
      </trkpt>
      <trkpt lat="42.70534" lon="0.61204">
        <ele>1934.5</ele>
        <time>2015-11-01T09:00:57Z</time>
      </trkpt>
      <trkpt lat="42.70529" lon="0.61204">
        <ele>1937.48</ele>
        <time>2015-11-01T09:01:14Z</time>
      </trkpt>
      <trkpt lat="42.7053" lon="0.61188">
        <ele>1939.97</ele>
        <time>2015-11-01T09:01:34Z</time>
      </trkpt>
      <trkpt lat="42.70523" lon="0.61167">
        <ele>1942.03</ele>
        <time>2015-11-01T09:01:56Z</time>
      </trkpt>
      <trkpt lat="42.70519" lon="0.61182">
        <ele>1944.86</ele>
        <time>2015-11-01T09:02:14Z</time>
      </trkpt>
      <trkpt lat="42.70521" lon="0.61195">
        <ele>1946.37</ele>
        <time>2015-11-01T09:02:34Z</time>
      </trkpt>
      <trkpt lat="42.7052" lon="0.61208">
        <ele>1948.27</ele>
        <time>2015-11-01T09:02:51Z</time>
      </trkpt>
      <trkpt lat="42.70517" lon="0.61221">
        <ele>1951.15</ele>
        <time>2015-11-01T09:03:09Z</time>
      </trkpt>
      <trkpt lat="42.70513" lon="0.61221">
        <ele>1953.92</ele>
        <time>2015-11-01T09:03:27Z</time>
      </trkpt>
      <trkpt lat="42.70507" lon="0.61215">
        <ele>1957.06</ele>
        <time>2015-11-01T09:03:46Z</time>
      </trkpt>
      <trkpt lat="42.705" lon="0.6121">
        <ele>1959.58</ele>
        <time>2015-11-01T09:04:06Z</time>
      </trkpt>
      <trkpt lat="42.70496" lon="0.61213">
        <ele>1962.61</ele>
        <time>2015-11-01T09:04:20Z</time>
      </trkpt>
      <trkpt lat="42.70495" lon="0.61193">
        <ele>1965.39</ele>
        <time>2015-11-01T09:04:42Z</time>
      </trkpt>
      <trkpt lat="42.70492" lon="0.6118">
        <ele>1968.48</ele>
        <time>2015-11-01T09:04:56Z</time>
      </trkpt>
      <trkpt lat="42.70489" lon="0.61161">
        <ele>1969.93</ele>
        <time>2015-11-01T09:05:12Z</time>
      </trkpt>
      <trkpt lat="42.70488" lon="0.61145">
        <ele>1973.34</ele>
        <time>2015-11-01T09:05:28Z</time>
      </trkpt>
      <trkpt lat="42.7048" lon="0.61153">
        <ele>1975.43</ele>
        <time>2015-11-01T09:05:46Z</time>
      </trkpt>
      <trkpt lat="42.70477" lon="0.61165">
        <ele>1976.81</ele>
        <time>2015-11-01T09:05:58Z</time>
      </trkpt>
      <trkpt lat="42.70475" lon="0.61186">
        <ele>1979.12</ele>
        <time>2015-11-01T09:06:14Z</time>
      </trkpt>
      <trkpt lat="42.70467" lon="0.61205">
        <ele>1982.55</ele>
        <time>2015-11-01T09:06:34Z</time>
      </trkpt>
      <trkpt lat="42.70467" lon="0.61199">
        <ele>1985.26</ele>
        <time>2015-11-01T09:06:50Z</time>
      </trkpt>
      <trkpt lat="42.70465" lon="0.61184">
        <ele>1987.67</ele>
        <time>2015-11-01T09:07:08Z</time>
      </trkpt>
      <trkpt lat="42.70465" lon="0.61172">
        <ele>1989.84</ele>
        <time>2015-11-01T09:07:27Z</time>
      </trkpt>
      <trkpt lat="42.70461" lon="0.61171">
        <ele>1989.77</ele>
        <time>2015-11-01T09:07:58Z</time>
      </trkpt>
      <trkpt lat="42.70462" lon="0.61171">
        <ele>1989.51</ele>
        <time>2015-11-01T09:08:29Z</time>
      </trkpt>
      <trkpt lat="42.70462" lon="0.61169">
        <ele>1988.93</ele>
        <time>2015-11-01T09:09:01Z</time>
      </trkpt>
      <trkpt lat="42.70459" lon="0.61157">
        <ele>1991.98</ele>
        <time>2015-11-01T09:09:21Z</time>
      </trkpt>
      <trkpt lat="42.70456" lon="0.61175">
        <ele>1994.54</ele>
        <time>2015-11-01T09:09:41Z</time>
      </trkpt>
      <trkpt lat="42.70451" lon="0.61188">
        <ele>1997.74</ele>
        <time>2015-11-01T09:09:55Z</time>
      </trkpt>
      <trkpt lat="42.70437" lon="0.61199">
        <ele>1999.88</ele>
        <time>2015-11-01T09:10:17Z</time>
      </trkpt>
      <trkpt lat="42.70428" lon="0.6122">
        <ele>2002.27</ele>
        <time>2015-11-01T09:10:38Z</time>
      </trkpt>
      <trkpt lat="42.7043" lon="0.61207">
        <ele>2004.69</ele>
        <time>2015-11-01T09:10:56Z</time>
      </trkpt>
      <trkpt lat="42.70435" lon="0.61186">
        <ele>2006.79</ele>
        <time>2015-11-01T09:11:17Z</time>
      </trkpt>
      <trkpt lat="42.70437" lon="0.6117">
        <ele>2009.89</ele>
        <time>2015-11-01T09:11:34Z</time>
      </trkpt>
      <trkpt lat="42.70431" lon="0.61156">
        <ele>2012.14</ele>
        <time>2015-11-01T09:11:54Z</time>
      </trkpt>
      <trkpt lat="42.70424" lon="0.61156">
        <ele>2014.18</ele>
        <time>2015-11-01T09:12:12Z</time>
      </trkpt>
      <trkpt lat="42.70422" lon="0.61171">
        <ele>2015.83</ele>
        <time>2015-11-01T09:12:30Z</time>
      </trkpt>
      <trkpt lat="42.70415" lon="0.61185">
        <ele>2017.93</ele>
        <time>2015-11-01T09:12:45Z</time>
      </trkpt>
      <trkpt lat="42.70409" lon="0.61204">
        <ele>2020.22</ele>
        <time>2015-11-01T09:13:04Z</time>
      </trkpt>
      <trkpt lat="42.70402" lon="0.61212">
        <ele>2022.93</ele>
        <time>2015-11-01T09:13:26Z</time>
      </trkpt>
      <trkpt lat="42.70402" lon="0.61209">
        <ele>2023.14</ele>
        <time>2015-11-01T09:13:28Z</time>
      </trkpt>
      <trkpt lat="42.70405" lon="0.61189">
        <ele>2025.77</ele>
        <time>2015-11-01T09:13:48Z</time>
      </trkpt>
      <trkpt lat="42.70398" lon="0.6117">
        <ele>2027.59</ele>
        <time>2015-11-01T09:14:09Z</time>
      </trkpt>
      <trkpt lat="42.70399" lon="0.61149">
        <ele>2030.6</ele>
        <time>2015-11-01T09:14:30Z</time>
      </trkpt>
      <trkpt lat="42.70402" lon="0.61134">
        <ele>2032.07</ele>
        <time>2015-11-01T09:14:47Z</time>
      </trkpt>
      <trkpt lat="42.70405" lon="0.61118">
        <ele>2034.17</ele>
        <time>2015-11-01T09:15:04Z</time>
      </trkpt>
      <trkpt lat="42.70408" lon="0.611">
        <ele>2036.62</ele>
        <time>2015-11-01T09:15:25Z</time>
      </trkpt>
      <trkpt lat="42.70403" lon="0.61092">
        <ele>2039.11</ele>
        <time>2015-11-01T09:15:42Z</time>
      </trkpt>
      <trkpt lat="42.7039" lon="0.61107">
        <ele>2041.54</ele>
        <time>2015-11-01T09:16:04Z</time>
      </trkpt>
      <trkpt lat="42.70386" lon="0.61123">
        <ele>2044.01</ele>
        <time>2015-11-01T09:16:25Z</time>
      </trkpt>
      <trkpt lat="42.70376" lon="0.61132">
        <ele>2045.62</ele>
        <time>2015-11-01T09:16:45Z</time>
      </trkpt>
      <trkpt lat="42.70364" lon="0.61142">
        <ele>2048.6</ele>
        <time>2015-11-01T09:17:07Z</time>
      </trkpt>
      <trkpt lat="42.70352" lon="0.61161">
        <ele>2050.82</ele>
        <time>2015-11-01T09:17:31Z</time>
      </trkpt>
      <trkpt lat="42.70344" lon="0.61174">
        <ele>2053.7</ele>
        <time>2015-11-01T09:17:50Z</time>
      </trkpt>
      <trkpt lat="42.70342" lon="0.61169">
        <ele>2055.78</ele>
        <time>2015-11-01T09:18:12Z</time>
      </trkpt>
      <trkpt lat="42.70345" lon="0.61152">
        <ele>2057.55</ele>
        <time>2015-11-01T09:18:32Z</time>
      </trkpt>
      <trkpt lat="42.70337" lon="0.6116">
        <ele>2060.83</ele>
        <time>2015-11-01T09:18:53Z</time>
      </trkpt>
      <trkpt lat="42.70332" lon="0.61157">
        <ele>2063.96</ele>
        <time>2015-11-01T09:19:13Z</time>
      </trkpt>
      <trkpt lat="42.70336" lon="0.61138">
        <ele>2066.03</ele>
        <time>2015-11-01T09:19:34Z</time>
      </trkpt>
      <trkpt lat="42.70325" lon="0.61144">
        <ele>2068.63</ele>
        <time>2015-11-01T09:19:55Z</time>
      </trkpt>
      <trkpt lat="42.70316" lon="0.6115">
        <ele>2070.94</ele>
        <time>2015-11-01T09:20:15Z</time>
      </trkpt>
      <trkpt lat="42.70321" lon="0.61135">
        <ele>2072.93</ele>
        <time>2015-11-01T09:20:34Z</time>
      </trkpt>
      <trkpt lat="42.7033" lon="0.61121">
        <ele>2076.01</ele>
        <time>2015-11-01T09:20:55Z</time>
      </trkpt>
      <trkpt lat="42.70332" lon="0.61108">
        <ele>2079.02</ele>
        <time>2015-11-01T09:21:13Z</time>
      </trkpt>
      <trkpt lat="42.70334" lon="0.6109">
        <ele>2080.54</ele>
        <time>2015-11-01T09:21:26Z</time>
      </trkpt>
      <trkpt lat="42.70333" lon="0.61075">
        <ele>2082.74</ele>
        <time>2015-11-01T09:21:40Z</time>
      </trkpt>
      <trkpt lat="42.70333" lon="0.61055">
        <ele>2085.11</ele>
        <time>2015-11-01T09:22:02Z</time>
      </trkpt>
      <trkpt lat="42.70336" lon="0.61036">
        <ele>2087.56</ele>
        <time>2015-11-01T09:22:23Z</time>
      </trkpt>
      <trkpt lat="42.70336" lon="0.61031">
        <ele>2088.2</ele>
        <time>2015-11-01T09:22:30Z</time>
      </trkpt>
      <trkpt lat="42.70335" lon="0.61027">
        <ele>2089.67</ele>
        <time>2015-11-01T09:22:34Z</time>
      </trkpt>
      <trkpt lat="42.70337" lon="0.61017">
        <ele>2092.69</ele>
        <time>2015-11-01T09:22:46Z</time>
      </trkpt>
      <trkpt lat="42.7033" lon="0.61016">
        <ele>2094.75</ele>
        <time>2015-11-01T09:23:05Z</time>
      </trkpt>
      <trkpt lat="42.70325" lon="0.61014">
        <ele>2097.57</ele>
        <time>2015-11-01T09:23:26Z</time>
      </trkpt>
      <trkpt lat="42.70329" lon="0.61005">
        <ele>2100.63</ele>
        <time>2015-11-01T09:23:46Z</time>
      </trkpt>
      <trkpt lat="42.70339" lon="0.60994">
        <ele>2103.86</ele>
        <time>2015-11-01T09:24:07Z</time>
      </trkpt>
      <trkpt lat="42.70339" lon="0.60987">
        <ele>2105.38</ele>
        <time>2015-11-01T09:24:32Z</time>
      </trkpt>
      <trkpt lat="42.70343" lon="0.60981">
        <ele>2105.03</ele>
        <time>2015-11-01T09:25:02Z</time>
      </trkpt>
      <trkpt lat="42.70343" lon="0.60982">
        <ele>2106.03</ele>
        <time>2015-11-01T09:25:26Z</time>
      </trkpt>
      <trkpt lat="42.70342" lon="0.60984">
        <ele>2106.03</ele>
        <time>2015-11-01T09:25:59Z</time>
      </trkpt>
      <trkpt lat="42.70341" lon="0.60988">
        <ele>2105.44</ele>
        <time>2015-11-01T09:26:29Z</time>
      </trkpt>
      <trkpt lat="42.70344" lon="0.60972">
        <ele>2106.2</ele>
        <time>2015-11-01T09:27:00Z</time>
      </trkpt>
      <trkpt lat="42.70339" lon="0.6097">
        <ele>2108.08</ele>
        <time>2015-11-01T09:27:20Z</time>
      </trkpt>
      <trkpt lat="42.70333" lon="0.60964">
        <ele>2110.1</ele>
        <time>2015-11-01T09:27:40Z</time>
      </trkpt>
      <trkpt lat="42.70333" lon="0.60947">
        <ele>2112.83</ele>
        <time>2015-11-01T09:28:00Z</time>
      </trkpt>
      <trkpt lat="42.70328" lon="0.60939">
        <ele>2115.95</ele>
        <time>2015-11-01T09:28:14Z</time>
      </trkpt>
      <trkpt lat="42.70324" lon="0.60924">
        <ele>2118.99</ele>
        <time>2015-11-01T09:28:34Z</time>
      </trkpt>
      <trkpt lat="42.70324" lon="0.60913">
        <ele>2121.56</ele>
        <time>2015-11-01T09:28:54Z</time>
      </trkpt>
      <trkpt lat="42.70318" lon="0.609">
        <ele>2124.18</ele>
        <time>2015-11-01T09:29:14Z</time>
      </trkpt>
      <trkpt lat="42.70314" lon="0.60889">
        <ele>2127.02</ele>
        <time>2015-11-01T09:29:32Z</time>
      </trkpt>
      <trkpt lat="42.70313" lon="0.60881">
        <ele>2130.28</ele>
        <time>2015-11-01T09:29:48Z</time>
      </trkpt>
      <trkpt lat="42.70311" lon="0.60871">
        <ele>2133.31</ele>
        <time>2015-11-01T09:30:04Z</time>
      </trkpt>
      <trkpt lat="42.70308" lon="0.60862">
        <ele>2135.66</ele>
        <time>2015-11-01T09:30:12Z</time>
      </trkpt>
      <trkpt lat="42.70304" lon="0.60853">
        <ele>2138.79</ele>
        <time>2015-11-01T09:30:32Z</time>
      </trkpt>
      <trkpt lat="42.70299" lon="0.60852">
        <ele>2141.38</ele>
        <time>2015-11-01T09:30:56Z</time>
      </trkpt>
      <trkpt lat="42.70296" lon="0.60848">
        <ele>2144.43</ele>
        <time>2015-11-01T09:31:13Z</time>
      </trkpt>
      <trkpt lat="42.70294" lon="0.60843">
        <ele>2147.45</ele>
        <time>2015-11-01T09:31:34Z</time>
      </trkpt>
      <trkpt lat="42.70294" lon="0.60837">
        <ele>2149.22</ele>
        <time>2015-11-01T09:31:47Z</time>
      </trkpt>
      <trkpt lat="42.70297" lon="0.60815">
        <ele>2151.44</ele>
        <time>2015-11-01T09:32:10Z</time>
      </trkpt>
      <trkpt lat="42.70301" lon="0.608">
        <ele>2153.14</ele>
        <time>2015-11-01T09:32:32Z</time>
      </trkpt>
      <trkpt lat="42.70309" lon="0.60785">
        <ele>2153.42</ele>
        <time>2015-11-01T09:32:52Z</time>
      </trkpt>
      <trkpt lat="42.70308" lon="0.60769">
        <ele>2155.44</ele>
        <time>2015-11-01T09:33:08Z</time>
      </trkpt>
      <trkpt lat="42.70304" lon="0.60758">
        <ele>2158.3</ele>
        <time>2015-11-01T09:33:26Z</time>
      </trkpt>
      <trkpt lat="42.70306" lon="0.60746">
        <ele>2161.44</ele>
        <time>2015-11-01T09:33:42Z</time>
      </trkpt>
      <trkpt lat="42.70305" lon="0.60734">
        <ele>2164.64</ele>
        <time>2015-11-01T09:34:01Z</time>
      </trkpt>
      <trkpt lat="42.70306" lon="0.6072">
        <ele>2167.79</ele>
        <time>2015-11-01T09:34:20Z</time>
      </trkpt>
      <trkpt lat="42.70306" lon="0.60711">
        <ele>2170.89</ele>
        <time>2015-11-01T09:34:37Z</time>
      </trkpt>
      <trkpt lat="42.70305" lon="0.60712">
        <ele>2171.14</ele>
        <time>2015-11-01T09:34:39Z</time>
      </trkpt>
      <trkpt lat="42.70298" lon="0.60707">
        <ele>2174.48</ele>
        <time>2015-11-01T09:34:57Z</time>
      </trkpt>
      <trkpt lat="42.70298" lon="0.60697">
        <ele>2177.24</ele>
        <time>2015-11-01T09:35:16Z</time>
      </trkpt>
      <trkpt lat="42.70295" lon="0.60686">
        <ele>2178.89</ele>
        <time>2015-11-01T09:35:38Z</time>
      </trkpt>
      <trkpt lat="42.7029" lon="0.60693">
        <ele>2181.73</ele>
        <time>2015-11-01T09:35:59Z</time>
      </trkpt>
      <trkpt lat="42.70289" lon="0.60693">
        <ele>2181.84</ele>
        <time>2015-11-01T09:36:01Z</time>
      </trkpt>
      <trkpt lat="42.70291" lon="0.6069">
        <ele>2182.43</ele>
        <time>2015-11-01T09:36:04Z</time>
      </trkpt>
      <trkpt lat="42.70293" lon="0.6069">
        <ele>2183.49</ele>
        <time>2015-11-01T09:36:34Z</time>
      </trkpt>
      <trkpt lat="42.70289" lon="0.60698">
        <ele>2183.37</ele>
        <time>2015-11-01T09:37:04Z</time>
      </trkpt>
      <trkpt lat="42.70292" lon="0.60694">
        <ele>2184.46</ele>
        <time>2015-11-01T09:37:32Z</time>
      </trkpt>
      <trkpt lat="42.70291" lon="0.60685">
        <ele>2186.38</ele>
        <time>2015-11-01T09:37:46Z</time>
      </trkpt>
      <trkpt lat="42.70285" lon="0.60683">
        <ele>2189.6</ele>
        <time>2015-11-01T09:38:05Z</time>
      </trkpt>
      <trkpt lat="42.70282" lon="0.60681">
        <ele>2192.78</ele>
        <time>2015-11-01T09:38:18Z</time>
      </trkpt>
      <trkpt lat="42.70277" lon="0.60675">
        <ele>2195.55</ele>
        <time>2015-11-01T09:38:39Z</time>
      </trkpt>
      <trkpt lat="42.70275" lon="0.60665">
        <ele>2198.74</ele>
        <time>2015-11-01T09:38:56Z</time>
      </trkpt>
      <trkpt lat="42.70272" lon="0.60662">
        <ele>2201.87</ele>
        <time>2015-11-01T09:39:11Z</time>
      </trkpt>
      <trkpt lat="42.70267" lon="0.60659">
        <ele>2205.04</ele>
        <time>2015-11-01T09:39:31Z</time>
      </trkpt>
      <trkpt lat="42.70261" lon="0.60659">
        <ele>2208.12</ele>
        <time>2015-11-01T09:39:49Z</time>
      </trkpt>
      <trkpt lat="42.70258" lon="0.60654">
        <ele>2211.22</ele>
        <time>2015-11-01T09:40:08Z</time>
      </trkpt>
      <trkpt lat="42.70253" lon="0.60645">
        <ele>2214.6</ele>
        <time>2015-11-01T09:40:28Z</time>
      </trkpt>
      <trkpt lat="42.7025" lon="0.60645">
        <ele>2217.7</ele>
        <time>2015-11-01T09:40:44Z</time>
      </trkpt>
      <trkpt lat="42.70249" lon="0.60638">
        <ele>2220.89</ele>
        <time>2015-11-01T09:41:05Z</time>
      </trkpt>
      <trkpt lat="42.70244" lon="0.60634">
        <ele>2224.25</ele>
        <time>2015-11-01T09:41:23Z</time>
      </trkpt>
      <trkpt lat="42.70244" lon="0.60631">
        <ele>2225.26</ele>
        <time>2015-11-01T09:41:31Z</time>
      </trkpt>
      <trkpt lat="42.70239" lon="0.60631">
        <ele>2228.5</ele>
        <time>2015-11-01T09:41:50Z</time>
      </trkpt>
      <trkpt lat="42.70237" lon="0.60619">
        <ele>2231.6</ele>
        <time>2015-11-01T09:42:13Z</time>
      </trkpt>
      <trkpt lat="42.70237" lon="0.6061">
        <ele>2234.6</ele>
        <time>2015-11-01T09:42:29Z</time>
      </trkpt>
      <trkpt lat="42.70234" lon="0.60603">
        <ele>2237.37</ele>
        <time>2015-11-01T09:42:47Z</time>
      </trkpt>
      <trkpt lat="42.70228" lon="0.60602">
        <ele>2240.72</ele>
        <time>2015-11-01T09:43:04Z</time>
      </trkpt>
      <trkpt lat="42.70226" lon="0.606">
        <ele>2243.76</ele>
        <time>2015-11-01T09:43:18Z</time>
      </trkpt>
      <trkpt lat="42.7022" lon="0.60596">
        <ele>2246.24</ele>
        <time>2015-11-01T09:43:36Z</time>
      </trkpt>
      <trkpt lat="42.7022" lon="0.60597">
        <ele>2247.17</ele>
        <time>2015-11-01T09:44:09Z</time>
      </trkpt>
      <trkpt lat="42.70218" lon="0.60597">
        <ele>2248.51</ele>
        <time>2015-11-01T09:44:11Z</time>
      </trkpt>
      <trkpt lat="42.70215" lon="0.60592">
        <ele>2251.25</ele>
        <time>2015-11-01T09:44:34Z</time>
      </trkpt>
      <trkpt lat="42.70215" lon="0.6059">
        <ele>2252</ele>
        <time>2015-11-01T09:44:38Z</time>
      </trkpt>
      <trkpt lat="42.70214" lon="0.60587">
        <ele>2252.82</ele>
        <time>2015-11-01T09:44:40Z</time>
      </trkpt>
      <trkpt lat="42.70204" lon="0.60585">
        <ele>2255.77</ele>
        <time>2015-11-01T09:44:59Z</time>
      </trkpt>
      <trkpt lat="42.70195" lon="0.60587">
        <ele>2259.17</ele>
        <time>2015-11-01T09:45:14Z</time>
      </trkpt>
      <trkpt lat="42.70193" lon="0.60587">
        <ele>2260.83</ele>
        <time>2015-11-01T09:45:29Z</time>
      </trkpt>
      <trkpt lat="42.70191" lon="0.60583">
        <ele>2262.42</ele>
        <time>2015-11-01T09:45:41Z</time>
      </trkpt>
      <trkpt lat="42.70197" lon="0.60582">
        <ele>2262.48</ele>
        <time>2015-11-01T09:45:47Z</time>
      </trkpt>
      <trkpt lat="42.70192" lon="0.60583">
        <ele>2262.6</ele>
        <time>2015-11-01T09:46:08Z</time>
      </trkpt>
      <trkpt lat="42.7019" lon="0.60581">
        <ele>2262.8</ele>
        <time>2015-11-01T09:46:41Z</time>
      </trkpt>
      <trkpt lat="42.70186" lon="0.60585">
        <ele>2263.18</ele>
        <time>2015-11-01T09:46:57Z</time>
      </trkpt>
      <trkpt lat="42.70183" lon="0.60585">
        <ele>2264.22</ele>
        <time>2015-11-01T09:47:20Z</time>
      </trkpt>
      <trkpt lat="42.70173" lon="0.60585">
        <ele>2266.51</ele>
        <time>2015-11-01T09:47:36Z</time>
      </trkpt>
      <trkpt lat="42.70171" lon="0.60581">
        <ele>2268.82</ele>
        <time>2015-11-01T09:47:50Z</time>
      </trkpt>
      <trkpt lat="42.70165" lon="0.60582">
        <ele>2272.17</ele>
        <time>2015-11-01T09:48:09Z</time>
      </trkpt>
      <trkpt lat="42.70162" lon="0.60585">
        <ele>2275.23</ele>
        <time>2015-11-01T09:48:27Z</time>
      </trkpt>
      <trkpt lat="42.70161" lon="0.60587">
        <ele>2276.47</ele>
        <time>2015-11-01T09:48:32Z</time>
      </trkpt>
      <trkpt lat="42.70162" lon="0.60589">
        <ele>2276.97</ele>
        <time>2015-11-01T09:48:35Z</time>
      </trkpt>
      <trkpt lat="42.70161" lon="0.60593">
        <ele>2278.06</ele>
        <time>2015-11-01T09:48:40Z</time>
      </trkpt>
      <trkpt lat="42.70162" lon="0.60594">
        <ele>2279.23</ele>
        <time>2015-11-01T09:48:53Z</time>
      </trkpt>
      <trkpt lat="42.70159" lon="0.60588">
        <ele>2282.26</ele>
        <time>2015-11-01T09:49:14Z</time>
      </trkpt>
      <trkpt lat="42.70157" lon="0.60584">
        <ele>2285.59</ele>
        <time>2015-11-01T09:49:32Z</time>
      </trkpt>
      <trkpt lat="42.7015" lon="0.60578">
        <ele>2288.8</ele>
        <time>2015-11-01T09:49:52Z</time>
      </trkpt>
      <trkpt lat="42.70151" lon="0.60569">
        <ele>2291.49</ele>
        <time>2015-11-01T09:50:12Z</time>
      </trkpt>
      <trkpt lat="42.70149" lon="0.60568">
        <ele>2291.67</ele>
        <time>2015-11-01T09:50:16Z</time>
      </trkpt>
      <trkpt lat="42.70146" lon="0.6057">
        <ele>2291.97</ele>
        <time>2015-11-01T09:50:20Z</time>
      </trkpt>
      <trkpt lat="42.7014" lon="0.60572">
        <ele>2295.12</ele>
        <time>2015-11-01T09:50:41Z</time>
      </trkpt>
      <trkpt lat="42.70142" lon="0.60569">
        <ele>2298.18</ele>
        <time>2015-11-01T09:50:59Z</time>
      </trkpt>
      <trkpt lat="42.70136" lon="0.60565">
        <ele>2301.32</ele>
        <time>2015-11-01T09:51:16Z</time>
      </trkpt>
      <trkpt lat="42.70134" lon="0.60562">
        <ele>2302.28</ele>
        <time>2015-11-01T09:51:24Z</time>
      </trkpt>
      <trkpt lat="42.70127" lon="0.60555">
        <ele>2305.21</ele>
        <time>2015-11-01T09:51:47Z</time>
      </trkpt>
      <trkpt lat="42.70126" lon="0.60546">
        <ele>2308.17</ele>
        <time>2015-11-01T09:52:05Z</time>
      </trkpt>
      <trkpt lat="42.70122" lon="0.60539">
        <ele>2310.56</ele>
        <time>2015-11-01T09:52:22Z</time>
      </trkpt>
      <trkpt lat="42.70118" lon="0.60536">
        <ele>2312.9</ele>
        <time>2015-11-01T09:52:34Z</time>
      </trkpt>
      <trkpt lat="42.7011" lon="0.60529">
        <ele>2316.16</ele>
        <time>2015-11-01T09:52:57Z</time>
      </trkpt>
      <trkpt lat="42.70108" lon="0.60527">
        <ele>2317.34</ele>
        <time>2015-11-01T09:53:03Z</time>
      </trkpt>
      <trkpt lat="42.70098" lon="0.60529">
        <ele>2319.45</ele>
        <time>2015-11-01T09:53:26Z</time>
      </trkpt>
      <trkpt lat="42.70097" lon="0.60528">
        <ele>2319.92</ele>
        <time>2015-11-01T09:53:28Z</time>
      </trkpt>
      <trkpt lat="42.70099" lon="0.60514">
        <ele>2323.57</ele>
        <time>2015-11-01T09:53:45Z</time>
      </trkpt>
      <trkpt lat="42.701" lon="0.60511">
        <ele>2324.35</ele>
        <time>2015-11-01T09:53:52Z</time>
      </trkpt>
      <trkpt lat="42.70098" lon="0.60511">
        <ele>2324.49</ele>
        <time>2015-11-01T09:53:54Z</time>
      </trkpt>
      <trkpt lat="42.70093" lon="0.60512">
        <ele>2326.94</ele>
        <time>2015-11-01T09:54:04Z</time>
      </trkpt>
      <trkpt lat="42.70086" lon="0.60513">
        <ele>2327.07</ele>
        <time>2015-11-01T09:54:33Z</time>
      </trkpt>
      <trkpt lat="42.70091" lon="0.60514">
        <ele>2327</ele>
        <time>2015-11-01T09:55:06Z</time>
      </trkpt>
      <trkpt lat="42.70097" lon="0.60516">
        <ele>2327.58</ele>
        <time>2015-11-01T09:55:37Z</time>
      </trkpt>
      <trkpt lat="42.70101" lon="0.60515">
        <ele>2327.22</ele>
        <time>2015-11-01T09:56:08Z</time>
      </trkpt>
      <trkpt lat="42.70098" lon="0.60513">
        <ele>2327.24</ele>
        <time>2015-11-01T09:56:36Z</time>
      </trkpt>
      <trkpt lat="42.70096" lon="0.60511">
        <ele>2327.09</ele>
        <time>2015-11-01T09:56:52Z</time>
      </trkpt>
      <trkpt lat="42.70097" lon="0.60511">
        <ele>2326.87</ele>
        <time>2015-11-01T09:56:58Z</time>
      </trkpt>
      <trkpt lat="42.70088" lon="0.60511">
        <ele>2326.89</ele>
        <time>2015-11-01T09:57:06Z</time>
      </trkpt>
      <trkpt lat="42.70089" lon="0.60515">
        <ele>2327.3</ele>
        <time>2015-11-01T09:57:27Z</time>
      </trkpt>
      <trkpt lat="42.70093" lon="0.60514">
        <ele>2327.35</ele>
        <time>2015-11-01T09:57:30Z</time>
      </trkpt>
      <trkpt lat="42.70092" lon="0.60506">
        <ele>2327.48</ele>
        <time>2015-11-01T09:57:53Z</time>
      </trkpt>
      <trkpt lat="42.70088" lon="0.60506">
        <ele>2330.84</ele>
        <time>2015-11-01T09:58:08Z</time>
      </trkpt>
      <trkpt lat="42.70088" lon="0.60502">
        <ele>2333.97</ele>
        <time>2015-11-01T09:58:26Z</time>
      </trkpt>
      <trkpt lat="42.70081" lon="0.605">
        <ele>2336.69</ele>
        <time>2015-11-01T09:58:38Z</time>
      </trkpt>
      <trkpt lat="42.70072" lon="0.60505">
        <ele>2338.33</ele>
        <time>2015-11-01T09:58:52Z</time>
      </trkpt>
      <trkpt lat="42.70068" lon="0.60509">
        <ele>2340.72</ele>
        <time>2015-11-01T09:59:02Z</time>
      </trkpt>
      <trkpt lat="42.70068" lon="0.60508">
        <ele>2340.83</ele>
        <time>2015-11-01T09:59:06Z</time>
      </trkpt>
      <trkpt lat="42.70068" lon="0.60507">
        <ele>2340.86</ele>
        <time>2015-11-01T09:59:11Z</time>
      </trkpt>
      <trkpt lat="42.70071" lon="0.60494">
        <ele>2339.96</ele>
        <time>2015-11-01T09:59:29Z</time>
      </trkpt>
      <trkpt lat="42.70069" lon="0.60482">
        <ele>2339.64</ele>
        <time>2015-11-01T09:59:48Z</time>
      </trkpt>
      <trkpt lat="42.70068" lon="0.6048">
        <ele>2339.81</ele>
        <time>2015-11-01T09:59:52Z</time>
      </trkpt>
      <trkpt lat="42.70069" lon="0.60468">
        <ele>2338.63</ele>
        <time>2015-11-01T10:00:10Z</time>
      </trkpt>
      <trkpt lat="42.70065" lon="0.60465">
        <ele>2341.91</ele>
        <time>2015-11-01T10:00:25Z</time>
      </trkpt>
      <trkpt lat="42.70055" lon="0.60458">
        <ele>2345.04</ele>
        <time>2015-11-01T10:00:45Z</time>
      </trkpt>
      <trkpt lat="42.70065" lon="0.60451">
        <ele>2348.17</ele>
        <time>2015-11-01T10:01:03Z</time>
      </trkpt>
      <trkpt lat="42.70067" lon="0.60444">
        <ele>2351.06</ele>
        <time>2015-11-01T10:01:17Z</time>
      </trkpt>
      <trkpt lat="42.70065" lon="0.60442">
        <ele>2351.86</ele>
        <time>2015-11-01T10:01:24Z</time>
      </trkpt>
      <trkpt lat="42.70058" lon="0.60439">
        <ele>2355.05</ele>
        <time>2015-11-01T10:01:40Z</time>
      </trkpt>
      <trkpt lat="42.70065" lon="0.60432">
        <ele>2358.09</ele>
        <time>2015-11-01T10:01:55Z</time>
      </trkpt>
      <trkpt lat="42.7006" lon="0.60418">
        <ele>2360.87</ele>
        <time>2015-11-01T10:02:12Z</time>
      </trkpt>
      <trkpt lat="42.70058" lon="0.60407">
        <ele>2363.9</ele>
        <time>2015-11-01T10:02:28Z</time>
      </trkpt>
      <trkpt lat="42.70059" lon="0.60402">
        <ele>2365.52</ele>
        <time>2015-11-01T10:02:37Z</time>
      </trkpt>
      <trkpt lat="42.70073" lon="0.60399">
        <ele>2368.16</ele>
        <time>2015-11-01T10:02:56Z</time>
      </trkpt>
      <trkpt lat="42.70076" lon="0.60398">
        <ele>2371.33</ele>
        <time>2015-11-01T10:03:09Z</time>
      </trkpt>
      <trkpt lat="42.70091" lon="0.60403">
        <ele>2373.84</ele>
        <time>2015-11-01T10:03:29Z</time>
      </trkpt>
      <trkpt lat="42.70091" lon="0.60396">
        <ele>2376.94</ele>
        <time>2015-11-01T10:03:48Z</time>
      </trkpt>
      <trkpt lat="42.70086" lon="0.6039">
        <ele>2379.49</ele>
        <time>2015-11-01T10:04:09Z</time>
      </trkpt>
      <trkpt lat="42.70093" lon="0.60391">
        <ele>2380.45</ele>
        <time>2015-11-01T10:04:29Z</time>
      </trkpt>
      <trkpt lat="42.70084" lon="0.60386">
        <ele>2382.74</ele>
        <time>2015-11-01T10:04:49Z</time>
      </trkpt>
      <trkpt lat="42.70081" lon="0.60381">
        <ele>2384.45</ele>
        <time>2015-11-01T10:05:03Z</time>
      </trkpt>
      <trkpt lat="42.70089" lon="0.60375">
        <ele>2386.87</ele>
        <time>2015-11-01T10:05:23Z</time>
      </trkpt>
      <trkpt lat="42.7009" lon="0.60367">
        <ele>2389.52</ele>
        <time>2015-11-01T10:05:35Z</time>
      </trkpt>
      <trkpt lat="42.7009" lon="0.60354">
        <ele>2390.04</ele>
        <time>2015-11-01T10:05:49Z</time>
      </trkpt>
      <trkpt lat="42.70085" lon="0.60333">
        <ele>2390.52</ele>
        <time>2015-11-01T10:06:09Z</time>
      </trkpt>
      <trkpt lat="42.70082" lon="0.60323">
        <ele>2391.61</ele>
        <time>2015-11-01T10:06:27Z</time>
      </trkpt>
      <trkpt lat="42.70083" lon="0.60315">
        <ele>2392.61</ele>
        <time>2015-11-01T10:06:46Z</time>
      </trkpt>
      <trkpt lat="42.70085" lon="0.60315">
        <ele>2393.53</ele>
        <time>2015-11-01T10:07:08Z</time>
      </trkpt>
      <trkpt lat="42.70083" lon="0.6032">
        <ele>2393.17</ele>
        <time>2015-11-01T10:07:24Z</time>
      </trkpt>
      <trkpt lat="42.70085" lon="0.60322">
        <ele>2392.32</ele>
        <time>2015-11-01T10:07:55Z</time>
      </trkpt>
      <trkpt lat="42.70085" lon="0.60321">
        <ele>2393.1</ele>
        <time>2015-11-01T10:08:27Z</time>
      </trkpt>
      <trkpt lat="42.70085" lon="0.60318">
        <ele>2392.42</ele>
        <time>2015-11-01T10:08:59Z</time>
      </trkpt>
      <trkpt lat="42.70084" lon="0.60317">
        <ele>2392.45</ele>
        <time>2015-11-01T10:09:27Z</time>
      </trkpt>
      <trkpt lat="42.70085" lon="0.60321">
        <ele>2392.26</ele>
        <time>2015-11-01T10:10:05Z</time>
      </trkpt>
      <trkpt lat="42.70082" lon="0.60319">
        <ele>2392.57</ele>
        <time>2015-11-01T10:10:43Z</time>
      </trkpt>
      <trkpt lat="42.70083" lon="0.6032">
        <ele>2392.8</ele>
        <time>2015-11-01T10:11:31Z</time>
      </trkpt>
      <trkpt lat="42.70083" lon="0.60318">
        <ele>2393.56</ele>
        <time>2015-11-01T10:11:58Z</time>
      </trkpt>
      <trkpt lat="42.70084" lon="0.60317">
        <ele>2393.6</ele>
        <time>2015-11-01T10:12:32Z</time>
      </trkpt>
      <trkpt lat="42.70085" lon="0.60319">
        <ele>2393.63</ele>
        <time>2015-11-01T10:13:03Z</time>
      </trkpt>
      <trkpt lat="42.70085" lon="0.60318">
        <ele>2393.7</ele>
        <time>2015-11-01T10:13:28Z</time>
      </trkpt>
      <trkpt lat="42.70084" lon="0.60317">
        <ele>2393.36</ele>
        <time>2015-11-01T10:14:08Z</time>
      </trkpt>
      <trkpt lat="42.70084" lon="0.60317">
        <ele>2393.54</ele>
        <time>2015-11-01T10:14:40Z</time>
      </trkpt>
      <trkpt lat="42.70086" lon="0.60319">
        <ele>2392.96</ele>
        <time>2015-11-01T10:15:10Z</time>
      </trkpt>
      <trkpt lat="42.70087" lon="0.60319">
        <ele>2392.84</ele>
        <time>2015-11-01T10:15:37Z</time>
      </trkpt>
      <trkpt lat="42.70088" lon="0.60306">
        <ele>2393.48</ele>
        <time>2015-11-01T10:15:56Z</time>
      </trkpt>
      <trkpt lat="42.7009" lon="0.6029">
        <ele>2396.31</ele>
        <time>2015-11-01T10:16:17Z</time>
      </trkpt>
      <trkpt lat="42.70092" lon="0.60286">
        <ele>2397.53</ele>
        <time>2015-11-01T10:16:33Z</time>
      </trkpt>
      <trkpt lat="42.70098" lon="0.60288">
        <ele>2398.73</ele>
        <time>2015-11-01T10:16:53Z</time>
      </trkpt>
      <trkpt lat="42.70104" lon="0.60285">
        <ele>2399.78</ele>
        <time>2015-11-01T10:17:19Z</time>
      </trkpt>
      <trkpt lat="42.70111" lon="0.60285">
        <ele>2403.11</ele>
        <time>2015-11-01T10:17:34Z</time>
      </trkpt>
      <trkpt lat="42.70117" lon="0.60284">
        <ele>2405.56</ele>
        <time>2015-11-01T10:17:56Z</time>
      </trkpt>
      <trkpt lat="42.70116" lon="0.6028">
        <ele>2406.06</ele>
        <time>2015-11-01T10:18:19Z</time>
      </trkpt>
      <trkpt lat="42.70119" lon="0.60279">
        <ele>2408.23</ele>
        <time>2015-11-01T10:18:54Z</time>
      </trkpt>
      <trkpt lat="42.70126" lon="0.60279">
        <ele>2410.37</ele>
        <time>2015-11-01T10:19:15Z</time>
      </trkpt>
      <trkpt lat="42.70132" lon="0.60278">
        <ele>2413.27</ele>
        <time>2015-11-01T10:19:36Z</time>
      </trkpt>
      <trkpt lat="42.7014" lon="0.60279">
        <ele>2416.35</ele>
        <time>2015-11-01T10:19:52Z</time>
      </trkpt>
      <trkpt lat="42.70144" lon="0.6028">
        <ele>2418.68</ele>
        <time>2015-11-01T10:20:02Z</time>
      </trkpt>
      <trkpt lat="42.70147" lon="0.60281">
        <ele>2421.78</ele>
        <time>2015-11-01T10:20:19Z</time>
      </trkpt>
      <trkpt lat="42.7015" lon="0.60282">
        <ele>2425.02</ele>
        <time>2015-11-01T10:20:41Z</time>
      </trkpt>
      <trkpt lat="42.70154" lon="0.60281">
        <ele>2427.82</ele>
        <time>2015-11-01T10:21:00Z</time>
      </trkpt>
      <trkpt lat="42.70159" lon="0.60283">
        <ele>2430.67</ele>
        <time>2015-11-01T10:21:20Z</time>
      </trkpt>
      <trkpt lat="42.70166" lon="0.60282">
        <ele>2433.92</ele>
        <time>2015-11-01T10:21:37Z</time>
      </trkpt>
      <trkpt lat="42.70173" lon="0.60284">
        <ele>2436.56</ele>
        <time>2015-11-01T10:21:58Z</time>
      </trkpt>
      <trkpt lat="42.70178" lon="0.60288">
        <ele>2439.71</ele>
        <time>2015-11-01T10:22:12Z</time>
      </trkpt>
      <trkpt lat="42.70179" lon="0.6029">
        <ele>2442.83</ele>
        <time>2015-11-01T10:22:29Z</time>
      </trkpt>
      <trkpt lat="42.70186" lon="0.60293">
        <ele>2445.49</ele>
        <time>2015-11-01T10:22:49Z</time>
      </trkpt>
      <trkpt lat="42.70189" lon="0.60297">
        <ele>2448.33</ele>
        <time>2015-11-01T10:23:09Z</time>
      </trkpt>
      <trkpt lat="42.70193" lon="0.603">
        <ele>2451.28</ele>
        <time>2015-11-01T10:23:28Z</time>
      </trkpt>
      <trkpt lat="42.70196" lon="0.60299">
        <ele>2454.55</ele>
        <time>2015-11-01T10:23:45Z</time>
      </trkpt>
      <trkpt lat="42.70203" lon="0.60298">
        <ele>2457.06</ele>
        <time>2015-11-01T10:24:03Z</time>
      </trkpt>
      <trkpt lat="42.70206" lon="0.60297">
        <ele>2459.92</ele>
        <time>2015-11-01T10:24:22Z</time>
      </trkpt>
      <trkpt lat="42.70203" lon="0.60297">
        <ele>2461.29</ele>
        <time>2015-11-01T10:24:47Z</time>
      </trkpt>
      <trkpt lat="42.70208" lon="0.60292">
        <ele>2463.56</ele>
        <time>2015-11-01T10:25:08Z</time>
      </trkpt>
      <trkpt lat="42.70211" lon="0.60289">
        <ele>2466.56</ele>
        <time>2015-11-01T10:25:27Z</time>
      </trkpt>
      <trkpt lat="42.70219" lon="0.60287">
        <ele>2469.19</ele>
        <time>2015-11-01T10:25:48Z</time>
      </trkpt>
      <trkpt lat="42.70221" lon="0.60287">
        <ele>2472.23</ele>
        <time>2015-11-01T10:26:01Z</time>
      </trkpt>
      <trkpt lat="42.70222" lon="0.60291">
        <ele>2474.03</ele>
        <time>2015-11-01T10:26:19Z</time>
      </trkpt>
      <trkpt lat="42.70223" lon="0.60293">
        <ele>2477.17</ele>
        <time>2015-11-01T10:26:32Z</time>
      </trkpt>
      <trkpt lat="42.70225" lon="0.60292">
        <ele>2480.21</ele>
        <time>2015-11-01T10:26:46Z</time>
      </trkpt>
      <trkpt lat="42.70227" lon="0.60292">
        <ele>2483.36</ele>
        <time>2015-11-01T10:27:04Z</time>
      </trkpt>
      <trkpt lat="42.70226" lon="0.60292">
        <ele>2485.9</ele>
        <time>2015-11-01T10:27:28Z</time>
      </trkpt>
      <trkpt lat="42.70228" lon="0.60289">
        <ele>2488.3</ele>
        <time>2015-11-01T10:27:46Z</time>
      </trkpt>
      <trkpt lat="42.70236" lon="0.60288">
        <ele>2491.43</ele>
        <time>2015-11-01T10:28:08Z</time>
      </trkpt>
      <trkpt lat="42.70239" lon="0.60287">
        <ele>2493.98</ele>
        <time>2015-11-01T10:28:27Z</time>
      </trkpt>
      <trkpt lat="42.70243" lon="0.60284">
        <ele>2496.74</ele>
        <time>2015-11-01T10:28:49Z</time>
      </trkpt>
      <trkpt lat="42.70246" lon="0.60283">
        <ele>2499.48</ele>
        <time>2015-11-01T10:29:07Z</time>
      </trkpt>
      <trkpt lat="42.70248" lon="0.60282">
        <ele>2500.48</ele>
        <time>2015-11-01T10:29:30Z</time>
      </trkpt>
      <trkpt lat="42.70249" lon="0.60281">
        <ele>2502.83</ele>
        <time>2015-11-01T10:29:54Z</time>
      </trkpt>
      <trkpt lat="42.70252" lon="0.6028">
        <ele>2504.32</ele>
        <time>2015-11-01T10:30:23Z</time>
      </trkpt>
      <trkpt lat="42.70251" lon="0.60278">
        <ele>2506.82</ele>
        <time>2015-11-01T10:30:45Z</time>
      </trkpt>
      <trkpt lat="42.70251" lon="0.60275">
        <ele>2509.83</ele>
        <time>2015-11-01T10:30:57Z</time>
      </trkpt>
      <trkpt lat="42.70254" lon="0.60267">
        <ele>2512.57</ele>
        <time>2015-11-01T10:31:16Z</time>
      </trkpt>
      <trkpt lat="42.70257" lon="0.60258">
        <ele>2515.55</ele>
        <time>2015-11-01T10:31:36Z</time>
      </trkpt>
      <trkpt lat="42.7026" lon="0.60247">
        <ele>2517.05</ele>
        <time>2015-11-01T10:31:58Z</time>
      </trkpt>
      <trkpt lat="42.70262" lon="0.60239">
        <ele>2518.41</ele>
        <time>2015-11-01T10:32:21Z</time>
      </trkpt>
      <trkpt lat="42.70264" lon="0.60231">
        <ele>2519.57</ele>
        <time>2015-11-01T10:32:39Z</time>
      </trkpt>
      <trkpt lat="42.70264" lon="0.60221">
        <ele>2521.13</ele>
        <time>2015-11-01T10:32:59Z</time>
      </trkpt>
      <trkpt lat="42.70264" lon="0.60212">
        <ele>2521.7</ele>
        <time>2015-11-01T10:33:17Z</time>
      </trkpt>
      <trkpt lat="42.70268" lon="0.60198">
        <ele>2520.72</ele>
        <time>2015-11-01T10:33:33Z</time>
      </trkpt>
      <trkpt lat="42.70274" lon="0.60186">
        <ele>2522.52</ele>
        <time>2015-11-01T10:33:51Z</time>
      </trkpt>
      <trkpt lat="42.70276" lon="0.60175">
        <ele>2525.16</ele>
        <time>2015-11-01T10:34:10Z</time>
      </trkpt>
      <trkpt lat="42.70281" lon="0.60162">
        <ele>2527.49</ele>
        <time>2015-11-01T10:34:28Z</time>
      </trkpt>
      <trkpt lat="42.70283" lon="0.60153">
        <ele>2528.65</ele>
        <time>2015-11-01T10:34:38Z</time>
      </trkpt>
      <trkpt lat="42.70286" lon="0.60136">
        <ele>2529.43</ele>
        <time>2015-11-01T10:34:54Z</time>
      </trkpt>
      <trkpt lat="42.70291" lon="0.60122">
        <ele>2531.51</ele>
        <time>2015-11-01T10:35:14Z</time>
      </trkpt>
      <trkpt lat="42.70296" lon="0.60109">
        <ele>2534.68</ele>
        <time>2015-11-01T10:35:32Z</time>
      </trkpt>
      <trkpt lat="42.70302" lon="0.60096">
        <ele>2536.86</ele>
        <time>2015-11-01T10:35:49Z</time>
      </trkpt>
      <trkpt lat="42.70307" lon="0.60083">
        <ele>2539.72</ele>
        <time>2015-11-01T10:36:13Z</time>
      </trkpt>
      <trkpt lat="42.70313" lon="0.60069">
        <ele>2542.07</ele>
        <time>2015-11-01T10:36:35Z</time>
      </trkpt>
      <trkpt lat="42.70317" lon="0.60063">
        <ele>2545.1</ele>
        <time>2015-11-01T10:36:49Z</time>
      </trkpt>
      <trkpt lat="42.70322" lon="0.60056">
        <ele>2547.32</ele>
        <time>2015-11-01T10:37:03Z</time>
      </trkpt>
      <trkpt lat="42.70328" lon="0.60045">
        <ele>2549.67</ele>
        <time>2015-11-01T10:37:22Z</time>
      </trkpt>
      <trkpt lat="42.70334" lon="0.6003">
        <ele>2550.83</ele>
        <time>2015-11-01T10:37:40Z</time>
      </trkpt>
      <trkpt lat="42.70335" lon="0.60026">
        <ele>2550.75</ele>
        <time>2015-11-01T10:37:44Z</time>
      </trkpt>
      <trkpt lat="42.70338" lon="0.60017">
        <ele>2550.6</ele>
        <time>2015-11-01T10:37:51Z</time>
      </trkpt>
      <trkpt lat="42.70346" lon="0.60005">
        <ele>2549.72</ele>
        <time>2015-11-01T10:38:08Z</time>
      </trkpt>
      <trkpt lat="42.70352" lon="0.60001">
        <ele>2552.89</ele>
        <time>2015-11-01T10:38:26Z</time>
      </trkpt>
      <trkpt lat="42.70357" lon="0.59997">
        <ele>2555.79</ele>
        <time>2015-11-01T10:38:42Z</time>
      </trkpt>
      <trkpt lat="42.70364" lon="0.59993">
        <ele>2558.94</ele>
        <time>2015-11-01T10:38:59Z</time>
      </trkpt>
      <trkpt lat="42.70369" lon="0.59989">
        <ele>2562.17</ele>
        <time>2015-11-01T10:39:13Z</time>
      </trkpt>
      <trkpt lat="42.70369" lon="0.59987">
        <ele>2563.54</ele>
        <time>2015-11-01T10:39:16Z</time>
      </trkpt>
      <trkpt lat="42.70375" lon="0.59976">
        <ele>2565.97</ele>
        <time>2015-11-01T10:39:33Z</time>
      </trkpt>
      <trkpt lat="42.70381" lon="0.59971">
        <ele>2568.79</ele>
        <time>2015-11-01T10:39:52Z</time>
      </trkpt>
      <trkpt lat="42.7039" lon="0.59965">
        <ele>2570.35</ele>
        <time>2015-11-01T10:40:10Z</time>
      </trkpt>
      <trkpt lat="42.70397" lon="0.59963">
        <ele>2572.06</ele>
        <time>2015-11-01T10:40:28Z</time>
      </trkpt>
      <trkpt lat="42.70403" lon="0.5996">
        <ele>2573.92</ele>
        <time>2015-11-01T10:40:47Z</time>
      </trkpt>
      <trkpt lat="42.70411" lon="0.59958">
        <ele>2575.95</ele>
        <time>2015-11-01T10:41:05Z</time>
      </trkpt>
      <trkpt lat="42.70413" lon="0.5996">
        <ele>2577.62</ele>
        <time>2015-11-01T10:41:29Z</time>
      </trkpt>
      <trkpt lat="42.70413" lon="0.59961">
        <ele>2578.27</ele>
        <time>2015-11-01T10:42:07Z</time>
      </trkpt>
      <trkpt lat="42.70415" lon="0.59963">
        <ele>2578.23</ele>
        <time>2015-11-01T10:42:51Z</time>
      </trkpt>
      <trkpt lat="42.70414" lon="0.59961">
        <ele>2577.93</ele>
        <time>2015-11-01T10:43:16Z</time>
      </trkpt>
      <trkpt lat="42.70416" lon="0.59962">
        <ele>2580.95</ele>
        <time>2015-11-01T10:43:39Z</time>
      </trkpt>
      <trkpt lat="42.70418" lon="0.59952">
        <ele>2582.74</ele>
        <time>2015-11-01T10:44:05Z</time>
      </trkpt>
      <trkpt lat="42.70426" lon="0.59947">
        <ele>2585.02</ele>
        <time>2015-11-01T10:44:23Z</time>
      </trkpt>
      <trkpt lat="42.70428" lon="0.59947">
        <ele>2588.02</ele>
        <time>2015-11-01T10:44:33Z</time>
      </trkpt>
      <trkpt lat="42.70433" lon="0.59943">
        <ele>2590.49</ele>
        <time>2015-11-01T10:44:55Z</time>
      </trkpt>
      <trkpt lat="42.70438" lon="0.59932">
        <ele>2592.52</ele>
        <time>2015-11-01T10:45:11Z</time>
      </trkpt>
      <trkpt lat="42.70444" lon="0.59924">
        <ele>2595.63</ele>
        <time>2015-11-01T10:45:27Z</time>
      </trkpt>
      <trkpt lat="42.7045" lon="0.59917">
        <ele>2597.97</ele>
        <time>2015-11-01T10:45:45Z</time>
      </trkpt>
      <trkpt lat="42.70452" lon="0.5991">
        <ele>2600.95</ele>
        <time>2015-11-01T10:46:03Z</time>
      </trkpt>
      <trkpt lat="42.70454" lon="0.59909">
        <ele>2603.29</ele>
        <time>2015-11-01T10:46:24Z</time>
      </trkpt>
      <trkpt lat="42.70455" lon="0.59909">
        <ele>2604.57</ele>
        <time>2015-11-01T10:46:43Z</time>
      </trkpt>
      <trkpt lat="42.70458" lon="0.59908">
        <ele>2607.69</ele>
        <time>2015-11-01T10:47:04Z</time>
      </trkpt>
      <trkpt lat="42.70461" lon="0.59902">
        <ele>2609.44</ele>
        <time>2015-11-01T10:47:22Z</time>
      </trkpt>
      <trkpt lat="42.70464" lon="0.59899">
        <ele>2612.51</ele>
        <time>2015-11-01T10:47:39Z</time>
      </trkpt>
      <trkpt lat="42.70466" lon="0.59898">
        <ele>2614.62</ele>
        <time>2015-11-01T10:47:59Z</time>
      </trkpt>
      <trkpt lat="42.70467" lon="0.59899">
        <ele>2616.32</ele>
        <time>2015-11-01T10:48:18Z</time>
      </trkpt>
      <trkpt lat="42.70469" lon="0.59895">
        <ele>2619.15</ele>
        <time>2015-11-01T10:48:39Z</time>
      </trkpt>
      <trkpt lat="42.70473" lon="0.59884">
        <ele>2622.26</ele>
        <time>2015-11-01T10:48:57Z</time>
      </trkpt>
      <trkpt lat="42.70476" lon="0.59879">
        <ele>2622.23</ele>
        <time>2015-11-01T10:49:22Z</time>
      </trkpt>
      <trkpt lat="42.70477" lon="0.59877">
        <ele>2622.12</ele>
        <time>2015-11-01T10:49:44Z</time>
      </trkpt>
      <trkpt lat="42.70479" lon="0.5987">
        <ele>2621.02</ele>
        <time>2015-11-01T10:50:04Z</time>
      </trkpt>
      <trkpt lat="42.70482" lon="0.59862">
        <ele>2620.45</ele>
        <time>2015-11-01T10:50:26Z</time>
      </trkpt>
      <trkpt lat="42.70485" lon="0.59854">
        <ele>2620.22</ele>
        <time>2015-11-01T10:50:52Z</time>
      </trkpt>
      <trkpt lat="42.70486" lon="0.59847">
        <ele>2622.04</ele>
        <time>2015-11-01T10:51:10Z</time>
      </trkpt>
      <trkpt lat="42.70488" lon="0.59835">
        <ele>2622.6</ele>
        <time>2015-11-01T10:51:29Z</time>
      </trkpt>
      <trkpt lat="42.70491" lon="0.59832">
        <ele>2624.47</ele>
        <time>2015-11-01T10:51:53Z</time>
      </trkpt>
      <trkpt lat="42.70488" lon="0.59833">
        <ele>2625.36</ele>
        <time>2015-11-01T10:52:20Z</time>
      </trkpt>
      <trkpt lat="42.70484" lon="0.59837">
        <ele>2625.43</ele>
        <time>2015-11-01T10:52:45Z</time>
      </trkpt>
      <trkpt lat="42.70483" lon="0.59833">
        <ele>2625.64</ele>
        <time>2015-11-01T10:53:20Z</time>
      </trkpt>
      <trkpt lat="42.70492" lon="0.59826">
        <ele>2626.71</ele>
        <time>2015-11-01T10:53:47Z</time>
      </trkpt>
      <trkpt lat="42.70496" lon="0.59821">
        <ele>2628.18</ele>
        <time>2015-11-01T10:54:07Z</time>
      </trkpt>
      <trkpt lat="42.70497" lon="0.59819">
        <ele>2630.69</ele>
        <time>2015-11-01T10:54:30Z</time>
      </trkpt>
      <trkpt lat="42.705" lon="0.59818">
        <ele>2632.32</ele>
        <time>2015-11-01T10:54:51Z</time>
      </trkpt>
      <trkpt lat="42.70503" lon="0.59817">
        <ele>2634.59</ele>
        <time>2015-11-01T10:55:18Z</time>
      </trkpt>
      <trkpt lat="42.70505" lon="0.59815">
        <ele>2637.67</ele>
        <time>2015-11-01T10:55:38Z</time>
      </trkpt>
      <trkpt lat="42.70505" lon="0.59812">
        <ele>2639.48</ele>
        <time>2015-11-01T10:55:59Z</time>
      </trkpt>
      <trkpt lat="42.70508" lon="0.5981">
        <ele>2641.33</ele>
        <time>2015-11-01T10:56:21Z</time>
      </trkpt>
      <trkpt lat="42.70508" lon="0.59808">
        <ele>2642.59</ele>
        <time>2015-11-01T10:56:46Z</time>
      </trkpt>
      <trkpt lat="42.70509" lon="0.598">
        <ele>2645.43</ele>
        <time>2015-11-01T10:57:05Z</time>
      </trkpt>
      <trkpt lat="42.70511" lon="0.59796">
        <ele>2648.5</ele>
        <time>2015-11-01T10:57:21Z</time>
      </trkpt>
      <trkpt lat="42.70511" lon="0.59788">
        <ele>2651.22</ele>
        <time>2015-11-01T10:57:44Z</time>
      </trkpt>
      <trkpt lat="42.70513" lon="0.59782">
        <ele>2651.54</ele>
        <time>2015-11-01T10:57:51Z</time>
      </trkpt>
      <trkpt lat="42.70517" lon="0.5977">
        <ele>2653.34</ele>
        <time>2015-11-01T10:58:06Z</time>
      </trkpt>
      <trkpt lat="42.70519" lon="0.59759">
        <ele>2655.7</ele>
        <time>2015-11-01T10:58:24Z</time>
      </trkpt>
      <trkpt lat="42.70521" lon="0.59754">
        <ele>2658.31</ele>
        <time>2015-11-01T10:58:45Z</time>
      </trkpt>
      <trkpt lat="42.70524" lon="0.59747">
        <ele>2660.92</ele>
        <time>2015-11-01T10:59:04Z</time>
      </trkpt>
      <trkpt lat="42.70527" lon="0.59736">
        <ele>2663.02</ele>
        <time>2015-11-01T10:59:22Z</time>
      </trkpt>
      <trkpt lat="42.70529" lon="0.59729">
        <ele>2665.72</ele>
        <time>2015-11-01T10:59:43Z</time>
      </trkpt>
      <trkpt lat="42.70533" lon="0.59722">
        <ele>2668.84</ele>
        <time>2015-11-01T11:00:05Z</time>
      </trkpt>
      <trkpt lat="42.70534" lon="0.5972">
        <ele>2671.87</ele>
        <time>2015-11-01T11:00:26Z</time>
      </trkpt>
      <trkpt lat="42.70537" lon="0.59717">
        <ele>2674.87</ele>
        <time>2015-11-01T11:00:50Z</time>
      </trkpt>
      <trkpt lat="42.7054" lon="0.59719">
        <ele>2677.96</ele>
        <time>2015-11-01T11:01:06Z</time>
      </trkpt>
      <trkpt lat="42.70542" lon="0.59719">
        <ele>2680.83</ele>
        <time>2015-11-01T11:01:28Z</time>
      </trkpt>
      <trkpt lat="42.70544" lon="0.59715">
        <ele>2683.09</ele>
        <time>2015-11-01T11:01:49Z</time>
      </trkpt>
      <trkpt lat="42.70549" lon="0.59711">
        <ele>2686.23</ele>
        <time>2015-11-01T11:02:09Z</time>
      </trkpt>
      <trkpt lat="42.70551" lon="0.59717">
        <ele>2689.3</ele>
        <time>2015-11-01T11:02:22Z</time>
      </trkpt>
      <trkpt lat="42.70556" lon="0.59718">
        <ele>2692.38</ele>
        <time>2015-11-01T11:02:42Z</time>
      </trkpt>
      <trkpt lat="42.70558" lon="0.59713">
        <ele>2695.34</ele>
        <time>2015-11-01T11:03:02Z</time>
      </trkpt>
      <trkpt lat="42.70559" lon="0.59715">
        <ele>2695.98</ele>
        <time>2015-11-01T11:03:21Z</time>
      </trkpt>
      <trkpt lat="42.70558" lon="0.59714">
        <ele>2696.2</ele>
        <time>2015-11-01T11:03:46Z</time>
      </trkpt>
      <trkpt lat="42.7056" lon="0.59715">
        <ele>2696.01</ele>
        <time>2015-11-01T11:04:08Z</time>
      </trkpt>
      <trkpt lat="42.7056" lon="0.59714">
        <ele>2696.15</ele>
        <time>2015-11-01T11:04:38Z</time>
      </trkpt>
      <trkpt lat="42.7056" lon="0.59718">
        <ele>2696.52</ele>
        <time>2015-11-01T11:05:01Z</time>
      </trkpt>
      <trkpt lat="42.70561" lon="0.59713">
        <ele>2696.06</ele>
        <time>2015-11-01T11:05:20Z</time>
      </trkpt>
      <trkpt lat="42.7056" lon="0.59715">
        <ele>2696.09</ele>
        <time>2015-11-01T11:05:50Z</time>
      </trkpt>
      <trkpt lat="42.70558" lon="0.59713">
        <ele>2696.08</ele>
        <time>2015-11-01T11:06:09Z</time>
      </trkpt>
      <trkpt lat="42.70557" lon="0.59716">
        <ele>2696.12</ele>
        <time>2015-11-01T11:06:42Z</time>
      </trkpt>
      <trkpt lat="42.70559" lon="0.59714">
        <ele>2696.33</ele>
        <time>2015-11-01T11:07:08Z</time>
      </trkpt>
      <trkpt lat="42.70559" lon="0.59713">
        <ele>2696.72</ele>
        <time>2015-11-01T11:07:37Z</time>
      </trkpt>
      <trkpt lat="42.70559" lon="0.59713">
        <ele>2696.46</ele>
        <time>2015-11-01T11:08:06Z</time>
      </trkpt>
      <trkpt lat="42.70558" lon="0.59716">
        <ele>2696.85</ele>
        <time>2015-11-01T11:08:31Z</time>
      </trkpt>
      <trkpt lat="42.70558" lon="0.59716">
        <ele>2697.13</ele>
        <time>2015-11-01T11:09:03Z</time>
      </trkpt>
      <trkpt lat="42.7056" lon="0.59714">
        <ele>2697.12</ele>
        <time>2015-11-01T11:09:23Z</time>
      </trkpt>
      <trkpt lat="42.7056" lon="0.59715">
        <ele>2696.71</ele>
        <time>2015-11-01T11:09:52Z</time>
      </trkpt>
      <trkpt lat="42.7056" lon="0.59714">
        <ele>2696.4</ele>
        <time>2015-11-01T11:10:17Z</time>
      </trkpt>
      <trkpt lat="42.7056" lon="0.59714">
        <ele>2696.85</ele>
        <time>2015-11-01T11:10:49Z</time>
      </trkpt>
      <trkpt lat="42.7056" lon="0.59714">
        <ele>2696.61</ele>
        <time>2015-11-01T11:11:23Z</time>
      </trkpt>
      <trkpt lat="42.7056" lon="0.59716">
        <ele>2697.26</ele>
        <time>2015-11-01T11:11:52Z</time>
      </trkpt>
      <trkpt lat="42.7056" lon="0.59715">
        <ele>2696.58</ele>
        <time>2015-11-01T11:12:17Z</time>
      </trkpt>
      <trkpt lat="42.70561" lon="0.59716">
        <ele>2696.42</ele>
        <time>2015-11-01T11:12:49Z</time>
      </trkpt>
      <trkpt lat="42.70561" lon="0.59715">
        <ele>2696.16</ele>
        <time>2015-11-01T11:13:24Z</time>
      </trkpt>
      <trkpt lat="42.70561" lon="0.59717">
        <ele>2696.15</ele>
        <time>2015-11-01T11:13:54Z</time>
      </trkpt>
      <trkpt lat="42.7056" lon="0.59716">
        <ele>2695.87</ele>
        <time>2015-11-01T11:14:29Z</time>
      </trkpt>
      <trkpt lat="42.70559" lon="0.59714">
        <ele>2696.15</ele>
        <time>2015-11-01T11:15:00Z</time>
      </trkpt>
      <trkpt lat="42.7056" lon="0.59715">
        <ele>2696.33</ele>
        <time>2015-11-01T11:15:32Z</time>
      </trkpt>
      <trkpt lat="42.70561" lon="0.59715">
        <ele>2696.31</ele>
        <time>2015-11-01T11:16:02Z</time>
      </trkpt>
      <trkpt lat="42.7056" lon="0.59714">
        <ele>2696.84</ele>
        <time>2015-11-01T11:16:36Z</time>
      </trkpt>
      <trkpt lat="42.70559" lon="0.59714">
        <ele>2697.04</ele>
        <time>2015-11-01T11:17:07Z</time>
      </trkpt>
      <trkpt lat="42.70561" lon="0.59714">
        <ele>2696.64</ele>
        <time>2015-11-01T11:17:44Z</time>
      </trkpt>
      <trkpt lat="42.70562" lon="0.59715">
        <ele>2696.57</ele>
        <time>2015-11-01T11:18:18Z</time>
      </trkpt>
      <trkpt lat="42.7056" lon="0.59715">
        <ele>2696.03</ele>
        <time>2015-11-01T11:18:52Z</time>
      </trkpt>
      <trkpt lat="42.70561" lon="0.59713">
        <ele>2696.15</ele>
        <time>2015-11-01T11:19:26Z</time>
      </trkpt>
      <trkpt lat="42.70563" lon="0.59718">
        <ele>2696.18</ele>
        <time>2015-11-01T11:20:01Z</time>
      </trkpt>
      <trkpt lat="42.70562" lon="0.59717">
        <ele>2696.52</ele>
        <time>2015-11-01T11:20:37Z</time>
      </trkpt>
      <trkpt lat="42.70562" lon="0.59719">
        <ele>2696.15</ele>
        <time>2015-11-01T11:21:03Z</time>
      </trkpt>
      <trkpt lat="42.7056" lon="0.59712">
        <ele>2696.42</ele>
        <time>2015-11-01T11:21:34Z</time>
      </trkpt>
      <trkpt lat="42.7056" lon="0.59713">
        <ele>2696.48</ele>
        <time>2015-11-01T11:21:55Z</time>
      </trkpt>
      <trkpt lat="42.70561" lon="0.59715">
        <ele>2696.25</ele>
        <time>2015-11-01T11:22:32Z</time>
      </trkpt>
      <trkpt lat="42.70563" lon="0.59716">
        <ele>2696.44</ele>
        <time>2015-11-01T11:23:04Z</time>
      </trkpt>
      <trkpt lat="42.70564" lon="0.59715">
        <ele>2697.9</ele>
        <time>2015-11-01T11:23:37Z</time>
      </trkpt>
      <trkpt lat="42.70563" lon="0.59715">
        <ele>2696.1</ele>
        <time>2015-11-01T11:23:41Z</time>
      </trkpt>
      <trkpt lat="42.70562" lon="0.59715">
        <ele>2697.47</ele>
        <time>2015-11-01T11:23:47Z</time>
      </trkpt>
      <trkpt lat="42.70559" lon="0.59714">
        <ele>2699.18</ele>
        <time>2015-11-01T11:24:06Z</time>
      </trkpt>
      <trkpt lat="42.7056" lon="0.59716">
        <ele>2697.5</ele>
        <time>2015-11-01T11:24:36Z</time>
      </trkpt>
      <trkpt lat="42.70561" lon="0.59713">
        <ele>2697.42</ele>
        <time>2015-11-01T11:25:09Z</time>
      </trkpt>
      <trkpt lat="42.70563" lon="0.59715">
        <ele>2697.54</ele>
        <time>2015-11-01T11:25:45Z</time>
      </trkpt>
      <trkpt lat="42.70563" lon="0.59714">
        <ele>2697.14</ele>
        <time>2015-11-01T11:26:17Z</time>
      </trkpt>
      <trkpt lat="42.7056" lon="0.59714">
        <ele>2697.2</ele>
        <time>2015-11-01T11:26:49Z</time>
      </trkpt>
      <trkpt lat="42.70562" lon="0.59717">
        <ele>2697.07</ele>
        <time>2015-11-01T11:27:25Z</time>
      </trkpt>
      <trkpt lat="42.70562" lon="0.59715">
        <ele>2697.06</ele>
        <time>2015-11-01T11:28:01Z</time>
      </trkpt>
      <trkpt lat="42.70561" lon="0.59715">
        <ele>2697.45</ele>
        <time>2015-11-01T11:28:30Z</time>
      </trkpt>
      <trkpt lat="42.70562" lon="0.59714">
        <ele>2697.3</ele>
        <time>2015-11-01T11:29:05Z</time>
      </trkpt>
      <trkpt lat="42.70561" lon="0.59713">
        <ele>2697.47</ele>
        <time>2015-11-01T11:29:42Z</time>
      </trkpt>
      <trkpt lat="42.70563" lon="0.59716">
        <ele>2697.45</ele>
        <time>2015-11-01T11:30:21Z</time>
      </trkpt>
      <trkpt lat="42.70564" lon="0.59714">
        <ele>2697.64</ele>
        <time>2015-11-01T11:30:50Z</time>
      </trkpt>
      <trkpt lat="42.70563" lon="0.59714">
        <ele>2697.83</ele>
        <time>2015-11-01T11:31:20Z</time>
      </trkpt>
      <trkpt lat="42.70563" lon="0.59714">
        <ele>2697.69</ele>
        <time>2015-11-01T11:31:56Z</time>
      </trkpt>
      <trkpt lat="42.70563" lon="0.59711">
        <ele>2697.39</ele>
        <time>2015-11-01T11:32:31Z</time>
      </trkpt>
      <trkpt lat="42.70563" lon="0.59713">
        <ele>2697.23</ele>
        <time>2015-11-01T11:33:08Z</time>
      </trkpt>
      <trkpt lat="42.70564" lon="0.59713">
        <ele>2697.49</ele>
        <time>2015-11-01T11:33:41Z</time>
      </trkpt>
      <trkpt lat="42.70564" lon="0.59713">
        <ele>2698.06</ele>
        <time>2015-11-01T11:34:15Z</time>
      </trkpt>
      <trkpt lat="42.70563" lon="0.59714">
        <ele>2698.17</ele>
        <time>2015-11-01T11:34:47Z</time>
      </trkpt>
      <trkpt lat="42.70562" lon="0.59714">
        <ele>2698.04</ele>
        <time>2015-11-01T11:35:34Z</time>
      </trkpt>
      <trkpt lat="42.70563" lon="0.59712">
        <ele>2698.04</ele>
        <time>2015-11-01T11:36:16Z</time>
      </trkpt>
      <trkpt lat="42.70561" lon="0.59712">
        <ele>2697.93</ele>
        <time>2015-11-01T11:36:52Z</time>
      </trkpt>
      <trkpt lat="42.70561" lon="0.59712">
        <ele>2697.9</ele>
        <time>2015-11-01T11:37:26Z</time>
      </trkpt>
      <trkpt lat="42.70561" lon="0.59715">
        <ele>2698.04</ele>
        <time>2015-11-01T11:37:57Z</time>
      </trkpt>
      <trkpt lat="42.70562" lon="0.59714">
        <ele>2698.29</ele>
        <time>2015-11-01T11:38:26Z</time>
      </trkpt>
      <trkpt lat="42.70563" lon="0.59715">
        <ele>2698.51</ele>
        <time>2015-11-01T11:39:02Z</time>
      </trkpt>
      <trkpt lat="42.70562" lon="0.59714">
        <ele>2698.76</ele>
        <time>2015-11-01T11:39:35Z</time>
      </trkpt>
      <trkpt lat="42.70561" lon="0.59714">
        <ele>2697.68</ele>
        <time>2015-11-01T11:40:11Z</time>
      </trkpt>
      <trkpt lat="42.70562" lon="0.59716">
        <ele>2698.14</ele>
        <time>2015-11-01T11:40:44Z</time>
      </trkpt>
      <trkpt lat="42.70561" lon="0.59715">
        <ele>2698.11</ele>
        <time>2015-11-01T11:41:21Z</time>
      </trkpt>
      <trkpt lat="42.70561" lon="0.59715">
        <ele>2697.56</ele>
        <time>2015-11-01T11:41:55Z</time>
      </trkpt>
      <trkpt lat="42.70561" lon="0.59713">
        <ele>2698.39</ele>
        <time>2015-11-01T11:42:33Z</time>
      </trkpt>
      <trkpt lat="42.70562" lon="0.59714">
        <ele>2700.24</ele>
        <time>2015-11-01T11:43:20Z</time>
      </trkpt>
      <trkpt lat="42.70561" lon="0.59714">
        <ele>2698.48</ele>
        <time>2015-11-01T11:43:59Z</time>
      </trkpt>
      <trkpt lat="42.70561" lon="0.59715">
        <ele>2698.18</ele>
        <time>2015-11-01T11:44:49Z</time>
      </trkpt>
      <trkpt lat="42.70562" lon="0.59716">
        <ele>2698.24</ele>
        <time>2015-11-01T11:45:24Z</time>
      </trkpt>
      <trkpt lat="42.70561" lon="0.59714">
        <ele>2698.1</ele>
        <time>2015-11-01T11:46:02Z</time>
      </trkpt>
      <trkpt lat="42.70561" lon="0.59713">
        <ele>2699.03</ele>
        <time>2015-11-01T11:46:37Z</time>
      </trkpt>
      <trkpt lat="42.70563" lon="0.59714">
        <ele>2698.57</ele>
        <time>2015-11-01T11:47:10Z</time>
      </trkpt>
      <trkpt lat="42.70563" lon="0.59717">
        <ele>2697.99</ele>
        <time>2015-11-01T11:47:41Z</time>
      </trkpt>
      <trkpt lat="42.70561" lon="0.59715">
        <ele>2697.86</ele>
        <time>2015-11-01T11:48:15Z</time>
      </trkpt>
      <trkpt lat="42.70559" lon="0.59714">
        <ele>2697.84</ele>
        <time>2015-11-01T11:48:53Z</time>
      </trkpt>
      <trkpt lat="42.70561" lon="0.59715">
        <ele>2697.88</ele>
        <time>2015-11-01T11:49:27Z</time>
      </trkpt>
      <trkpt lat="42.70561" lon="0.59716">
        <ele>2698.25</ele>
        <time>2015-11-01T11:49:58Z</time>
      </trkpt>
      <trkpt lat="42.70562" lon="0.59715">
        <ele>2698.39</ele>
        <time>2015-11-01T11:50:29Z</time>
      </trkpt>
      <trkpt lat="42.70563" lon="0.59712">
        <ele>2698.81</ele>
        <time>2015-11-01T11:51:05Z</time>
      </trkpt>
      <trkpt lat="42.70563" lon="0.59713">
        <ele>2699.03</ele>
        <time>2015-11-01T11:51:39Z</time>
      </trkpt>
      <trkpt lat="42.70564" lon="0.59718">
        <ele>2698.87</ele>
        <time>2015-11-01T11:52:11Z</time>
      </trkpt>
      <trkpt lat="42.70562" lon="0.59717">
        <ele>2698.53</ele>
        <time>2015-11-01T11:52:45Z</time>
      </trkpt>
      <trkpt lat="42.70563" lon="0.59716">
        <ele>2698.62</ele>
        <time>2015-11-01T11:53:22Z</time>
      </trkpt>
      <trkpt lat="42.70562" lon="0.59714">
        <ele>2698.77</ele>
        <time>2015-11-01T11:53:59Z</time>
      </trkpt>
      <trkpt lat="42.70561" lon="0.59714">
        <ele>2698.66</ele>
        <time>2015-11-01T11:54:36Z</time>
      </trkpt>
      <trkpt lat="42.70561" lon="0.59714">
        <ele>2698.8</ele>
        <time>2015-11-01T11:55:09Z</time>
      </trkpt>
      <trkpt lat="42.70562" lon="0.59715">
        <ele>2698.2</ele>
        <time>2015-11-01T11:55:43Z</time>
      </trkpt>
      <trkpt lat="42.70562" lon="0.59717">
        <ele>2697.88</ele>
        <time>2015-11-01T11:55:56Z</time>
      </trkpt>
      <trkpt lat="42.7056" lon="0.5972">
        <ele>2697.28</ele>
        <time>2015-11-01T11:56:06Z</time>
      </trkpt>
      <trkpt lat="42.70561" lon="0.59716">
        <ele>2700.34</ele>
        <time>2015-11-01T11:56:45Z</time>
      </trkpt>
      <trkpt lat="42.70561" lon="0.59713">
        <ele>2699.91</ele>
        <time>2015-11-01T11:57:19Z</time>
      </trkpt>
      <trkpt lat="42.70562" lon="0.59714">
        <ele>2698.13</ele>
        <time>2015-11-01T11:57:49Z</time>
      </trkpt>
      <trkpt lat="42.70561" lon="0.59714">
        <ele>2698.39</ele>
        <time>2015-11-01T11:58:20Z</time>
      </trkpt>
      <trkpt lat="42.70562" lon="0.59715">
        <ele>2698.47</ele>
        <time>2015-11-01T11:58:55Z</time>
      </trkpt>
      <trkpt lat="42.70562" lon="0.59714">
        <ele>2698.52</ele>
        <time>2015-11-01T11:59:35Z</time>
      </trkpt>
      <trkpt lat="42.70561" lon="0.59714">
        <ele>2698.44</ele>
        <time>2015-11-01T12:00:14Z</time>
      </trkpt>
      <trkpt lat="42.70561" lon="0.59714">
        <ele>2698.66</ele>
        <time>2015-11-01T12:00:59Z</time>
      </trkpt>
      <trkpt lat="42.70562" lon="0.59713">
        <ele>2698.35</ele>
        <time>2015-11-01T12:01:49Z</time>
      </trkpt>
      <trkpt lat="42.70561" lon="0.59712">
        <ele>2697.98</ele>
        <time>2015-11-01T12:02:20Z</time>
      </trkpt>
      <trkpt lat="42.70561" lon="0.59713">
        <ele>2698.8</ele>
        <time>2015-11-01T12:02:50Z</time>
      </trkpt>
      <trkpt lat="42.70562" lon="0.59712">
        <ele>2698.66</ele>
        <time>2015-11-01T12:03:14Z</time>
      </trkpt>
      <trkpt lat="42.70561" lon="0.59712">
        <ele>2699.11</ele>
        <time>2015-11-01T12:03:52Z</time>
      </trkpt>
      <trkpt lat="42.70562" lon="0.59713">
        <ele>2699.27</ele>
        <time>2015-11-01T12:04:26Z</time>
      </trkpt>
      <trkpt lat="42.70563" lon="0.59716">
        <ele>2699.82</ele>
        <time>2015-11-01T12:05:00Z</time>
      </trkpt>
      <trkpt lat="42.70563" lon="0.59715">
        <ele>2699.59</ele>
        <time>2015-11-01T12:05:18Z</time>
      </trkpt>
      <trkpt lat="42.70563" lon="0.59714">
        <ele>2699.57</ele>
        <time>2015-11-01T12:05:35Z</time>
      </trkpt>
      <trkpt lat="42.70562" lon="0.59714">
        <ele>2699.23</ele>
        <time>2015-11-01T12:05:56Z</time>
      </trkpt>
      <trkpt lat="42.70562" lon="0.59714">
        <ele>2699.22</ele>
        <time>2015-11-01T12:06:18Z</time>
      </trkpt>
      <trkpt lat="42.70562" lon="0.59715">
        <ele>2699.68</ele>
        <time>2015-11-01T12:06:47Z</time>
      </trkpt>
      <trkpt lat="42.70559" lon="0.59712">
        <ele>2699.72</ele>
        <time>2015-11-01T12:07:10Z</time>
      </trkpt>
      <trkpt lat="42.7056" lon="0.59714">
        <ele>2699.77</ele>
        <time>2015-11-01T12:07:26Z</time>
      </trkpt>
      <trkpt lat="42.70559" lon="0.59712">
        <ele>2699.74</ele>
        <time>2015-11-01T12:07:42Z</time>
      </trkpt>
      <trkpt lat="42.70559" lon="0.59714">
        <ele>2699.5</ele>
        <time>2015-11-01T12:08:03Z</time>
      </trkpt>
      <trkpt lat="42.70561" lon="0.59712">
        <ele>2699.6</ele>
        <time>2015-11-01T12:08:26Z</time>
      </trkpt>
      <trkpt lat="42.70561" lon="0.59711">
        <ele>2699.71</ele>
        <time>2015-11-01T12:08:46Z</time>
      </trkpt>
      <trkpt lat="42.70561" lon="0.59717">
        <ele>2699.57</ele>
        <time>2015-11-01T12:09:04Z</time>
      </trkpt>
      <trkpt lat="42.70557" lon="0.59718">
        <ele>2699.02</ele>
        <time>2015-11-01T12:09:19Z</time>
      </trkpt>
      <trkpt lat="42.70557" lon="0.59717">
        <ele>2699.91</ele>
        <time>2015-11-01T12:09:45Z</time>
      </trkpt>
      <trkpt lat="42.70557" lon="0.59716">
        <ele>2700.19</ele>
        <time>2015-11-01T12:10:09Z</time>
      </trkpt>
      <trkpt lat="42.70554" lon="0.59721">
        <ele>2698.22</ele>
        <time>2015-11-01T12:10:24Z</time>
      </trkpt>
      <trkpt lat="42.70551" lon="0.5972">
        <ele>2697.41</ele>
        <time>2015-11-01T12:10:31Z</time>
      </trkpt>
      <trkpt lat="42.70549" lon="0.59717">
        <ele>2696.91</ele>
        <time>2015-11-01T12:10:33Z</time>
      </trkpt>
      <trkpt lat="42.70545" lon="0.59711">
        <ele>2695.73</ele>
        <time>2015-11-01T12:10:37Z</time>
      </trkpt>
      <trkpt lat="42.70538" lon="0.59699">
        <ele>2692.29</ele>
        <time>2015-11-01T12:10:48Z</time>
      </trkpt>
      <trkpt lat="42.70545" lon="0.59705">
        <ele>2691.08</ele>
        <time>2015-11-01T12:11:02Z</time>
      </trkpt>
      <trkpt lat="42.70552" lon="0.59706">
        <ele>2690.82</ele>
        <time>2015-11-01T12:11:15Z</time>
      </trkpt>
      <trkpt lat="42.70546" lon="0.59701">
        <ele>2688.48</ele>
        <time>2015-11-01T12:11:28Z</time>
      </trkpt>
      <trkpt lat="42.70543" lon="0.59694">
        <ele>2685.41</ele>
        <time>2015-11-01T12:11:36Z</time>
      </trkpt>
      <trkpt lat="42.70538" lon="0.59686">
        <ele>2682.45</ele>
        <time>2015-11-01T12:11:50Z</time>
      </trkpt>
      <trkpt lat="42.70532" lon="0.59693">
        <ele>2679.32</ele>
        <time>2015-11-01T12:12:04Z</time>
      </trkpt>
      <trkpt lat="42.7053" lon="0.59698">
        <ele>2677.69</ele>
        <time>2015-11-01T12:12:09Z</time>
      </trkpt>
      <trkpt lat="42.70524" lon="0.59692">
        <ele>2674.78</ele>
        <time>2015-11-01T12:12:19Z</time>
      </trkpt>
      <trkpt lat="42.70521" lon="0.59695">
        <ele>2671.67</ele>
        <time>2015-11-01T12:12:32Z</time>
      </trkpt>
      <trkpt lat="42.70518" lon="0.59706">
        <ele>2669.18</ele>
        <time>2015-11-01T12:12:46Z</time>
      </trkpt>
      <trkpt lat="42.70513" lon="0.59712">
        <ele>2666.12</ele>
        <time>2015-11-01T12:12:59Z</time>
      </trkpt>
      <trkpt lat="42.7051" lon="0.59722">
        <ele>2662.85</ele>
        <time>2015-11-01T12:13:11Z</time>
      </trkpt>
      <trkpt lat="42.70511" lon="0.59725">
        <ele>2661.45</ele>
        <time>2015-11-01T12:13:15Z</time>
      </trkpt>
      <trkpt lat="42.70506" lon="0.59731">
        <ele>2658.75</ele>
        <time>2015-11-01T12:13:25Z</time>
      </trkpt>
      <trkpt lat="42.70502" lon="0.59738">
        <ele>2656.29</ele>
        <time>2015-11-01T12:13:32Z</time>
      </trkpt>
      <trkpt lat="42.70499" lon="0.5974">
        <ele>2652.83</ele>
        <time>2015-11-01T12:13:40Z</time>
      </trkpt>
      <trkpt lat="42.70494" lon="0.5974">
        <ele>2649.81</ele>
        <time>2015-11-01T12:13:47Z</time>
      </trkpt>
      <trkpt lat="42.70491" lon="0.59745">
        <ele>2646.58</ele>
        <time>2015-11-01T12:13:56Z</time>
      </trkpt>
      <trkpt lat="42.70488" lon="0.59744">
        <ele>2643.45</ele>
        <time>2015-11-01T12:14:06Z</time>
      </trkpt>
      <trkpt lat="42.70484" lon="0.59738">
        <ele>2640.25</ele>
        <time>2015-11-01T12:14:15Z</time>
      </trkpt>
      <trkpt lat="42.70481" lon="0.5974">
        <ele>2638.61</ele>
        <time>2015-11-01T12:14:19Z</time>
      </trkpt>
      <trkpt lat="42.70476" lon="0.5975">
        <ele>2635.14</ele>
        <time>2015-11-01T12:14:29Z</time>
      </trkpt>
      <trkpt lat="42.70476" lon="0.59762">
        <ele>2631.63</ele>
        <time>2015-11-01T12:14:43Z</time>
      </trkpt>
      <trkpt lat="42.70477" lon="0.59766">
        <ele>2630.62</ele>
        <time>2015-11-01T12:14:51Z</time>
      </trkpt>
      <trkpt lat="42.70472" lon="0.59769">
        <ele>2627.86</ele>
        <time>2015-11-01T12:15:08Z</time>
      </trkpt>
      <trkpt lat="42.70474" lon="0.59772">
        <ele>2624.76</ele>
        <time>2015-11-01T12:15:27Z</time>
      </trkpt>
      <trkpt lat="42.70474" lon="0.59774">
        <ele>2624.54</ele>
        <time>2015-11-01T12:15:29Z</time>
      </trkpt>
      <trkpt lat="42.70473" lon="0.59779">
        <ele>2624.26</ele>
        <time>2015-11-01T12:15:32Z</time>
      </trkpt>
      <trkpt lat="42.70472" lon="0.59794">
        <ele>2621.56</ele>
        <time>2015-11-01T12:15:48Z</time>
      </trkpt>
      <trkpt lat="42.70468" lon="0.59791">
        <ele>2619.86</ele>
        <time>2015-11-01T12:15:58Z</time>
      </trkpt>
      <trkpt lat="42.70458" lon="0.5978">
        <ele>2617.09</ele>
        <time>2015-11-01T12:16:11Z</time>
      </trkpt>
      <trkpt lat="42.70462" lon="0.59784">
        <ele>2614.08</ele>
        <time>2015-11-01T12:16:22Z</time>
      </trkpt>
      <trkpt lat="42.70458" lon="0.59785">
        <ele>2611.38</ele>
        <time>2015-11-01T12:16:37Z</time>
      </trkpt>
      <trkpt lat="42.70456" lon="0.59784">
        <ele>2610.47</ele>
        <time>2015-11-01T12:16:51Z</time>
      </trkpt>
      <trkpt lat="42.70456" lon="0.59788">
        <ele>2609.83</ele>
        <time>2015-11-01T12:17:09Z</time>
      </trkpt>
      <trkpt lat="42.70454" lon="0.59784">
        <ele>2607.59</ele>
        <time>2015-11-01T12:17:27Z</time>
      </trkpt>
      <trkpt lat="42.70452" lon="0.59783">
        <ele>2606.71</ele>
        <time>2015-11-01T12:17:40Z</time>
      </trkpt>
      <trkpt lat="42.70447" lon="0.59788">
        <ele>2604.45</ele>
        <time>2015-11-01T12:17:54Z</time>
      </trkpt>
      <trkpt lat="42.70447" lon="0.59792">
        <ele>2601.61</ele>
        <time>2015-11-01T12:18:02Z</time>
      </trkpt>
      <trkpt lat="42.70446" lon="0.59801">
        <ele>2598.46</ele>
        <time>2015-11-01T12:18:17Z</time>
      </trkpt>
      <trkpt lat="42.70442" lon="0.59812">
        <ele>2595.38</ele>
        <time>2015-11-01T12:18:30Z</time>
      </trkpt>
      <trkpt lat="42.70437" lon="0.59811">
        <ele>2593.09</ele>
        <time>2015-11-01T12:18:44Z</time>
      </trkpt>
      <trkpt lat="42.70433" lon="0.5982">
        <ele>2589.9</ele>
        <time>2015-11-01T12:18:54Z</time>
      </trkpt>
      <trkpt lat="42.70431" lon="0.59819">
        <ele>2588.35</ele>
        <time>2015-11-01T12:18:58Z</time>
      </trkpt>
      <trkpt lat="42.70427" lon="0.59818">
        <ele>2585.55</ele>
        <time>2015-11-01T12:19:10Z</time>
      </trkpt>
      <trkpt lat="42.70433" lon="0.59822">
        <ele>2584.6</ele>
        <time>2015-11-01T12:19:31Z</time>
      </trkpt>
      <trkpt lat="42.70432" lon="0.59827">
        <ele>2584.34</ele>
        <time>2015-11-01T12:19:51Z</time>
      </trkpt>
      <trkpt lat="42.70426" lon="0.59835">
        <ele>2581.42</ele>
        <time>2015-11-01T12:20:07Z</time>
      </trkpt>
      <trkpt lat="42.70424" lon="0.59833">
        <ele>2579.71</ele>
        <time>2015-11-01T12:20:25Z</time>
      </trkpt>
      <trkpt lat="42.70424" lon="0.59836">
        <ele>2578.27</ele>
        <time>2015-11-01T12:20:36Z</time>
      </trkpt>
      <trkpt lat="42.70424" lon="0.5984">
        <ele>2576.81</ele>
        <time>2015-11-01T12:20:46Z</time>
      </trkpt>
      <trkpt lat="42.70421" lon="0.5984">
        <ele>2574.8</ele>
        <time>2015-11-01T12:21:03Z</time>
      </trkpt>
      <trkpt lat="42.70423" lon="0.59844">
        <ele>2571.74</ele>
        <time>2015-11-01T12:21:19Z</time>
      </trkpt>
      <trkpt lat="42.70418" lon="0.59842">
        <ele>2569.07</ele>
        <time>2015-11-01T12:21:37Z</time>
      </trkpt>
      <trkpt lat="42.70416" lon="0.59845">
        <ele>2568.03</ele>
        <time>2015-11-01T12:21:45Z</time>
      </trkpt>
      <trkpt lat="42.70411" lon="0.59841">
        <ele>2566.41</ele>
        <time>2015-11-01T12:21:53Z</time>
      </trkpt>
      <trkpt lat="42.70404" lon="0.59837">
        <ele>2564</ele>
        <time>2015-11-01T12:22:03Z</time>
      </trkpt>
      <trkpt lat="42.70403" lon="0.59835">
        <ele>2563.48</ele>
        <time>2015-11-01T12:22:05Z</time>
      </trkpt>
      <trkpt lat="42.70397" lon="0.59833">
        <ele>2561.43</ele>
        <time>2015-11-01T12:22:14Z</time>
      </trkpt>
      <trkpt lat="42.70394" lon="0.59839">
        <ele>2558.13</ele>
        <time>2015-11-01T12:22:24Z</time>
      </trkpt>
      <trkpt lat="42.7039" lon="0.59842">
        <ele>2555</ele>
        <time>2015-11-01T12:22:34Z</time>
      </trkpt>
      <trkpt lat="42.70385" lon="0.59846">
        <ele>2551.87</ele>
        <time>2015-11-01T12:22:43Z</time>
      </trkpt>
      <trkpt lat="42.70384" lon="0.59842">
        <ele>2550.72</ele>
        <time>2015-11-01T12:22:47Z</time>
      </trkpt>
      <trkpt lat="42.70381" lon="0.59838">
        <ele>2550.06</ele>
        <time>2015-11-01T12:22:49Z</time>
      </trkpt>
      <trkpt lat="42.70375" lon="0.59838">
        <ele>2546.84</ele>
        <time>2015-11-01T12:23:01Z</time>
      </trkpt>
      <trkpt lat="42.70372" lon="0.59853">
        <ele>2543.59</ele>
        <time>2015-11-01T12:23:13Z</time>
      </trkpt>
      <trkpt lat="42.7037" lon="0.59855">
        <ele>2542.01</ele>
        <time>2015-11-01T12:23:19Z</time>
      </trkpt>
      <trkpt lat="42.70368" lon="0.59853">
        <ele>2541.45</ele>
        <time>2015-11-01T12:23:21Z</time>
      </trkpt>
      <trkpt lat="42.70365" lon="0.59848">
        <ele>2540.85</ele>
        <time>2015-11-01T12:23:24Z</time>
      </trkpt>
      <trkpt lat="42.70366" lon="0.5985">
        <ele>2538.47</ele>
        <time>2015-11-01T12:23:34Z</time>
      </trkpt>
      <trkpt lat="42.70368" lon="0.59856">
        <ele>2538.18</ele>
        <time>2015-11-01T12:23:40Z</time>
      </trkpt>
      <trkpt lat="42.70374" lon="0.5986">
        <ele>2538.17</ele>
        <time>2015-11-01T12:24:03Z</time>
      </trkpt>
      <trkpt lat="42.70373" lon="0.59862">
        <ele>2538.45</ele>
        <time>2015-11-01T12:24:21Z</time>
      </trkpt>
      <trkpt lat="42.70371" lon="0.59857">
        <ele>2538.37</ele>
        <time>2015-11-01T12:24:40Z</time>
      </trkpt>
      <trkpt lat="42.70373" lon="0.59862">
        <ele>2538.46</ele>
        <time>2015-11-01T12:24:58Z</time>
      </trkpt>
      <trkpt lat="42.70373" lon="0.59864">
        <ele>2538.47</ele>
        <time>2015-11-01T12:25:11Z</time>
      </trkpt>
      <trkpt lat="42.70372" lon="0.59849">
        <ele>2538.07</ele>
        <time>2015-11-01T12:25:37Z</time>
      </trkpt>
      <trkpt lat="42.70371" lon="0.59851">
        <ele>2538.01</ele>
        <time>2015-11-01T12:25:53Z</time>
      </trkpt>
      <trkpt lat="42.70372" lon="0.59856">
        <ele>2538.03</ele>
        <time>2015-11-01T12:26:16Z</time>
      </trkpt>
      <trkpt lat="42.70374" lon="0.59858">
        <ele>2537.94</ele>
        <time>2015-11-01T12:26:27Z</time>
      </trkpt>
      <trkpt lat="42.70377" lon="0.59857">
        <ele>2538.08</ele>
        <time>2015-11-01T12:26:36Z</time>
      </trkpt>
      <trkpt lat="42.70377" lon="0.59856">
        <ele>2537.84</ele>
        <time>2015-11-01T12:26:51Z</time>
      </trkpt>
      <trkpt lat="42.70375" lon="0.5985">
        <ele>2537.81</ele>
        <time>2015-11-01T12:27:03Z</time>
      </trkpt>
      <trkpt lat="42.70373" lon="0.59849">
        <ele>2537.78</ele>
        <time>2015-11-01T12:27:13Z</time>
      </trkpt>
      <trkpt lat="42.70371" lon="0.59848">
        <ele>2537.78</ele>
        <time>2015-11-01T12:27:24Z</time>
      </trkpt>
      <trkpt lat="42.70369" lon="0.59847">
        <ele>2537.98</ele>
        <time>2015-11-01T12:27:39Z</time>
      </trkpt>
      <trkpt lat="42.7037" lon="0.5985">
        <ele>2537.79</ele>
        <time>2015-11-01T12:27:53Z</time>
      </trkpt>
      <trkpt lat="42.70367" lon="0.59849">
        <ele>2537.82</ele>
        <time>2015-11-01T12:28:08Z</time>
      </trkpt>
      <trkpt lat="42.70365" lon="0.5985">
        <ele>2537.26</ele>
        <time>2015-11-01T12:28:26Z</time>
      </trkpt>
      <trkpt lat="42.70362" lon="0.59845">
        <ele>2537.15</ele>
        <time>2015-11-01T12:28:37Z</time>
      </trkpt>
      <trkpt lat="42.70358" lon="0.59844">
        <ele>2535.69</ele>
        <time>2015-11-01T12:28:48Z</time>
      </trkpt>
      <trkpt lat="42.70355" lon="0.59851">
        <ele>2533.41</ele>
        <time>2015-11-01T12:28:59Z</time>
      </trkpt>
      <trkpt lat="42.70354" lon="0.59852">
        <ele>2530.25</ele>
        <time>2015-11-01T12:29:10Z</time>
      </trkpt>
      <trkpt lat="42.70348" lon="0.5986">
        <ele>2527.75</ele>
        <time>2015-11-01T12:29:24Z</time>
      </trkpt>
      <trkpt lat="42.70341" lon="0.59858">
        <ele>2525.11</ele>
        <time>2015-11-01T12:29:39Z</time>
      </trkpt>
      <trkpt lat="42.70335" lon="0.59862">
        <ele>2522.86</ele>
        <time>2015-11-01T12:29:52Z</time>
      </trkpt>
      <trkpt lat="42.70329" lon="0.59862">
        <ele>2521.37</ele>
        <time>2015-11-01T12:29:59Z</time>
      </trkpt>
      <trkpt lat="42.7032" lon="0.59862">
        <ele>2520.49</ele>
        <time>2015-11-01T12:30:09Z</time>
      </trkpt>
      <trkpt lat="42.70314" lon="0.59871">
        <ele>2520</ele>
        <time>2015-11-01T12:30:20Z</time>
      </trkpt>
      <trkpt lat="42.70304" lon="0.59879">
        <ele>2519.01</ele>
        <time>2015-11-01T12:30:31Z</time>
      </trkpt>
      <trkpt lat="42.70298" lon="0.59887">
        <ele>2518.11</ele>
        <time>2015-11-01T12:30:40Z</time>
      </trkpt>
      <trkpt lat="42.70296" lon="0.59892">
        <ele>2517.65</ele>
        <time>2015-11-01T12:30:44Z</time>
      </trkpt>
      <trkpt lat="42.70287" lon="0.59908">
        <ele>2516.96</ele>
        <time>2015-11-01T12:30:58Z</time>
      </trkpt>
      <trkpt lat="42.70281" lon="0.59915">
        <ele>2515.61</ele>
        <time>2015-11-01T12:31:13Z</time>
      </trkpt>
      <trkpt lat="42.70272" lon="0.5992">
        <ele>2514.08</ele>
        <time>2015-11-01T12:31:29Z</time>
      </trkpt>
      <trkpt lat="42.70266" lon="0.59928">
        <ele>2512.33</ele>
        <time>2015-11-01T12:31:43Z</time>
      </trkpt>
      <trkpt lat="42.70264" lon="0.59937">
        <ele>2511.39</ele>
        <time>2015-11-01T12:31:58Z</time>
      </trkpt>
      <trkpt lat="42.70265" lon="0.59947">
        <ele>2510.65</ele>
        <time>2015-11-01T12:32:14Z</time>
      </trkpt>
      <trkpt lat="42.70264" lon="0.59958">
        <ele>2511.95</ele>
        <time>2015-11-01T12:32:25Z</time>
      </trkpt>
      <trkpt lat="42.70261" lon="0.59972">
        <ele>2513.49</ele>
        <time>2015-11-01T12:32:37Z</time>
      </trkpt>
      <trkpt lat="42.70259" lon="0.59975">
        <ele>2513.96</ele>
        <time>2015-11-01T12:32:40Z</time>
      </trkpt>
      <trkpt lat="42.70254" lon="0.59983">
        <ele>2510.79</ele>
        <time>2015-11-01T12:32:53Z</time>
      </trkpt>
      <trkpt lat="42.70252" lon="0.59984">
        <ele>2509.14</ele>
        <time>2015-11-01T12:32:57Z</time>
      </trkpt>
      <trkpt lat="42.70246" lon="0.59988">
        <ele>2505.97</ele>
        <time>2015-11-01T12:33:10Z</time>
      </trkpt>
      <trkpt lat="42.70241" lon="0.59994">
        <ele>2502.81</ele>
        <time>2015-11-01T12:33:22Z</time>
      </trkpt>
      <trkpt lat="42.70239" lon="0.59998">
        <ele>2500.7</ele>
        <time>2015-11-01T12:33:27Z</time>
      </trkpt>
      <trkpt lat="42.70237" lon="0.60001">
        <ele>2499.45</ele>
        <time>2015-11-01T12:33:30Z</time>
      </trkpt>
      <trkpt lat="42.70234" lon="0.60012">
        <ele>2496.57</ele>
        <time>2015-11-01T12:33:38Z</time>
      </trkpt>
      <trkpt lat="42.70232" lon="0.60019">
        <ele>2494.95</ele>
        <time>2015-11-01T12:33:43Z</time>
      </trkpt>
      <trkpt lat="42.70226" lon="0.60029">
        <ele>2492.47</ele>
        <time>2015-11-01T12:33:51Z</time>
      </trkpt>
      <trkpt lat="42.70224" lon="0.60033">
        <ele>2491.42</ele>
        <time>2015-11-01T12:33:55Z</time>
      </trkpt>
      <trkpt lat="42.7022" lon="0.60037">
        <ele>2490.15</ele>
        <time>2015-11-01T12:33:59Z</time>
      </trkpt>
      <trkpt lat="42.70215" lon="0.60036">
        <ele>2488.33</ele>
        <time>2015-11-01T12:34:04Z</time>
      </trkpt>
      <trkpt lat="42.7021" lon="0.60035">
        <ele>2486.96</ele>
        <time>2015-11-01T12:34:08Z</time>
      </trkpt>
      <trkpt lat="42.70206" lon="0.60036">
        <ele>2486.05</ele>
        <time>2015-11-01T12:34:11Z</time>
      </trkpt>
      <trkpt lat="42.702" lon="0.6004">
        <ele>2483.06</ele>
        <time>2015-11-01T12:34:19Z</time>
      </trkpt>
      <trkpt lat="42.70195" lon="0.60048">
        <ele>2480.2</ele>
        <time>2015-11-01T12:34:27Z</time>
      </trkpt>
      <trkpt lat="42.7019" lon="0.60054">
        <ele>2476.65</ele>
        <time>2015-11-01T12:34:37Z</time>
      </trkpt>
      <trkpt lat="42.70186" lon="0.60057">
        <ele>2473.25</ele>
        <time>2015-11-01T12:34:47Z</time>
      </trkpt>
      <trkpt lat="42.70185" lon="0.60056">
        <ele>2472.69</ele>
        <time>2015-11-01T12:34:49Z</time>
      </trkpt>
      <trkpt lat="42.70174" lon="0.60056">
        <ele>2469.39</ele>
        <time>2015-11-01T12:35:01Z</time>
      </trkpt>
      <trkpt lat="42.70175" lon="0.6006">
        <ele>2468.35</ele>
        <time>2015-11-01T12:35:06Z</time>
      </trkpt>
      <trkpt lat="42.70173" lon="0.60067">
        <ele>2465.51</ele>
        <time>2015-11-01T12:35:19Z</time>
      </trkpt>
      <trkpt lat="42.70172" lon="0.60069">
        <ele>2465</ele>
        <time>2015-11-01T12:35:27Z</time>
      </trkpt>
      <trkpt lat="42.70173" lon="0.60077">
        <ele>2463.13</ele>
        <time>2015-11-01T12:35:40Z</time>
      </trkpt>
      <trkpt lat="42.7017" lon="0.60084">
        <ele>2461.36</ele>
        <time>2015-11-01T12:35:49Z</time>
      </trkpt>
      <trkpt lat="42.70162" lon="0.60083">
        <ele>2459.34</ele>
        <time>2015-11-01T12:35:56Z</time>
      </trkpt>
      <trkpt lat="42.70161" lon="0.60094">
        <ele>2456.14</ele>
        <time>2015-11-01T12:36:07Z</time>
      </trkpt>
      <trkpt lat="42.70159" lon="0.60104">
        <ele>2453.05</ele>
        <time>2015-11-01T12:36:18Z</time>
      </trkpt>
      <trkpt lat="42.70155" lon="0.60108">
        <ele>2449.9</ele>
        <time>2015-11-01T12:36:29Z</time>
      </trkpt>
      <trkpt lat="42.70154" lon="0.60111">
        <ele>2449.43</ele>
        <time>2015-11-01T12:36:32Z</time>
      </trkpt>
      <trkpt lat="42.70152" lon="0.60125">
        <ele>2446.32</ele>
        <time>2015-11-01T12:36:45Z</time>
      </trkpt>
      <trkpt lat="42.70151" lon="0.60128">
        <ele>2445.67</ele>
        <time>2015-11-01T12:36:48Z</time>
      </trkpt>
      <trkpt lat="42.70147" lon="0.60144">
        <ele>2442.44</ele>
        <time>2015-11-01T12:37:02Z</time>
      </trkpt>
      <trkpt lat="42.70142" lon="0.60152">
        <ele>2439.29</ele>
        <time>2015-11-01T12:37:16Z</time>
      </trkpt>
      <trkpt lat="42.70142" lon="0.60154">
        <ele>2439.12</ele>
        <time>2015-11-01T12:37:17Z</time>
      </trkpt>
      <trkpt lat="42.70137" lon="0.60162">
        <ele>2435.76</ele>
        <time>2015-11-01T12:37:29Z</time>
      </trkpt>
      <trkpt lat="42.7013" lon="0.60172">
        <ele>2432.57</ele>
        <time>2015-11-01T12:37:41Z</time>
      </trkpt>
      <trkpt lat="42.70126" lon="0.60182">
        <ele>2429</ele>
        <time>2015-11-01T12:37:51Z</time>
      </trkpt>
      <trkpt lat="42.70126" lon="0.60183">
        <ele>2428.64</ele>
        <time>2015-11-01T12:37:52Z</time>
      </trkpt>
      <trkpt lat="42.70124" lon="0.60187">
        <ele>2427.45</ele>
        <time>2015-11-01T12:37:56Z</time>
      </trkpt>
      <trkpt lat="42.70123" lon="0.60194">
        <ele>2426</ele>
        <time>2015-11-01T12:38:01Z</time>
      </trkpt>
      <trkpt lat="42.70125" lon="0.60196">
        <ele>2423.86</ele>
        <time>2015-11-01T12:38:12Z</time>
      </trkpt>
      <trkpt lat="42.70122" lon="0.60202">
        <ele>2421.89</ele>
        <time>2015-11-01T12:38:25Z</time>
      </trkpt>
      <trkpt lat="42.7012" lon="0.60206">
        <ele>2421.58</ele>
        <time>2015-11-01T12:38:29Z</time>
      </trkpt>
      <trkpt lat="42.70116" lon="0.60218">
        <ele>2418.46</ele>
        <time>2015-11-01T12:38:44Z</time>
      </trkpt>
      <trkpt lat="42.7011" lon="0.60226">
        <ele>2415.71</ele>
        <time>2015-11-01T12:38:59Z</time>
      </trkpt>
      <trkpt lat="42.70105" lon="0.60226">
        <ele>2413.7</ele>
        <time>2015-11-01T12:39:09Z</time>
      </trkpt>
      <trkpt lat="42.70099" lon="0.6022">
        <ele>2410.64</ele>
        <time>2015-11-01T12:39:23Z</time>
      </trkpt>
      <trkpt lat="42.70096" lon="0.6023">
        <ele>2407.45</ele>
        <time>2015-11-01T12:39:37Z</time>
      </trkpt>
      <trkpt lat="42.70096" lon="0.60246">
        <ele>2407.89</ele>
        <time>2015-11-01T12:39:52Z</time>
      </trkpt>
      <trkpt lat="42.70095" lon="0.60258">
        <ele>2408.05</ele>
        <time>2015-11-01T12:40:04Z</time>
      </trkpt>
      <trkpt lat="42.70094" lon="0.60271">
        <ele>2407.88</ele>
        <time>2015-11-01T12:40:14Z</time>
      </trkpt>
      <trkpt lat="42.70091" lon="0.60283">
        <ele>2407.38</ele>
        <time>2015-11-01T12:40:22Z</time>
      </trkpt>
      <trkpt lat="42.7009" lon="0.60289">
        <ele>2407.06</ele>
        <time>2015-11-01T12:40:26Z</time>
      </trkpt>
      <trkpt lat="42.70086" lon="0.60306">
        <ele>2406.03</ele>
        <time>2015-11-01T12:40:40Z</time>
      </trkpt>
      <trkpt lat="42.70085" lon="0.60312">
        <ele>2404.14</ele>
        <time>2015-11-01T12:40:55Z</time>
      </trkpt>
      <trkpt lat="42.70084" lon="0.60317">
        <ele>2403.88</ele>
        <time>2015-11-01T12:41:02Z</time>
      </trkpt>
      <trkpt lat="42.7008" lon="0.60327">
        <ele>2403.09</ele>
        <time>2015-11-01T12:41:10Z</time>
      </trkpt>
      <trkpt lat="42.70076" lon="0.60337">
        <ele>2402.76</ele>
        <time>2015-11-01T12:41:25Z</time>
      </trkpt>
      <trkpt lat="42.70074" lon="0.60338">
        <ele>2402.63</ele>
        <time>2015-11-01T12:41:38Z</time>
      </trkpt>
      <trkpt lat="42.70069" lon="0.60341">
        <ele>2405.67</ele>
        <time>2015-11-01T12:41:55Z</time>
      </trkpt>
      <trkpt lat="42.70055" lon="0.6034">
        <ele>2408.46</ele>
        <time>2015-11-01T12:42:14Z</time>
      </trkpt>
      <trkpt lat="42.70064" lon="0.60348">
        <ele>2409.36</ele>
        <time>2015-11-01T12:42:38Z</time>
      </trkpt>
      <trkpt lat="42.70063" lon="0.60354">
        <ele>2411.37</ele>
        <time>2015-11-01T12:43:00Z</time>
      </trkpt>
      <trkpt lat="42.70062" lon="0.60359">
        <ele>2413.64</ele>
        <time>2015-11-01T12:43:09Z</time>
      </trkpt>
      <trkpt lat="42.70068" lon="0.60356">
        <ele>2416.12</ele>
        <time>2015-11-01T12:43:25Z</time>
      </trkpt>
      <trkpt lat="42.70065" lon="0.60362">
        <ele>2415.65</ele>
        <time>2015-11-01T12:43:48Z</time>
      </trkpt>
      <trkpt lat="42.70061" lon="0.60366">
        <ele>2417.41</ele>
        <time>2015-11-01T12:44:08Z</time>
      </trkpt>
      <trkpt lat="42.70058" lon="0.60363">
        <ele>2420.16</ele>
        <time>2015-11-01T12:44:26Z</time>
      </trkpt>
      <trkpt lat="42.70059" lon="0.60366">
        <ele>2423.62</ele>
        <time>2015-11-01T12:44:44Z</time>
      </trkpt>
      <trkpt lat="42.7006" lon="0.60371">
        <ele>2426.66</ele>
        <time>2015-11-01T12:45:01Z</time>
      </trkpt>
      <trkpt lat="42.70059" lon="0.60377">
        <ele>2428.53</ele>
        <time>2015-11-01T12:45:20Z</time>
      </trkpt>
      <trkpt lat="42.70053" lon="0.60379">
        <ele>2431.28</ele>
        <time>2015-11-01T12:45:44Z</time>
      </trkpt>
      <trkpt lat="42.70052" lon="0.60382">
        <ele>2432.1</ele>
        <time>2015-11-01T12:45:49Z</time>
      </trkpt>
      <trkpt lat="42.7005" lon="0.60381">
        <ele>2432.87</ele>
        <time>2015-11-01T12:45:56Z</time>
      </trkpt>
      <trkpt lat="42.70051" lon="0.60382">
        <ele>2433.22</ele>
        <time>2015-11-01T12:46:16Z</time>
      </trkpt>
      <trkpt lat="42.70048" lon="0.60385">
        <ele>2430.83</ele>
        <time>2015-11-01T12:46:33Z</time>
      </trkpt>
      <trkpt lat="42.70045" lon="0.60385">
        <ele>2430.37</ele>
        <time>2015-11-01T12:46:55Z</time>
      </trkpt>
      <trkpt lat="42.70039" lon="0.60385">
        <ele>2430.57</ele>
        <time>2015-11-01T12:47:10Z</time>
      </trkpt>
      <trkpt lat="42.70038" lon="0.60391">
        <ele>2430.09</ele>
        <time>2015-11-01T12:47:29Z</time>
      </trkpt>
      <trkpt lat="42.70037" lon="0.60395">
        <ele>2432.24</ele>
        <time>2015-11-01T12:47:51Z</time>
      </trkpt>
      <trkpt lat="42.70037" lon="0.60399">
        <ele>2434.89</ele>
        <time>2015-11-01T12:48:10Z</time>
      </trkpt>
      <trkpt lat="42.70038" lon="0.60405">
        <ele>2436.4</ele>
        <time>2015-11-01T12:48:30Z</time>
      </trkpt>
      <trkpt lat="42.70039" lon="0.60409">
        <ele>2437.34</ele>
        <time>2015-11-01T12:48:45Z</time>
      </trkpt>
      <trkpt lat="42.7004" lon="0.60414">
        <ele>2439.96</ele>
        <time>2015-11-01T12:49:10Z</time>
      </trkpt>
      <trkpt lat="42.7004" lon="0.60413">
        <ele>2440.89</ele>
        <time>2015-11-01T12:49:36Z</time>
      </trkpt>
      <trkpt lat="42.70037" lon="0.6041">
        <ele>2443.38</ele>
        <time>2015-11-01T12:49:56Z</time>
      </trkpt>
      <trkpt lat="42.70036" lon="0.60412">
        <ele>2444.11</ele>
        <time>2015-11-01T12:50:19Z</time>
      </trkpt>
      <trkpt lat="42.70034" lon="0.60411">
        <ele>2441.83</ele>
        <time>2015-11-01T12:50:42Z</time>
      </trkpt>
      <trkpt lat="42.70034" lon="0.60419">
        <ele>2444.43</ele>
        <time>2015-11-01T12:51:05Z</time>
      </trkpt>
      <trkpt lat="42.70034" lon="0.60419">
        <ele>2445.09</ele>
        <time>2015-11-01T12:51:07Z</time>
      </trkpt>
      <trkpt lat="42.70032" lon="0.60423">
        <ele>2446.31</ele>
        <time>2015-11-01T12:51:16Z</time>
      </trkpt>
      <trkpt lat="42.70025" lon="0.60426">
        <ele>2449.39</ele>
        <time>2015-11-01T12:51:38Z</time>
      </trkpt>
      <trkpt lat="42.70022" lon="0.60429">
        <ele>2451.53</ele>
        <time>2015-11-01T12:51:59Z</time>
      </trkpt>
      <trkpt lat="42.70019" lon="0.60431">
        <ele>2453.66</ele>
        <time>2015-11-01T12:52:21Z</time>
      </trkpt>
      <trkpt lat="42.70022" lon="0.60428">
        <ele>2456.47</ele>
        <time>2015-11-01T12:52:43Z</time>
      </trkpt>
      <trkpt lat="42.70019" lon="0.60426">
        <ele>2458</ele>
        <time>2015-11-01T12:53:09Z</time>
      </trkpt>
      <trkpt lat="42.70023" lon="0.60428">
        <ele>2458.64</ele>
        <time>2015-11-01T12:53:33Z</time>
      </trkpt>
      <trkpt lat="42.70023" lon="0.60425">
        <ele>2457.66</ele>
        <time>2015-11-01T12:53:57Z</time>
      </trkpt>
      <trkpt lat="42.70025" lon="0.60428">
        <ele>2458.36</ele>
        <time>2015-11-01T12:54:22Z</time>
      </trkpt>
      <trkpt lat="42.70025" lon="0.60429">
        <ele>2458.03</ele>
        <time>2015-11-01T12:54:44Z</time>
      </trkpt>
      <trkpt lat="42.70025" lon="0.60428">
        <ele>2458.32</ele>
        <time>2015-11-01T12:55:05Z</time>
      </trkpt>
      <trkpt lat="42.70023" lon="0.60425">
        <ele>2458.98</ele>
        <time>2015-11-01T12:55:26Z</time>
      </trkpt>
      <trkpt lat="42.70023" lon="0.60425">
        <ele>2459.38</ele>
        <time>2015-11-01T12:55:47Z</time>
      </trkpt>
      <trkpt lat="42.70023" lon="0.60425">
        <ele>2459.04</ele>
        <time>2015-11-01T12:56:11Z</time>
      </trkpt>
      <trkpt lat="42.70025" lon="0.60422">
        <ele>2458.42</ele>
        <time>2015-11-01T12:56:28Z</time>
      </trkpt>
      <trkpt lat="42.70024" lon="0.60427">
        <ele>2458.42</ele>
        <time>2015-11-01T12:56:44Z</time>
      </trkpt>
      <trkpt lat="42.70023" lon="0.60429">
        <ele>2458.29</ele>
        <time>2015-11-01T12:57:03Z</time>
      </trkpt>
      <trkpt lat="42.70022" lon="0.6043">
        <ele>2457.67</ele>
        <time>2015-11-01T12:57:19Z</time>
      </trkpt>
      <trkpt lat="42.7002" lon="0.6043">
        <ele>2456.88</ele>
        <time>2015-11-01T12:57:36Z</time>
      </trkpt>
      <trkpt lat="42.70019" lon="0.60431">
        <ele>2454.55</ele>
        <time>2015-11-01T12:57:53Z</time>
      </trkpt>
      <trkpt lat="42.70016" lon="0.6043">
        <ele>2452.53</ele>
        <time>2015-11-01T12:58:14Z</time>
      </trkpt>
      <trkpt lat="42.70014" lon="0.60427">
        <ele>2449.6</ele>
        <time>2015-11-01T12:58:36Z</time>
      </trkpt>
      <trkpt lat="42.70013" lon="0.60427">
        <ele>2448</ele>
        <time>2015-11-01T12:58:56Z</time>
      </trkpt>
      <trkpt lat="42.70009" lon="0.60427">
        <ele>2446.47</ele>
        <time>2015-11-01T12:59:15Z</time>
      </trkpt>
      <trkpt lat="42.70007" lon="0.6043">
        <ele>2443.87</ele>
        <time>2015-11-01T12:59:30Z</time>
      </trkpt>
      <trkpt lat="42.70003" lon="0.60436">
        <ele>2442</ele>
        <time>2015-11-01T12:59:48Z</time>
      </trkpt>
      <trkpt lat="42.70001" lon="0.60433">
        <ele>2439.9</ele>
        <time>2015-11-01T13:00:07Z</time>
      </trkpt>
      <trkpt lat="42.69999" lon="0.60437">
        <ele>2437.96</ele>
        <time>2015-11-01T13:00:30Z</time>
      </trkpt>
      <trkpt lat="42.69996" lon="0.60432">
        <ele>2436.74</ele>
        <time>2015-11-01T13:00:57Z</time>
      </trkpt>
      <trkpt lat="42.69991" lon="0.60428">
        <ele>2433.74</ele>
        <time>2015-11-01T13:01:19Z</time>
      </trkpt>
      <trkpt lat="42.69993" lon="0.60426">
        <ele>2430.85</ele>
        <time>2015-11-01T13:01:41Z</time>
      </trkpt>
      <trkpt lat="42.6999" lon="0.60421">
        <ele>2427.72</ele>
        <time>2015-11-01T13:02:00Z</time>
      </trkpt>
      <trkpt lat="42.6999" lon="0.6042">
        <ele>2425.73</ele>
        <time>2015-11-01T13:02:21Z</time>
      </trkpt>
      <trkpt lat="42.69987" lon="0.60421">
        <ele>2423.8</ele>
        <time>2015-11-01T13:02:44Z</time>
      </trkpt>
      <trkpt lat="42.69985" lon="0.60422">
        <ele>2422.75</ele>
        <time>2015-11-01T13:03:06Z</time>
      </trkpt>
      <trkpt lat="42.69985" lon="0.60422">
        <ele>2419.65</ele>
        <time>2015-11-01T13:03:24Z</time>
      </trkpt>
      <trkpt lat="42.69985" lon="0.6042">
        <ele>2419.21</ele>
        <time>2015-11-01T13:03:50Z</time>
      </trkpt>
      <trkpt lat="42.69985" lon="0.60419">
        <ele>2418.9</ele>
        <time>2015-11-01T13:03:53Z</time>
      </trkpt>
      <trkpt lat="42.69984" lon="0.60414">
        <ele>2416.04</ele>
        <time>2015-11-01T13:04:19Z</time>
      </trkpt>
      <trkpt lat="42.69982" lon="0.60412">
        <ele>2414.64</ele>
        <time>2015-11-01T13:04:48Z</time>
      </trkpt>
      <trkpt lat="42.69986" lon="0.60412">
        <ele>2414.74</ele>
        <time>2015-11-01T13:05:12Z</time>
      </trkpt>
      <trkpt lat="42.69986" lon="0.60414">
        <ele>2413.43</ele>
        <time>2015-11-01T13:06:02Z</time>
      </trkpt>
      <trkpt lat="42.69984" lon="0.60413">
        <ele>2412.3</ele>
        <time>2015-11-01T13:06:31Z</time>
      </trkpt>
      <trkpt lat="42.6998" lon="0.60414">
        <ele>2410.54</ele>
        <time>2015-11-01T13:06:54Z</time>
      </trkpt>
      <trkpt lat="42.69979" lon="0.60399">
        <ele>2408.95</ele>
        <time>2015-11-01T13:07:15Z</time>
      </trkpt>
      <trkpt lat="42.69981" lon="0.60398">
        <ele>2407.19</ele>
        <time>2015-11-01T13:07:37Z</time>
      </trkpt>
      <trkpt lat="42.6998" lon="0.60397">
        <ele>2404.61</ele>
        <time>2015-11-01T13:07:57Z</time>
      </trkpt>
      <trkpt lat="42.69973" lon="0.604">
        <ele>2402.34</ele>
        <time>2015-11-01T13:08:11Z</time>
      </trkpt>
      <trkpt lat="42.69972" lon="0.604">
        <ele>2399.72</ele>
        <time>2015-11-01T13:08:27Z</time>
      </trkpt>
      <trkpt lat="42.69963" lon="0.60401">
        <ele>2398.11</ele>
        <time>2015-11-01T13:08:43Z</time>
      </trkpt>
      <trkpt lat="42.69952" lon="0.60403">
        <ele>2396.69</ele>
        <time>2015-11-01T13:09:02Z</time>
      </trkpt>
      <trkpt lat="42.69946" lon="0.6041">
        <ele>2397.3</ele>
        <time>2015-11-01T13:09:17Z</time>
      </trkpt>
      <trkpt lat="42.69939" lon="0.60419">
        <ele>2397.7</ele>
        <time>2015-11-01T13:09:34Z</time>
      </trkpt>
      <trkpt lat="42.69931" lon="0.60427">
        <ele>2398.58</ele>
        <time>2015-11-01T13:09:52Z</time>
      </trkpt>
      <trkpt lat="42.69923" lon="0.60434">
        <ele>2401.61</ele>
        <time>2015-11-01T13:10:12Z</time>
      </trkpt>
      <trkpt lat="42.69925" lon="0.60442">
        <ele>2404.64</ele>
        <time>2015-11-01T13:10:27Z</time>
      </trkpt>
      <trkpt lat="42.69927" lon="0.60447">
        <ele>2407.9</ele>
        <time>2015-11-01T13:10:40Z</time>
      </trkpt>
      <trkpt lat="42.69931" lon="0.60453">
        <ele>2410.09</ele>
        <time>2015-11-01T13:10:59Z</time>
      </trkpt>
      <trkpt lat="42.69928" lon="0.60456">
        <ele>2412.5</ele>
        <time>2015-11-01T13:11:15Z</time>
      </trkpt>
      <trkpt lat="42.69927" lon="0.60461">
        <ele>2415.63</ele>
        <time>2015-11-01T13:11:29Z</time>
      </trkpt>
      <trkpt lat="42.69923" lon="0.60467">
        <ele>2417.19</ele>
        <time>2015-11-01T13:11:45Z</time>
      </trkpt>
      <trkpt lat="42.69923" lon="0.60469">
        <ele>2420.33</ele>
        <time>2015-11-01T13:11:53Z</time>
      </trkpt>
      <trkpt lat="42.69921" lon="0.60474">
        <ele>2421.03</ele>
        <time>2015-11-01T13:12:22Z</time>
      </trkpt>
      <trkpt lat="42.69926" lon="0.60482">
        <ele>2424.2</ele>
        <time>2015-11-01T13:12:41Z</time>
      </trkpt>
      <trkpt lat="42.69931" lon="0.60486">
        <ele>2426.85</ele>
        <time>2015-11-01T13:13:00Z</time>
      </trkpt>
      <trkpt lat="42.69929" lon="0.60488">
        <ele>2429.78</ele>
        <time>2015-11-01T13:13:20Z</time>
      </trkpt>
      <trkpt lat="42.69929" lon="0.60493">
        <ele>2432.25</ele>
        <time>2015-11-01T13:13:38Z</time>
      </trkpt>
      <trkpt lat="42.69925" lon="0.60494">
        <ele>2434.46</ele>
        <time>2015-11-01T13:13:57Z</time>
      </trkpt>
      <trkpt lat="42.69924" lon="0.60492">
        <ele>2435.76</ele>
        <time>2015-11-01T13:14:17Z</time>
      </trkpt>
      <trkpt lat="42.69925" lon="0.60492">
        <ele>2437.88</ele>
        <time>2015-11-01T13:14:44Z</time>
      </trkpt>
      <trkpt lat="42.69925" lon="0.60492">
        <ele>2439.67</ele>
        <time>2015-11-01T13:15:11Z</time>
      </trkpt>
      <trkpt lat="42.69924" lon="0.60493">
        <ele>2440.55</ele>
        <time>2015-11-01T13:15:31Z</time>
      </trkpt>
      <trkpt lat="42.69921" lon="0.60494">
        <ele>2442.46</ele>
        <time>2015-11-01T13:15:55Z</time>
      </trkpt>
      <trkpt lat="42.69917" lon="0.60499">
        <ele>2445.01</ele>
        <time>2015-11-01T13:16:15Z</time>
      </trkpt>
      <trkpt lat="42.69912" lon="0.60499">
        <ele>2446.09</ele>
        <time>2015-11-01T13:16:32Z</time>
      </trkpt>
      <trkpt lat="42.69911" lon="0.60502">
        <ele>2447.41</ele>
        <time>2015-11-01T13:16:50Z</time>
      </trkpt>
      <trkpt lat="42.69908" lon="0.60502">
        <ele>2449.12</ele>
        <time>2015-11-01T13:17:08Z</time>
      </trkpt>
      <trkpt lat="42.699" lon="0.60506">
        <ele>2449</ele>
        <time>2015-11-01T13:17:25Z</time>
      </trkpt>
      <trkpt lat="42.69896" lon="0.60511">
        <ele>2449.27</ele>
        <time>2015-11-01T13:17:42Z</time>
      </trkpt>
      <trkpt lat="42.69898" lon="0.60518">
        <ele>2452.28</ele>
        <time>2015-11-01T13:17:59Z</time>
      </trkpt>
      <trkpt lat="42.69899" lon="0.60523">
        <ele>2455.33</ele>
        <time>2015-11-01T13:18:18Z</time>
      </trkpt>
      <trkpt lat="42.69898" lon="0.60529">
        <ele>2457.49</ele>
        <time>2015-11-01T13:18:37Z</time>
      </trkpt>
      <trkpt lat="42.69898" lon="0.60532">
        <ele>2459.47</ele>
        <time>2015-11-01T13:18:59Z</time>
      </trkpt>
      <trkpt lat="42.69899" lon="0.60535">
        <ele>2461.95</ele>
        <time>2015-11-01T13:19:17Z</time>
      </trkpt>
      <trkpt lat="42.69895" lon="0.60538">
        <ele>2463.71</ele>
        <time>2015-11-01T13:19:33Z</time>
      </trkpt>
      <trkpt lat="42.69889" lon="0.6054">
        <ele>2466.04</ele>
        <time>2015-11-01T13:19:50Z</time>
      </trkpt>
      <trkpt lat="42.69881" lon="0.60546">
        <ele>2468.18</ele>
        <time>2015-11-01T13:20:10Z</time>
      </trkpt>
      <trkpt lat="42.69877" lon="0.60547">
        <ele>2469.03</ele>
        <time>2015-11-01T13:20:29Z</time>
      </trkpt>
      <trkpt lat="42.69876" lon="0.60553">
        <ele>2472.16</ele>
        <time>2015-11-01T13:20:47Z</time>
      </trkpt>
      <trkpt lat="42.69871" lon="0.60553">
        <ele>2474.73</ele>
        <time>2015-11-01T13:21:08Z</time>
      </trkpt>
      <trkpt lat="42.6987" lon="0.60555">
        <ele>2477.83</ele>
        <time>2015-11-01T13:21:24Z</time>
      </trkpt>
      <trkpt lat="42.69874" lon="0.60557">
        <ele>2480.62</ele>
        <time>2015-11-01T13:21:42Z</time>
      </trkpt>
      <trkpt lat="42.69877" lon="0.60556">
        <ele>2482.64</ele>
        <time>2015-11-01T13:22:07Z</time>
      </trkpt>
      <trkpt lat="42.6988" lon="0.60559">
        <ele>2485.27</ele>
        <time>2015-11-01T13:22:29Z</time>
      </trkpt>
      <trkpt lat="42.69882" lon="0.60559">
        <ele>2488.16</ele>
        <time>2015-11-01T13:22:49Z</time>
      </trkpt>
      <trkpt lat="42.69883" lon="0.60559">
        <ele>2491.22</ele>
        <time>2015-11-01T13:23:12Z</time>
      </trkpt>
      <trkpt lat="42.69881" lon="0.60563">
        <ele>2492.66</ele>
        <time>2015-11-01T13:23:43Z</time>
      </trkpt>
      <trkpt lat="42.69882" lon="0.60564">
        <ele>2493.95</ele>
        <time>2015-11-01T13:24:06Z</time>
      </trkpt>
      <trkpt lat="42.69886" lon="0.60565">
        <ele>2495.12</ele>
        <time>2015-11-01T13:24:26Z</time>
      </trkpt>
      <trkpt lat="42.69892" lon="0.60566">
        <ele>2497.6</ele>
        <time>2015-11-01T13:24:46Z</time>
      </trkpt>
      <trkpt lat="42.69894" lon="0.60565">
        <ele>2499.46</ele>
        <time>2015-11-01T13:25:13Z</time>
      </trkpt>
      <trkpt lat="42.69893" lon="0.60564">
        <ele>2500.43</ele>
        <time>2015-11-01T13:25:40Z</time>
      </trkpt>
      <trkpt lat="42.69895" lon="0.60562">
        <ele>2501.66</ele>
        <time>2015-11-01T13:26:09Z</time>
      </trkpt>
      <trkpt lat="42.69892" lon="0.6056">
        <ele>2503.72</ele>
        <time>2015-11-01T13:26:40Z</time>
      </trkpt>
      <trkpt lat="42.69891" lon="0.60559">
        <ele>2503.74</ele>
        <time>2015-11-01T13:26:44Z</time>
      </trkpt>
      <trkpt lat="42.69896" lon="0.60562">
        <ele>2504.72</ele>
        <time>2015-11-01T13:27:09Z</time>
      </trkpt>
      <trkpt lat="42.69897" lon="0.60563">
        <ele>2507.31</ele>
        <time>2015-11-01T13:27:33Z</time>
      </trkpt>
      <trkpt lat="42.69897" lon="0.60563">
        <ele>2509.25</ele>
        <time>2015-11-01T13:27:58Z</time>
      </trkpt>
      <trkpt lat="42.699" lon="0.60563">
        <ele>2511.91</ele>
        <time>2015-11-01T13:28:25Z</time>
      </trkpt>
      <trkpt lat="42.69904" lon="0.60565">
        <ele>2514.64</ele>
        <time>2015-11-01T13:28:48Z</time>
      </trkpt>
      <trkpt lat="42.69907" lon="0.60563">
        <ele>2517.4</ele>
        <time>2015-11-01T13:29:14Z</time>
      </trkpt>
      <trkpt lat="42.69908" lon="0.60564">
        <ele>2517.43</ele>
        <time>2015-11-01T13:29:48Z</time>
      </trkpt>
      <trkpt lat="42.69908" lon="0.60565">
        <ele>2516.76</ele>
        <time>2015-11-01T13:30:27Z</time>
      </trkpt>
      <trkpt lat="42.69907" lon="0.60563">
        <ele>2517.31</ele>
        <time>2015-11-01T13:30:58Z</time>
      </trkpt>
      <trkpt lat="42.69908" lon="0.60563">
        <ele>2516.07</ele>
        <time>2015-11-01T13:31:30Z</time>
      </trkpt>
      <trkpt lat="42.6991" lon="0.60563">
        <ele>2517</ele>
        <time>2015-11-01T13:32:19Z</time>
      </trkpt>
      <trkpt lat="42.69907" lon="0.60564">
        <ele>2517.19</ele>
        <time>2015-11-01T13:32:42Z</time>
      </trkpt>
      <trkpt lat="42.69906" lon="0.60564">
        <ele>2516.67</ele>
        <time>2015-11-01T13:33:20Z</time>
      </trkpt>
      <trkpt lat="42.69909" lon="0.60564">
        <ele>2517.49</ele>
        <time>2015-11-01T13:33:41Z</time>
      </trkpt>
      <trkpt lat="42.69912" lon="0.60564">
        <ele>2517.11</ele>
        <time>2015-11-01T13:34:02Z</time>
      </trkpt>
      <trkpt lat="42.69914" lon="0.60563">
        <ele>2516.31</ele>
        <time>2015-11-01T13:34:24Z</time>
      </trkpt>
      <trkpt lat="42.69914" lon="0.60563">
        <ele>2516.4</ele>
        <time>2015-11-01T13:34:49Z</time>
      </trkpt>
      <trkpt lat="42.69914" lon="0.60564">
        <ele>2514.16</ele>
        <time>2015-11-01T13:35:15Z</time>
      </trkpt>
      <trkpt lat="42.69914" lon="0.60562">
        <ele>2514.88</ele>
        <time>2015-11-01T13:35:43Z</time>
      </trkpt>
      <trkpt lat="42.69912" lon="0.60562">
        <ele>2513.84</ele>
        <time>2015-11-01T13:36:17Z</time>
      </trkpt>
      <trkpt lat="42.69915" lon="0.60564">
        <ele>2513.16</ele>
        <time>2015-11-01T13:36:35Z</time>
      </trkpt>
      <trkpt lat="42.69916" lon="0.60565">
        <ele>2514.32</ele>
        <time>2015-11-01T13:36:52Z</time>
      </trkpt>
      <trkpt lat="42.69916" lon="0.60565">
        <ele>2514.22</ele>
        <time>2015-11-01T13:37:13Z</time>
      </trkpt>
      <trkpt lat="42.69917" lon="0.60567">
        <ele>2515.16</ele>
        <time>2015-11-01T13:37:37Z</time>
      </trkpt>
      <trkpt lat="42.6992" lon="0.60567">
        <ele>2518.17</ele>
        <time>2015-11-01T13:37:54Z</time>
      </trkpt>
      <trkpt lat="42.69924" lon="0.60566">
        <ele>2520.98</ele>
        <time>2015-11-01T13:38:13Z</time>
      </trkpt>
      <trkpt lat="42.69923" lon="0.60566">
        <ele>2521.7</ele>
        <time>2015-11-01T13:38:38Z</time>
      </trkpt>
      <trkpt lat="42.69923" lon="0.60567">
        <ele>2521.94</ele>
        <time>2015-11-01T13:38:54Z</time>
      </trkpt>
      <trkpt lat="42.69923" lon="0.60568">
        <ele>2522.34</ele>
        <time>2015-11-01T13:39:07Z</time>
      </trkpt>
      <trkpt lat="42.69922" lon="0.60575">
        <ele>2523.55</ele>
        <time>2015-11-01T13:39:21Z</time>
      </trkpt>
      <trkpt lat="42.69923" lon="0.60575">
        <ele>2525.39</ele>
        <time>2015-11-01T13:39:38Z</time>
      </trkpt>
      <trkpt lat="42.69922" lon="0.60573">
        <ele>2523.75</ele>
        <time>2015-11-01T13:39:56Z</time>
      </trkpt>
      <trkpt lat="42.69921" lon="0.60575">
        <ele>2522.86</ele>
        <time>2015-11-01T13:40:11Z</time>
      </trkpt>
      <trkpt lat="42.69923" lon="0.6058">
        <ele>2524.82</ele>
        <time>2015-11-01T13:40:24Z</time>
      </trkpt>
      <trkpt lat="42.69923" lon="0.60582">
        <ele>2525.07</ele>
        <time>2015-11-01T13:40:39Z</time>
      </trkpt>
      <trkpt lat="42.69922" lon="0.60583">
        <ele>2524.59</ele>
        <time>2015-11-01T13:40:52Z</time>
      </trkpt>
      <trkpt lat="42.69921" lon="0.60585">
        <ele>2523.41</ele>
        <time>2015-11-01T13:41:07Z</time>
      </trkpt>
      <trkpt lat="42.69922" lon="0.60587">
        <ele>2524.75</ele>
        <time>2015-11-01T13:41:26Z</time>
      </trkpt>
      <trkpt lat="42.69922" lon="0.60585">
        <ele>2524.75</ele>
        <time>2015-11-01T13:41:40Z</time>
      </trkpt>
      <trkpt lat="42.6992" lon="0.60591">
        <ele>2523.87</ele>
        <time>2015-11-01T13:41:57Z</time>
      </trkpt>
      <trkpt lat="42.69921" lon="0.6059">
        <ele>2523.57</ele>
        <time>2015-11-01T13:42:14Z</time>
      </trkpt>
      <trkpt lat="42.69921" lon="0.60591">
        <ele>2523.35</ele>
        <time>2015-11-01T13:42:34Z</time>
      </trkpt>
      <trkpt lat="42.69921" lon="0.60592">
        <ele>2523.2</ele>
        <time>2015-11-01T13:42:50Z</time>
      </trkpt>
      <trkpt lat="42.69921" lon="0.60593">
        <ele>2523.2</ele>
        <time>2015-11-01T13:43:07Z</time>
      </trkpt>
      <trkpt lat="42.6992" lon="0.60596">
        <ele>2523.77</ele>
        <time>2015-11-01T13:43:28Z</time>
      </trkpt>
      <trkpt lat="42.69922" lon="0.60596">
        <ele>2523.82</ele>
        <time>2015-11-01T13:43:44Z</time>
      </trkpt>
      <trkpt lat="42.6992" lon="0.60597">
        <ele>2523.28</ele>
        <time>2015-11-01T13:44:02Z</time>
      </trkpt>
      <trkpt lat="42.6992" lon="0.60596">
        <ele>2523.02</ele>
        <time>2015-11-01T13:44:20Z</time>
      </trkpt>
      <trkpt lat="42.69919" lon="0.60595">
        <ele>2522.75</ele>
        <time>2015-11-01T13:44:35Z</time>
      </trkpt>
      <trkpt lat="42.69921" lon="0.60598">
        <ele>2523.19</ele>
        <time>2015-11-01T13:44:55Z</time>
      </trkpt>
      <trkpt lat="42.69922" lon="0.60602">
        <ele>2520.84</ele>
        <time>2015-11-01T13:45:16Z</time>
      </trkpt>
      <trkpt lat="42.6992" lon="0.606">
        <ele>2520.3</ele>
        <time>2015-11-01T13:45:46Z</time>
      </trkpt>
      <trkpt lat="42.69921" lon="0.60601">
        <ele>2519.53</ele>
        <time>2015-11-01T13:46:08Z</time>
      </trkpt>
      <trkpt lat="42.69919" lon="0.606">
        <ele>2518.35</ele>
        <time>2015-11-01T13:46:32Z</time>
      </trkpt>
      <trkpt lat="42.69914" lon="0.60602">
        <ele>2516.37</ele>
        <time>2015-11-01T13:46:53Z</time>
      </trkpt>
      <trkpt lat="42.69917" lon="0.6061">
        <ele>2515.59</ele>
        <time>2015-11-01T13:47:16Z</time>
      </trkpt>
      <trkpt lat="42.69922" lon="0.60609">
        <ele>2514.53</ele>
        <time>2015-11-01T13:47:36Z</time>
      </trkpt>
      <trkpt lat="42.69923" lon="0.60605">
        <ele>2512.28</ele>
        <time>2015-11-01T13:47:55Z</time>
      </trkpt>
      <trkpt lat="42.69922" lon="0.60599">
        <ele>2511.58</ele>
        <time>2015-11-01T13:48:17Z</time>
      </trkpt>
      <trkpt lat="42.6992" lon="0.60601">
        <ele>2510.08</ele>
        <time>2015-11-01T13:48:41Z</time>
      </trkpt>
      <trkpt lat="42.69923" lon="0.60601">
        <ele>2509.17</ele>
        <time>2015-11-01T13:49:08Z</time>
      </trkpt>
      <trkpt lat="42.69927" lon="0.606">
        <ele>2507.17</ele>
        <time>2015-11-01T13:49:35Z</time>
      </trkpt>
      <trkpt lat="42.6993" lon="0.60599">
        <ele>2505.53</ele>
        <time>2015-11-01T13:49:59Z</time>
      </trkpt>
      <trkpt lat="42.69929" lon="0.60598">
        <ele>2503.58</ele>
        <time>2015-11-01T13:50:20Z</time>
      </trkpt>
      <trkpt lat="42.69931" lon="0.60592">
        <ele>2502.04</ele>
        <time>2015-11-01T13:50:44Z</time>
      </trkpt>
      <trkpt lat="42.69936" lon="0.60592">
        <ele>2501.54</ele>
        <time>2015-11-01T13:51:06Z</time>
      </trkpt>
      <trkpt lat="42.69932" lon="0.60595">
        <ele>2500.14</ele>
        <time>2015-11-01T13:51:28Z</time>
      </trkpt>
      <trkpt lat="42.69933" lon="0.60596">
        <ele>2498.32</ele>
        <time>2015-11-01T13:51:55Z</time>
      </trkpt>
      <trkpt lat="42.69934" lon="0.60596">
        <ele>2495.83</ele>
        <time>2015-11-01T13:52:25Z</time>
      </trkpt>
      <trkpt lat="42.69936" lon="0.60596">
        <ele>2495.33</ele>
        <time>2015-11-01T13:52:29Z</time>
      </trkpt>
      <trkpt lat="42.69949" lon="0.60594">
        <ele>2495.54</ele>
        <time>2015-11-01T13:52:58Z</time>
      </trkpt>
      <trkpt lat="42.69946" lon="0.60591">
        <ele>2496.01</ele>
        <time>2015-11-01T13:53:24Z</time>
      </trkpt>
      <trkpt lat="42.69939" lon="0.60589">
        <ele>2497.02</ele>
        <time>2015-11-01T13:53:48Z</time>
      </trkpt>
      <trkpt lat="42.69939" lon="0.6059">
        <ele>2495.26</ele>
        <time>2015-11-01T13:54:12Z</time>
      </trkpt>
      <trkpt lat="42.69939" lon="0.60597">
        <ele>2493.47</ele>
        <time>2015-11-01T13:54:36Z</time>
      </trkpt>
      <trkpt lat="42.6994" lon="0.60599">
        <ele>2491.23</ele>
        <time>2015-11-01T13:54:58Z</time>
      </trkpt>
      <trkpt lat="42.69941" lon="0.60598">
        <ele>2489.13</ele>
        <time>2015-11-01T13:55:24Z</time>
      </trkpt>
      <trkpt lat="42.69941" lon="0.606">
        <ele>2487.46</ele>
        <time>2015-11-01T13:55:46Z</time>
      </trkpt>
      <trkpt lat="42.69943" lon="0.606">
        <ele>2486.31</ele>
        <time>2015-11-01T13:56:08Z</time>
      </trkpt>
      <trkpt lat="42.69947" lon="0.60597">
        <ele>2483.24</ele>
        <time>2015-11-01T13:56:33Z</time>
      </trkpt>
      <trkpt lat="42.6995" lon="0.60597">
        <ele>2481.51</ele>
        <time>2015-11-01T13:56:51Z</time>
      </trkpt>
      <trkpt lat="42.69952" lon="0.60593">
        <ele>2480.35</ele>
        <time>2015-11-01T13:57:12Z</time>
      </trkpt>
      <trkpt lat="42.69952" lon="0.60592">
        <ele>2479.07</ele>
        <time>2015-11-01T13:57:34Z</time>
      </trkpt>
      <trkpt lat="42.69951" lon="0.60598">
        <ele>2477.25</ele>
        <time>2015-11-01T13:57:58Z</time>
      </trkpt>
      <trkpt lat="42.69951" lon="0.60599">
        <ele>2475.08</ele>
        <time>2015-11-01T13:58:22Z</time>
      </trkpt>
      <trkpt lat="42.69958" lon="0.60601">
        <ele>2471.71</ele>
        <time>2015-11-01T13:58:36Z</time>
      </trkpt>
      <trkpt lat="42.6996" lon="0.60599">
        <ele>2468.62</ele>
        <time>2015-11-01T13:58:49Z</time>
      </trkpt>
      <trkpt lat="42.69964" lon="0.60596">
        <ele>2465.66</ele>
        <time>2015-11-01T13:59:12Z</time>
      </trkpt>
      <trkpt lat="42.69964" lon="0.60591">
        <ele>2465</ele>
        <time>2015-11-01T13:59:38Z</time>
      </trkpt>
      <trkpt lat="42.69968" lon="0.6059">
        <ele>2462.64</ele>
        <time>2015-11-01T14:00:01Z</time>
      </trkpt>
      <trkpt lat="42.69968" lon="0.60589">
        <ele>2462.18</ele>
        <time>2015-11-01T14:00:33Z</time>
      </trkpt>
      <trkpt lat="42.69965" lon="0.6059">
        <ele>2461.57</ele>
        <time>2015-11-01T14:00:56Z</time>
      </trkpt>
      <trkpt lat="42.69963" lon="0.60589">
        <ele>2461.41</ele>
        <time>2015-11-01T14:01:24Z</time>
      </trkpt>
      <trkpt lat="42.69967" lon="0.60589">
        <ele>2460.85</ele>
        <time>2015-11-01T14:01:50Z</time>
      </trkpt>
      <trkpt lat="42.6997" lon="0.60591">
        <ele>2459.39</ele>
        <time>2015-11-01T14:02:14Z</time>
      </trkpt>
      <trkpt lat="42.69969" lon="0.60593">
        <ele>2457.48</ele>
        <time>2015-11-01T14:02:35Z</time>
      </trkpt>
      <trkpt lat="42.69972" lon="0.60595">
        <ele>2456.78</ele>
        <time>2015-11-01T14:02:44Z</time>
      </trkpt>
      <trkpt lat="42.69975" lon="0.60592">
        <ele>2455.9</ele>
        <time>2015-11-01T14:02:50Z</time>
      </trkpt>
      <trkpt lat="42.69977" lon="0.60589">
        <ele>2453.22</ele>
        <time>2015-11-01T14:03:08Z</time>
      </trkpt>
      <trkpt lat="42.69981" lon="0.60591">
        <ele>2451.06</ele>
        <time>2015-11-01T14:03:22Z</time>
      </trkpt>
      <trkpt lat="42.69987" lon="0.60593">
        <ele>2447.74</ele>
        <time>2015-11-01T14:03:37Z</time>
      </trkpt>
      <trkpt lat="42.69988" lon="0.60589">
        <ele>2444.74</ele>
        <time>2015-11-01T14:03:54Z</time>
      </trkpt>
      <trkpt lat="42.69992" lon="0.60588">
        <ele>2442.47</ele>
        <time>2015-11-01T14:04:17Z</time>
      </trkpt>
      <trkpt lat="42.69997" lon="0.60583">
        <ele>2439.34</ele>
        <time>2015-11-01T14:04:34Z</time>
      </trkpt>
      <trkpt lat="42.69998" lon="0.6058">
        <ele>2436.25</ele>
        <time>2015-11-01T14:04:45Z</time>
      </trkpt>
      <trkpt lat="42.70001" lon="0.60581">
        <ele>2433.11</ele>
        <time>2015-11-01T14:05:05Z</time>
      </trkpt>
      <trkpt lat="42.70004" lon="0.60584">
        <ele>2430.78</ele>
        <time>2015-11-01T14:05:13Z</time>
      </trkpt>
      <trkpt lat="42.70003" lon="0.60585">
        <ele>2427.76</ele>
        <time>2015-11-01T14:05:28Z</time>
      </trkpt>
      <trkpt lat="42.70007" lon="0.60582">
        <ele>2425.24</ele>
        <time>2015-11-01T14:05:47Z</time>
      </trkpt>
      <trkpt lat="42.70008" lon="0.60579">
        <ele>2423.2</ele>
        <time>2015-11-01T14:06:06Z</time>
      </trkpt>
      <trkpt lat="42.7001" lon="0.60576">
        <ele>2421.14</ele>
        <time>2015-11-01T14:06:15Z</time>
      </trkpt>
      <trkpt lat="42.70018" lon="0.60575">
        <ele>2417.51</ele>
        <time>2015-11-01T14:06:27Z</time>
      </trkpt>
      <trkpt lat="42.70024" lon="0.60575">
        <ele>2414.2</ele>
        <time>2015-11-01T14:06:35Z</time>
      </trkpt>
      <trkpt lat="42.70031" lon="0.60579">
        <ele>2411.08</ele>
        <time>2015-11-01T14:06:42Z</time>
      </trkpt>
      <trkpt lat="42.70031" lon="0.6058">
        <ele>2407.98</ele>
        <time>2015-11-01T14:06:48Z</time>
      </trkpt>
      <trkpt lat="42.70033" lon="0.60584">
        <ele>2404.77</ele>
        <time>2015-11-01T14:06:57Z</time>
      </trkpt>
      <trkpt lat="42.70036" lon="0.60585">
        <ele>2401.73</ele>
        <time>2015-11-01T14:07:06Z</time>
      </trkpt>
      <trkpt lat="42.7004" lon="0.60583">
        <ele>2398.52</ele>
        <time>2015-11-01T14:07:16Z</time>
      </trkpt>
      <trkpt lat="42.70044" lon="0.6058">
        <ele>2395.48</ele>
        <time>2015-11-01T14:07:29Z</time>
      </trkpt>
      <trkpt lat="42.70046" lon="0.60579">
        <ele>2393.41</ele>
        <time>2015-11-01T14:07:50Z</time>
      </trkpt>
      <trkpt lat="42.70051" lon="0.6058">
        <ele>2391.32</ele>
        <time>2015-11-01T14:08:10Z</time>
      </trkpt>
      <trkpt lat="42.70057" lon="0.6058">
        <ele>2387.64</ele>
        <time>2015-11-01T14:08:20Z</time>
      </trkpt>
      <trkpt lat="42.7006" lon="0.60581">
        <ele>2384.6</ele>
        <time>2015-11-01T14:08:31Z</time>
      </trkpt>
      <trkpt lat="42.70063" lon="0.60581">
        <ele>2381.59</ele>
        <time>2015-11-01T14:08:42Z</time>
      </trkpt>
      <trkpt lat="42.70065" lon="0.60581">
        <ele>2378.44</ele>
        <time>2015-11-01T14:08:52Z</time>
      </trkpt>
      <trkpt lat="42.70067" lon="0.60585">
        <ele>2377.19</ele>
        <time>2015-11-01T14:09:04Z</time>
      </trkpt>
      <trkpt lat="42.70073" lon="0.60588">
        <ele>2373.77</ele>
        <time>2015-11-01T14:09:17Z</time>
      </trkpt>
      <trkpt lat="42.70077" lon="0.60588">
        <ele>2370.73</ele>
        <time>2015-11-01T14:09:25Z</time>
      </trkpt>
      <trkpt lat="42.7008" lon="0.60583">
        <ele>2367.45</ele>
        <time>2015-11-01T14:09:34Z</time>
      </trkpt>
      <trkpt lat="42.70084" lon="0.60581">
        <ele>2364.41</ele>
        <time>2015-11-01T14:09:45Z</time>
      </trkpt>
      <trkpt lat="42.70086" lon="0.60579">
        <ele>2362.06</ele>
        <time>2015-11-01T14:10:13Z</time>
      </trkpt>
      <trkpt lat="42.70092" lon="0.60578">
        <ele>2360.19</ele>
        <time>2015-11-01T14:10:31Z</time>
      </trkpt>
      <trkpt lat="42.70097" lon="0.60576">
        <ele>2357.11</ele>
        <time>2015-11-01T14:10:41Z</time>
      </trkpt>
      <trkpt lat="42.70101" lon="0.60575">
        <ele>2353.85</ele>
        <time>2015-11-01T14:10:49Z</time>
      </trkpt>
      <trkpt lat="42.70103" lon="0.60574">
        <ele>2350.61</ele>
        <time>2015-11-01T14:10:58Z</time>
      </trkpt>
      <trkpt lat="42.70105" lon="0.60574">
        <ele>2347.49</ele>
        <time>2015-11-01T14:11:10Z</time>
      </trkpt>
      <trkpt lat="42.70111" lon="0.60577">
        <ele>2344.55</ele>
        <time>2015-11-01T14:11:23Z</time>
      </trkpt>
      <trkpt lat="42.70114" lon="0.60577">
        <ele>2341.52</ele>
        <time>2015-11-01T14:11:43Z</time>
      </trkpt>
      <trkpt lat="42.70116" lon="0.60579">
        <ele>2339.31</ele>
        <time>2015-11-01T14:11:59Z</time>
      </trkpt>
      <trkpt lat="42.70119" lon="0.60573">
        <ele>2336.23</ele>
        <time>2015-11-01T14:12:17Z</time>
      </trkpt>
      <trkpt lat="42.70126" lon="0.60575">
        <ele>2333.13</ele>
        <time>2015-11-01T14:12:33Z</time>
      </trkpt>
      <trkpt lat="42.7013" lon="0.60574">
        <ele>2330.06</ele>
        <time>2015-11-01T14:12:45Z</time>
      </trkpt>
      <trkpt lat="42.70134" lon="0.60568">
        <ele>2328.29</ele>
        <time>2015-11-01T14:13:13Z</time>
      </trkpt>
      <trkpt lat="42.70134" lon="0.60557">
        <ele>2327.15</ele>
        <time>2015-11-01T14:13:35Z</time>
      </trkpt>
      <trkpt lat="42.70136" lon="0.60551">
        <ele>2324.8</ele>
        <time>2015-11-01T14:13:54Z</time>
      </trkpt>
      <trkpt lat="42.70139" lon="0.60546">
        <ele>2323.51</ele>
        <time>2015-11-01T14:14:12Z</time>
      </trkpt>
      <trkpt lat="42.70137" lon="0.60544">
        <ele>2322.62</ele>
        <time>2015-11-01T14:14:38Z</time>
      </trkpt>
      <trkpt lat="42.70132" lon="0.60535">
        <ele>2323.27</ele>
        <time>2015-11-01T14:15:05Z</time>
      </trkpt>
      <trkpt lat="42.70133" lon="0.60538">
        <ele>2322.66</ele>
        <time>2015-11-01T14:15:35Z</time>
      </trkpt>
      <trkpt lat="42.70134" lon="0.60541">
        <ele>2322.34</ele>
        <time>2015-11-01T14:16:09Z</time>
      </trkpt>
      <trkpt lat="42.70135" lon="0.60541">
        <ele>2322.53</ele>
        <time>2015-11-01T14:17:02Z</time>
      </trkpt>
      <trkpt lat="42.7013" lon="0.60538">
        <ele>2323.38</ele>
        <time>2015-11-01T14:17:46Z</time>
      </trkpt>
      <trkpt lat="42.70132" lon="0.60538">
        <ele>2322.95</ele>
        <time>2015-11-01T14:18:15Z</time>
      </trkpt>
      <trkpt lat="42.70136" lon="0.60535">
        <ele>2323.03</ele>
        <time>2015-11-01T14:18:49Z</time>
      </trkpt>
      <trkpt lat="42.70133" lon="0.60537">
        <ele>2322.96</ele>
        <time>2015-11-01T14:19:18Z</time>
      </trkpt>
      <trkpt lat="42.70141" lon="0.60534">
        <ele>2322.81</ele>
        <time>2015-11-01T14:19:48Z</time>
      </trkpt>
      <trkpt lat="42.70143" lon="0.60533">
        <ele>2322.98</ele>
        <time>2015-11-01T14:20:16Z</time>
      </trkpt>
      <trkpt lat="42.7014" lon="0.60535">
        <ele>2322.77</ele>
        <time>2015-11-01T14:20:27Z</time>
      </trkpt>
      <trkpt lat="42.70142" lon="0.60536">
        <ele>2322.53</ele>
        <time>2015-11-01T14:20:55Z</time>
      </trkpt>
      <trkpt lat="42.70143" lon="0.60535">
        <ele>2322.21</ele>
        <time>2015-11-01T14:21:06Z</time>
      </trkpt>
      <trkpt lat="42.70136" lon="0.60537">
        <ele>2322.63</ele>
        <time>2015-11-01T14:21:37Z</time>
      </trkpt>
      <trkpt lat="42.70137" lon="0.60547">
        <ele>2322.53</ele>
        <time>2015-11-01T14:22:02Z</time>
      </trkpt>
      <trkpt lat="42.70141" lon="0.60557">
        <ele>2320.26</ele>
        <time>2015-11-01T14:22:13Z</time>
      </trkpt>
      <trkpt lat="42.70141" lon="0.60562">
        <ele>2319.38</ele>
        <time>2015-11-01T14:22:16Z</time>
      </trkpt>
      <trkpt lat="42.70146" lon="0.60569">
        <ele>2315.97</ele>
        <time>2015-11-01T14:22:25Z</time>
      </trkpt>
      <trkpt lat="42.70152" lon="0.60574">
        <ele>2312.67</ele>
        <time>2015-11-01T14:22:34Z</time>
      </trkpt>
      <trkpt lat="42.70158" lon="0.60574">
        <ele>2309.09</ele>
        <time>2015-11-01T14:22:45Z</time>
      </trkpt>
      <trkpt lat="42.70162" lon="0.60577">
        <ele>2306</ele>
        <time>2015-11-01T14:22:53Z</time>
      </trkpt>
      <trkpt lat="42.70169" lon="0.60584">
        <ele>2302.86</ele>
        <time>2015-11-01T14:23:04Z</time>
      </trkpt>
      <trkpt lat="42.70174" lon="0.60585">
        <ele>2299.62</ele>
        <time>2015-11-01T14:23:12Z</time>
      </trkpt>
      <trkpt lat="42.7018" lon="0.60588">
        <ele>2296.31</ele>
        <time>2015-11-01T14:23:22Z</time>
      </trkpt>
      <trkpt lat="42.70183" lon="0.60581">
        <ele>2293.12</ele>
        <time>2015-11-01T14:23:28Z</time>
      </trkpt>
      <trkpt lat="42.70186" lon="0.60581">
        <ele>2291.45</ele>
        <time>2015-11-01T14:23:32Z</time>
      </trkpt>
      <trkpt lat="42.70189" lon="0.6058">
        <ele>2290.33</ele>
        <time>2015-11-01T14:23:35Z</time>
      </trkpt>
      <trkpt lat="42.70193" lon="0.6058">
        <ele>2287.87</ele>
        <time>2015-11-01T14:23:41Z</time>
      </trkpt>
      <trkpt lat="42.70197" lon="0.60578">
        <ele>2286.3</ele>
        <time>2015-11-01T14:23:44Z</time>
      </trkpt>
      <trkpt lat="42.70202" lon="0.6058">
        <ele>2282.82</ele>
        <time>2015-11-01T14:23:52Z</time>
      </trkpt>
      <trkpt lat="42.70203" lon="0.60585">
        <ele>2279.76</ele>
        <time>2015-11-01T14:23:59Z</time>
      </trkpt>
      <trkpt lat="42.70209" lon="0.60585">
        <ele>2277.49</ele>
        <time>2015-11-01T14:24:07Z</time>
      </trkpt>
      <trkpt lat="42.70217" lon="0.60581">
        <ele>2274.02</ele>
        <time>2015-11-01T14:24:16Z</time>
      </trkpt>
      <trkpt lat="42.70219" lon="0.60585">
        <ele>2270.55</ele>
        <time>2015-11-01T14:24:23Z</time>
      </trkpt>
      <trkpt lat="42.70221" lon="0.60589">
        <ele>2267.5</ele>
        <time>2015-11-01T14:24:30Z</time>
      </trkpt>
      <trkpt lat="42.70225" lon="0.60589">
        <ele>2265.85</ele>
        <time>2015-11-01T14:24:36Z</time>
      </trkpt>
      <trkpt lat="42.7023" lon="0.60591">
        <ele>2262.47</ele>
        <time>2015-11-01T14:24:43Z</time>
      </trkpt>
      <trkpt lat="42.70234" lon="0.60596">
        <ele>2259.17</ele>
        <time>2015-11-01T14:24:52Z</time>
      </trkpt>
      <trkpt lat="42.70237" lon="0.60596">
        <ele>2257.91</ele>
        <time>2015-11-01T14:24:55Z</time>
      </trkpt>
      <trkpt lat="42.70237" lon="0.60599">
        <ele>2257.16</ele>
        <time>2015-11-01T14:24:57Z</time>
      </trkpt>
      <trkpt lat="42.70239" lon="0.60607">
        <ele>2253.51</ele>
        <time>2015-11-01T14:25:05Z</time>
      </trkpt>
      <trkpt lat="42.70239" lon="0.60615">
        <ele>2250.24</ele>
        <time>2015-11-01T14:25:12Z</time>
      </trkpt>
      <trkpt lat="42.70239" lon="0.60627">
        <ele>2246.92</ele>
        <time>2015-11-01T14:25:22Z</time>
      </trkpt>
      <trkpt lat="42.70245" lon="0.60626">
        <ele>2243.59</ele>
        <time>2015-11-01T14:25:32Z</time>
      </trkpt>
      <trkpt lat="42.70248" lon="0.6063">
        <ele>2240.31</ele>
        <time>2015-11-01T14:25:40Z</time>
      </trkpt>
      <trkpt lat="42.70248" lon="0.60639">
        <ele>2237.31</ele>
        <time>2015-11-01T14:25:49Z</time>
      </trkpt>
      <trkpt lat="42.70249" lon="0.60642">
        <ele>2236.76</ele>
        <time>2015-11-01T14:25:51Z</time>
      </trkpt>
      <trkpt lat="42.70254" lon="0.60639">
        <ele>2235.29</ele>
        <time>2015-11-01T14:25:56Z</time>
      </trkpt>
      <trkpt lat="42.70259" lon="0.60641">
        <ele>2232.51</ele>
        <time>2015-11-01T14:26:02Z</time>
      </trkpt>
      <trkpt lat="42.70259" lon="0.60644">
        <ele>2231.52</ele>
        <time>2015-11-01T14:26:04Z</time>
      </trkpt>
      <trkpt lat="42.70262" lon="0.60653">
        <ele>2228.4</ele>
        <time>2015-11-01T14:26:11Z</time>
      </trkpt>
      <trkpt lat="42.70265" lon="0.60652">
        <ele>2227.5</ele>
        <time>2015-11-01T14:26:14Z</time>
      </trkpt>
      <trkpt lat="42.70269" lon="0.60655">
        <ele>2223.9</ele>
        <time>2015-11-01T14:26:24Z</time>
      </trkpt>
      <trkpt lat="42.70274" lon="0.60657">
        <ele>2220.55</ele>
        <time>2015-11-01T14:26:32Z</time>
      </trkpt>
      <trkpt lat="42.70277" lon="0.60664">
        <ele>2217.32</ele>
        <time>2015-11-01T14:26:41Z</time>
      </trkpt>
      <trkpt lat="42.70278" lon="0.60668">
        <ele>2215.78</ele>
        <time>2015-11-01T14:26:45Z</time>
      </trkpt>
      <trkpt lat="42.70282" lon="0.60672">
        <ele>2212.24</ele>
        <time>2015-11-01T14:26:55Z</time>
      </trkpt>
      <trkpt lat="42.70285" lon="0.60676">
        <ele>2209.15</ele>
        <time>2015-11-01T14:27:03Z</time>
      </trkpt>
      <trkpt lat="42.70287" lon="0.60682">
        <ele>2207.33</ele>
        <time>2015-11-01T14:27:08Z</time>
      </trkpt>
      <trkpt lat="42.70291" lon="0.60687">
        <ele>2203.87</ele>
        <time>2015-11-01T14:27:19Z</time>
      </trkpt>
      <trkpt lat="42.70291" lon="0.60689">
        <ele>2203.54</ele>
        <time>2015-11-01T14:27:20Z</time>
      </trkpt>
      <trkpt lat="42.70293" lon="0.60692">
        <ele>2202.28</ele>
        <time>2015-11-01T14:27:24Z</time>
      </trkpt>
      <trkpt lat="42.703" lon="0.60687">
        <ele>2198.82</ele>
        <time>2015-11-01T14:27:36Z</time>
      </trkpt>
      <trkpt lat="42.70302" lon="0.607">
        <ele>2195.71</ele>
        <time>2015-11-01T14:27:49Z</time>
      </trkpt>
      <trkpt lat="42.70305" lon="0.60704">
        <ele>2192.64</ele>
        <time>2015-11-01T14:27:57Z</time>
      </trkpt>
      <trkpt lat="42.70307" lon="0.60712">
        <ele>2190.2</ele>
        <time>2015-11-01T14:28:04Z</time>
      </trkpt>
      <trkpt lat="42.70306" lon="0.60724">
        <ele>2186.5</ele>
        <time>2015-11-01T14:28:14Z</time>
      </trkpt>
      <trkpt lat="42.70306" lon="0.60733">
        <ele>2183.16</ele>
        <time>2015-11-01T14:28:22Z</time>
      </trkpt>
      <trkpt lat="42.70308" lon="0.60744">
        <ele>2179.9</ele>
        <time>2015-11-01T14:28:32Z</time>
      </trkpt>
      <trkpt lat="42.70308" lon="0.60755">
        <ele>2176.51</ele>
        <time>2015-11-01T14:28:41Z</time>
      </trkpt>
      <trkpt lat="42.7031" lon="0.60765">
        <ele>2173.18</ele>
        <time>2015-11-01T14:28:50Z</time>
      </trkpt>
      <trkpt lat="42.7031" lon="0.6077">
        <ele>2172.18</ele>
        <time>2015-11-01T14:28:54Z</time>
      </trkpt>
      <trkpt lat="42.70306" lon="0.60782">
        <ele>2170.28</ele>
        <time>2015-11-01T14:29:03Z</time>
      </trkpt>
      <trkpt lat="42.70301" lon="0.60798">
        <ele>2169.88</ele>
        <time>2015-11-01T14:29:18Z</time>
      </trkpt>
      <trkpt lat="42.70297" lon="0.60807">
        <ele>2169.47</ele>
        <time>2015-11-01T14:29:27Z</time>
      </trkpt>
      <trkpt lat="42.70296" lon="0.60817">
        <ele>2168.44</ele>
        <time>2015-11-01T14:29:35Z</time>
      </trkpt>
      <trkpt lat="42.70296" lon="0.60822">
        <ele>2167.86</ele>
        <time>2015-11-01T14:29:38Z</time>
      </trkpt>
      <trkpt lat="42.70294" lon="0.60836">
        <ele>2165.32</ele>
        <time>2015-11-01T14:29:48Z</time>
      </trkpt>
      <trkpt lat="42.70301" lon="0.60845">
        <ele>2161.74</ele>
        <time>2015-11-01T14:29:59Z</time>
      </trkpt>
      <trkpt lat="42.70304" lon="0.60849">
        <ele>2159.47</ele>
        <time>2015-11-01T14:30:05Z</time>
      </trkpt>
      <trkpt lat="42.70306" lon="0.60848">
        <ele>2158.74</ele>
        <time>2015-11-01T14:30:07Z</time>
      </trkpt>
      <trkpt lat="42.7031" lon="0.60855">
        <ele>2154.95</ele>
        <time>2015-11-01T14:30:19Z</time>
      </trkpt>
      <trkpt lat="42.70312" lon="0.60864">
        <ele>2151.95</ele>
        <time>2015-11-01T14:30:30Z</time>
      </trkpt>
      <trkpt lat="42.70315" lon="0.60874">
        <ele>2148.43</ele>
        <time>2015-11-01T14:30:40Z</time>
      </trkpt>
      <trkpt lat="42.70315" lon="0.60877">
        <ele>2147.85</ele>
        <time>2015-11-01T14:30:42Z</time>
      </trkpt>
      <trkpt lat="42.70316" lon="0.60879">
        <ele>2147.42</ele>
        <time>2015-11-01T14:30:44Z</time>
      </trkpt>
      <trkpt lat="42.70318" lon="0.60889">
        <ele>2145.53</ele>
        <time>2015-11-01T14:30:51Z</time>
      </trkpt>
      <trkpt lat="42.70322" lon="0.60901">
        <ele>2142.22</ele>
        <time>2015-11-01T14:31:02Z</time>
      </trkpt>
      <trkpt lat="42.70322" lon="0.60914">
        <ele>2139.21</ele>
        <time>2015-11-01T14:31:15Z</time>
      </trkpt>
      <trkpt lat="42.70324" lon="0.60922">
        <ele>2136.51</ele>
        <time>2015-11-01T14:31:23Z</time>
      </trkpt>
      <trkpt lat="42.70326" lon="0.60928">
        <ele>2135.36</ele>
        <time>2015-11-01T14:31:26Z</time>
      </trkpt>
      <trkpt lat="42.70331" lon="0.6094">
        <ele>2131.94</ele>
        <time>2015-11-01T14:31:36Z</time>
      </trkpt>
      <trkpt lat="42.70331" lon="0.60947">
        <ele>2130.01</ele>
        <time>2015-11-01T14:31:41Z</time>
      </trkpt>
      <trkpt lat="42.70332" lon="0.60951">
        <ele>2129.13</ele>
        <time>2015-11-01T14:31:44Z</time>
      </trkpt>
      <trkpt lat="42.7034" lon="0.60971">
        <ele>2125.79</ele>
        <time>2015-11-01T14:31:58Z</time>
      </trkpt>
      <trkpt lat="42.7034" lon="0.60985">
        <ele>2122.64</ele>
        <time>2015-11-01T14:32:10Z</time>
      </trkpt>
      <trkpt lat="42.70339" lon="0.60987">
        <ele>2122.35</ele>
        <time>2015-11-01T14:32:12Z</time>
      </trkpt>
      <trkpt lat="42.70331" lon="0.61">
        <ele>2121.06</ele>
        <time>2015-11-01T14:32:24Z</time>
      </trkpt>
      <trkpt lat="42.70324" lon="0.61014">
        <ele>2118.13</ele>
        <time>2015-11-01T14:32:37Z</time>
      </trkpt>
      <trkpt lat="42.70322" lon="0.6102">
        <ele>2117.05</ele>
        <time>2015-11-01T14:32:44Z</time>
      </trkpt>
      <trkpt lat="42.70324" lon="0.6102">
        <ele>2116.68</ele>
        <time>2015-11-01T14:32:46Z</time>
      </trkpt>
      <trkpt lat="42.70332" lon="0.61017">
        <ele>2113.31</ele>
        <time>2015-11-01T14:32:56Z</time>
      </trkpt>
      <trkpt lat="42.70336" lon="0.61029">
        <ele>2110.2</ele>
        <time>2015-11-01T14:33:10Z</time>
      </trkpt>
      <trkpt lat="42.7034" lon="0.61032">
        <ele>2107.14</ele>
        <time>2015-11-01T14:33:20Z</time>
      </trkpt>
      <trkpt lat="42.70338" lon="0.61035">
        <ele>2105.34</ele>
        <time>2015-11-01T14:33:26Z</time>
      </trkpt>
      <trkpt lat="42.70333" lon="0.61054">
        <ele>2101.78</ele>
        <time>2015-11-01T14:33:40Z</time>
      </trkpt>
      <trkpt lat="42.70334" lon="0.61068">
        <ele>2098.69</ele>
        <time>2015-11-01T14:33:54Z</time>
      </trkpt>
      <trkpt lat="42.70334" lon="0.61069">
        <ele>2098.53</ele>
        <time>2015-11-01T14:33:55Z</time>
      </trkpt>
      <trkpt lat="42.70335" lon="0.61074">
        <ele>2098.26</ele>
        <time>2015-11-01T14:33:58Z</time>
      </trkpt>
      <trkpt lat="42.70333" lon="0.61093">
        <ele>2096</ele>
        <time>2015-11-01T14:34:09Z</time>
      </trkpt>
      <trkpt lat="42.70336" lon="0.61109">
        <ele>2093.81</ele>
        <time>2015-11-01T14:34:21Z</time>
      </trkpt>
      <trkpt lat="42.70332" lon="0.61117">
        <ele>2092.01</ele>
        <time>2015-11-01T14:34:28Z</time>
      </trkpt>
      <trkpt lat="42.70328" lon="0.61122">
        <ele>2091.33</ele>
        <time>2015-11-01T14:34:33Z</time>
      </trkpt>
      <trkpt lat="42.70323" lon="0.61138">
        <ele>2089.06</ele>
        <time>2015-11-01T14:34:48Z</time>
      </trkpt>
      <trkpt lat="42.70321" lon="0.61144">
        <ele>2088.58</ele>
        <time>2015-11-01T14:34:53Z</time>
      </trkpt>
      <trkpt lat="42.70328" lon="0.61145">
        <ele>2087.66</ele>
        <time>2015-11-01T14:35:00Z</time>
      </trkpt>
      <trkpt lat="42.70331" lon="0.61142">
        <ele>2086.96</ele>
        <time>2015-11-01T14:35:03Z</time>
      </trkpt>
      <trkpt lat="42.70334" lon="0.61136">
        <ele>2085.97</ele>
        <time>2015-11-01T14:35:09Z</time>
      </trkpt>
      <trkpt lat="42.70344" lon="0.61135">
        <ele>2084.11</ele>
        <time>2015-11-01T14:35:25Z</time>
      </trkpt>
      <trkpt lat="42.70337" lon="0.61153">
        <ele>2081.07</ele>
        <time>2015-11-01T14:35:44Z</time>
      </trkpt>
      <trkpt lat="42.70343" lon="0.61151">
        <ele>2078.26</ele>
        <time>2015-11-01T14:35:59Z</time>
      </trkpt>
      <trkpt lat="42.70348" lon="0.61164">
        <ele>2075.16</ele>
        <time>2015-11-01T14:36:12Z</time>
      </trkpt>
      <trkpt lat="42.70347" lon="0.61167">
        <ele>2074.12</ele>
        <time>2015-11-01T14:36:15Z</time>
      </trkpt>
      <trkpt lat="42.70357" lon="0.61164">
        <ele>2070.56</ele>
        <time>2015-11-01T14:36:25Z</time>
      </trkpt>
      <trkpt lat="42.70359" lon="0.61161">
        <ele>2069.85</ele>
        <time>2015-11-01T14:36:28Z</time>
      </trkpt>
      <trkpt lat="42.70362" lon="0.61156">
        <ele>2069.13</ele>
        <time>2015-11-01T14:36:33Z</time>
      </trkpt>
      <trkpt lat="42.70369" lon="0.61146">
        <ele>2067.23</ele>
        <time>2015-11-01T14:36:43Z</time>
      </trkpt>
      <trkpt lat="42.7037" lon="0.61143">
        <ele>2066.7</ele>
        <time>2015-11-01T14:36:46Z</time>
      </trkpt>
      <trkpt lat="42.70378" lon="0.61131">
        <ele>2065.21</ele>
        <time>2015-11-01T14:36:59Z</time>
      </trkpt>
      <trkpt lat="42.70383" lon="0.61127">
        <ele>2064.22</ele>
        <time>2015-11-01T14:37:05Z</time>
      </trkpt>
      <trkpt lat="42.70389" lon="0.61123">
        <ele>2063.01</ele>
        <time>2015-11-01T14:37:12Z</time>
      </trkpt>
      <trkpt lat="42.7039" lon="0.61122">
        <ele>2062.74</ele>
        <time>2015-11-01T14:37:14Z</time>
      </trkpt>
      <trkpt lat="42.70397" lon="0.61111">
        <ele>2060.2</ele>
        <time>2015-11-01T14:37:30Z</time>
      </trkpt>
      <trkpt lat="42.704" lon="0.61102">
        <ele>2059.35</ele>
        <time>2015-11-01T14:37:37Z</time>
      </trkpt>
      <trkpt lat="42.70402" lon="0.61095">
        <ele>2058.68</ele>
        <time>2015-11-01T14:37:43Z</time>
      </trkpt>
      <trkpt lat="42.70416" lon="0.6108">
        <ele>2055.86</ele>
        <time>2015-11-01T14:38:00Z</time>
      </trkpt>
      <trkpt lat="42.70417" lon="0.61081">
        <ele>2055.18</ele>
        <time>2015-11-01T14:38:02Z</time>
      </trkpt>
      <trkpt lat="42.7041" lon="0.61098">
        <ele>2052.43</ele>
        <time>2015-11-01T14:38:17Z</time>
      </trkpt>
      <trkpt lat="42.70406" lon="0.6112">
        <ele>2049.34</ele>
        <time>2015-11-01T14:38:37Z</time>
      </trkpt>
      <trkpt lat="42.70401" lon="0.6114">
        <ele>2047.69</ele>
        <time>2015-11-01T14:38:53Z</time>
      </trkpt>
      <trkpt lat="42.70399" lon="0.61152">
        <ele>2046.5</ele>
        <time>2015-11-01T14:39:06Z</time>
      </trkpt>
      <trkpt lat="42.70399" lon="0.61158">
        <ele>2045.98</ele>
        <time>2015-11-01T14:39:10Z</time>
      </trkpt>
      <trkpt lat="42.70407" lon="0.6117">
        <ele>2044.46</ele>
        <time>2015-11-01T14:39:22Z</time>
      </trkpt>
      <trkpt lat="42.70411" lon="0.61188">
        <ele>2041.67</ele>
        <time>2015-11-01T14:39:35Z</time>
      </trkpt>
      <trkpt lat="42.70408" lon="0.61203">
        <ele>2040.5</ele>
        <time>2015-11-01T14:39:45Z</time>
      </trkpt>
      <trkpt lat="42.7041" lon="0.61206">
        <ele>2039.95</ele>
        <time>2015-11-01T14:39:48Z</time>
      </trkpt>
      <trkpt lat="42.70421" lon="0.61192">
        <ele>2037.69</ele>
        <time>2015-11-01T14:40:00Z</time>
      </trkpt>
      <trkpt lat="42.70425" lon="0.61177">
        <ele>2034.72</ele>
        <time>2015-11-01T14:40:11Z</time>
      </trkpt>
      <trkpt lat="42.70428" lon="0.61172">
        <ele>2034.07</ele>
        <time>2015-11-01T14:40:15Z</time>
      </trkpt>
      <trkpt lat="42.70433" lon="0.61152">
        <ele>2031.95</ele>
        <time>2015-11-01T14:40:30Z</time>
      </trkpt>
      <trkpt lat="42.70438" lon="0.61146">
        <ele>2029.48</ele>
        <time>2015-11-01T14:40:44Z</time>
      </trkpt>
      <trkpt lat="42.70438" lon="0.61159">
        <ele>2027.42</ele>
        <time>2015-11-01T14:40:56Z</time>
      </trkpt>
      <trkpt lat="42.70441" lon="0.61167">
        <ele>2026.07</ele>
        <time>2015-11-01T14:41:02Z</time>
      </trkpt>
      <trkpt lat="42.70441" lon="0.61169">
        <ele>2025.53</ele>
        <time>2015-11-01T14:41:04Z</time>
      </trkpt>
      <trkpt lat="42.70437" lon="0.61185">
        <ele>2023.33</ele>
        <time>2015-11-01T14:41:15Z</time>
      </trkpt>
      <trkpt lat="42.70434" lon="0.61193">
        <ele>2022.4</ele>
        <time>2015-11-01T14:41:21Z</time>
      </trkpt>
      <trkpt lat="42.70433" lon="0.61201">
        <ele>2021.79</ele>
        <time>2015-11-01T14:41:26Z</time>
      </trkpt>
      <trkpt lat="42.70432" lon="0.61214">
        <ele>2019.96</ele>
        <time>2015-11-01T14:41:35Z</time>
      </trkpt>
      <trkpt lat="42.70442" lon="0.612">
        <ele>2018.08</ele>
        <time>2015-11-01T14:41:47Z</time>
      </trkpt>
      <trkpt lat="42.70447" lon="0.61195">
        <ele>2017.47</ele>
        <time>2015-11-01T14:41:52Z</time>
      </trkpt>
      <trkpt lat="42.70451" lon="0.61193">
        <ele>2016.89</ele>
        <time>2015-11-01T14:41:56Z</time>
      </trkpt>
      <trkpt lat="42.70465" lon="0.61178">
        <ele>2013.5</ele>
        <time>2015-11-01T14:42:12Z</time>
      </trkpt>
      <trkpt lat="42.70467" lon="0.6116">
        <ele>2011.5</ele>
        <time>2015-11-01T14:42:24Z</time>
      </trkpt>
      <trkpt lat="42.70471" lon="0.6115">
        <ele>2008.23</ele>
        <time>2015-11-01T14:42:36Z</time>
      </trkpt>
      <trkpt lat="42.7047" lon="0.61155">
        <ele>2007.05</ele>
        <time>2015-11-01T14:42:39Z</time>
      </trkpt>
      <trkpt lat="42.70471" lon="0.61165">
        <ele>2005.79</ele>
        <time>2015-11-01T14:42:46Z</time>
      </trkpt>
      <trkpt lat="42.70471" lon="0.61179">
        <ele>2004.51</ele>
        <time>2015-11-01T14:42:57Z</time>
      </trkpt>
      <trkpt lat="42.70471" lon="0.61184">
        <ele>2004.25</ele>
        <time>2015-11-01T14:43:00Z</time>
      </trkpt>
      <trkpt lat="42.70472" lon="0.61191">
        <ele>2003.59</ele>
        <time>2015-11-01T14:43:04Z</time>
      </trkpt>
      <trkpt lat="42.70471" lon="0.61198">
        <ele>2003.16</ele>
        <time>2015-11-01T14:43:08Z</time>
      </trkpt>
      <trkpt lat="42.70478" lon="0.61199">
        <ele>2001.02</ele>
        <time>2015-11-01T14:43:16Z</time>
      </trkpt>
      <trkpt lat="42.70484" lon="0.61186">
        <ele>1998.18</ele>
        <time>2015-11-01T14:43:25Z</time>
      </trkpt>
      <trkpt lat="42.70487" lon="0.61163">
        <ele>1994.84</ele>
        <time>2015-11-01T14:43:40Z</time>
      </trkpt>
      <trkpt lat="42.70492" lon="0.61147">
        <ele>1992.56</ele>
        <time>2015-11-01T14:43:52Z</time>
      </trkpt>
      <trkpt lat="42.70495" lon="0.61141">
        <ele>1989.78</ele>
        <time>2015-11-01T14:44:07Z</time>
      </trkpt>
      <trkpt lat="42.70495" lon="0.61148">
        <ele>1988.45</ele>
        <time>2015-11-01T14:44:12Z</time>
      </trkpt>
      <trkpt lat="42.70495" lon="0.61157">
        <ele>1987.29</ele>
        <time>2015-11-01T14:44:17Z</time>
      </trkpt>
      <trkpt lat="42.70496" lon="0.61175">
        <ele>1985.17</ele>
        <time>2015-11-01T14:44:28Z</time>
      </trkpt>
      <trkpt lat="42.70496" lon="0.61177">
        <ele>1984.84</ele>
        <time>2015-11-01T14:44:30Z</time>
      </trkpt>
      <trkpt lat="42.70499" lon="0.61185">
        <ele>1983.9</ele>
        <time>2015-11-01T14:44:35Z</time>
      </trkpt>
      <trkpt lat="42.705" lon="0.61188">
        <ele>1983.56</ele>
        <time>2015-11-01T14:44:37Z</time>
      </trkpt>
      <trkpt lat="42.70504" lon="0.61206">
        <ele>1980.23</ele>
        <time>2015-11-01T14:44:51Z</time>
      </trkpt>
      <trkpt lat="42.70511" lon="0.61205">
        <ele>1977.02</ele>
        <time>2015-11-01T14:45:01Z</time>
      </trkpt>
      <trkpt lat="42.70513" lon="0.61207">
        <ele>1976.1</ele>
        <time>2015-11-01T14:45:03Z</time>
      </trkpt>
      <trkpt lat="42.7052" lon="0.61212">
        <ele>1972.26</ele>
        <time>2015-11-01T14:45:13Z</time>
      </trkpt>
      <trkpt lat="42.70521" lon="0.61217">
        <ele>1969.11</ele>
        <time>2015-11-01T14:45:22Z</time>
      </trkpt>
      <trkpt lat="42.70529" lon="0.61216">
        <ele>1966.68</ele>
        <time>2015-11-01T14:45:35Z</time>
      </trkpt>
      <trkpt lat="42.7053" lon="0.61206">
        <ele>1966.44</ele>
        <time>2015-11-01T14:45:45Z</time>
      </trkpt>
      <trkpt lat="42.70533" lon="0.61194">
        <ele>1965.65</ele>
        <time>2015-11-01T14:45:56Z</time>
      </trkpt>
      <trkpt lat="42.70532" lon="0.61186">
        <ele>1964.68</ele>
        <time>2015-11-01T14:46:02Z</time>
      </trkpt>
      <trkpt lat="42.70531" lon="0.61175">
        <ele>1963.51</ele>
        <time>2015-11-01T14:46:12Z</time>
      </trkpt>
      <trkpt lat="42.70532" lon="0.61166">
        <ele>1962.1</ele>
        <time>2015-11-01T14:46:21Z</time>
      </trkpt>
      <trkpt lat="42.70534" lon="0.61162">
        <ele>1959.6</ele>
        <time>2015-11-01T14:46:36Z</time>
      </trkpt>
      <trkpt lat="42.70534" lon="0.61164">
        <ele>1959.36</ele>
        <time>2015-11-01T14:46:37Z</time>
      </trkpt>
      <trkpt lat="42.70533" lon="0.6117">
        <ele>1958.05</ele>
        <time>2015-11-01T14:46:42Z</time>
      </trkpt>
      <trkpt lat="42.70533" lon="0.61173">
        <ele>1957.47</ele>
        <time>2015-11-01T14:46:44Z</time>
      </trkpt>
      <trkpt lat="42.70534" lon="0.61179">
        <ele>1956.87</ele>
        <time>2015-11-01T14:46:48Z</time>
      </trkpt>
      <trkpt lat="42.70535" lon="0.61188">
        <ele>1956.17</ele>
        <time>2015-11-01T14:46:55Z</time>
      </trkpt>
      <trkpt lat="42.70538" lon="0.61198">
        <ele>1953.82</ele>
        <time>2015-11-01T14:47:07Z</time>
      </trkpt>
      <trkpt lat="42.70539" lon="0.61195">
        <ele>1952.86</ele>
        <time>2015-11-01T14:47:10Z</time>
      </trkpt>
      <trkpt lat="42.70543" lon="0.61183">
        <ele>1950.78</ele>
        <time>2015-11-01T14:47:20Z</time>
      </trkpt>
      <trkpt lat="42.70546" lon="0.61158">
        <ele>1947.82</ele>
        <time>2015-11-01T14:47:37Z</time>
      </trkpt>
      <trkpt lat="42.7055" lon="0.61143">
        <ele>1946.82</ele>
        <time>2015-11-01T14:47:47Z</time>
      </trkpt>
      <trkpt lat="42.70546" lon="0.61128">
        <ele>1946.08</ele>
        <time>2015-11-01T14:47:57Z</time>
      </trkpt>
      <trkpt lat="42.70548" lon="0.61107">
        <ele>1944.56</ele>
        <time>2015-11-01T14:48:10Z</time>
      </trkpt>
      <trkpt lat="42.70546" lon="0.61106">
        <ele>1944.46</ele>
        <time>2015-11-01T14:48:11Z</time>
      </trkpt>
      <trkpt lat="42.70545" lon="0.61098">
        <ele>1943.67</ele>
        <time>2015-11-01T14:48:16Z</time>
      </trkpt>
      <trkpt lat="42.70546" lon="0.61095">
        <ele>1943.27</ele>
        <time>2015-11-01T14:48:18Z</time>
      </trkpt>
      <trkpt lat="42.70547" lon="0.61088">
        <ele>1942.47</ele>
        <time>2015-11-01T14:48:22Z</time>
      </trkpt>
      <trkpt lat="42.7055" lon="0.61073">
        <ele>1940.97</ele>
        <time>2015-11-01T14:48:32Z</time>
      </trkpt>
      <trkpt lat="42.70549" lon="0.61068">
        <ele>1940.66</ele>
        <time>2015-11-01T14:48:36Z</time>
      </trkpt>
      <trkpt lat="42.70547" lon="0.61061">
        <ele>1940.05</ele>
        <time>2015-11-01T14:48:41Z</time>
      </trkpt>
      <trkpt lat="42.70547" lon="0.61058">
        <ele>1939.6</ele>
        <time>2015-11-01T14:48:47Z</time>
      </trkpt>
      <trkpt lat="42.70559" lon="0.61047">
        <ele>1937.73</ele>
        <time>2015-11-01T14:48:58Z</time>
      </trkpt>
      <trkpt lat="42.70569" lon="0.61031">
        <ele>1935.47</ele>
        <time>2015-11-01T14:49:09Z</time>
      </trkpt>
      <trkpt lat="42.70566" lon="0.61021">
        <ele>1934.67</ele>
        <time>2015-11-01T14:49:17Z</time>
      </trkpt>
      <trkpt lat="42.70569" lon="0.61015">
        <ele>1933.31</ele>
        <time>2015-11-01T14:49:29Z</time>
      </trkpt>
      <trkpt lat="42.7057" lon="0.61015">
        <ele>1933.25</ele>
        <time>2015-11-01T14:49:30Z</time>
      </trkpt>
      <trkpt lat="42.70579" lon="0.61018">
        <ele>1932.69</ele>
        <time>2015-11-01T14:49:44Z</time>
      </trkpt>
      <trkpt lat="42.70593" lon="0.61025">
        <ele>1929.51</ele>
        <time>2015-11-01T14:49:56Z</time>
      </trkpt>
      <trkpt lat="42.70605" lon="0.61029">
        <ele>1929.8</ele>
        <time>2015-11-01T14:50:11Z</time>
      </trkpt>
      <trkpt lat="42.70619" lon="0.61021">
        <ele>1927.67</ele>
        <time>2015-11-01T14:50:24Z</time>
      </trkpt>
      <trkpt lat="42.70625" lon="0.61016">
        <ele>1926.68</ele>
        <time>2015-11-01T14:50:30Z</time>
      </trkpt>
      <trkpt lat="42.70629" lon="0.61011">
        <ele>1926.01</ele>
        <time>2015-11-01T14:50:35Z</time>
      </trkpt>
      <trkpt lat="42.7064" lon="0.60995">
        <ele>1922.78</ele>
        <time>2015-11-01T14:50:48Z</time>
      </trkpt>
      <trkpt lat="42.70652" lon="0.60976">
        <ele>1920.48</ele>
        <time>2015-11-01T14:51:02Z</time>
      </trkpt>
      <trkpt lat="42.70656" lon="0.6097">
        <ele>1920.79</ele>
        <time>2015-11-01T14:51:06Z</time>
      </trkpt>
      <trkpt lat="42.70659" lon="0.60967">
        <ele>1921.03</ele>
        <time>2015-11-01T14:51:10Z</time>
      </trkpt>
      <trkpt lat="42.70663" lon="0.60964">
        <ele>1920.51</ele>
        <time>2015-11-01T14:51:23Z</time>
      </trkpt>
      <trkpt lat="42.70666" lon="0.60963">
        <ele>1919.92</ele>
        <time>2015-11-01T14:51:26Z</time>
      </trkpt>
      <trkpt lat="42.70672" lon="0.60958">
        <ele>1918.44</ele>
        <time>2015-11-01T14:51:33Z</time>
      </trkpt>
      <trkpt lat="42.70681" lon="0.60943">
        <ele>1916.76</ele>
        <time>2015-11-01T14:51:47Z</time>
      </trkpt>
      <trkpt lat="42.70682" lon="0.6094">
        <ele>1916.3</ele>
        <time>2015-11-01T14:51:50Z</time>
      </trkpt>
      <trkpt lat="42.70693" lon="0.60934">
        <ele>1914.95</ele>
        <time>2015-11-01T14:52:07Z</time>
      </trkpt>
      <trkpt lat="42.70697" lon="0.60932">
        <ele>1914.33</ele>
        <time>2015-11-01T14:52:11Z</time>
      </trkpt>
      <trkpt lat="42.70702" lon="0.60934">
        <ele>1913.88</ele>
        <time>2015-11-01T14:52:17Z</time>
      </trkpt>
      <trkpt lat="42.70714" lon="0.60935">
        <ele>1911.42</ele>
        <time>2015-11-01T14:52:29Z</time>
      </trkpt>
      <trkpt lat="42.70717" lon="0.60936">
        <ele>1910.95</ele>
        <time>2015-11-01T14:52:32Z</time>
      </trkpt>
      <trkpt lat="42.70723" lon="0.60938">
        <ele>1910.17</ele>
        <time>2015-11-01T14:52:39Z</time>
      </trkpt>
      <trkpt lat="42.70729" lon="0.60935">
        <ele>1910.45</ele>
        <time>2015-11-01T14:52:44Z</time>
      </trkpt>
      <trkpt lat="42.70737" lon="0.60946">
        <ele>1910.88</ele>
        <time>2015-11-01T14:52:52Z</time>
      </trkpt>
      <trkpt lat="42.70749" lon="0.60942">
        <ele>1911.05</ele>
        <time>2015-11-01T14:53:04Z</time>
      </trkpt>
      <trkpt lat="42.70755" lon="0.60942">
        <ele>1910.17</ele>
        <time>2015-11-01T14:53:11Z</time>
      </trkpt>
      <trkpt lat="42.70765" lon="0.60928">
        <ele>1908.77</ele>
        <time>2015-11-01T14:53:22Z</time>
      </trkpt>
      <trkpt lat="42.70772" lon="0.60928">
        <ele>1908.16</ele>
        <time>2015-11-01T14:53:28Z</time>
      </trkpt>
      <trkpt lat="42.70778" lon="0.60927">
        <ele>1907.69</ele>
        <time>2015-11-01T14:53:33Z</time>
      </trkpt>
      <trkpt lat="42.70783" lon="0.60923">
        <ele>1907.16</ele>
        <time>2015-11-01T14:53:38Z</time>
      </trkpt>
      <trkpt lat="42.70792" lon="0.60904">
        <ele>1905.08</ele>
        <time>2015-11-01T14:53:51Z</time>
      </trkpt>
      <trkpt lat="42.70799" lon="0.60902">
        <ele>1903.89</ele>
        <time>2015-11-01T14:53:58Z</time>
      </trkpt>
      <trkpt lat="42.70805" lon="0.60882">
        <ele>1902.64</ele>
        <time>2015-11-01T14:54:11Z</time>
      </trkpt>
      <trkpt lat="42.70814" lon="0.60872">
        <ele>1900.83</ele>
        <time>2015-11-01T14:54:21Z</time>
      </trkpt>
      <trkpt lat="42.70819" lon="0.60868">
        <ele>1900.22</ele>
        <time>2015-11-01T14:54:26Z</time>
      </trkpt>
      <trkpt lat="42.70832" lon="0.60858">
        <ele>1897.85</ele>
        <time>2015-11-01T14:54:38Z</time>
      </trkpt>
      <trkpt lat="42.70839" lon="0.60852">
        <ele>1895.51</ele>
        <time>2015-11-01T14:54:47Z</time>
      </trkpt>
      <trkpt lat="42.70841" lon="0.60849">
        <ele>1894.65</ele>
        <time>2015-11-01T14:54:50Z</time>
      </trkpt>
      <trkpt lat="42.70845" lon="0.6085">
        <ele>1893.85</ele>
        <time>2015-11-01T14:54:55Z</time>
      </trkpt>
      <trkpt lat="42.70848" lon="0.6085">
        <ele>1893.32</ele>
        <time>2015-11-01T14:54:59Z</time>
      </trkpt>
      <trkpt lat="42.70856" lon="0.6085">
        <ele>1892.6</ele>
        <time>2015-11-01T14:55:06Z</time>
      </trkpt>
      <trkpt lat="42.70861" lon="0.60838">
        <ele>1892.85</ele>
        <time>2015-11-01T14:55:17Z</time>
      </trkpt>
      <trkpt lat="42.70861" lon="0.6084">
        <ele>1892.96</ele>
        <time>2015-11-01T14:55:18Z</time>
      </trkpt>
      <trkpt lat="42.70882" lon="0.60838">
        <ele>1890.56</ele>
        <time>2015-11-01T14:55:33Z</time>
      </trkpt>
      <trkpt lat="42.70884" lon="0.60836">
        <ele>1890.29</ele>
        <time>2015-11-01T14:55:35Z</time>
      </trkpt>
      <trkpt lat="42.70897" lon="0.60833">
        <ele>1886.9</ele>
        <time>2015-11-01T14:55:47Z</time>
      </trkpt>
      <trkpt lat="42.70903" lon="0.6083">
        <ele>1886.05</ele>
        <time>2015-11-01T14:55:52Z</time>
      </trkpt>
      <trkpt lat="42.70905" lon="0.60829">
        <ele>1885.92</ele>
        <time>2015-11-01T14:55:54Z</time>
      </trkpt>
      <trkpt lat="42.70912" lon="0.6083">
        <ele>1885.93</ele>
        <time>2015-11-01T14:55:59Z</time>
      </trkpt>
      <trkpt lat="42.70915" lon="0.6083">
        <ele>1885.81</ele>
        <time>2015-11-01T14:56:01Z</time>
      </trkpt>
      <trkpt lat="42.70926" lon="0.60818">
        <ele>1884.81</ele>
        <time>2015-11-01T14:56:14Z</time>
      </trkpt>
      <trkpt lat="42.70932" lon="0.60818">
        <ele>1884.26</ele>
        <time>2015-11-01T14:56:26Z</time>
      </trkpt>
      <trkpt lat="42.70932" lon="0.60817">
        <ele>1884.17</ele>
        <time>2015-11-01T14:56:27Z</time>
      </trkpt>
      <trkpt lat="42.70936" lon="0.60812">
        <ele>1883.49</ele>
        <time>2015-11-01T14:56:30Z</time>
      </trkpt>
      <trkpt lat="42.70947" lon="0.608">
        <ele>1882.68</ele>
        <time>2015-11-01T14:56:43Z</time>
      </trkpt>
      <trkpt lat="42.70952" lon="0.60798">
        <ele>1881.97</ele>
        <time>2015-11-01T14:56:50Z</time>
      </trkpt>
      <trkpt lat="42.70963" lon="0.60802">
        <ele>1879.59</ele>
        <time>2015-11-01T14:56:58Z</time>
      </trkpt>
      <trkpt lat="42.70969" lon="0.60802">
        <ele>1878.32</ele>
        <time>2015-11-01T14:57:04Z</time>
      </trkpt>
      <trkpt lat="42.70974" lon="0.60805">
        <ele>1878.02</ele>
        <time>2015-11-01T14:57:09Z</time>
      </trkpt>
      <trkpt lat="42.7098" lon="0.60805">
        <ele>1877.28</ele>
        <time>2015-11-01T14:57:15Z</time>
      </trkpt>
      <trkpt lat="42.70987" lon="0.60806">
        <ele>1876.42</ele>
        <time>2015-11-01T14:57:21Z</time>
      </trkpt>
      <trkpt lat="42.70997" lon="0.60808">
        <ele>1875.47</ele>
        <time>2015-11-01T14:57:31Z</time>
      </trkpt>
      <trkpt lat="42.71" lon="0.60809">
        <ele>1874.89</ele>
        <time>2015-11-01T14:57:34Z</time>
      </trkpt>
      <trkpt lat="42.71" lon="0.60821">
        <ele>1871.52</ele>
        <time>2015-11-01T14:57:44Z</time>
      </trkpt>
      <trkpt lat="42.70999" lon="0.60838">
        <ele>1870.95</ele>
        <time>2015-11-01T14:57:46Z</time>
      </trkpt>
      <trkpt lat="42.70996" lon="0.60867">
        <ele>1868.26</ele>
        <time>2015-11-01T14:57:57Z</time>
      </trkpt>
      <trkpt lat="42.71006" lon="0.60875">
        <ele>1864.89</ele>
        <time>2015-11-01T14:58:07Z</time>
      </trkpt>
      <trkpt lat="42.71009" lon="0.60885">
        <ele>1861.78</ele>
        <time>2015-11-01T14:58:15Z</time>
      </trkpt>
      <trkpt lat="42.71009" lon="0.60891">
        <ele>1858.68</ele>
        <time>2015-11-01T14:58:24Z</time>
      </trkpt>
      <trkpt lat="42.70998" lon="0.60899">
        <ele>1856.28</ele>
        <time>2015-11-01T14:58:37Z</time>
      </trkpt>
      <trkpt lat="42.70994" lon="0.609">
        <ele>1855.7</ele>
        <time>2015-11-01T14:58:40Z</time>
      </trkpt>
      <trkpt lat="42.70979" lon="0.60907">
        <ele>1852.37</ele>
        <time>2015-11-01T14:58:54Z</time>
      </trkpt>
      <trkpt lat="42.70964" lon="0.60908">
        <ele>1849.36</ele>
        <time>2015-11-01T14:59:07Z</time>
      </trkpt>
      <trkpt lat="42.70954" lon="0.60915">
        <ele>1846.09</ele>
        <time>2015-11-01T14:59:19Z</time>
      </trkpt>
      <trkpt lat="42.70944" lon="0.60932">
        <ele>1843.14</ele>
        <time>2015-11-01T14:59:29Z</time>
      </trkpt>
      <trkpt lat="42.70934" lon="0.60946">
        <ele>1839.77</ele>
        <time>2015-11-01T14:59:41Z</time>
      </trkpt>
      <trkpt lat="42.70921" lon="0.60954">
        <ele>1836.61</ele>
        <time>2015-11-01T14:59:53Z</time>
      </trkpt>
      <trkpt lat="42.70921" lon="0.60959">
        <ele>1835.15</ele>
        <time>2015-11-01T14:59:59Z</time>
      </trkpt>
      <trkpt lat="42.7093" lon="0.60963">
        <ele>1833.11</ele>
        <time>2015-11-01T15:00:06Z</time>
      </trkpt>
      <trkpt lat="42.70944" lon="0.60966">
        <ele>1829.94</ele>
        <time>2015-11-01T15:00:18Z</time>
      </trkpt>
      <trkpt lat="42.70956" lon="0.60967">
        <ele>1826.46</ele>
        <time>2015-11-01T15:00:28Z</time>
      </trkpt>
      <trkpt lat="42.70945" lon="0.60981">
        <ele>1823.14</ele>
        <time>2015-11-01T15:00:40Z</time>
      </trkpt>
      <trkpt lat="42.70939" lon="0.60986">
        <ele>1821.31</ele>
        <time>2015-11-01T15:00:46Z</time>
      </trkpt>
      <trkpt lat="42.70936" lon="0.60988">
        <ele>1820.36</ele>
        <time>2015-11-01T15:00:50Z</time>
      </trkpt>
      <trkpt lat="42.70934" lon="0.60994">
        <ele>1818.49</ele>
        <time>2015-11-01T15:00:55Z</time>
      </trkpt>
      <trkpt lat="42.70932" lon="0.61001">
        <ele>1814.95</ele>
        <time>2015-11-01T15:01:05Z</time>
      </trkpt>
      <trkpt lat="42.70944" lon="0.61">
        <ele>1812.72</ele>
        <time>2015-11-01T15:01:13Z</time>
      </trkpt>
      <trkpt lat="42.7094" lon="0.6101">
        <ele>1809.39</ele>
        <time>2015-11-01T15:01:24Z</time>
      </trkpt>
      <trkpt lat="42.7094" lon="0.6101">
        <ele>1809.01</ele>
        <time>2015-11-01T15:01:25Z</time>
      </trkpt>
      <trkpt lat="42.70934" lon="0.61015">
        <ele>1806.91</ele>
        <time>2015-11-01T15:01:31Z</time>
      </trkpt>
      <trkpt lat="42.70921" lon="0.61021">
        <ele>1803.41</ele>
        <time>2015-11-01T15:01:44Z</time>
      </trkpt>
      <trkpt lat="42.70914" lon="0.6102">
        <ele>1800.79</ele>
        <time>2015-11-01T15:01:51Z</time>
      </trkpt>
      <trkpt lat="42.70907" lon="0.61031">
        <ele>1797.66</ele>
        <time>2015-11-01T15:02:06Z</time>
      </trkpt>
      <trkpt lat="42.70906" lon="0.61032">
        <ele>1797.47</ele>
        <time>2015-11-01T15:02:07Z</time>
      </trkpt>
      <trkpt lat="42.70901" lon="0.61041">
        <ele>1795.3</ele>
        <time>2015-11-01T15:02:15Z</time>
      </trkpt>
      <trkpt lat="42.70898" lon="0.61043">
        <ele>1794.06</ele>
        <time>2015-11-01T15:02:18Z</time>
      </trkpt>
      <trkpt lat="42.70894" lon="0.61049">
        <ele>1790.62</ele>
        <time>2015-11-01T15:02:32Z</time>
      </trkpt>
      <trkpt lat="42.70895" lon="0.61048">
        <ele>1790.33</ele>
        <time>2015-11-01T15:02:33Z</time>
      </trkpt>
      <trkpt lat="42.70898" lon="0.6105">
        <ele>1789.58</ele>
        <time>2015-11-01T15:02:36Z</time>
      </trkpt>
      <trkpt lat="42.70909" lon="0.61053">
        <ele>1786.97</ele>
        <time>2015-11-01T15:02:46Z</time>
      </trkpt>
      <trkpt lat="42.70911" lon="0.61056">
        <ele>1783.54</ele>
        <time>2015-11-01T15:02:57Z</time>
      </trkpt>
      <trkpt lat="42.7091" lon="0.61058">
        <ele>1783.24</ele>
        <time>2015-11-01T15:02:58Z</time>
      </trkpt>
      <trkpt lat="42.70906" lon="0.61063">
        <ele>1782.13</ele>
        <time>2015-11-01T15:03:03Z</time>
      </trkpt>
      <trkpt lat="42.70899" lon="0.61066">
        <ele>1780.97</ele>
        <time>2015-11-01T15:03:09Z</time>
      </trkpt>
      <trkpt lat="42.70898" lon="0.61069">
        <ele>1780.4</ele>
        <time>2015-11-01T15:03:11Z</time>
      </trkpt>
      <trkpt lat="42.70892" lon="0.61071">
        <ele>1779.35</ele>
        <time>2015-11-01T15:03:16Z</time>
      </trkpt>
      <trkpt lat="42.70891" lon="0.61073">
        <ele>1778.8</ele>
        <time>2015-11-01T15:03:18Z</time>
      </trkpt>
      <trkpt lat="42.70882" lon="0.61075">
        <ele>1776.38</ele>
        <time>2015-11-01T15:03:26Z</time>
      </trkpt>
      <trkpt lat="42.70868" lon="0.61083">
        <ele>1773.45</ele>
        <time>2015-11-01T15:03:37Z</time>
      </trkpt>
      <trkpt lat="42.70861" lon="0.61084">
        <ele>1771.55</ele>
        <time>2015-11-01T15:03:44Z</time>
      </trkpt>
      <trkpt lat="42.70859" lon="0.6109">
        <ele>1770.57</ele>
        <time>2015-11-01T15:03:48Z</time>
      </trkpt>
      <trkpt lat="42.7086" lon="0.61111">
        <ele>1767.47</ele>
        <time>2015-11-01T15:04:03Z</time>
      </trkpt>
      <trkpt lat="42.7085" lon="0.61125">
        <ele>1764.04</ele>
        <time>2015-11-01T15:04:16Z</time>
      </trkpt>
      <trkpt lat="42.70839" lon="0.61134">
        <ele>1760.76</ele>
        <time>2015-11-01T15:04:28Z</time>
      </trkpt>
      <trkpt lat="42.70836" lon="0.61135">
        <ele>1759.49</ele>
        <time>2015-11-01T15:04:31Z</time>
      </trkpt>
      <trkpt lat="42.70833" lon="0.61137">
        <ele>1758.52</ele>
        <time>2015-11-01T15:04:35Z</time>
      </trkpt>
      <trkpt lat="42.70821" lon="0.61149">
        <ele>1756.25</ele>
        <time>2015-11-01T15:04:50Z</time>
      </trkpt>
      <trkpt lat="42.70822" lon="0.61163">
        <ele>1753.92</ele>
        <time>2015-11-01T15:05:02Z</time>
      </trkpt>
      <trkpt lat="42.70824" lon="0.61175">
        <ele>1751.03</ele>
        <time>2015-11-01T15:05:17Z</time>
      </trkpt>
      <trkpt lat="42.70824" lon="0.61186">
        <ele>1747.66</ele>
        <time>2015-11-01T15:05:27Z</time>
      </trkpt>
      <trkpt lat="42.70826" lon="0.61195">
        <ele>1744.55</ele>
        <time>2015-11-01T15:05:37Z</time>
      </trkpt>
      <trkpt lat="42.70826" lon="0.61198">
        <ele>1743.93</ele>
        <time>2015-11-01T15:05:39Z</time>
      </trkpt>
      <trkpt lat="42.70825" lon="0.61203">
        <ele>1742.79</ele>
        <time>2015-11-01T15:05:43Z</time>
      </trkpt>
      <trkpt lat="42.70823" lon="0.61216">
        <ele>1739.21</ele>
        <time>2015-11-01T15:05:52Z</time>
      </trkpt>
      <trkpt lat="42.70823" lon="0.61221">
        <ele>1737.82</ele>
        <time>2015-11-01T15:05:56Z</time>
      </trkpt>
      <trkpt lat="42.7082" lon="0.61232">
        <ele>1734.84</ele>
        <time>2015-11-01T15:06:04Z</time>
      </trkpt>
      <trkpt lat="42.70815" lon="0.61245">
        <ele>1731.39</ele>
        <time>2015-11-01T15:06:14Z</time>
      </trkpt>
      <trkpt lat="42.70808" lon="0.6126">
        <ele>1728.24</ele>
        <time>2015-11-01T15:06:27Z</time>
      </trkpt>
      <trkpt lat="42.708" lon="0.61267">
        <ele>1725.11</ele>
        <time>2015-11-01T15:06:36Z</time>
      </trkpt>
      <trkpt lat="42.70795" lon="0.61275">
        <ele>1722.45</ele>
        <time>2015-11-01T15:06:45Z</time>
      </trkpt>
      <trkpt lat="42.70792" lon="0.61278">
        <ele>1721.37</ele>
        <time>2015-11-01T15:06:48Z</time>
      </trkpt>
      <trkpt lat="42.70787" lon="0.61287">
        <ele>1719.09</ele>
        <time>2015-11-01T15:06:55Z</time>
      </trkpt>
      <trkpt lat="42.70783" lon="0.61296">
        <ele>1715.45</ele>
        <time>2015-11-01T15:07:05Z</time>
      </trkpt>
      <trkpt lat="42.70782" lon="0.61298">
        <ele>1714.54</ele>
        <time>2015-11-01T15:07:07Z</time>
      </trkpt>
      <trkpt lat="42.70777" lon="0.61311">
        <ele>1711.4</ele>
        <time>2015-11-01T15:07:17Z</time>
      </trkpt>
      <trkpt lat="42.70773" lon="0.61317">
        <ele>1709.82</ele>
        <time>2015-11-01T15:07:21Z</time>
      </trkpt>
      <trkpt lat="42.70765" lon="0.61325">
        <ele>1706.53</ele>
        <time>2015-11-01T15:07:30Z</time>
      </trkpt>
      <trkpt lat="42.70758" lon="0.61331">
        <ele>1703.87</ele>
        <time>2015-11-01T15:07:38Z</time>
      </trkpt>
      <trkpt lat="42.70759" lon="0.61339">
        <ele>1703.08</ele>
        <time>2015-11-01T15:07:46Z</time>
      </trkpt>
      <trkpt lat="42.70765" lon="0.61354">
        <ele>1702.08</ele>
        <time>2015-11-01T15:07:56Z</time>
      </trkpt>
      <trkpt lat="42.70774" lon="0.61366">
        <ele>1700.79</ele>
        <time>2015-11-01T15:08:11Z</time>
      </trkpt>
      <trkpt lat="42.70774" lon="0.6137">
        <ele>1700.92</ele>
        <time>2015-11-01T15:08:13Z</time>
      </trkpt>
      <trkpt lat="42.70775" lon="0.61378">
        <ele>1700.32</ele>
        <time>2015-11-01T15:08:19Z</time>
      </trkpt>
      <trkpt lat="42.70775" lon="0.61395">
        <ele>1698.26</ele>
        <time>2015-11-01T15:08:34Z</time>
      </trkpt>
      <trkpt lat="42.70776" lon="0.61397">
        <ele>1697.63</ele>
        <time>2015-11-01T15:08:36Z</time>
      </trkpt>
      <trkpt lat="42.70777" lon="0.61414">
        <ele>1694.92</ele>
        <time>2015-11-01T15:08:48Z</time>
      </trkpt>
      <trkpt lat="42.70774" lon="0.61422">
        <ele>1693.95</ele>
        <time>2015-11-01T15:08:54Z</time>
      </trkpt>
      <trkpt lat="42.70762" lon="0.61437">
        <ele>1693.06</ele>
        <time>2015-11-01T15:09:08Z</time>
      </trkpt>
      <trkpt lat="42.70761" lon="0.61438">
        <ele>1692.95</ele>
        <time>2015-11-01T15:09:09Z</time>
      </trkpt>
      <trkpt lat="42.7076" lon="0.61446">
        <ele>1692.03</ele>
        <time>2015-11-01T15:09:20Z</time>
      </trkpt>
      <trkpt lat="42.70765" lon="0.61452">
        <ele>1691.48</ele>
        <time>2015-11-01T15:09:36Z</time>
      </trkpt>
      <trkpt lat="42.70771" lon="0.61461">
        <ele>1691.82</ele>
        <time>2015-11-01T15:09:51Z</time>
      </trkpt>
      <trkpt lat="42.70783" lon="0.61464">
        <ele>1691.58</ele>
        <time>2015-11-01T15:10:03Z</time>
      </trkpt>
      <trkpt lat="42.70805" lon="0.61481">
        <ele>1689.42</ele>
        <time>2015-11-01T15:10:19Z</time>
      </trkpt>
      <trkpt lat="42.70811" lon="0.6149">
        <ele>1688.4</ele>
        <time>2015-11-01T15:10:26Z</time>
      </trkpt>
      <trkpt lat="42.70822" lon="0.61502">
        <ele>1686.6</ele>
        <time>2015-11-01T15:10:38Z</time>
      </trkpt>
      <trkpt lat="42.70825" lon="0.61516">
        <ele>1685.1</ele>
        <time>2015-11-01T15:10:48Z</time>
      </trkpt>
      <trkpt lat="42.70825" lon="0.61518">
        <ele>1684.92</ele>
        <time>2015-11-01T15:10:50Z</time>
      </trkpt>
      <trkpt lat="42.70826" lon="0.61529">
        <ele>1684.52</ele>
        <time>2015-11-01T15:10:56Z</time>
      </trkpt>
      <trkpt lat="42.70828" lon="0.61538">
        <ele>1683.48</ele>
        <time>2015-11-01T15:11:03Z</time>
      </trkpt>
      <trkpt lat="42.70828" lon="0.61544">
        <ele>1682.76</ele>
        <time>2015-11-01T15:11:08Z</time>
      </trkpt>
      <trkpt lat="42.70828" lon="0.61561">
        <ele>1681.24</ele>
        <time>2015-11-01T15:11:20Z</time>
      </trkpt>
      <trkpt lat="42.70828" lon="0.61562">
        <ele>1681.15</ele>
        <time>2015-11-01T15:11:21Z</time>
      </trkpt>
      <trkpt lat="42.70827" lon="0.61571">
        <ele>1680.28</ele>
        <time>2015-11-01T15:11:30Z</time>
      </trkpt>
      <trkpt lat="42.70827" lon="0.61574">
        <ele>1680.13</ele>
        <time>2015-11-01T15:11:32Z</time>
      </trkpt>
      <trkpt lat="42.70835" lon="0.61582">
        <ele>1679.28</ele>
        <time>2015-11-01T15:11:42Z</time>
      </trkpt>
      <trkpt lat="42.70837" lon="0.61585">
        <ele>1678.85</ele>
        <time>2015-11-01T15:11:45Z</time>
      </trkpt>
      <trkpt lat="42.70846" lon="0.61603">
        <ele>1676.54</ele>
        <time>2015-11-01T15:12:03Z</time>
      </trkpt>
      <trkpt lat="42.7085" lon="0.6161">
        <ele>1675.6</ele>
        <time>2015-11-01T15:12:11Z</time>
      </trkpt>
      <trkpt lat="42.70852" lon="0.61612">
        <ele>1675.35</ele>
        <time>2015-11-01T15:12:13Z</time>
      </trkpt>
      <trkpt lat="42.70862" lon="0.61632">
        <ele>1672.27</ele>
        <time>2015-11-01T15:12:30Z</time>
      </trkpt>
      <trkpt lat="42.70868" lon="0.61646">
        <ele>1670.82</ele>
        <time>2015-11-01T15:12:41Z</time>
      </trkpt>
      <trkpt lat="42.70869" lon="0.61655">
        <ele>1670.2</ele>
        <time>2015-11-01T15:12:47Z</time>
      </trkpt>
      <trkpt lat="42.70875" lon="0.61665">
        <ele>1669.34</ele>
        <time>2015-11-01T15:12:57Z</time>
      </trkpt>
      <trkpt lat="42.70877" lon="0.61665">
        <ele>1668.89</ele>
        <time>2015-11-01T15:13:00Z</time>
      </trkpt>
      <trkpt lat="42.70879" lon="0.61673">
        <ele>1667.64</ele>
        <time>2015-11-01T15:13:05Z</time>
      </trkpt>
      <trkpt lat="42.70878" lon="0.61699">
        <ele>1666.15</ele>
        <time>2015-11-01T15:13:18Z</time>
      </trkpt>
      <trkpt lat="42.70884" lon="0.61715">
        <ele>1665.07</ele>
        <time>2015-11-01T15:13:33Z</time>
      </trkpt>
      <trkpt lat="42.70888" lon="0.61722">
        <ele>1664.32</ele>
        <time>2015-11-01T15:13:41Z</time>
      </trkpt>
      <trkpt lat="42.70905" lon="0.61739">
        <ele>1661.27</ele>
        <time>2015-11-01T15:14:02Z</time>
      </trkpt>
      <trkpt lat="42.70914" lon="0.61757">
        <ele>1659.08</ele>
        <time>2015-11-01T15:14:15Z</time>
      </trkpt>
      <trkpt lat="42.70914" lon="0.61758">
        <ele>1658.94</ele>
        <time>2015-11-01T15:14:16Z</time>
      </trkpt>
      <trkpt lat="42.70918" lon="0.6177">
        <ele>1658.39</ele>
        <time>2015-11-01T15:14:24Z</time>
      </trkpt>
      <trkpt lat="42.70921" lon="0.61774">
        <ele>1657.95</ele>
        <time>2015-11-01T15:14:29Z</time>
      </trkpt>
      <trkpt lat="42.70935" lon="0.61778">
        <ele>1655.99</ele>
        <time>2015-11-01T15:14:43Z</time>
      </trkpt>
      <trkpt lat="42.70949" lon="0.6178">
        <ele>1654.52</ele>
        <time>2015-11-01T15:15:00Z</time>
      </trkpt>
      <trkpt lat="42.70957" lon="0.61782">
        <ele>1654.05</ele>
        <time>2015-11-01T15:15:12Z</time>
      </trkpt>
      <trkpt lat="42.70964" lon="0.61784">
        <ele>1654.47</ele>
        <time>2015-11-01T15:15:25Z</time>
      </trkpt>
      <trkpt lat="42.70978" lon="0.6178">
        <ele>1656.27</ele>
        <time>2015-11-01T15:15:41Z</time>
      </trkpt>
      <trkpt lat="42.70984" lon="0.61768">
        <ele>1655.15</ele>
        <time>2015-11-01T15:15:57Z</time>
      </trkpt>
      <trkpt lat="42.70984" lon="0.61766">
        <ele>1654.89</ele>
        <time>2015-11-01T15:15:59Z</time>
      </trkpt>
      <trkpt lat="42.70986" lon="0.61745">
        <ele>1651.77</ele>
        <time>2015-11-01T15:16:15Z</time>
      </trkpt>
      <trkpt lat="42.70998" lon="0.61735">
        <ele>1648.68</ele>
        <time>2015-11-01T15:16:31Z</time>
      </trkpt>
      <trkpt lat="42.71005" lon="0.61732">
        <ele>1647.37</ele>
        <time>2015-11-01T15:16:47Z</time>
      </trkpt>
      <trkpt lat="42.71011" lon="0.61727">
        <ele>1645.26</ele>
        <time>2015-11-01T15:17:06Z</time>
      </trkpt>
      <trkpt lat="42.71012" lon="0.61728">
        <ele>1646.53</ele>
        <time>2015-11-01T15:17:29Z</time>
      </trkpt>
      <trkpt lat="42.71012" lon="0.61734">
        <ele>1646.53</ele>
        <time>2015-11-01T15:18:02Z</time>
      </trkpt>
      <trkpt lat="42.71018" lon="0.61732">
        <ele>1646.54</ele>
        <time>2015-11-01T15:18:20Z</time>
      </trkpt>
      <trkpt lat="42.7102" lon="0.61732">
        <ele>1646.46</ele>
        <time>2015-11-01T15:18:37Z</time>
      </trkpt>
      <trkpt lat="42.7102" lon="0.61733">
        <ele>1647.07</ele>
        <time>2015-11-01T15:19:04Z</time>
      </trkpt>
      <trkpt lat="42.71021" lon="0.6173">
        <ele>1645.65</ele>
        <time>2015-11-01T15:19:34Z</time>
      </trkpt>
      <trkpt lat="42.7102" lon="0.61725">
        <ele>1646.09</ele>
        <time>2015-11-01T15:20:04Z</time>
      </trkpt>
      <trkpt lat="42.71021" lon="0.61725">
        <ele>1646.76</ele>
        <time>2015-11-01T15:20:35Z</time>
      </trkpt>
      <trkpt lat="42.71024" lon="0.61725">
        <ele>1647.01</ele>
        <time>2015-11-01T15:20:43Z</time>
      </trkpt>
      <trkpt lat="42.71023" lon="0.61726">
        <ele>1646.1</ele>
        <time>2015-11-01T15:21:13Z</time>
      </trkpt>
      <trkpt lat="42.7102" lon="0.61728">
        <ele>1646.35</ele>
        <time>2015-11-01T15:21:42Z</time>
      </trkpt>
      <trkpt lat="42.71019" lon="0.61727">
        <ele>1646.5</ele>
        <time>2015-11-01T15:22:11Z</time>
      </trkpt>
      <trkpt lat="42.71018" lon="0.61727">
        <ele>1645.92</ele>
        <time>2015-11-01T15:22:41Z</time>
      </trkpt>
      <trkpt lat="42.71019" lon="0.61728">
        <ele>1645.99</ele>
        <time>2015-11-01T15:23:12Z</time>
      </trkpt>
      <trkpt lat="42.71008" lon="0.6173">
        <ele>1646.1</ele>
        <time>2015-11-01T15:23:41Z</time>
      </trkpt>
      <trkpt lat="42.71012" lon="0.61726">
        <ele>1645.93</ele>
        <time>2015-11-01T15:24:16Z</time>
      </trkpt>
      <trkpt lat="42.71017" lon="0.6173">
        <ele>1646.02</ele>
        <time>2015-11-01T15:24:45Z</time>
      </trkpt>
      <trkpt lat="42.71017" lon="0.61732">
        <ele>1646.06</ele>
        <time>2015-11-01T15:25:13Z</time>
      </trkpt>
      <trkpt lat="42.71024" lon="0.61732">
        <ele>1645.76</ele>
        <time>2015-11-01T15:25:25Z</time>
      </trkpt>
      <trkpt lat="42.71032" lon="0.61734">
        <ele>1645.57</ele>
        <time>2015-11-01T15:25:30Z</time>
      </trkpt>
      <trkpt lat="42.71038" lon="0.61741">
        <ele>1645.42</ele>
        <time>2015-11-01T15:25:37Z</time>
      </trkpt>
      <trkpt lat="42.7104" lon="0.61743">
        <ele>1645.5</ele>
        <time>2015-11-01T15:25:39Z</time>
      </trkpt>
      <trkpt lat="42.71043" lon="0.61752">
        <ele>1645.07</ele>
        <time>2015-11-01T15:25:46Z</time>
      </trkpt>
      <trkpt lat="42.71051" lon="0.61743">
        <ele>1643.74</ele>
        <time>2015-11-01T15:26:01Z</time>
      </trkpt>
      <trkpt lat="42.71052" lon="0.61743">
        <ele>1643.76</ele>
        <time>2015-11-01T15:26:02Z</time>
      </trkpt>
      <trkpt lat="42.71058" lon="0.6173">
        <ele>1643.91</ele>
        <time>2015-11-01T15:26:11Z</time>
      </trkpt>
      <trkpt lat="42.71069" lon="0.61711">
        <ele>1643.9</ele>
        <time>2015-11-01T15:26:25Z</time>
      </trkpt>
      <trkpt lat="42.71071" lon="0.6171">
        <ele>1643.77</ele>
        <time>2015-11-01T15:26:27Z</time>
      </trkpt>
      <trkpt lat="42.71085" lon="0.61707">
        <ele>1644.13</ele>
        <time>2015-11-01T15:26:39Z</time>
      </trkpt>
      <trkpt lat="42.71096" lon="0.61702">
        <ele>1646.22</ele>
        <time>2015-11-01T15:26:53Z</time>
      </trkpt>
      <trkpt lat="42.711" lon="0.61699">
        <ele>1646.94</ele>
        <time>2015-11-01T15:26:57Z</time>
      </trkpt>
      <trkpt lat="42.71106" lon="0.61695">
        <ele>1647.3</ele>
        <time>2015-11-01T15:27:03Z</time>
      </trkpt>
      <trkpt lat="42.71111" lon="0.61693">
        <ele>1647.18</ele>
        <time>2015-11-01T15:27:07Z</time>
      </trkpt>
      <trkpt lat="42.71124" lon="0.61685">
        <ele>1648.37</ele>
        <time>2015-11-01T15:27:21Z</time>
      </trkpt>
      <trkpt lat="42.71133" lon="0.61676">
        <ele>1649.57</ele>
        <time>2015-11-01T15:27:32Z</time>
      </trkpt>
      <trkpt lat="42.7114" lon="0.61674">
        <ele>1649.58</ele>
        <time>2015-11-01T15:27:52Z</time>
      </trkpt>
      <trkpt lat="42.71138" lon="0.61672">
        <ele>1650.32</ele>
        <time>2015-11-01T15:28:21Z</time>
      </trkpt>
      <trkpt lat="42.71145" lon="0.61668">
        <ele>1650.64</ele>
        <time>2015-11-01T15:28:57Z</time>
      </trkpt>
      <trkpt lat="42.71142" lon="0.61669">
        <ele>1650.59</ele>
        <time>2015-11-01T15:29:17Z</time>
      </trkpt>
      <trkpt lat="42.71141" lon="0.61666">
        <ele>1650.11</ele>
        <time>2015-11-01T15:29:40Z</time>
      </trkpt>
      <trkpt lat="42.71151" lon="0.61662">
        <ele>1650.12</ele>
        <time>2015-11-01T15:30:01Z</time>
      </trkpt>
      <trkpt lat="42.71157" lon="0.6166">
        <ele>1650.7</ele>
        <time>2015-11-01T15:30:05Z</time>
      </trkpt>
      <trkpt lat="42.71167" lon="0.61661">
        <ele>1652.26</ele>
        <time>2015-11-01T15:30:17Z</time>
      </trkpt>
      <trkpt lat="42.7117" lon="0.61662">
        <ele>1652.78</ele>
        <time>2015-11-01T15:30:21Z</time>
      </trkpt>
      <trkpt lat="42.71194" lon="0.61652">
        <ele>1655.33</ele>
        <time>2015-11-01T15:30:41Z</time>
      </trkpt>
      <trkpt lat="42.71205" lon="0.61649">
        <ele>1657.68</ele>
        <time>2015-11-01T15:30:58Z</time>
      </trkpt>
      <trkpt lat="42.7122" lon="0.61651">
        <ele>1659.07</ele>
        <time>2015-11-01T15:31:14Z</time>
      </trkpt>
      <trkpt lat="42.71237" lon="0.61653">
        <ele>1662.07</ele>
        <time>2015-11-01T15:31:34Z</time>
      </trkpt>
      <trkpt lat="42.7124" lon="0.61654">
        <ele>1662.27</ele>
        <time>2015-11-01T15:31:36Z</time>
      </trkpt>
      <trkpt lat="42.71256" lon="0.61662">
        <ele>1664.15</ele>
        <time>2015-11-01T15:31:54Z</time>
      </trkpt>
      <trkpt lat="42.71278" lon="0.6167">
        <ele>1667.11</ele>
        <time>2015-11-01T15:32:15Z</time>
      </trkpt>
      <trkpt lat="42.71285" lon="0.61676">
        <ele>1667.88</ele>
        <time>2015-11-01T15:32:25Z</time>
      </trkpt>
      <trkpt lat="42.71287" lon="0.61681">
        <ele>1668.99</ele>
        <time>2015-11-01T15:32:43Z</time>
      </trkpt>
      <trkpt lat="42.71292" lon="0.61688">
        <ele>1669.55</ele>
        <time>2015-11-01T15:33:11Z</time>
      </trkpt>
      <trkpt lat="42.71292" lon="0.61705">
        <ele>1671.76</ele>
        <time>2015-11-01T15:33:28Z</time>
      </trkpt>
      <trkpt lat="42.71292" lon="0.61707">
        <ele>1671.81</ele>
        <time>2015-11-01T15:33:29Z</time>
      </trkpt>
      <trkpt lat="42.71295" lon="0.61717">
        <ele>1671.69</ele>
        <time>2015-11-01T15:33:38Z</time>
      </trkpt>
      <trkpt lat="42.71311" lon="0.61729">
        <ele>1670.26</ele>
        <time>2015-11-01T15:33:57Z</time>
      </trkpt>
      <trkpt lat="42.71317" lon="0.6174">
        <ele>1669.82</ele>
        <time>2015-11-01T15:34:08Z</time>
      </trkpt>
      <trkpt lat="42.71335" lon="0.61755">
        <ele>1669.95</ele>
        <time>2015-11-01T15:34:26Z</time>
      </trkpt>
      <trkpt lat="42.71336" lon="0.61755">
        <ele>1669.94</ele>
        <time>2015-11-01T15:34:27Z</time>
      </trkpt>
      <trkpt lat="42.71347" lon="0.61754">
        <ele>1668.69</ele>
        <time>2015-11-01T15:34:46Z</time>
      </trkpt>
      <trkpt lat="42.71362" lon="0.61761">
        <ele>1668.41</ele>
        <time>2015-11-01T15:35:01Z</time>
      </trkpt>
      <trkpt lat="42.71382" lon="0.61768">
        <ele>1667.04</ele>
        <time>2015-11-01T15:35:20Z</time>
      </trkpt>
      <trkpt lat="42.71392" lon="0.61768">
        <ele>1666.38</ele>
        <time>2015-11-01T15:35:27Z</time>
      </trkpt>
      <trkpt lat="42.7141" lon="0.61761">
        <ele>1665.48</ele>
        <time>2015-11-01T15:35:43Z</time>
      </trkpt>
      <trkpt lat="42.71414" lon="0.61759">
        <ele>1665.5</ele>
        <time>2015-11-01T15:35:45Z</time>
      </trkpt>
      <trkpt lat="42.71418" lon="0.61757">
        <ele>1665.52</ele>
        <time>2015-11-01T15:35:48Z</time>
      </trkpt>
      <trkpt lat="42.71437" lon="0.61754">
        <ele>1664.63</ele>
        <time>2015-11-01T15:36:02Z</time>
      </trkpt>
      <trkpt lat="42.71441" lon="0.61751">
        <ele>1664.25</ele>
        <time>2015-11-01T15:36:05Z</time>
      </trkpt>
      <trkpt lat="42.71446" lon="0.61743">
        <ele>1663.77</ele>
        <time>2015-11-01T15:36:10Z</time>
      </trkpt>
      <trkpt lat="42.71451" lon="0.61735">
        <ele>1663.24</ele>
        <time>2015-11-01T15:36:16Z</time>
      </trkpt>
      <trkpt lat="42.71465" lon="0.61716">
        <ele>1662.63</ele>
        <time>2015-11-01T15:36:32Z</time>
      </trkpt>
      <trkpt lat="42.71479" lon="0.61709">
        <ele>1661.7</ele>
        <time>2015-11-01T15:36:45Z</time>
      </trkpt>
      <trkpt lat="42.71493" lon="0.6171">
        <ele>1659.62</ele>
        <time>2015-11-01T15:37:02Z</time>
      </trkpt>
      <trkpt lat="42.71495" lon="0.61712">
        <ele>1659.5</ele>
        <time>2015-11-01T15:37:04Z</time>
      </trkpt>
      <trkpt lat="42.71507" lon="0.61725">
        <ele>1658</ele>
        <time>2015-11-01T15:37:21Z</time>
      </trkpt>
      <trkpt lat="42.71508" lon="0.61726">
        <ele>1658.1</ele>
        <time>2015-11-01T15:37:22Z</time>
      </trkpt>
      <trkpt lat="42.71531" lon="0.61737">
        <ele>1656.89</ele>
        <time>2015-11-01T15:37:45Z</time>
      </trkpt>
      <trkpt lat="42.71546" lon="0.61746">
        <ele>1655.75</ele>
        <time>2015-11-01T15:37:59Z</time>
      </trkpt>
      <trkpt lat="42.71551" lon="0.61751">
        <ele>1655.47</ele>
        <time>2015-11-01T15:38:02Z</time>
      </trkpt>
      <trkpt lat="42.71563" lon="0.61775">
        <ele>1655.55</ele>
        <time>2015-11-01T15:38:22Z</time>
      </trkpt>
      <trkpt lat="42.71568" lon="0.61801">
        <ele>1653.98</ele>
        <time>2015-11-01T15:38:37Z</time>
      </trkpt>
      <trkpt lat="42.71573" lon="0.61826">
        <ele>1652.5</ele>
        <time>2015-11-01T15:38:53Z</time>
      </trkpt>
      <trkpt lat="42.71573" lon="0.61833">
        <ele>1652.19</ele>
        <time>2015-11-01T15:38:57Z</time>
      </trkpt>
      <trkpt lat="42.7158" lon="0.61856">
        <ele>1651.04</ele>
        <time>2015-11-01T15:39:12Z</time>
      </trkpt>
      <trkpt lat="42.7158" lon="0.61862">
        <ele>1650.72</ele>
        <time>2015-11-01T15:39:16Z</time>
      </trkpt>
      <trkpt lat="42.71581" lon="0.61883">
        <ele>1649.77</ele>
        <time>2015-11-01T15:39:29Z</time>
      </trkpt>
      <trkpt lat="42.71589" lon="0.61907">
        <ele>1648.55</ele>
        <time>2015-11-01T15:39:44Z</time>
      </trkpt>
      <trkpt lat="42.71607" lon="0.61932">
        <ele>1647.62</ele>
        <time>2015-11-01T15:40:04Z</time>
      </trkpt>
      <trkpt lat="42.71599" lon="0.61949">
        <ele>1647.27</ele>
        <time>2015-11-01T15:40:22Z</time>
      </trkpt>
      <trkpt lat="42.71595" lon="0.61954">
        <ele>1647.2</ele>
        <time>2015-11-01T15:40:28Z</time>
      </trkpt>
      <trkpt lat="42.71589" lon="0.61966">
        <ele>1647.07</ele>
        <time>2015-11-01T15:40:40Z</time>
      </trkpt>
      <trkpt lat="42.71579" lon="0.61979">
        <ele>1646.16</ele>
        <time>2015-11-01T15:40:52Z</time>
      </trkpt>
      <trkpt lat="42.71557" lon="0.6199">
        <ele>1644.46</ele>
        <time>2015-11-01T15:41:14Z</time>
      </trkpt>
      <trkpt lat="42.71554" lon="0.61993">
        <ele>1644.29</ele>
        <time>2015-11-01T15:41:16Z</time>
      </trkpt>
      <trkpt lat="42.71548" lon="0.62">
        <ele>1643.81</ele>
        <time>2015-11-01T15:41:21Z</time>
      </trkpt>
      <trkpt lat="42.71547" lon="0.62002">
        <ele>1643.73</ele>
        <time>2015-11-01T15:41:23Z</time>
      </trkpt>
      <trkpt lat="42.71545" lon="0.62004">
        <ele>1643.61</ele>
        <time>2015-11-01T15:41:25Z</time>
      </trkpt>
      <trkpt lat="42.71541" lon="0.62009">
        <ele>1643.15</ele>
        <time>2015-11-01T15:41:29Z</time>
      </trkpt>
      <trkpt lat="42.7152" lon="0.62038">
        <ele>1641.86</ele>
        <time>2015-11-01T15:41:47Z</time>
      </trkpt>
      <trkpt lat="42.71518" lon="0.62045">
        <ele>1641.59</ele>
        <time>2015-11-01T15:41:51Z</time>
      </trkpt>
      <trkpt lat="42.71516" lon="0.62056">
        <ele>1641.22</ele>
        <time>2015-11-01T15:42:01Z</time>
      </trkpt>
      <trkpt lat="42.71515" lon="0.6206">
        <ele>1640.97</ele>
        <time>2015-11-01T15:42:04Z</time>
      </trkpt>
      <trkpt lat="42.71512" lon="0.62068">
        <ele>1640.67</ele>
        <time>2015-11-01T15:42:09Z</time>
      </trkpt>
      <trkpt lat="42.71505" lon="0.62092">
        <ele>1638.72</ele>
        <time>2015-11-01T15:42:25Z</time>
      </trkpt>
      <trkpt lat="42.71505" lon="0.62108">
        <ele>1639.44</ele>
        <time>2015-11-01T15:42:36Z</time>
      </trkpt>
      <trkpt lat="42.71503" lon="0.62123">
        <ele>1639.01</ele>
        <time>2015-11-01T15:42:45Z</time>
      </trkpt>
      <trkpt lat="42.71503" lon="0.62146">
        <ele>1638.3</ele>
        <time>2015-11-01T15:42:59Z</time>
      </trkpt>
      <trkpt lat="42.71508" lon="0.62178">
        <ele>1637.48</ele>
        <time>2015-11-01T15:43:19Z</time>
      </trkpt>
      <trkpt lat="42.71508" lon="0.62194">
        <ele>1636.57</ele>
        <time>2015-11-01T15:43:31Z</time>
      </trkpt>
      <trkpt lat="42.71511" lon="0.62214">
        <ele>1636.31</ele>
        <time>2015-11-01T15:43:44Z</time>
      </trkpt>
      <trkpt lat="42.7151" lon="0.62246">
        <ele>1634.7</ele>
        <time>2015-11-01T15:44:04Z</time>
      </trkpt>
      <trkpt lat="42.71511" lon="0.62252">
        <ele>1634.66</ele>
        <time>2015-11-01T15:44:09Z</time>
      </trkpt>
      <trkpt lat="42.7151" lon="0.62262">
        <ele>1634.23</ele>
        <time>2015-11-01T15:44:14Z</time>
      </trkpt>
      <trkpt lat="42.7151" lon="0.62267">
        <ele>1634.08</ele>
        <time>2015-11-01T15:44:17Z</time>
      </trkpt>
      <trkpt lat="42.71515" lon="0.62293">
        <ele>1632.95</ele>
        <time>2015-11-01T15:44:35Z</time>
      </trkpt>
      <trkpt lat="42.71516" lon="0.62294">
        <ele>1632.83</ele>
        <time>2015-11-01T15:44:36Z</time>
      </trkpt>
      <trkpt lat="42.71525" lon="0.6232">
        <ele>1632</ele>
        <time>2015-11-01T15:44:57Z</time>
      </trkpt>
      <trkpt lat="42.71525" lon="0.62323">
        <ele>1631.79</ele>
        <time>2015-11-01T15:44:59Z</time>
      </trkpt>
      <trkpt lat="42.71528" lon="0.62337">
        <ele>1631.32</ele>
        <time>2015-11-01T15:45:10Z</time>
      </trkpt>
      <trkpt lat="42.71529" lon="0.62339">
        <ele>1631.35</ele>
        <time>2015-11-01T15:45:11Z</time>
      </trkpt>
      <trkpt lat="42.71532" lon="0.62357">
        <ele>1630.25</ele>
        <time>2015-11-01T15:45:26Z</time>
      </trkpt>
      <trkpt lat="42.71529" lon="0.62386">
        <ele>1629.02</ele>
        <time>2015-11-01T15:45:46Z</time>
      </trkpt>
      <trkpt lat="42.71522" lon="0.62415">
        <ele>1628.09</ele>
        <time>2015-11-01T15:46:06Z</time>
      </trkpt>
      <trkpt lat="42.71523" lon="0.62427">
        <ele>1627.96</ele>
        <time>2015-11-01T15:46:19Z</time>
      </trkpt>
      <trkpt lat="42.71525" lon="0.62442">
        <ele>1627.22</ele>
        <time>2015-11-01T15:46:31Z</time>
      </trkpt>
      <trkpt lat="42.71526" lon="0.62456">
        <ele>1626.4</ele>
        <time>2015-11-01T15:46:43Z</time>
      </trkpt>
      <trkpt lat="42.71526" lon="0.62457">
        <ele>1626.4</ele>
        <time>2015-11-01T15:46:44Z</time>
      </trkpt>
      <trkpt lat="42.7153" lon="0.6247">
        <ele>1626.15</ele>
        <time>2015-11-01T15:46:52Z</time>
      </trkpt>
      <trkpt lat="42.71528" lon="0.62484">
        <ele>1625.39</ele>
        <time>2015-11-01T15:47:01Z</time>
      </trkpt>
      <trkpt lat="42.71528" lon="0.62488">
        <ele>1625.37</ele>
        <time>2015-11-01T15:47:04Z</time>
      </trkpt>
      <trkpt lat="42.71534" lon="0.62491">
        <ele>1625.21</ele>
        <time>2015-11-01T15:47:08Z</time>
      </trkpt>
      <trkpt lat="42.71536" lon="0.62495">
        <ele>1624.92</ele>
        <time>2015-11-01T15:47:11Z</time>
      </trkpt>
      <trkpt lat="42.71539" lon="0.62505">
        <ele>1624.43</ele>
        <time>2015-11-01T15:47:18Z</time>
      </trkpt>
      <trkpt lat="42.71541" lon="0.6251">
        <ele>1624.31</ele>
        <time>2015-11-01T15:47:21Z</time>
      </trkpt>
      <trkpt lat="42.71543" lon="0.62526">
        <ele>1623.51</ele>
        <time>2015-11-01T15:47:30Z</time>
      </trkpt>
      <trkpt lat="42.71543" lon="0.62539">
        <ele>1623.05</ele>
        <time>2015-11-01T15:47:37Z</time>
      </trkpt>
      <trkpt lat="42.71543" lon="0.62543">
        <ele>1622.93</ele>
        <time>2015-11-01T15:47:39Z</time>
      </trkpt>
      <trkpt lat="42.71542" lon="0.62554">
        <ele>1622.86</ele>
        <time>2015-11-01T15:47:46Z</time>
      </trkpt>
      <trkpt lat="42.71546" lon="0.62572">
        <ele>1622.25</ele>
        <time>2015-11-01T15:47:56Z</time>
      </trkpt>
      <trkpt lat="42.71548" lon="0.62583">
        <ele>1621.44</ele>
        <time>2015-11-01T15:48:03Z</time>
      </trkpt>
      <trkpt lat="42.71546" lon="0.62603">
        <ele>1621.46</ele>
        <time>2015-11-01T15:48:17Z</time>
      </trkpt>
      <trkpt lat="42.71545" lon="0.62604">
        <ele>1621.58</ele>
        <time>2015-11-01T15:48:18Z</time>
      </trkpt>
      <trkpt lat="42.71541" lon="0.62608">
        <ele>1621.6</ele>
        <time>2015-11-01T15:48:23Z</time>
      </trkpt>
      <trkpt lat="42.71539" lon="0.62612">
        <ele>1621.36</ele>
        <time>2015-11-01T15:48:28Z</time>
      </trkpt>
      <trkpt lat="42.71539" lon="0.62613">
        <ele>1621.2</ele>
        <time>2015-11-01T15:48:33Z</time>
      </trkpt>
      <trkpt lat="42.71542" lon="0.62614">
        <ele>1622.28</ele>
        <time>2015-11-01T15:48:38Z</time>
      </trkpt>
      <trkpt lat="42.71543" lon="0.62616">
        <ele>1622.22</ele>
        <time>2015-11-01T15:48:40Z</time>
      </trkpt>
      <trkpt lat="42.71545" lon="0.62617">
        <ele>1622.02</ele>
        <time>2015-11-01T15:48:42Z</time>
      </trkpt>
      <trkpt lat="42.71555" lon="0.62613">
        <ele>1622.22</ele>
        <time>2015-11-01T15:48:56Z</time>
      </trkpt>
      <trkpt lat="42.71563" lon="0.6261">
        <ele>1621.55</ele>
        <time>2015-11-01T15:49:04Z</time>
      </trkpt>
      <trkpt lat="42.71574" lon="0.62607">
        <ele>1621.19</ele>
        <time>2015-11-01T15:49:14Z</time>
      </trkpt>
      <trkpt lat="42.7158" lon="0.62601">
        <ele>1620.85</ele>
        <time>2015-11-01T15:49:21Z</time>
      </trkpt>
      <trkpt lat="42.71595" lon="0.626">
        <ele>1619.83</ele>
        <time>2015-11-01T15:49:34Z</time>
      </trkpt>
      <trkpt lat="42.71605" lon="0.62601">
        <ele>1619.17</ele>
        <time>2015-11-01T15:49:45Z</time>
      </trkpt>
      <trkpt lat="42.71609" lon="0.62605">
        <ele>1618.87</ele>
        <time>2015-11-01T15:49:49Z</time>
      </trkpt>
      <trkpt lat="42.71611" lon="0.62607">
        <ele>1618.77</ele>
        <time>2015-11-01T15:49:51Z</time>
      </trkpt>
      <trkpt lat="42.71621" lon="0.62606">
        <ele>1618.2</ele>
        <time>2015-11-01T15:49:59Z</time>
      </trkpt>
      <trkpt lat="42.71624" lon="0.62604">
        <ele>1618.03</ele>
        <time>2015-11-01T15:50:02Z</time>
      </trkpt>
      <trkpt lat="42.71637" lon="0.62592">
        <ele>1617.36</ele>
        <time>2015-11-01T15:50:17Z</time>
      </trkpt>
      <trkpt lat="42.71646" lon="0.62592">
        <ele>1617.17</ele>
        <time>2015-11-01T15:50:24Z</time>
      </trkpt>
      <trkpt lat="42.71649" lon="0.62592">
        <ele>1617.11</ele>
        <time>2015-11-01T15:50:27Z</time>
      </trkpt>
      <trkpt lat="42.71656" lon="0.62595">
        <ele>1616.69</ele>
        <time>2015-11-01T15:50:34Z</time>
      </trkpt>
      <trkpt lat="42.71672" lon="0.62592">
        <ele>1615.54</ele>
        <time>2015-11-01T15:50:48Z</time>
      </trkpt>
      <trkpt lat="42.71676" lon="0.62593">
        <ele>1615.24</ele>
        <time>2015-11-01T15:50:51Z</time>
      </trkpt>
      <trkpt lat="42.71694" lon="0.62592">
        <ele>1614.39</ele>
        <time>2015-11-01T15:51:05Z</time>
      </trkpt>
      <trkpt lat="42.71696" lon="0.62591">
        <ele>1614.28</ele>
        <time>2015-11-01T15:51:07Z</time>
      </trkpt>
      <trkpt lat="42.71699" lon="0.6259">
        <ele>1614.16</ele>
        <time>2015-11-01T15:51:09Z</time>
      </trkpt>
      <trkpt lat="42.71705" lon="0.62585">
        <ele>1613.67</ele>
        <time>2015-11-01T15:51:16Z</time>
      </trkpt>
      <trkpt lat="42.71722" lon="0.62581">
        <ele>1611.77</ele>
        <time>2015-11-01T15:51:32Z</time>
      </trkpt>
      <trkpt lat="42.71732" lon="0.62591">
        <ele>1610.99</ele>
        <time>2015-11-01T15:51:44Z</time>
      </trkpt>
      <trkpt lat="42.71741" lon="0.626">
        <ele>1610.92</ele>
        <time>2015-11-01T15:51:57Z</time>
      </trkpt>
      <trkpt lat="42.71749" lon="0.62607">
        <ele>1610.46</ele>
        <time>2015-11-01T15:52:08Z</time>
      </trkpt>
      <trkpt lat="42.71756" lon="0.62611">
        <ele>1610.14</ele>
        <time>2015-11-01T15:52:19Z</time>
      </trkpt>
      <trkpt lat="42.71768" lon="0.62627">
        <ele>1608.67</ele>
        <time>2015-11-01T15:52:38Z</time>
      </trkpt>
      <trkpt lat="42.71773" lon="0.62634">
        <ele>1608.76</ele>
        <time>2015-11-01T15:52:45Z</time>
      </trkpt>
      <trkpt lat="42.71785" lon="0.62646">
        <ele>1608.01</ele>
        <time>2015-11-01T15:52:58Z</time>
      </trkpt>
      <trkpt lat="42.71787" lon="0.62649">
        <ele>1607.91</ele>
        <time>2015-11-01T15:53:00Z</time>
      </trkpt>
      <trkpt lat="42.71802" lon="0.62667">
        <ele>1606.7</ele>
        <time>2015-11-01T15:53:22Z</time>
      </trkpt>
      <trkpt lat="42.71808" lon="0.62679">
        <ele>1605.76</ele>
        <time>2015-11-01T15:53:38Z</time>
      </trkpt>
      <trkpt lat="42.71816" lon="0.62691">
        <ele>1605.42</ele>
        <time>2015-11-01T15:53:53Z</time>
      </trkpt>
      <trkpt lat="42.71819" lon="0.62693">
        <ele>1604.28</ele>
        <time>2015-11-01T15:54:01Z</time>
      </trkpt>
      <trkpt lat="42.71831" lon="0.62711">
        <ele>1604.19</ele>
        <time>2015-11-01T15:54:21Z</time>
      </trkpt>
      <trkpt lat="42.71843" lon="0.62724">
        <ele>1604.24</ele>
        <time>2015-11-01T15:54:36Z</time>
      </trkpt>
      <trkpt lat="42.71844" lon="0.62726">
        <ele>1604.1</ele>
        <time>2015-11-01T15:54:38Z</time>
      </trkpt>
      <trkpt lat="42.71856" lon="0.62757">
        <ele>1601.83</ele>
        <time>2015-11-01T15:55:02Z</time>
      </trkpt>
      <trkpt lat="42.71867" lon="0.62782">
        <ele>1600.58</ele>
        <time>2015-11-01T15:55:22Z</time>
      </trkpt>
      <trkpt lat="42.71871" lon="0.62798">
        <ele>1600.32</ele>
        <time>2015-11-01T15:55:32Z</time>
      </trkpt>
      <trkpt lat="42.71874" lon="0.62809">
        <ele>1600.85</ele>
        <time>2015-11-01T15:55:42Z</time>
      </trkpt>
      <trkpt lat="42.71874" lon="0.62812">
        <ele>1600.76</ele>
        <time>2015-11-01T15:55:44Z</time>
      </trkpt>
      <trkpt lat="42.71879" lon="0.62819">
        <ele>1600.3</ele>
        <time>2015-11-01T15:55:51Z</time>
      </trkpt>
      <trkpt lat="42.71891" lon="0.62812">
        <ele>1600.85</ele>
        <time>2015-11-01T15:56:07Z</time>
      </trkpt>
      <trkpt lat="42.71898" lon="0.62805">
        <ele>1600.63</ele>
        <time>2015-11-01T15:56:14Z</time>
      </trkpt>
      <trkpt lat="42.71906" lon="0.62799">
        <ele>1600.15</ele>
        <time>2015-11-01T15:56:20Z</time>
      </trkpt>
      <trkpt lat="42.71907" lon="0.62798">
        <ele>1600.09</ele>
        <time>2015-11-01T15:56:22Z</time>
      </trkpt>
      <trkpt lat="42.71924" lon="0.62796">
        <ele>1599.15</ele>
        <time>2015-11-01T15:56:39Z</time>
      </trkpt>
      <trkpt lat="42.71927" lon="0.62794">
        <ele>1598.8</ele>
        <time>2015-11-01T15:56:42Z</time>
      </trkpt>
      <trkpt lat="42.71935" lon="0.62783">
        <ele>1598.59</ele>
        <time>2015-11-01T15:56:52Z</time>
      </trkpt>
      <trkpt lat="42.71941" lon="0.62776">
        <ele>1597.92</ele>
        <time>2015-11-01T15:56:59Z</time>
      </trkpt>
      <trkpt lat="42.71948" lon="0.62774">
        <ele>1597.17</ele>
        <time>2015-11-01T15:57:06Z</time>
      </trkpt>
      <trkpt lat="42.71963" lon="0.62787">
        <ele>1595.56</ele>
        <time>2015-11-01T15:57:22Z</time>
      </trkpt>
      <trkpt lat="42.71971" lon="0.628">
        <ele>1595.01</ele>
        <time>2015-11-01T15:57:34Z</time>
      </trkpt>
      <trkpt lat="42.71974" lon="0.62804">
        <ele>1594.82</ele>
        <time>2015-11-01T15:57:37Z</time>
      </trkpt>
      <trkpt lat="42.71985" lon="0.62816">
        <ele>1594.16</ele>
        <time>2015-11-01T15:57:50Z</time>
      </trkpt>
      <trkpt lat="42.71986" lon="0.62817">
        <ele>1594.05</ele>
        <time>2015-11-01T15:57:51Z</time>
      </trkpt>
      <trkpt lat="42.71991" lon="0.62824">
        <ele>1593.57</ele>
        <time>2015-11-01T15:57:58Z</time>
      </trkpt>
      <trkpt lat="42.71999" lon="0.62832">
        <ele>1593.35</ele>
        <time>2015-11-01T15:58:06Z</time>
      </trkpt>
      <trkpt lat="42.72" lon="0.62838">
        <ele>1593.28</ele>
        <time>2015-11-01T15:58:09Z</time>
      </trkpt>
      <trkpt lat="42.72002" lon="0.6284">
        <ele>1593.15</ele>
        <time>2015-11-01T15:58:11Z</time>
      </trkpt>
      <trkpt lat="42.72007" lon="0.62845">
        <ele>1593.01</ele>
        <time>2015-11-01T15:58:15Z</time>
      </trkpt>
      <trkpt lat="42.72009" lon="0.6285">
        <ele>1592.79</ele>
        <time>2015-11-01T15:58:22Z</time>
      </trkpt>
      <trkpt lat="42.72014" lon="0.62855">
        <ele>1592.42</ele>
        <time>2015-11-01T15:58:27Z</time>
      </trkpt>
      <trkpt lat="42.72023" lon="0.62871">
        <ele>1591.99</ele>
        <time>2015-11-01T15:58:39Z</time>
      </trkpt>
      <trkpt lat="42.7203" lon="0.62875">
        <ele>1591.73</ele>
        <time>2015-11-01T15:58:44Z</time>
      </trkpt>
      <trkpt lat="42.72035" lon="0.62882">
        <ele>1591.91</ele>
        <time>2015-11-01T15:58:49Z</time>
      </trkpt>
      <trkpt lat="42.72043" lon="0.62888">
        <ele>1591.86</ele>
        <time>2015-11-01T15:58:55Z</time>
      </trkpt>
      <trkpt lat="42.72049" lon="0.62892">
        <ele>1591.52</ele>
        <time>2015-11-01T15:59:00Z</time>
      </trkpt>
      <trkpt lat="42.72054" lon="0.629">
        <ele>1591.5</ele>
        <time>2015-11-01T15:59:07Z</time>
      </trkpt>
      <trkpt lat="42.72054" lon="0.62903">
        <ele>1591.39</ele>
        <time>2015-11-01T15:59:09Z</time>
      </trkpt>
      <trkpt lat="42.72065" lon="0.62915">
        <ele>1591.12</ele>
        <time>2015-11-01T15:59:22Z</time>
      </trkpt>
      <trkpt lat="42.72066" lon="0.62917">
        <ele>1591.05</ele>
        <time>2015-11-01T15:59:24Z</time>
      </trkpt>
      <trkpt lat="42.7208" lon="0.6293">
        <ele>1590.8</ele>
        <time>2015-11-01T15:59:39Z</time>
      </trkpt>
      <trkpt lat="42.72093" lon="0.62945">
        <ele>1590.58</ele>
        <time>2015-11-01T15:59:52Z</time>
      </trkpt>
      <trkpt lat="42.72095" lon="0.6295">
        <ele>1590.54</ele>
        <time>2015-11-01T15:59:55Z</time>
      </trkpt>
      <trkpt lat="42.72101" lon="0.62955">
        <ele>1590.33</ele>
        <time>2015-11-01T16:00:02Z</time>
      </trkpt>
      <trkpt lat="42.72105" lon="0.62967">
        <ele>1590.42</ele>
        <time>2015-11-01T16:00:11Z</time>
      </trkpt>
      <trkpt lat="42.72105" lon="0.62993">
        <ele>1590.27</ele>
        <time>2015-11-01T16:00:27Z</time>
      </trkpt>
      <trkpt lat="42.72109" lon="0.63005">
        <ele>1590.47</ele>
        <time>2015-11-01T16:00:38Z</time>
      </trkpt>
      <trkpt lat="42.72114" lon="0.63009">
        <ele>1590.41</ele>
        <time>2015-11-01T16:00:43Z</time>
      </trkpt>
      <trkpt lat="42.72116" lon="0.6302">
        <ele>1590.38</ele>
        <time>2015-11-01T16:00:51Z</time>
      </trkpt>
      <trkpt lat="42.72117" lon="0.63024">
        <ele>1590.42</ele>
        <time>2015-11-01T16:00:54Z</time>
      </trkpt>
      <trkpt lat="42.72116" lon="0.63044">
        <ele>1589.26</ele>
        <time>2015-11-01T16:01:08Z</time>
      </trkpt>
      <trkpt lat="42.72115" lon="0.63046">
        <ele>1589.19</ele>
        <time>2015-11-01T16:01:09Z</time>
      </trkpt>
      <trkpt lat="42.72116" lon="0.63057">
        <ele>1588.39</ele>
        <time>2015-11-01T16:01:15Z</time>
      </trkpt>
      <trkpt lat="42.72116" lon="0.63071">
        <ele>1586.46</ele>
        <time>2015-11-01T16:01:24Z</time>
      </trkpt>
      <trkpt lat="42.72122" lon="0.63106">
        <ele>1586.76</ele>
        <time>2015-11-01T16:01:44Z</time>
      </trkpt>
      <trkpt lat="42.72124" lon="0.63111">
        <ele>1586.51</ele>
        <time>2015-11-01T16:01:47Z</time>
      </trkpt>
      <trkpt lat="42.72126" lon="0.63115">
        <ele>1586.37</ele>
        <time>2015-11-01T16:01:49Z</time>
      </trkpt>
      <trkpt lat="42.72132" lon="0.6313">
        <ele>1585.68</ele>
        <time>2015-11-01T16:01:58Z</time>
      </trkpt>
      <trkpt lat="42.72133" lon="0.63132">
        <ele>1585.51</ele>
        <time>2015-11-01T16:02:00Z</time>
      </trkpt>
      <trkpt lat="42.72137" lon="0.63136">
        <ele>1585.12</ele>
        <time>2015-11-01T16:02:03Z</time>
      </trkpt>
      <trkpt lat="42.72145" lon="0.63151">
        <ele>1584.24</ele>
        <time>2015-11-01T16:02:13Z</time>
      </trkpt>
      <trkpt lat="42.72144" lon="0.63159">
        <ele>1584.04</ele>
        <time>2015-11-01T16:02:17Z</time>
      </trkpt>
      <trkpt lat="42.7215" lon="0.63164">
        <ele>1583.75</ele>
        <time>2015-11-01T16:02:24Z</time>
      </trkpt>
      <trkpt lat="42.7215" lon="0.63175">
        <ele>1583.44</ele>
        <time>2015-11-01T16:02:30Z</time>
      </trkpt>
      <trkpt lat="42.7215" lon="0.63181">
        <ele>1583.2</ele>
        <time>2015-11-01T16:02:34Z</time>
      </trkpt>
      <trkpt lat="42.72152" lon="0.63188">
        <ele>1583.01</ele>
        <time>2015-11-01T16:02:38Z</time>
      </trkpt>
      <trkpt lat="42.72154" lon="0.63203">
        <ele>1582.59</ele>
        <time>2015-11-01T16:02:46Z</time>
      </trkpt>
      <trkpt lat="42.72155" lon="0.63209">
        <ele>1582.28</ele>
        <time>2015-11-01T16:02:50Z</time>
      </trkpt>
      <trkpt lat="42.72155" lon="0.63214">
        <ele>1582.04</ele>
        <time>2015-11-01T16:02:53Z</time>
      </trkpt>
      <trkpt lat="42.72153" lon="0.63221">
        <ele>1581.55</ele>
        <time>2015-11-01T16:03:00Z</time>
      </trkpt>
      <trkpt lat="42.72149" lon="0.63226">
        <ele>1581.44</ele>
        <time>2015-11-01T16:03:05Z</time>
      </trkpt>
      <trkpt lat="42.72142" lon="0.63239">
        <ele>1581.28</ele>
        <time>2015-11-01T16:03:12Z</time>
      </trkpt>
      <trkpt lat="42.72143" lon="0.63248">
        <ele>1580.88</ele>
        <time>2015-11-01T16:03:16Z</time>
      </trkpt>
      <trkpt lat="42.72148" lon="0.63269">
        <ele>1579.8</ele>
        <time>2015-11-01T16:03:27Z</time>
      </trkpt>
      <trkpt lat="42.72148" lon="0.6329">
        <ele>1578.4</ele>
        <time>2015-11-01T16:03:40Z</time>
      </trkpt>
      <trkpt lat="42.72149" lon="0.63304">
        <ele>1577.96</ele>
        <time>2015-11-01T16:03:47Z</time>
      </trkpt>
      <trkpt lat="42.7215" lon="0.63308">
        <ele>1577.82</ele>
        <time>2015-11-01T16:03:49Z</time>
      </trkpt>
      <trkpt lat="42.72148" lon="0.63315">
        <ele>1577.78</ele>
        <time>2015-11-01T16:03:53Z</time>
      </trkpt>
      <trkpt lat="42.72151" lon="0.63322">
        <ele>1577.59</ele>
        <time>2015-11-01T16:04:00Z</time>
      </trkpt>
      <trkpt lat="42.72146" lon="0.63329">
        <ele>1577.31</ele>
        <time>2015-11-01T16:04:06Z</time>
      </trkpt>
      <trkpt lat="42.72143" lon="0.63341">
        <ele>1576.78</ele>
        <time>2015-11-01T16:04:12Z</time>
      </trkpt>
      <trkpt lat="42.72143" lon="0.63351">
        <ele>1575.81</ele>
        <time>2015-11-01T16:04:19Z</time>
      </trkpt>
      <trkpt lat="42.72143" lon="0.63367">
        <ele>1575.29</ele>
        <time>2015-11-01T16:04:26Z</time>
      </trkpt>
      <trkpt lat="42.72141" lon="0.63372">
        <ele>1575.15</ele>
        <time>2015-11-01T16:04:29Z</time>
      </trkpt>
      <trkpt lat="42.7214" lon="0.63376">
        <ele>1575.01</ele>
        <time>2015-11-01T16:04:32Z</time>
      </trkpt>
      <trkpt lat="42.72138" lon="0.63388">
        <ele>1574.38</ele>
        <time>2015-11-01T16:04:40Z</time>
      </trkpt>
      <trkpt lat="42.72138" lon="0.63394">
        <ele>1574.12</ele>
        <time>2015-11-01T16:04:43Z</time>
      </trkpt>
      <trkpt lat="42.72135" lon="0.63401">
        <ele>1573.82</ele>
        <time>2015-11-01T16:04:47Z</time>
      </trkpt>
      <trkpt lat="42.72138" lon="0.63409">
        <ele>1573.68</ele>
        <time>2015-11-01T16:04:51Z</time>
      </trkpt>
      <trkpt lat="42.72139" lon="0.63413">
        <ele>1573.59</ele>
        <time>2015-11-01T16:04:53Z</time>
      </trkpt>
      <trkpt lat="42.72136" lon="0.63422">
        <ele>1573.09</ele>
        <time>2015-11-01T16:04:58Z</time>
      </trkpt>
      <trkpt lat="42.72139" lon="0.63428">
        <ele>1572.99</ele>
        <time>2015-11-01T16:05:02Z</time>
      </trkpt>
      <trkpt lat="42.72138" lon="0.63431">
        <ele>1572.94</ele>
        <time>2015-11-01T16:05:04Z</time>
      </trkpt>
      <trkpt lat="42.72136" lon="0.63439">
        <ele>1572.68</ele>
        <time>2015-11-01T16:05:07Z</time>
      </trkpt>
      <trkpt lat="42.72136" lon="0.63446">
        <ele>1572.27</ele>
        <time>2015-11-01T16:05:11Z</time>
      </trkpt>
      <trkpt lat="42.72131" lon="0.63459">
        <ele>1571.69</ele>
        <time>2015-11-01T16:05:21Z</time>
      </trkpt>
      <trkpt lat="42.72131" lon="0.6346">
        <ele>1571.62</ele>
        <time>2015-11-01T16:05:23Z</time>
      </trkpt>
      <trkpt lat="42.72126" lon="0.63466">
        <ele>1571.22</ele>
        <time>2015-11-01T16:05:29Z</time>
      </trkpt>
      <trkpt lat="42.72125" lon="0.63469">
        <ele>1571.15</ele>
        <time>2015-11-01T16:05:31Z</time>
      </trkpt>
      <trkpt lat="42.72123" lon="0.63482">
        <ele>1570.67</ele>
        <time>2015-11-01T16:05:40Z</time>
      </trkpt>
      <trkpt lat="42.72118" lon="0.63489">
        <ele>1570.64</ele>
        <time>2015-11-01T16:05:43Z</time>
      </trkpt>
      <trkpt lat="42.72113" lon="0.63496">
        <ele>1570.57</ele>
        <time>2015-11-01T16:05:47Z</time>
      </trkpt>
      <trkpt lat="42.72094" lon="0.63524">
        <ele>1569.3</ele>
        <time>2015-11-01T16:06:10Z</time>
      </trkpt>
      <trkpt lat="42.72094" lon="0.63525">
        <ele>1569.31</ele>
        <time>2015-11-01T16:06:11Z</time>
      </trkpt>
      <trkpt lat="42.72096" lon="0.63531">
        <ele>1569.39</ele>
        <time>2015-11-01T16:06:17Z</time>
      </trkpt>
      <trkpt lat="42.72093" lon="0.63545">
        <ele>1569.03</ele>
        <time>2015-11-01T16:06:23Z</time>
      </trkpt>
      <trkpt lat="42.7209" lon="0.63548">
        <ele>1568.86</ele>
        <time>2015-11-01T16:06:25Z</time>
      </trkpt>
      <trkpt lat="42.72089" lon="0.63557">
        <ele>1568.32</ele>
        <time>2015-11-01T16:06:29Z</time>
      </trkpt>
      <trkpt lat="42.72089" lon="0.6356">
        <ele>1568.14</ele>
        <time>2015-11-01T16:06:31Z</time>
      </trkpt>
      <trkpt lat="42.72092" lon="0.63569">
        <ele>1568.48</ele>
        <time>2015-11-01T16:06:36Z</time>
      </trkpt>
      <trkpt lat="42.7209" lon="0.63579">
        <ele>1568.29</ele>
        <time>2015-11-01T16:06:41Z</time>
      </trkpt>
      <trkpt lat="42.72087" lon="0.63599">
        <ele>1566.64</ele>
        <time>2015-11-01T16:06:51Z</time>
      </trkpt>
      <trkpt lat="42.72082" lon="0.63607">
        <ele>1565.76</ele>
        <time>2015-11-01T16:06:56Z</time>
      </trkpt>
      <trkpt lat="42.7208" lon="0.63612">
        <ele>1565.39</ele>
        <time>2015-11-01T16:07:00Z</time>
      </trkpt>
      <trkpt lat="42.72077" lon="0.63619">
        <ele>1565.33</ele>
        <time>2015-11-01T16:07:06Z</time>
      </trkpt>
      <trkpt lat="42.72072" lon="0.63626">
        <ele>1564.77</ele>
        <time>2015-11-01T16:07:15Z</time>
      </trkpt>
      <trkpt lat="42.72067" lon="0.6363">
        <ele>1564.6</ele>
        <time>2015-11-01T16:07:17Z</time>
      </trkpt>
      <trkpt lat="42.72061" lon="0.63639">
        <ele>1564.06</ele>
        <time>2015-11-01T16:07:22Z</time>
      </trkpt>
      <trkpt lat="42.7206" lon="0.63644">
        <ele>1563.8</ele>
        <time>2015-11-01T16:07:25Z</time>
      </trkpt>
      <trkpt lat="42.72059" lon="0.63651">
        <ele>1563.6</ele>
        <time>2015-11-01T16:07:28Z</time>
      </trkpt>
      <trkpt lat="42.72048" lon="0.63668">
        <ele>1562.71</ele>
        <time>2015-11-01T16:07:40Z</time>
      </trkpt>
      <trkpt lat="42.72046" lon="0.6367">
        <ele>1562.68</ele>
        <time>2015-11-01T16:07:41Z</time>
      </trkpt>
      <trkpt lat="42.72043" lon="0.6368">
        <ele>1562.35</ele>
        <time>2015-11-01T16:07:46Z</time>
      </trkpt>
      <trkpt lat="42.72046" lon="0.63691">
        <ele>1562.13</ele>
        <time>2015-11-01T16:07:51Z</time>
      </trkpt>
      <trkpt lat="42.72044" lon="0.63699">
        <ele>1561.73</ele>
        <time>2015-11-01T16:07:57Z</time>
      </trkpt>
      <trkpt lat="42.72044" lon="0.63702">
        <ele>1561.51</ele>
        <time>2015-11-01T16:07:59Z</time>
      </trkpt>
      <trkpt lat="42.72042" lon="0.63708">
        <ele>1561.21</ele>
        <time>2015-11-01T16:08:03Z</time>
      </trkpt>
      <trkpt lat="42.72043" lon="0.63721">
        <ele>1560.95</ele>
        <time>2015-11-01T16:08:10Z</time>
      </trkpt>
      <trkpt lat="42.72043" lon="0.63727">
        <ele>1560.81</ele>
        <time>2015-11-01T16:08:13Z</time>
      </trkpt>
      <trkpt lat="42.72043" lon="0.63732">
        <ele>1560.55</ele>
        <time>2015-11-01T16:08:17Z</time>
      </trkpt>
      <trkpt lat="42.72039" lon="0.63739">
        <ele>1560.14</ele>
        <time>2015-11-01T16:08:22Z</time>
      </trkpt>
      <trkpt lat="42.72037" lon="0.63749">
        <ele>1560.05</ele>
        <time>2015-11-01T16:08:28Z</time>
      </trkpt>
      <trkpt lat="42.72035" lon="0.63753">
        <ele>1560.1</ele>
        <time>2015-11-01T16:08:30Z</time>
      </trkpt>
      <trkpt lat="42.72032" lon="0.63755">
        <ele>1560.29</ele>
        <time>2015-11-01T16:08:33Z</time>
      </trkpt>
      <trkpt lat="42.72026" lon="0.63767">
        <ele>1559.83</ele>
        <time>2015-11-01T16:08:39Z</time>
      </trkpt>
      <trkpt lat="42.72025" lon="0.63773">
        <ele>1559.68</ele>
        <time>2015-11-01T16:08:42Z</time>
      </trkpt>
      <trkpt lat="42.72022" lon="0.63779">
        <ele>1559.33</ele>
        <time>2015-11-01T16:08:45Z</time>
      </trkpt>
      <trkpt lat="42.7202" lon="0.63784">
        <ele>1559.08</ele>
        <time>2015-11-01T16:08:48Z</time>
      </trkpt>
      <trkpt lat="42.72019" lon="0.6379">
        <ele>1558.86</ele>
        <time>2015-11-01T16:08:53Z</time>
      </trkpt>
      <trkpt lat="42.72018" lon="0.63797">
        <ele>1558.44</ele>
        <time>2015-11-01T16:08:57Z</time>
      </trkpt>
      <trkpt lat="42.72017" lon="0.63805">
        <ele>1558.41</ele>
        <time>2015-11-01T16:09:04Z</time>
      </trkpt>
      <trkpt lat="42.72015" lon="0.63811">
        <ele>1558.44</ele>
        <time>2015-11-01T16:09:08Z</time>
      </trkpt>
      <trkpt lat="42.72012" lon="0.63815">
        <ele>1558.27</ele>
        <time>2015-11-01T16:09:12Z</time>
      </trkpt>
      <trkpt lat="42.72007" lon="0.6382">
        <ele>1558.16</ele>
        <time>2015-11-01T16:09:18Z</time>
      </trkpt>
      <trkpt lat="42.72008" lon="0.63821">
        <ele>1558.21</ele>
        <time>2015-11-01T16:09:20Z</time>
      </trkpt>
      <trkpt lat="42.72004" lon="0.63828">
        <ele>1558.12</ele>
        <time>2015-11-01T16:09:25Z</time>
      </trkpt>
      <trkpt lat="42.72003" lon="0.63835">
        <ele>1557.44</ele>
        <time>2015-11-01T16:09:33Z</time>
      </trkpt>
      <trkpt lat="42.72001" lon="0.63838">
        <ele>1557.21</ele>
        <time>2015-11-01T16:09:38Z</time>
      </trkpt>
      <trkpt lat="42.71999" lon="0.63842">
        <ele>1557.01</ele>
        <time>2015-11-01T16:09:41Z</time>
      </trkpt>
      <trkpt lat="42.71994" lon="0.63846">
        <ele>1556.63</ele>
        <time>2015-11-01T16:09:46Z</time>
      </trkpt>
      <trkpt lat="42.71987" lon="0.6385">
        <ele>1556.24</ele>
        <time>2015-11-01T16:09:53Z</time>
      </trkpt>
      <trkpt lat="42.71973" lon="0.6386">
        <ele>1555.71</ele>
        <time>2015-11-01T16:10:05Z</time>
      </trkpt>
      <trkpt lat="42.71972" lon="0.6386">
        <ele>1555.62</ele>
        <time>2015-11-01T16:10:06Z</time>
      </trkpt>
      <trkpt lat="42.71969" lon="0.63863">
        <ele>1555.47</ele>
        <time>2015-11-01T16:10:09Z</time>
      </trkpt>
      <trkpt lat="42.71963" lon="0.63867">
        <ele>1555.13</ele>
        <time>2015-11-01T16:10:14Z</time>
      </trkpt>
      <trkpt lat="42.71959" lon="0.63869">
        <ele>1554.89</ele>
        <time>2015-11-01T16:10:18Z</time>
      </trkpt>
      <trkpt lat="42.71948" lon="0.63879">
        <ele>1554.18</ele>
        <time>2015-11-01T16:10:29Z</time>
      </trkpt>
      <trkpt lat="42.71943" lon="0.6388">
        <ele>1553.71</ele>
        <time>2015-11-01T16:10:35Z</time>
      </trkpt>
      <trkpt lat="42.71939" lon="0.6389">
        <ele>1553.38</ele>
        <time>2015-11-01T16:10:40Z</time>
      </trkpt>
      <trkpt lat="42.71932" lon="0.63916">
        <ele>1553.08</ele>
        <time>2015-11-01T16:10:52Z</time>
      </trkpt>
      <trkpt lat="42.71931" lon="0.63919">
        <ele>1552.87</ele>
        <time>2015-11-01T16:10:54Z</time>
      </trkpt>
      <trkpt lat="42.71931" lon="0.63927">
        <ele>1552.54</ele>
        <time>2015-11-01T16:10:58Z</time>
      </trkpt>
      <trkpt lat="42.71928" lon="0.6394">
        <ele>1552.5</ele>
        <time>2015-11-01T16:11:05Z</time>
      </trkpt>
      <trkpt lat="42.71925" lon="0.63956">
        <ele>1552.33</ele>
        <time>2015-11-01T16:11:14Z</time>
      </trkpt>
      <trkpt lat="42.71923" lon="0.63975">
        <ele>1551.67</ele>
        <time>2015-11-01T16:11:24Z</time>
      </trkpt>
      <trkpt lat="42.71923" lon="0.6399">
        <ele>1550.84</ele>
        <time>2015-11-01T16:11:32Z</time>
      </trkpt>
      <trkpt lat="42.71919" lon="0.63999">
        <ele>1550.59</ele>
        <time>2015-11-01T16:11:40Z</time>
      </trkpt>
      <trkpt lat="42.71903" lon="0.64014">
        <ele>1549.52</ele>
        <time>2015-11-01T16:11:56Z</time>
      </trkpt>
      <trkpt lat="42.71893" lon="0.64034">
        <ele>1548.43</ele>
        <time>2015-11-01T16:12:11Z</time>
      </trkpt>
      <trkpt lat="42.71891" lon="0.64056">
        <ele>1547.98</ele>
        <time>2015-11-01T16:12:28Z</time>
      </trkpt>
      <trkpt lat="42.71885" lon="0.64071">
        <ele>1547.21</ele>
        <time>2015-11-01T16:12:39Z</time>
      </trkpt>
      <trkpt lat="42.71887" lon="0.64074">
        <ele>1547.12</ele>
        <time>2015-11-01T16:12:41Z</time>
      </trkpt>
      <trkpt lat="42.71893" lon="0.64088">
        <ele>1546.3</ele>
        <time>2015-11-01T16:12:51Z</time>
      </trkpt>
      <trkpt lat="42.71889" lon="0.64101">
        <ele>1546.37</ele>
        <time>2015-11-01T16:12:57Z</time>
      </trkpt>
      <trkpt lat="42.71885" lon="0.64105">
        <ele>1546.3</ele>
        <time>2015-11-01T16:13:02Z</time>
      </trkpt>
      <trkpt lat="42.71882" lon="0.64108">
        <ele>1546.16</ele>
        <time>2015-11-01T16:13:05Z</time>
      </trkpt>
      <trkpt lat="42.71888" lon="0.64115">
        <ele>1545.61</ele>
        <time>2015-11-01T16:13:13Z</time>
      </trkpt>
      <trkpt lat="42.71899" lon="0.64124">
        <ele>1544.95</ele>
        <time>2015-11-01T16:13:21Z</time>
      </trkpt>
      <trkpt lat="42.71902" lon="0.64135">
        <ele>1544.59</ele>
        <time>2015-11-01T16:13:27Z</time>
      </trkpt>
      <trkpt lat="42.71903" lon="0.64145">
        <ele>1544.45</ele>
        <time>2015-11-01T16:13:31Z</time>
      </trkpt>
      <trkpt lat="42.71904" lon="0.64151">
        <ele>1544.35</ele>
        <time>2015-11-01T16:13:35Z</time>
      </trkpt>
      <trkpt lat="42.71905" lon="0.64156">
        <ele>1543.89</ele>
        <time>2015-11-01T16:13:38Z</time>
      </trkpt>
      <trkpt lat="42.71906" lon="0.6416">
        <ele>1543.54</ele>
        <time>2015-11-01T16:13:41Z</time>
      </trkpt>
      <trkpt lat="42.71907" lon="0.64165">
        <ele>1543.54</ele>
        <time>2015-11-01T16:13:45Z</time>
      </trkpt>
      <trkpt lat="42.71905" lon="0.64172">
        <ele>1543.31</ele>
        <time>2015-11-01T16:13:50Z</time>
      </trkpt>
      <trkpt lat="42.71905" lon="0.64178">
        <ele>1542.69</ele>
        <time>2015-11-01T16:13:55Z</time>
      </trkpt>
      <trkpt lat="42.71903" lon="0.64194">
        <ele>1542.46</ele>
        <time>2015-11-01T16:14:03Z</time>
      </trkpt>
      <trkpt lat="42.71904" lon="0.642">
        <ele>1541.93</ele>
        <time>2015-11-01T16:14:07Z</time>
      </trkpt>
      <trkpt lat="42.71903" lon="0.64203">
        <ele>1541.69</ele>
        <time>2015-11-01T16:14:09Z</time>
      </trkpt>
      <trkpt lat="42.71904" lon="0.64208">
        <ele>1541.24</ele>
        <time>2015-11-01T16:14:12Z</time>
      </trkpt>
      <trkpt lat="42.71904" lon="0.64215">
        <ele>1541.1</ele>
        <time>2015-11-01T16:14:15Z</time>
      </trkpt>
      <trkpt lat="42.71904" lon="0.64224">
        <ele>1540.98</ele>
        <time>2015-11-01T16:14:20Z</time>
      </trkpt>
      <trkpt lat="42.71903" lon="0.64229">
        <ele>1540.88</ele>
        <time>2015-11-01T16:14:22Z</time>
      </trkpt>
      <trkpt lat="42.71904" lon="0.64233">
        <ele>1540.74</ele>
        <time>2015-11-01T16:14:25Z</time>
      </trkpt>
      <trkpt lat="42.71905" lon="0.64237">
        <ele>1540.67</ele>
        <time>2015-11-01T16:14:27Z</time>
      </trkpt>
      <trkpt lat="42.719" lon="0.64246">
        <ele>1540.41</ele>
        <time>2015-11-01T16:14:32Z</time>
      </trkpt>
      <trkpt lat="42.71897" lon="0.64251">
        <ele>1540.21</ele>
        <time>2015-11-01T16:14:35Z</time>
      </trkpt>
      <trkpt lat="42.71895" lon="0.64269">
        <ele>1539.48</ele>
        <time>2015-11-01T16:14:44Z</time>
      </trkpt>
      <trkpt lat="42.71896" lon="0.64274">
        <ele>1539.33</ele>
        <time>2015-11-01T16:14:47Z</time>
      </trkpt>
      <trkpt lat="42.71894" lon="0.64292">
        <ele>1538.41</ele>
        <time>2015-11-01T16:14:59Z</time>
      </trkpt>
      <trkpt lat="42.71892" lon="0.643">
        <ele>1537.99</ele>
        <time>2015-11-01T16:15:03Z</time>
      </trkpt>
      <trkpt lat="42.71891" lon="0.64308">
        <ele>1537.75</ele>
        <time>2015-11-01T16:15:07Z</time>
      </trkpt>
      <trkpt lat="42.71888" lon="0.64323">
        <ele>1537.59</ele>
        <time>2015-11-01T16:15:15Z</time>
      </trkpt>
      <trkpt lat="42.71885" lon="0.64331">
        <ele>1537.04</ele>
        <time>2015-11-01T16:15:19Z</time>
      </trkpt>
      <trkpt lat="42.71883" lon="0.64344">
        <ele>1536.48</ele>
        <time>2015-11-01T16:15:24Z</time>
      </trkpt>
      <trkpt lat="42.71881" lon="0.64352">
        <ele>1536.06</ele>
        <time>2015-11-01T16:15:29Z</time>
      </trkpt>
      <trkpt lat="42.71885" lon="0.64368">
        <ele>1536.28</ele>
        <time>2015-11-01T16:15:38Z</time>
      </trkpt>
      <trkpt lat="42.71883" lon="0.64376">
        <ele>1535.91</ele>
        <time>2015-11-01T16:15:42Z</time>
      </trkpt>
      <trkpt lat="42.7188" lon="0.64384">
        <ele>1535.16</ele>
        <time>2015-11-01T16:15:47Z</time>
      </trkpt>
      <trkpt lat="42.7188" lon="0.64388">
        <ele>1535.21</ele>
        <time>2015-11-01T16:15:50Z</time>
      </trkpt>
      <trkpt lat="42.71879" lon="0.64397">
        <ele>1535.2</ele>
        <time>2015-11-01T16:15:59Z</time>
      </trkpt>
      <trkpt lat="42.71884" lon="0.64411">
        <ele>1534.4</ele>
        <time>2015-11-01T16:16:11Z</time>
      </trkpt>
      <trkpt lat="42.71883" lon="0.64414">
        <ele>1534.18</ele>
        <time>2015-11-01T16:16:13Z</time>
      </trkpt>
      <trkpt lat="42.71885" lon="0.64419">
        <ele>1533.94</ele>
        <time>2015-11-01T16:16:18Z</time>
      </trkpt>
      <trkpt lat="42.71889" lon="0.64424">
        <ele>1534.01</ele>
        <time>2015-11-01T16:16:22Z</time>
      </trkpt>
      <trkpt lat="42.7189" lon="0.64427">
        <ele>1533.82</ele>
        <time>2015-11-01T16:16:24Z</time>
      </trkpt>
      <trkpt lat="42.71891" lon="0.6443">
        <ele>1533.53</ele>
        <time>2015-11-01T16:16:26Z</time>
      </trkpt>
      <trkpt lat="42.71892" lon="0.64437">
        <ele>1533.32</ele>
        <time>2015-11-01T16:16:30Z</time>
      </trkpt>
      <trkpt lat="42.71892" lon="0.64441">
        <ele>1533.23</ele>
        <time>2015-11-01T16:16:33Z</time>
      </trkpt>
      <trkpt lat="42.71895" lon="0.64445">
        <ele>1533.15</ele>
        <time>2015-11-01T16:16:36Z</time>
      </trkpt>
      <trkpt lat="42.71895" lon="0.64449">
        <ele>1532.93</ele>
        <time>2015-11-01T16:16:38Z</time>
      </trkpt>
      <trkpt lat="42.71895" lon="0.64454">
        <ele>1532.41</ele>
        <time>2015-11-01T16:16:42Z</time>
      </trkpt>
      <trkpt lat="42.71895" lon="0.64463">
        <ele>1532.25</ele>
        <time>2015-11-01T16:16:49Z</time>
      </trkpt>
      <trkpt lat="42.71897" lon="0.64471">
        <ele>1531.6</ele>
        <time>2015-11-01T16:16:53Z</time>
      </trkpt>
      <trkpt lat="42.71895" lon="0.64475">
        <ele>1531.1</ele>
        <time>2015-11-01T16:16:57Z</time>
      </trkpt>
      <trkpt lat="42.71894" lon="0.64482">
        <ele>1531.03</ele>
        <time>2015-11-01T16:17:01Z</time>
      </trkpt>
      <trkpt lat="42.71897" lon="0.64488">
        <ele>1530.93</ele>
        <time>2015-11-01T16:17:04Z</time>
      </trkpt>
      <trkpt lat="42.71897" lon="0.64496">
        <ele>1530.38</ele>
        <time>2015-11-01T16:17:09Z</time>
      </trkpt>
      <trkpt lat="42.71899" lon="0.64506">
        <ele>1530.2</ele>
        <time>2015-11-01T16:17:14Z</time>
      </trkpt>
      <trkpt lat="42.71901" lon="0.64516">
        <ele>1529.86</ele>
        <time>2015-11-01T16:17:19Z</time>
      </trkpt>
      <trkpt lat="42.719" lon="0.64528">
        <ele>1529.83</ele>
        <time>2015-11-01T16:17:25Z</time>
      </trkpt>
      <trkpt lat="42.71898" lon="0.64539">
        <ele>1529.68</ele>
        <time>2015-11-01T16:17:32Z</time>
      </trkpt>
      <trkpt lat="42.71891" lon="0.64548">
        <ele>1529.83</ele>
        <time>2015-11-01T16:17:38Z</time>
      </trkpt>
      <trkpt lat="42.7189" lon="0.6455">
        <ele>1529.86</ele>
        <time>2015-11-01T16:17:41Z</time>
      </trkpt>
      <trkpt lat="42.71888" lon="0.64553">
        <ele>1529.71</ele>
        <time>2015-11-01T16:17:46Z</time>
      </trkpt>
      <trkpt lat="42.7188" lon="0.64562">
        <ele>1529.17</ele>
        <time>2015-11-01T16:17:57Z</time>
      </trkpt>
      <trkpt lat="42.71876" lon="0.64572">
        <ele>1529.62</ele>
        <time>2015-11-01T16:18:03Z</time>
      </trkpt>
      <trkpt lat="42.71875" lon="0.64583">
        <ele>1529.59</ele>
        <time>2015-11-01T16:18:09Z</time>
      </trkpt>
      <trkpt lat="42.71872" lon="0.6459">
        <ele>1529.38</ele>
        <time>2015-11-01T16:18:13Z</time>
      </trkpt>
      <trkpt lat="42.71868" lon="0.64604">
        <ele>1529.37</ele>
        <time>2015-11-01T16:18:20Z</time>
      </trkpt>
      <trkpt lat="42.7187" lon="0.64608">
        <ele>1529.38</ele>
        <time>2015-11-01T16:18:23Z</time>
      </trkpt>
      <trkpt lat="42.7187" lon="0.64612">
        <ele>1529.38</ele>
        <time>2015-11-01T16:18:25Z</time>
      </trkpt>
      <trkpt lat="42.71867" lon="0.64621">
        <ele>1529.25</ele>
        <time>2015-11-01T16:18:30Z</time>
      </trkpt>
      <trkpt lat="42.71865" lon="0.64628">
        <ele>1528.91</ele>
        <time>2015-11-01T16:18:35Z</time>
      </trkpt>
      <trkpt lat="42.71864" lon="0.64636">
        <ele>1528.55</ele>
        <time>2015-11-01T16:18:40Z</time>
      </trkpt>
      <trkpt lat="42.71861" lon="0.64641">
        <ele>1528.32</ele>
        <time>2015-11-01T16:18:43Z</time>
      </trkpt>
      <trkpt lat="42.71859" lon="0.64645">
        <ele>1527.9</ele>
        <time>2015-11-01T16:18:46Z</time>
      </trkpt>
      <trkpt lat="42.71857" lon="0.64654">
        <ele>1527.43</ele>
        <time>2015-11-01T16:18:51Z</time>
      </trkpt>
      <trkpt lat="42.71858" lon="0.64659">
        <ele>1527.19</ele>
        <time>2015-11-01T16:18:54Z</time>
      </trkpt>
      <trkpt lat="42.71856" lon="0.64676">
        <ele>1526.06</ele>
        <time>2015-11-01T16:19:04Z</time>
      </trkpt>
      <trkpt lat="42.71855" lon="0.64681">
        <ele>1525.83</ele>
        <time>2015-11-01T16:19:07Z</time>
      </trkpt>
      <trkpt lat="42.71845" lon="0.64697">
        <ele>1525.49</ele>
        <time>2015-11-01T16:19:18Z</time>
      </trkpt>
      <trkpt lat="42.71839" lon="0.64701">
        <ele>1524.94</ele>
        <time>2015-11-01T16:19:23Z</time>
      </trkpt>
      <trkpt lat="42.71835" lon="0.64717">
        <ele>1524.34</ele>
        <time>2015-11-01T16:19:33Z</time>
      </trkpt>
      <trkpt lat="42.71827" lon="0.64729">
        <ele>1523.45</ele>
        <time>2015-11-01T16:19:42Z</time>
      </trkpt>
      <trkpt lat="42.71827" lon="0.64733">
        <ele>1522.95</ele>
        <time>2015-11-01T16:19:44Z</time>
      </trkpt>
      <trkpt lat="42.71824" lon="0.64742">
        <ele>1522.19</ele>
        <time>2015-11-01T16:19:49Z</time>
      </trkpt>
      <trkpt lat="42.71824" lon="0.64746">
        <ele>1521.73</ele>
        <time>2015-11-01T16:19:54Z</time>
      </trkpt>
      <trkpt lat="42.71825" lon="0.64754">
        <ele>1522.25</ele>
        <time>2015-11-01T16:20:00Z</time>
      </trkpt>
      <trkpt lat="42.71823" lon="0.64762">
        <ele>1522.52</ele>
        <time>2015-11-01T16:20:06Z</time>
      </trkpt>
      <trkpt lat="42.71823" lon="0.64766">
        <ele>1522.51</ele>
        <time>2015-11-01T16:20:09Z</time>
      </trkpt>
      <trkpt lat="42.71822" lon="0.64772">
        <ele>1522.15</ele>
        <time>2015-11-01T16:20:13Z</time>
      </trkpt>
      <trkpt lat="42.7182" lon="0.64779">
        <ele>1521.83</ele>
        <time>2015-11-01T16:20:17Z</time>
      </trkpt>
      <trkpt lat="42.71815" lon="0.6479">
        <ele>1521.67</ele>
        <time>2015-11-01T16:20:24Z</time>
      </trkpt>
      <trkpt lat="42.71812" lon="0.64794">
        <ele>1521.61</ele>
        <time>2015-11-01T16:20:27Z</time>
      </trkpt>
      <trkpt lat="42.7181" lon="0.64799">
        <ele>1521.27</ele>
        <time>2015-11-01T16:20:31Z</time>
      </trkpt>
      <trkpt lat="42.7181" lon="0.64805">
        <ele>1520.5</ele>
        <time>2015-11-01T16:20:36Z</time>
      </trkpt>
      <trkpt lat="42.71806" lon="0.64812">
        <ele>1520.3</ele>
        <time>2015-11-01T16:20:42Z</time>
      </trkpt>
      <trkpt lat="42.71805" lon="0.64817">
        <ele>1520.07</ele>
        <time>2015-11-01T16:20:46Z</time>
      </trkpt>
      <trkpt lat="42.71796" lon="0.64827">
        <ele>1519.97</ele>
        <time>2015-11-01T16:20:53Z</time>
      </trkpt>
      <trkpt lat="42.71795" lon="0.64836">
        <ele>1521.57</ele>
        <time>2015-11-01T16:21:02Z</time>
      </trkpt>
      <trkpt lat="42.7179" lon="0.64842">
        <ele>1522.34</ele>
        <time>2015-11-01T16:21:08Z</time>
      </trkpt>
      <trkpt lat="42.71791" lon="0.64852">
        <ele>1522.03</ele>
        <time>2015-11-01T16:21:14Z</time>
      </trkpt>
      <trkpt lat="42.71792" lon="0.64857">
        <ele>1521.38</ele>
        <time>2015-11-01T16:21:17Z</time>
      </trkpt>
      <trkpt lat="42.71793" lon="0.64869">
        <ele>1519.59</ele>
        <time>2015-11-01T16:21:23Z</time>
      </trkpt>
      <trkpt lat="42.71792" lon="0.64873">
        <ele>1518.97</ele>
        <time>2015-11-01T16:21:26Z</time>
      </trkpt>
      <trkpt lat="42.71789" lon="0.6488">
        <ele>1517.78</ele>
        <time>2015-11-01T16:21:30Z</time>
      </trkpt>
      <trkpt lat="42.71789" lon="0.64885">
        <ele>1517.19</ele>
        <time>2015-11-01T16:21:33Z</time>
      </trkpt>
      <trkpt lat="42.71789" lon="0.64887">
        <ele>1516.81</ele>
        <time>2015-11-01T16:21:35Z</time>
      </trkpt>
      <trkpt lat="42.71789" lon="0.64892">
        <ele>1516.22</ele>
        <time>2015-11-01T16:21:38Z</time>
      </trkpt>
      <trkpt lat="42.7179" lon="0.649">
        <ele>1515.11</ele>
        <time>2015-11-01T16:21:45Z</time>
      </trkpt>
      <trkpt lat="42.71781" lon="0.64912">
        <ele>1515.53</ele>
        <time>2015-11-01T16:21:54Z</time>
      </trkpt>
      <trkpt lat="42.71779" lon="0.64921">
        <ele>1515.41</ele>
        <time>2015-11-01T16:21:59Z</time>
      </trkpt>
      <trkpt lat="42.71776" lon="0.64935">
        <ele>1514.93</ele>
        <time>2015-11-01T16:22:09Z</time>
      </trkpt>
      <trkpt lat="42.71774" lon="0.64939">
        <ele>1514.97</ele>
        <time>2015-11-01T16:22:12Z</time>
      </trkpt>
      <trkpt lat="42.71771" lon="0.64949">
        <ele>1514.98</ele>
        <time>2015-11-01T16:22:17Z</time>
      </trkpt>
      <trkpt lat="42.71771" lon="0.64952">
        <ele>1514.92</ele>
        <time>2015-11-01T16:22:19Z</time>
      </trkpt>
      <trkpt lat="42.7177" lon="0.64954">
        <ele>1514.83</ele>
        <time>2015-11-01T16:22:21Z</time>
      </trkpt>
      <trkpt lat="42.71766" lon="0.64962">
        <ele>1514.8</ele>
        <time>2015-11-01T16:22:28Z</time>
      </trkpt>
      <trkpt lat="42.71767" lon="0.64971">
        <ele>1514.84</ele>
        <time>2015-11-01T16:22:33Z</time>
      </trkpt>
      <trkpt lat="42.71773" lon="0.64986">
        <ele>1513.68</ele>
        <time>2015-11-01T16:22:43Z</time>
      </trkpt>
      <trkpt lat="42.71774" lon="0.64998">
        <ele>1513.27</ele>
        <time>2015-11-01T16:22:49Z</time>
      </trkpt>
      <trkpt lat="42.71772" lon="0.65002">
        <ele>1513.05</ele>
        <time>2015-11-01T16:22:52Z</time>
      </trkpt>
      <trkpt lat="42.71766" lon="0.65014">
        <ele>1512.46</ele>
        <time>2015-11-01T16:22:58Z</time>
      </trkpt>
      <trkpt lat="42.71766" lon="0.65017">
        <ele>1512.33</ele>
        <time>2015-11-01T16:23:00Z</time>
      </trkpt>
      <trkpt lat="42.71767" lon="0.65021">
        <ele>1512.19</ele>
        <time>2015-11-01T16:23:02Z</time>
      </trkpt>
      <trkpt lat="42.71763" lon="0.65033">
        <ele>1511.78</ele>
        <time>2015-11-01T16:23:08Z</time>
      </trkpt>
      <trkpt lat="42.7176" lon="0.65041">
        <ele>1511.47</ele>
        <time>2015-11-01T16:23:17Z</time>
      </trkpt>
      <trkpt lat="42.71757" lon="0.65044">
        <ele>1511.19</ele>
        <time>2015-11-01T16:23:21Z</time>
      </trkpt>
      <trkpt lat="42.71753" lon="0.65045">
        <ele>1510.9</ele>
        <time>2015-11-01T16:23:25Z</time>
      </trkpt>
      <trkpt lat="42.71744" lon="0.65054">
        <ele>1510.62</ele>
        <time>2015-11-01T16:23:35Z</time>
      </trkpt>
      <trkpt lat="42.71731" lon="0.6506">
        <ele>1509.79</ele>
        <time>2015-11-01T16:23:47Z</time>
      </trkpt>
      <trkpt lat="42.71726" lon="0.65065">
        <ele>1509.58</ele>
        <time>2015-11-01T16:23:50Z</time>
      </trkpt>
      <trkpt lat="42.71723" lon="0.65067">
        <ele>1509.39</ele>
        <time>2015-11-01T16:23:52Z</time>
      </trkpt>
      <trkpt lat="42.7172" lon="0.65072">
        <ele>1509.13</ele>
        <time>2015-11-01T16:23:56Z</time>
      </trkpt>
      <trkpt lat="42.71719" lon="0.65074">
        <ele>1508.98</ele>
        <time>2015-11-01T16:24:00Z</time>
      </trkpt>
      <trkpt lat="42.71714" lon="0.6508">
        <ele>1508.27</ele>
        <time>2015-11-01T16:24:06Z</time>
      </trkpt>
      <trkpt lat="42.71711" lon="0.65084">
        <ele>1507.74</ele>
        <time>2015-11-01T16:24:11Z</time>
      </trkpt>
      <trkpt lat="42.71704" lon="0.65087">
        <ele>1507.17</ele>
        <time>2015-11-01T16:24:16Z</time>
      </trkpt>
      <trkpt lat="42.71697" lon="0.65092">
        <ele>1506.65</ele>
        <time>2015-11-01T16:24:21Z</time>
      </trkpt>
      <trkpt lat="42.71693" lon="0.65099">
        <ele>1505.67</ele>
        <time>2015-11-01T16:24:27Z</time>
      </trkpt>
      <trkpt lat="42.71684" lon="0.65105">
        <ele>1505.65</ele>
        <time>2015-11-01T16:24:33Z</time>
      </trkpt>
      <trkpt lat="42.7168" lon="0.65109">
        <ele>1505.67</ele>
        <time>2015-11-01T16:24:37Z</time>
      </trkpt>
      <trkpt lat="42.71674" lon="0.65116">
        <ele>1505.48</ele>
        <time>2015-11-01T16:24:41Z</time>
      </trkpt>
      <trkpt lat="42.71673" lon="0.65119">
        <ele>1505.29</ele>
        <time>2015-11-01T16:24:44Z</time>
      </trkpt>
      <trkpt lat="42.71669" lon="0.65122">
        <ele>1504.84</ele>
        <time>2015-11-01T16:24:50Z</time>
      </trkpt>
      <trkpt lat="42.71664" lon="0.65126">
        <ele>1504.77</ele>
        <time>2015-11-01T16:24:54Z</time>
      </trkpt>
      <trkpt lat="42.71658" lon="0.65129">
        <ele>1504.67</ele>
        <time>2015-11-01T16:24:57Z</time>
      </trkpt>
      <trkpt lat="42.71646" lon="0.6514">
        <ele>1504.71</ele>
        <time>2015-11-01T16:25:08Z</time>
      </trkpt>
      <trkpt lat="42.71642" lon="0.65142">
        <ele>1504.57</ele>
        <time>2015-11-01T16:25:12Z</time>
      </trkpt>
      <trkpt lat="42.71634" lon="0.65143">
        <ele>1504.41</ele>
        <time>2015-11-01T16:25:17Z</time>
      </trkpt>
      <trkpt lat="42.71626" lon="0.65147">
        <ele>1504.39</ele>
        <time>2015-11-01T16:25:22Z</time>
      </trkpt>
      <trkpt lat="42.71616" lon="0.65147">
        <ele>1504.63</ele>
        <time>2015-11-01T16:25:28Z</time>
      </trkpt>
      <trkpt lat="42.71613" lon="0.65147">
        <ele>1504.71</ele>
        <time>2015-11-01T16:25:31Z</time>
      </trkpt>
      <trkpt lat="42.71607" lon="0.65148">
        <ele>1505.22</ele>
        <time>2015-11-01T16:25:37Z</time>
      </trkpt>
      <trkpt lat="42.71596" lon="0.65152">
        <ele>1506.08</ele>
        <time>2015-11-01T16:25:49Z</time>
      </trkpt>
      <trkpt lat="42.71601" lon="0.65166">
        <ele>1505.52</ele>
        <time>2015-11-01T16:25:59Z</time>
      </trkpt>
      <trkpt lat="42.71604" lon="0.6518">
        <ele>1506.14</ele>
        <time>2015-11-01T16:26:09Z</time>
      </trkpt>
      <trkpt lat="42.71615" lon="0.65193">
        <ele>1505.14</ele>
        <time>2015-11-01T16:26:21Z</time>
      </trkpt>
      <trkpt lat="42.71619" lon="0.65197">
        <ele>1504.31</ele>
        <time>2015-11-01T16:26:25Z</time>
      </trkpt>
      <trkpt lat="42.71622" lon="0.65202">
        <ele>1503.41</ele>
        <time>2015-11-01T16:26:29Z</time>
      </trkpt>
      <trkpt lat="42.71624" lon="0.65204">
        <ele>1502.91</ele>
        <time>2015-11-01T16:26:31Z</time>
      </trkpt>
      <trkpt lat="42.7163" lon="0.65213">
        <ele>1502</ele>
        <time>2015-11-01T16:26:38Z</time>
      </trkpt>
      <trkpt lat="42.71633" lon="0.65214">
        <ele>1501.8</ele>
        <time>2015-11-01T16:26:40Z</time>
      </trkpt>
      <trkpt lat="42.71644" lon="0.65224">
        <ele>1500.39</ele>
        <time>2015-11-01T16:26:49Z</time>
      </trkpt>
      <trkpt lat="42.71652" lon="0.6523">
        <ele>1499.24</ele>
        <time>2015-11-01T16:26:56Z</time>
      </trkpt>
      <trkpt lat="42.71671" lon="0.65236">
        <ele>1497.44</ele>
        <time>2015-11-01T16:27:11Z</time>
      </trkpt>
      <trkpt lat="42.71689" lon="0.6524">
        <ele>1496.24</ele>
        <time>2015-11-01T16:27:24Z</time>
      </trkpt>
      <trkpt lat="42.71699" lon="0.65244">
        <ele>1495.83</ele>
        <time>2015-11-01T16:27:31Z</time>
      </trkpt>
      <trkpt lat="42.71704" lon="0.65247">
        <ele>1495.84</ele>
        <time>2015-11-01T16:27:35Z</time>
      </trkpt>
      <trkpt lat="42.71709" lon="0.6525">
        <ele>1495.74</ele>
        <time>2015-11-01T16:27:39Z</time>
      </trkpt>
      <trkpt lat="42.71716" lon="0.65254">
        <ele>1495.01</ele>
        <time>2015-11-01T16:27:45Z</time>
      </trkpt>
      <trkpt lat="42.71718" lon="0.65255">
        <ele>1494.97</ele>
        <time>2015-11-01T16:27:46Z</time>
      </trkpt>
      <trkpt lat="42.71719" lon="0.65256">
        <ele>1494.93</ele>
        <time>2015-11-01T16:27:47Z</time>
      </trkpt>
      <trkpt lat="42.7172" lon="0.65256">
        <ele>1494.89</ele>
        <time>2015-11-01T16:27:48Z</time>
      </trkpt>
      <trkpt lat="42.71721" lon="0.65257">
        <ele>1494.85</ele>
        <time>2015-11-01T16:27:49Z</time>
      </trkpt>
      <trkpt lat="42.71736" lon="0.65266">
        <ele>1493.7</ele>
        <time>2015-11-01T16:28:01Z</time>
      </trkpt>
      <trkpt lat="42.71742" lon="0.65268">
        <ele>1493.73</ele>
        <time>2015-11-01T16:28:05Z</time>
      </trkpt>
      <trkpt lat="42.71743" lon="0.65269">
        <ele>1493.69</ele>
        <time>2015-11-01T16:28:06Z</time>
      </trkpt>
      <trkpt lat="42.71744" lon="0.6527">
        <ele>1493.66</ele>
        <time>2015-11-01T16:28:07Z</time>
      </trkpt>
      <trkpt lat="42.71746" lon="0.6527">
        <ele>1493.6</ele>
        <time>2015-11-01T16:28:08Z</time>
      </trkpt>
      <trkpt lat="42.71747" lon="0.6527">
        <ele>1493.59</ele>
        <time>2015-11-01T16:28:09Z</time>
      </trkpt>
      <trkpt lat="42.71748" lon="0.65271">
        <ele>1493.56</ele>
        <time>2015-11-01T16:28:10Z</time>
      </trkpt>
      <trkpt lat="42.71749" lon="0.65272">
        <ele>1493.5</ele>
        <time>2015-11-01T16:28:11Z</time>
      </trkpt>
      <trkpt lat="42.7175" lon="0.65272">
        <ele>1493.46</ele>
        <time>2015-11-01T16:28:12Z</time>
      </trkpt>
      <trkpt lat="42.71751" lon="0.65273">
        <ele>1493.39</ele>
        <time>2015-11-01T16:28:13Z</time>
      </trkpt>
      <trkpt lat="42.71753" lon="0.65274">
        <ele>1493.3</ele>
        <time>2015-11-01T16:28:14Z</time>
      </trkpt>
      <trkpt lat="42.71754" lon="0.65274">
        <ele>1493.15</ele>
        <time>2015-11-01T16:28:15Z</time>
      </trkpt>
      <trkpt lat="42.71755" lon="0.65275">
        <ele>1492.98</ele>
        <time>2015-11-01T16:28:16Z</time>
      </trkpt>
      <trkpt lat="42.71756" lon="0.65275">
        <ele>1492.83</ele>
        <time>2015-11-01T16:28:17Z</time>
      </trkpt>
      <trkpt lat="42.71757" lon="0.65275">
        <ele>1492.69</ele>
        <time>2015-11-01T16:28:18Z</time>
      </trkpt>
      <trkpt lat="42.71773" lon="0.65282">
        <ele>1490.66</ele>
        <time>2015-11-01T16:28:31Z</time>
      </trkpt>
      <trkpt lat="42.71784" lon="0.65291">
        <ele>1489.22</ele>
        <time>2015-11-01T16:28:41Z</time>
      </trkpt>
      <trkpt lat="42.71786" lon="0.65295">
        <ele>1488.81</ele>
        <time>2015-11-01T16:28:44Z</time>
      </trkpt>
      <trkpt lat="42.71787" lon="0.65297">
        <ele>1488.68</ele>
        <time>2015-11-01T16:28:45Z</time>
      </trkpt>
      <trkpt lat="42.71788" lon="0.65299">
        <ele>1488.55</ele>
        <time>2015-11-01T16:28:46Z</time>
      </trkpt>
      <trkpt lat="42.71789" lon="0.653">
        <ele>1488.43</ele>
        <time>2015-11-01T16:28:47Z</time>
      </trkpt>
      <trkpt lat="42.7179" lon="0.65302">
        <ele>1488.32</ele>
        <time>2015-11-01T16:28:48Z</time>
      </trkpt>
      <trkpt lat="42.71791" lon="0.65305">
        <ele>1488.2</ele>
        <time>2015-11-01T16:28:49Z</time>
      </trkpt>
      <trkpt lat="42.71792" lon="0.65307">
        <ele>1488.1</ele>
        <time>2015-11-01T16:28:50Z</time>
      </trkpt>
      <trkpt lat="42.71793" lon="0.65309">
        <ele>1487.97</ele>
        <time>2015-11-01T16:28:51Z</time>
      </trkpt>
      <trkpt lat="42.71794" lon="0.6531">
        <ele>1487.82</ele>
        <time>2015-11-01T16:28:52Z</time>
      </trkpt>
      <trkpt lat="42.71794" lon="0.65313">
        <ele>1487.51</ele>
        <time>2015-11-01T16:28:54Z</time>
      </trkpt>
      <trkpt lat="42.71804" lon="0.65331">
        <ele>1485.2</ele>
        <time>2015-11-01T16:29:08Z</time>
      </trkpt>
      <trkpt lat="42.7181" lon="0.65335">
        <ele>1484.86</ele>
        <time>2015-11-01T16:29:12Z</time>
      </trkpt>
      <trkpt lat="42.71811" lon="0.65336">
        <ele>1484.72</ele>
        <time>2015-11-01T16:29:13Z</time>
      </trkpt>
      <trkpt lat="42.71813" lon="0.65337">
        <ele>1484.56</ele>
        <time>2015-11-01T16:29:14Z</time>
      </trkpt>
      <trkpt lat="42.71814" lon="0.65337">
        <ele>1484.43</ele>
        <time>2015-11-01T16:29:15Z</time>
      </trkpt>
      <trkpt lat="42.71815" lon="0.65338">
        <ele>1484.32</ele>
        <time>2015-11-01T16:29:16Z</time>
      </trkpt>
      <trkpt lat="42.71817" lon="0.65339">
        <ele>1484.25</ele>
        <time>2015-11-01T16:29:17Z</time>
      </trkpt>
      <trkpt lat="42.71818" lon="0.6534">
        <ele>1484.19</ele>
        <time>2015-11-01T16:29:18Z</time>
      </trkpt>
      <trkpt lat="42.71819" lon="0.6534">
        <ele>1484.14</ele>
        <time>2015-11-01T16:29:19Z</time>
      </trkpt>
      <trkpt lat="42.71821" lon="0.6534">
        <ele>1484.11</ele>
        <time>2015-11-01T16:29:20Z</time>
      </trkpt>
      <trkpt lat="42.71832" lon="0.65347">
        <ele>1483.56</ele>
        <time>2015-11-01T16:29:29Z</time>
      </trkpt>
      <trkpt lat="42.71833" lon="0.65348">
        <ele>1483.56</ele>
        <time>2015-11-01T16:29:30Z</time>
      </trkpt>
      <trkpt lat="42.71851" lon="0.65358">
        <ele>1482.9</ele>
        <time>2015-11-01T16:29:43Z</time>
      </trkpt>
      <trkpt lat="42.71854" lon="0.65362">
        <ele>1482.89</ele>
        <time>2015-11-01T16:29:46Z</time>
      </trkpt>
      <trkpt lat="42.71854" lon="0.65363">
        <ele>1482.88</ele>
        <time>2015-11-01T16:29:47Z</time>
      </trkpt>
      <trkpt lat="42.71856" lon="0.65366">
        <ele>1482.84</ele>
        <time>2015-11-01T16:29:49Z</time>
      </trkpt>
      <trkpt lat="42.71857" lon="0.65367">
        <ele>1482.8</ele>
        <time>2015-11-01T16:29:50Z</time>
      </trkpt>
      <trkpt lat="42.71858" lon="0.65369">
        <ele>1482.76</ele>
        <time>2015-11-01T16:29:51Z</time>
      </trkpt>
      <trkpt lat="42.71867" lon="0.65381">
        <ele>1482.98</ele>
        <time>2015-11-01T16:30:02Z</time>
      </trkpt>
      <trkpt lat="42.71869" lon="0.65382">
        <ele>1482.95</ele>
        <time>2015-11-01T16:30:03Z</time>
      </trkpt>
      <trkpt lat="42.71869" lon="0.65383">
        <ele>1482.93</ele>
        <time>2015-11-01T16:30:04Z</time>
      </trkpt>
      <trkpt lat="42.7187" lon="0.65384">
        <ele>1482.91</ele>
        <time>2015-11-01T16:30:05Z</time>
      </trkpt>
      <trkpt lat="42.71871" lon="0.65385">
        <ele>1482.91</ele>
        <time>2015-11-01T16:30:06Z</time>
      </trkpt>
      <trkpt lat="42.71872" lon="0.65386">
        <ele>1482.91</ele>
        <time>2015-11-01T16:30:07Z</time>
      </trkpt>
      <trkpt lat="42.71888" lon="0.65393">
        <ele>1482.25</ele>
        <time>2015-11-01T16:30:21Z</time>
      </trkpt>
      <trkpt lat="42.71889" lon="0.65393">
        <ele>1482.14</ele>
        <time>2015-11-01T16:30:22Z</time>
      </trkpt>
      <trkpt lat="42.7189" lon="0.65393">
        <ele>1481.97</ele>
        <time>2015-11-01T16:30:23Z</time>
      </trkpt>
      <trkpt lat="42.71892" lon="0.65394">
        <ele>1481.77</ele>
        <time>2015-11-01T16:30:24Z</time>
      </trkpt>
      <trkpt lat="42.71896" lon="0.65396">
        <ele>1481.35</ele>
        <time>2015-11-01T16:30:27Z</time>
      </trkpt>
      <trkpt lat="42.71898" lon="0.65396">
        <ele>1481.27</ele>
        <time>2015-11-01T16:30:28Z</time>
      </trkpt>
      <trkpt lat="42.71899" lon="0.65396">
        <ele>1481.2</ele>
        <time>2015-11-01T16:30:29Z</time>
      </trkpt>
      <trkpt lat="42.719" lon="0.65396">
        <ele>1481.09</ele>
        <time>2015-11-01T16:30:30Z</time>
      </trkpt>
      <trkpt lat="42.71902" lon="0.65396">
        <ele>1481.01</ele>
        <time>2015-11-01T16:30:31Z</time>
      </trkpt>
      <trkpt lat="42.71902" lon="0.65395">
        <ele>1480.89</ele>
        <time>2015-11-01T16:30:32Z</time>
      </trkpt>
      <trkpt lat="42.71904" lon="0.65395">
        <ele>1480.77</ele>
        <time>2015-11-01T16:30:33Z</time>
      </trkpt>
      <trkpt lat="42.71905" lon="0.65395">
        <ele>1480.65</ele>
        <time>2015-11-01T16:30:34Z</time>
      </trkpt>
      <trkpt lat="42.71921" lon="0.65409">
        <ele>1478.92</ele>
        <time>2015-11-01T16:30:49Z</time>
      </trkpt>
      <trkpt lat="42.71925" lon="0.65429">
        <ele>1478.01</ele>
        <time>2015-11-01T16:31:01Z</time>
      </trkpt>
      <trkpt lat="42.71926" lon="0.65436">
        <ele>1477.02</ele>
        <time>2015-11-01T16:31:06Z</time>
      </trkpt>
      <trkpt lat="42.71929" lon="0.65438">
        <ele>1476.89</ele>
        <time>2015-11-01T16:31:08Z</time>
      </trkpt>
      <trkpt lat="42.71928" lon="0.65441">
        <ele>1476.86</ele>
        <time>2015-11-01T16:31:09Z</time>
      </trkpt>
      <trkpt lat="42.71934" lon="0.65455">
        <ele>1475.26</ele>
        <time>2015-11-01T16:31:20Z</time>
      </trkpt>
      <trkpt lat="42.71935" lon="0.65455">
        <ele>1475.08</ele>
        <time>2015-11-01T16:31:21Z</time>
      </trkpt>
      <trkpt lat="42.7195" lon="0.65467">
        <ele>1472.63</ele>
        <time>2015-11-01T16:31:34Z</time>
      </trkpt>
      <trkpt lat="42.71951" lon="0.65468">
        <ele>1472.43</ele>
        <time>2015-11-01T16:31:35Z</time>
      </trkpt>
      <trkpt lat="42.71952" lon="0.65468">
        <ele>1472.22</ele>
        <time>2015-11-01T16:31:36Z</time>
      </trkpt>
      <trkpt lat="42.71954" lon="0.65468">
        <ele>1471.97</ele>
        <time>2015-11-01T16:31:37Z</time>
      </trkpt>
      <trkpt lat="42.71956" lon="0.65468">
        <ele>1471.71</ele>
        <time>2015-11-01T16:31:38Z</time>
      </trkpt>
      <trkpt lat="42.71966" lon="0.65476">
        <ele>1470.24</ele>
        <time>2015-11-01T16:31:48Z</time>
      </trkpt>
      <trkpt lat="42.71967" lon="0.65477">
        <ele>1470.06</ele>
        <time>2015-11-01T16:31:49Z</time>
      </trkpt>
      <trkpt lat="42.71968" lon="0.65478">
        <ele>1469.89</ele>
        <time>2015-11-01T16:31:50Z</time>
      </trkpt>
      <trkpt lat="42.71973" lon="0.65484">
        <ele>1469.08</ele>
        <time>2015-11-01T16:31:54Z</time>
      </trkpt>
      <trkpt lat="42.71973" lon="0.65485">
        <ele>1468.94</ele>
        <time>2015-11-01T16:31:55Z</time>
      </trkpt>
      <trkpt lat="42.7198" lon="0.65509">
        <ele>1466.7</ele>
        <time>2015-11-01T16:32:09Z</time>
      </trkpt>
      <trkpt lat="42.71983" lon="0.65527">
        <ele>1464.93</ele>
        <time>2015-11-01T16:32:19Z</time>
      </trkpt>
      <trkpt lat="42.71984" lon="0.65529">
        <ele>1464.63</ele>
        <time>2015-11-01T16:32:20Z</time>
      </trkpt>
      <trkpt lat="42.71984" lon="0.6553">
        <ele>1464.52</ele>
        <time>2015-11-01T16:32:21Z</time>
      </trkpt>
      <trkpt lat="42.71984" lon="0.65532">
        <ele>1464.41</ele>
        <time>2015-11-01T16:32:22Z</time>
      </trkpt>
      <trkpt lat="42.71984" lon="0.65534">
        <ele>1464.31</ele>
        <time>2015-11-01T16:32:23Z</time>
      </trkpt>
      <trkpt lat="42.71984" lon="0.65536">
        <ele>1464.18</ele>
        <time>2015-11-01T16:32:24Z</time>
      </trkpt>
      <trkpt lat="42.71984" lon="0.65537">
        <ele>1464.03</ele>
        <time>2015-11-01T16:32:25Z</time>
      </trkpt>
      <trkpt lat="42.71984" lon="0.65539">
        <ele>1463.91</ele>
        <time>2015-11-01T16:32:26Z</time>
      </trkpt>
      <trkpt lat="42.71983" lon="0.65548">
        <ele>1463.28</ele>
        <time>2015-11-01T16:32:31Z</time>
      </trkpt>
      <trkpt lat="42.71983" lon="0.65556">
        <ele>1462.73</ele>
        <time>2015-11-01T16:32:36Z</time>
      </trkpt>
      <trkpt lat="42.71982" lon="0.65557">
        <ele>1462.62</ele>
        <time>2015-11-01T16:32:37Z</time>
      </trkpt>
      <trkpt lat="42.71981" lon="0.65559">
        <ele>1462.53</ele>
        <time>2015-11-01T16:32:38Z</time>
      </trkpt>
      <trkpt lat="42.71981" lon="0.65561">
        <ele>1462.43</ele>
        <time>2015-11-01T16:32:39Z</time>
      </trkpt>
      <trkpt lat="42.71981" lon="0.65563">
        <ele>1462.34</ele>
        <time>2015-11-01T16:32:40Z</time>
      </trkpt>
      <trkpt lat="42.71981" lon="0.65565">
        <ele>1462.25</ele>
        <time>2015-11-01T16:32:41Z</time>
      </trkpt>
      <trkpt lat="42.71981" lon="0.65567">
        <ele>1462.15</ele>
        <time>2015-11-01T16:32:42Z</time>
      </trkpt>
      <trkpt lat="42.71981" lon="0.65569">
        <ele>1462.06</ele>
        <time>2015-11-01T16:32:43Z</time>
      </trkpt>
      <trkpt lat="42.71979" lon="0.65577">
        <ele>1461.62</ele>
        <time>2015-11-01T16:32:47Z</time>
      </trkpt>
      <trkpt lat="42.71979" lon="0.65579">
        <ele>1461.47</ele>
        <time>2015-11-01T16:32:48Z</time>
      </trkpt>
      <trkpt lat="42.71979" lon="0.6558">
        <ele>1461.29</ele>
        <time>2015-11-01T16:32:49Z</time>
      </trkpt>
      <trkpt lat="42.71979" lon="0.65581">
        <ele>1461.15</ele>
        <time>2015-11-01T16:32:50Z</time>
      </trkpt>
      <trkpt lat="42.71979" lon="0.65583">
        <ele>1460.97</ele>
        <time>2015-11-01T16:32:51Z</time>
      </trkpt>
      <trkpt lat="42.71979" lon="0.65585">
        <ele>1460.78</ele>
        <time>2015-11-01T16:32:52Z</time>
      </trkpt>
      <trkpt lat="42.71978" lon="0.65587">
        <ele>1460.62</ele>
        <time>2015-11-01T16:32:53Z</time>
      </trkpt>
      <trkpt lat="42.71978" lon="0.65589">
        <ele>1460.47</ele>
        <time>2015-11-01T16:32:54Z</time>
      </trkpt>
      <trkpt lat="42.71979" lon="0.65591">
        <ele>1460.33</ele>
        <time>2015-11-01T16:32:55Z</time>
      </trkpt>
      <trkpt lat="42.7198" lon="0.65592">
        <ele>1460.21</ele>
        <time>2015-11-01T16:32:56Z</time>
      </trkpt>
      <trkpt lat="42.7198" lon="0.65594">
        <ele>1460.12</ele>
        <time>2015-11-01T16:32:57Z</time>
      </trkpt>
      <trkpt lat="42.7198" lon="0.65596">
        <ele>1460.03</ele>
        <time>2015-11-01T16:32:58Z</time>
      </trkpt>
      <trkpt lat="42.7198" lon="0.65604">
        <ele>1459.73</ele>
        <time>2015-11-01T16:33:03Z</time>
      </trkpt>
      <trkpt lat="42.71979" lon="0.65606">
        <ele>1459.65</ele>
        <time>2015-11-01T16:33:04Z</time>
      </trkpt>
      <trkpt lat="42.71976" lon="0.65614">
        <ele>1458.5</ele>
        <time>2015-11-01T16:33:09Z</time>
      </trkpt>
      <trkpt lat="42.71974" lon="0.65617">
        <ele>1457.99</ele>
        <time>2015-11-01T16:33:11Z</time>
      </trkpt>
      <trkpt lat="42.71974" lon="0.65619">
        <ele>1457.89</ele>
        <time>2015-11-01T16:33:12Z</time>
      </trkpt>
      <trkpt lat="42.71975" lon="0.6564">
        <ele>1456.76</ele>
        <time>2015-11-01T16:33:24Z</time>
      </trkpt>
      <trkpt lat="42.71977" lon="0.65643">
        <ele>1456.51</ele>
        <time>2015-11-01T16:33:26Z</time>
      </trkpt>
      <trkpt lat="42.71987" lon="0.65653">
        <ele>1456.62</ele>
        <time>2015-11-01T16:33:34Z</time>
      </trkpt>
      <trkpt lat="42.7199" lon="0.65656">
        <ele>1455.91</ele>
        <time>2015-11-01T16:33:40Z</time>
      </trkpt>
      <trkpt lat="42.71995" lon="0.65651">
        <ele>1455.42</ele>
        <time>2015-11-01T16:33:45Z</time>
      </trkpt>
      <trkpt lat="42.72031" lon="0.6562">
        <ele>1455.58</ele>
        <time>2015-11-01T16:34:11Z</time>
      </trkpt>
      <trkpt lat="42.72032" lon="0.6561">
        <ele>1455.47</ele>
        <time>2015-11-01T16:34:25Z</time>
      </trkpt>
      <trkpt lat="42.72033" lon="0.65609">
        <ele>1455.44</ele>
        <time>2015-11-01T16:34:26Z</time>
      </trkpt>
      <trkpt lat="42.72039" lon="0.65599">
        <ele>1455.4</ele>
        <time>2015-11-01T16:34:36Z</time>
      </trkpt>
      <trkpt lat="42.72041" lon="0.65594">
        <ele>1455.18</ele>
        <time>2015-11-01T16:34:42Z</time>
      </trkpt>
      <trkpt lat="42.72055" lon="0.65578">
        <ele>1455.12</ele>
        <time>2015-11-01T16:34:53Z</time>
      </trkpt>
      <trkpt lat="42.72061" lon="0.65569">
        <ele>1455.27</ele>
        <time>2015-11-01T16:35:00Z</time>
      </trkpt>
      <trkpt lat="42.72091" lon="0.65533">
        <ele>1452.93</ele>
        <time>2015-11-01T16:35:24Z</time>
      </trkpt>
      <trkpt lat="42.72099" lon="0.65502">
        <ele>1452.07</ele>
        <time>2015-11-01T16:35:46Z</time>
      </trkpt>
      <trkpt lat="42.72103" lon="0.65489">
        <ele>1451.75</ele>
        <time>2015-11-01T16:35:53Z</time>
      </trkpt>
      <trkpt lat="42.72104" lon="0.65485">
        <ele>1451.91</ele>
        <time>2015-11-01T16:35:56Z</time>
      </trkpt>
      <trkpt lat="42.72108" lon="0.65468">
        <ele>1451.73</ele>
        <time>2015-11-01T16:36:07Z</time>
      </trkpt>
      <trkpt lat="42.72113" lon="0.65458">
        <ele>1451.4</ele>
        <time>2015-11-01T16:36:13Z</time>
      </trkpt>
      <trkpt lat="42.72115" lon="0.65453">
        <ele>1451.06</ele>
        <time>2015-11-01T16:36:17Z</time>
      </trkpt>
      <trkpt lat="42.72119" lon="0.65447">
        <ele>1450.65</ele>
        <time>2015-11-01T16:36:21Z</time>
      </trkpt>
      <trkpt lat="42.72138" lon="0.65426">
        <ele>1447.37</ele>
        <time>2015-11-01T16:36:37Z</time>
      </trkpt>
      <trkpt lat="42.72148" lon="0.6541">
        <ele>1444.35</ele>
        <time>2015-11-01T16:36:48Z</time>
      </trkpt>
      <trkpt lat="42.72149" lon="0.65408">
        <ele>1444.07</ele>
        <time>2015-11-01T16:36:49Z</time>
      </trkpt>
      <trkpt lat="42.72149" lon="0.65399">
        <ele>1442.96</ele>
        <time>2015-11-01T16:36:54Z</time>
      </trkpt>
      <trkpt lat="42.72151" lon="0.65392">
        <ele>1442.25</ele>
        <time>2015-11-01T16:36:58Z</time>
      </trkpt>
      <trkpt lat="42.72162" lon="0.65376">
        <ele>1441.32</ele>
        <time>2015-11-01T16:37:12Z</time>
      </trkpt>
      <trkpt lat="42.72169" lon="0.65366">
        <ele>1440.77</ele>
        <time>2015-11-01T16:37:25Z</time>
      </trkpt>
      <trkpt lat="42.72166" lon="0.65366">
        <ele>1440.65</ele>
        <time>2015-11-01T16:37:49Z</time>
      </trkpt>
      <trkpt lat="42.72169" lon="0.65368">
        <ele>1440.75</ele>
        <time>2015-11-01T16:38:12Z</time>
      </trkpt>
      <trkpt lat="42.72172" lon="0.65369">
        <ele>1440.62</ele>
        <time>2015-11-01T16:38:22Z</time>
      </trkpt>
      <trkpt lat="42.72165" lon="0.65364">
        <ele>1440.55</ele>
        <time>2015-11-01T16:38:41Z</time>
      </trkpt>
      <trkpt lat="42.72158" lon="0.65368">
        <ele>1440.64</ele>
        <time>2015-11-01T16:39:08Z</time>
      </trkpt>
      <trkpt lat="42.72157" lon="0.65368">
        <ele>1440.64</ele>
        <time>2015-11-01T16:39:09Z</time>
      </trkpt>
      <trkpt lat="42.72155" lon="0.65368">
        <ele>1440.8</ele>
        <time>2015-11-01T16:39:11Z</time>
      </trkpt>
      <trkpt lat="42.72153" lon="0.65367">
        <ele>1440.78</ele>
        <time>2015-11-01T16:39:15Z</time>
      </trkpt>
      <trkpt lat="42.72152" lon="0.65363">
        <ele>1441.11</ele>
        <time>2015-11-01T16:39:41Z</time>
      </trkpt>
      <trkpt lat="42.72157" lon="0.65361">
        <ele>1441</ele>
        <time>2015-11-01T16:40:07Z</time>
      </trkpt>
      <trkpt lat="42.72159" lon="0.65362">
        <ele>1440.92</ele>
        <time>2015-11-01T16:40:27Z</time>
      </trkpt>
      <trkpt lat="42.7216" lon="0.65363">
        <ele>1440.99</ele>
        <time>2015-11-01T16:40:51Z</time>
      </trkpt>
      <trkpt lat="42.72161" lon="0.65364">
        <ele>1441.45</ele>
        <time>2015-11-01T16:40:56Z</time>
      </trkpt>
    </trkseg>
  </trk>
</gpx>